<?xml version="1.0" encoding="UTF-8" standalone="no" ?>
<gpx xmlns="http://www.topografix.com/GPX/1/1" xmlns:xsi="http://www.w3.org/2001/XMLSchema-instance" xsi:schemaLocation="http://www.topografix.com/GPX/1/1 http://www.topografix.com/GPX/1/1/gpx.xsd" version="1.1" creator="VisuGPX - https://www.visugpx.com">
  <metadata>
    <name>De Port-la-Forêt à Mousterlin gravel... </name>
    <desc><![CDATA[En passant par Fouesnant, Beg-Meil et Cap Coz... De superbes pistes dans le marais de Mousterlin et après Cap Coz... ]]></desc>
  </metadata>
  <trk>
    <name><![CDATA[De Port-la-Forêt à Mousterlin gravel... _1]]></name>
    <trkseg>
      <trkpt lat="47.90934" lon="-3.97761">
        <ele>5.6</ele>
        <time>2023-09-15T12:30:25Z</time>
      </trkpt>
      <trkpt lat="47.90934" lon="-3.97761">
        <ele>5.6</ele>
        <time>2023-09-15T12:30:26Z</time>
      </trkpt>
      <trkpt lat="47.90934" lon="-3.97761">
        <ele>5.6</ele>
        <time>2023-09-15T12:30:28Z</time>
      </trkpt>
      <trkpt lat="47.90934" lon="-3.97761">
        <ele>5.6</ele>
        <time>2023-09-15T12:30:35Z</time>
      </trkpt>
      <trkpt lat="47.90934" lon="-3.97759">
        <ele>5.6</ele>
        <time>2023-09-15T12:30:38Z</time>
      </trkpt>
      <trkpt lat="47.90936" lon="-3.97755">
        <ele>5.6</ele>
        <time>2023-09-15T12:30:45Z</time>
      </trkpt>
      <trkpt lat="47.90939" lon="-3.97738">
        <ele>5.8</ele>
        <time>2023-09-15T12:30:52Z</time>
      </trkpt>
      <trkpt lat="47.90946" lon="-3.97723">
        <ele>6</ele>
        <time>2023-09-15T12:30:59Z</time>
      </trkpt>
      <trkpt lat="47.90952" lon="-3.97717">
        <ele>6.2</ele>
        <time>2023-09-15T12:31:03Z</time>
      </trkpt>
      <trkpt lat="47.90952" lon="-3.97714">
        <ele>6.2</ele>
        <time>2023-09-15T12:31:04Z</time>
      </trkpt>
      <trkpt lat="47.90949" lon="-3.97703">
        <ele>6.6</ele>
        <time>2023-09-15T12:31:09Z</time>
      </trkpt>
      <trkpt lat="47.90938" lon="-3.97699">
        <ele>7</ele>
        <time>2023-09-15T12:31:15Z</time>
      </trkpt>
      <trkpt lat="47.90921" lon="-3.97697">
        <ele>7</ele>
        <time>2023-09-15T12:31:22Z</time>
      </trkpt>
      <trkpt lat="47.90904" lon="-3.97697">
        <ele>7</ele>
        <time>2023-09-15T12:31:29Z</time>
      </trkpt>
      <trkpt lat="47.90898" lon="-3.97696">
        <ele>7.6</ele>
        <time>2023-09-15T12:31:33Z</time>
      </trkpt>
      <trkpt lat="47.90896" lon="-3.97696">
        <ele>7.6</ele>
        <time>2023-09-15T12:31:34Z</time>
      </trkpt>
      <trkpt lat="47.90893" lon="-3.97695">
        <ele>7.8</ele>
        <time>2023-09-15T12:31:35Z</time>
      </trkpt>
      <trkpt lat="47.90891" lon="-3.97695">
        <ele>7.8</ele>
        <time>2023-09-15T12:31:36Z</time>
      </trkpt>
      <trkpt lat="47.90884" lon="-3.97692">
        <ele>8.2</ele>
        <time>2023-09-15T12:31:39Z</time>
      </trkpt>
      <trkpt lat="47.90877" lon="-3.9769">
        <ele>8.8</ele>
        <time>2023-09-15T12:31:43Z</time>
      </trkpt>
      <trkpt lat="47.9087" lon="-3.97688">
        <ele>9.2</ele>
        <time>2023-09-15T12:31:47Z</time>
      </trkpt>
      <trkpt lat="47.90865" lon="-3.97688">
        <ele>9.2</ele>
        <time>2023-09-15T12:31:49Z</time>
      </trkpt>
      <trkpt lat="47.90862" lon="-3.97688">
        <ele>9.2</ele>
        <time>2023-09-15T12:31:50Z</time>
      </trkpt>
      <trkpt lat="47.90837" lon="-3.97682">
        <ele>9.8</ele>
        <time>2023-09-15T12:32:00Z</time>
      </trkpt>
      <trkpt lat="47.90823" lon="-3.97679">
        <ele>10.2</ele>
        <time>2023-09-15T12:32:06Z</time>
      </trkpt>
      <trkpt lat="47.90814" lon="-3.97677">
        <ele>10.2</ele>
        <time>2023-09-15T12:32:10Z</time>
      </trkpt>
      <trkpt lat="47.90803" lon="-3.97674">
        <ele>10.4</ele>
        <time>2023-09-15T12:32:15Z</time>
      </trkpt>
      <trkpt lat="47.90797" lon="-3.97673">
        <ele>10.4</ele>
        <time>2023-09-15T12:32:17Z</time>
      </trkpt>
      <trkpt lat="47.90774" lon="-3.97672">
        <ele>10.6</ele>
        <time>2023-09-15T12:32:25Z</time>
      </trkpt>
      <trkpt lat="47.90758" lon="-3.97671">
        <ele>11</ele>
        <time>2023-09-15T12:32:31Z</time>
      </trkpt>
      <trkpt lat="47.90735" lon="-3.97679">
        <ele>11.2</ele>
        <time>2023-09-15T12:32:38Z</time>
      </trkpt>
      <trkpt lat="47.90709" lon="-3.97695">
        <ele>10.6</ele>
        <time>2023-09-15T12:32:46Z</time>
      </trkpt>
      <trkpt lat="47.9069" lon="-3.97704">
        <ele>9.8</ele>
        <time>2023-09-15T12:32:51Z</time>
      </trkpt>
      <trkpt lat="47.90676" lon="-3.97708">
        <ele>9.4</ele>
        <time>2023-09-15T12:32:54Z</time>
      </trkpt>
      <trkpt lat="47.90671" lon="-3.97708">
        <ele>9.2</ele>
        <time>2023-09-15T12:32:55Z</time>
      </trkpt>
      <trkpt lat="47.90645" lon="-3.97711">
        <ele>7.6</ele>
        <time>2023-09-15T12:33:00Z</time>
      </trkpt>
      <trkpt lat="47.9062" lon="-3.97714">
        <ele>6.6</ele>
        <time>2023-09-15T12:33:04Z</time>
      </trkpt>
      <trkpt lat="47.90614" lon="-3.97713">
        <ele>6.4</ele>
        <time>2023-09-15T12:33:05Z</time>
      </trkpt>
      <trkpt lat="47.90609" lon="-3.97712">
        <ele>5.8</ele>
        <time>2023-09-15T12:33:06Z</time>
      </trkpt>
      <trkpt lat="47.90604" lon="-3.9771">
        <ele>5.4</ele>
        <time>2023-09-15T12:33:07Z</time>
      </trkpt>
      <trkpt lat="47.90593" lon="-3.97701">
        <ele>5</ele>
        <time>2023-09-15T12:33:10Z</time>
      </trkpt>
      <trkpt lat="47.90587" lon="-3.97694">
        <ele>5.2</ele>
        <time>2023-09-15T12:33:14Z</time>
      </trkpt>
      <trkpt lat="47.90576" lon="-3.97685">
        <ele>5.4</ele>
        <time>2023-09-15T12:33:19Z</time>
      </trkpt>
      <trkpt lat="47.90567" lon="-3.97679">
        <ele>5.6</ele>
        <time>2023-09-15T12:33:25Z</time>
      </trkpt>
      <trkpt lat="47.90566" lon="-3.97678">
        <ele>5.8</ele>
        <time>2023-09-15T12:33:32Z</time>
      </trkpt>
      <trkpt lat="47.90566" lon="-3.97678">
        <ele>5.8</ele>
        <time>2023-09-15T12:33:33Z</time>
      </trkpt>
      <trkpt lat="47.90566" lon="-3.97678">
        <ele>5.8</ele>
        <time>2023-09-15T12:33:34Z</time>
      </trkpt>
      <trkpt lat="47.90566" lon="-3.97678">
        <ele>5.8</ele>
        <time>2023-09-15T12:33:37Z</time>
      </trkpt>
      <trkpt lat="47.90565" lon="-3.97679">
        <ele>5.8</ele>
        <time>2023-09-15T12:33:46Z</time>
      </trkpt>
      <trkpt lat="47.90565" lon="-3.97679">
        <ele>5.8</ele>
        <time>2023-09-15T12:33:48Z</time>
      </trkpt>
      <trkpt lat="47.90564" lon="-3.97679">
        <ele>5.8</ele>
        <time>2023-09-15T12:33:54Z</time>
      </trkpt>
      <trkpt lat="47.90566" lon="-3.97681">
        <ele>5.8</ele>
        <time>2023-09-15T12:33:56Z</time>
      </trkpt>
      <trkpt lat="47.90575" lon="-3.97684">
        <ele>5.4</ele>
        <time>2023-09-15T12:34:00Z</time>
      </trkpt>
      <trkpt lat="47.9058" lon="-3.97687">
        <ele>5.4</ele>
        <time>2023-09-15T12:34:02Z</time>
      </trkpt>
      <trkpt lat="47.90584" lon="-3.97695">
        <ele>5.4</ele>
        <time>2023-09-15T12:34:05Z</time>
      </trkpt>
      <trkpt lat="47.90583" lon="-3.97696">
        <ele>5.4</ele>
        <time>2023-09-15T12:34:06Z</time>
      </trkpt>
      <trkpt lat="47.90579" lon="-3.97694">
        <ele>5.4</ele>
        <time>2023-09-15T12:34:12Z</time>
      </trkpt>
      <trkpt lat="47.90578" lon="-3.97694">
        <ele>5.4</ele>
        <time>2023-09-15T12:34:13Z</time>
      </trkpt>
      <trkpt lat="47.90573" lon="-3.97693">
        <ele>5.4</ele>
        <time>2023-09-15T12:34:17Z</time>
      </trkpt>
      <trkpt lat="47.90566" lon="-3.97693">
        <ele>5.4</ele>
        <time>2023-09-15T12:34:23Z</time>
      </trkpt>
      <trkpt lat="47.90565" lon="-3.97693">
        <ele>5.4</ele>
        <time>2023-09-15T12:34:24Z</time>
      </trkpt>
      <trkpt lat="47.90556" lon="-3.97695">
        <ele>5.4</ele>
        <time>2023-09-15T12:34:31Z</time>
      </trkpt>
      <trkpt lat="47.90542" lon="-3.97707">
        <ele>5.4</ele>
        <time>2023-09-15T12:34:42Z</time>
      </trkpt>
      <trkpt lat="47.90536" lon="-3.97711">
        <ele>5.4</ele>
        <time>2023-09-15T12:34:49Z</time>
      </trkpt>
      <trkpt lat="47.90535" lon="-3.9771">
        <ele>5.4</ele>
        <time>2023-09-15T12:34:51Z</time>
      </trkpt>
      <trkpt lat="47.90529" lon="-3.97707">
        <ele>5.6</ele>
        <time>2023-09-15T12:34:56Z</time>
      </trkpt>
      <trkpt lat="47.90524" lon="-3.97709">
        <ele>5.6</ele>
        <time>2023-09-15T12:34:59Z</time>
      </trkpt>
      <trkpt lat="47.90516" lon="-3.97703">
        <ele>5.6</ele>
        <time>2023-09-15T12:35:06Z</time>
      </trkpt>
      <trkpt lat="47.90507" lon="-3.97694">
        <ele>5.8</ele>
        <time>2023-09-15T12:35:15Z</time>
      </trkpt>
      <trkpt lat="47.90498" lon="-3.97692">
        <ele>6.2</ele>
        <time>2023-09-15T12:35:22Z</time>
      </trkpt>
      <trkpt lat="47.90496" lon="-3.97692">
        <ele>6.4</ele>
        <time>2023-09-15T12:35:23Z</time>
      </trkpt>
      <trkpt lat="47.90491" lon="-3.97693">
        <ele>6.6</ele>
        <time>2023-09-15T12:35:27Z</time>
      </trkpt>
      <trkpt lat="47.90488" lon="-3.97695">
        <ele>6.8</ele>
        <time>2023-09-15T12:35:30Z</time>
      </trkpt>
      <trkpt lat="47.90478" lon="-3.97696">
        <ele>6.8</ele>
        <time>2023-09-15T12:35:38Z</time>
      </trkpt>
      <trkpt lat="47.90475" lon="-3.97694">
        <ele>6.8</ele>
        <time>2023-09-15T12:35:42Z</time>
      </trkpt>
      <trkpt lat="47.90474" lon="-3.97694">
        <ele>6.8</ele>
        <time>2023-09-15T12:35:44Z</time>
      </trkpt>
      <trkpt lat="47.90465" lon="-3.97688">
        <ele>6.8</ele>
        <time>2023-09-15T12:35:51Z</time>
      </trkpt>
      <trkpt lat="47.90458" lon="-3.97678">
        <ele>7</ele>
        <time>2023-09-15T12:35:59Z</time>
      </trkpt>
      <trkpt lat="47.90449" lon="-3.97671">
        <ele>6.8</ele>
        <time>2023-09-15T12:36:08Z</time>
      </trkpt>
      <trkpt lat="47.9044" lon="-3.97665">
        <ele>6.8</ele>
        <time>2023-09-15T12:36:16Z</time>
      </trkpt>
      <trkpt lat="47.90432" lon="-3.97664">
        <ele>6.4</ele>
        <time>2023-09-15T12:36:23Z</time>
      </trkpt>
      <trkpt lat="47.90423" lon="-3.97658">
        <ele>6</ele>
        <time>2023-09-15T12:36:32Z</time>
      </trkpt>
      <trkpt lat="47.90418" lon="-3.97653">
        <ele>6</ele>
        <time>2023-09-15T12:36:40Z</time>
      </trkpt>
      <trkpt lat="47.90405" lon="-3.97642">
        <ele>6</ele>
        <time>2023-09-15T12:36:47Z</time>
      </trkpt>
      <trkpt lat="47.90399" lon="-3.97636">
        <ele>6</ele>
        <time>2023-09-15T12:36:52Z</time>
      </trkpt>
      <trkpt lat="47.90395" lon="-3.97633">
        <ele>6</ele>
        <time>2023-09-15T12:36:55Z</time>
      </trkpt>
      <trkpt lat="47.90387" lon="-3.97628">
        <ele>5.8</ele>
        <time>2023-09-15T12:37:02Z</time>
      </trkpt>
      <trkpt lat="47.9038" lon="-3.97623">
        <ele>5.6</ele>
        <time>2023-09-15T12:37:10Z</time>
      </trkpt>
      <trkpt lat="47.90379" lon="-3.97622">
        <ele>5.6</ele>
        <time>2023-09-15T12:37:12Z</time>
      </trkpt>
      <trkpt lat="47.90376" lon="-3.9762">
        <ele>5.6</ele>
        <time>2023-09-15T12:37:16Z</time>
      </trkpt>
      <trkpt lat="47.90372" lon="-3.97619">
        <ele>5.6</ele>
        <time>2023-09-15T12:37:20Z</time>
      </trkpt>
      <trkpt lat="47.90363" lon="-3.97616">
        <ele>5.6</ele>
        <time>2023-09-15T12:37:28Z</time>
      </trkpt>
      <trkpt lat="47.90355" lon="-3.9761">
        <ele>5.8</ele>
        <time>2023-09-15T12:37:36Z</time>
      </trkpt>
      <trkpt lat="47.90351" lon="-3.97606">
        <ele>6</ele>
        <time>2023-09-15T12:37:44Z</time>
      </trkpt>
      <trkpt lat="47.90344" lon="-3.97607">
        <ele>6</ele>
        <time>2023-09-15T12:37:52Z</time>
      </trkpt>
      <trkpt lat="47.90334" lon="-3.97603">
        <ele>5.8</ele>
        <time>2023-09-15T12:38:00Z</time>
      </trkpt>
      <trkpt lat="47.90329" lon="-3.97599">
        <ele>5.8</ele>
        <time>2023-09-15T12:38:05Z</time>
      </trkpt>
      <trkpt lat="47.90327" lon="-3.97597">
        <ele>5.8</ele>
        <time>2023-09-15T12:38:07Z</time>
      </trkpt>
      <trkpt lat="47.90325" lon="-3.97596">
        <ele>5.8</ele>
        <time>2023-09-15T12:38:08Z</time>
      </trkpt>
      <trkpt lat="47.90314" lon="-3.97591">
        <ele>5.8</ele>
        <time>2023-09-15T12:38:16Z</time>
      </trkpt>
      <trkpt lat="47.90308" lon="-3.97587">
        <ele>6.2</ele>
        <time>2023-09-15T12:38:22Z</time>
      </trkpt>
      <trkpt lat="47.90305" lon="-3.97584">
        <ele>6.2</ele>
        <time>2023-09-15T12:38:25Z</time>
      </trkpt>
      <trkpt lat="47.90297" lon="-3.97578">
        <ele>6.2</ele>
        <time>2023-09-15T12:38:33Z</time>
      </trkpt>
      <trkpt lat="47.90289" lon="-3.97573">
        <ele>6.2</ele>
        <time>2023-09-15T12:38:42Z</time>
      </trkpt>
      <trkpt lat="47.90279" lon="-3.97567">
        <ele>6.2</ele>
        <time>2023-09-15T12:38:52Z</time>
      </trkpt>
      <trkpt lat="47.90278" lon="-3.97568">
        <ele>6.2</ele>
        <time>2023-09-15T12:38:53Z</time>
      </trkpt>
      <trkpt lat="47.90268" lon="-3.97567">
        <ele>6.2</ele>
        <time>2023-09-15T12:39:00Z</time>
      </trkpt>
      <trkpt lat="47.90258" lon="-3.97561">
        <ele>6.6</ele>
        <time>2023-09-15T12:39:08Z</time>
      </trkpt>
      <trkpt lat="47.90249" lon="-3.97559">
        <ele>6.8</ele>
        <time>2023-09-15T12:39:16Z</time>
      </trkpt>
      <trkpt lat="47.90247" lon="-3.97559">
        <ele>6.8</ele>
        <time>2023-09-15T12:39:18Z</time>
      </trkpt>
      <trkpt lat="47.90237" lon="-3.97558">
        <ele>6.6</ele>
        <time>2023-09-15T12:39:26Z</time>
      </trkpt>
      <trkpt lat="47.90224" lon="-3.97558">
        <ele>6.6</ele>
        <time>2023-09-15T12:39:35Z</time>
      </trkpt>
      <trkpt lat="47.90211" lon="-3.97555">
        <ele>6.6</ele>
        <time>2023-09-15T12:39:44Z</time>
      </trkpt>
      <trkpt lat="47.90201" lon="-3.97553">
        <ele>6.8</ele>
        <time>2023-09-15T12:39:52Z</time>
      </trkpt>
      <trkpt lat="47.90195" lon="-3.97553">
        <ele>6.8</ele>
        <time>2023-09-15T12:39:57Z</time>
      </trkpt>
      <trkpt lat="47.9019" lon="-3.97555">
        <ele>6.8</ele>
        <time>2023-09-15T12:40:00Z</time>
      </trkpt>
      <trkpt lat="47.90183" lon="-3.9756">
        <ele>6.8</ele>
        <time>2023-09-15T12:40:09Z</time>
      </trkpt>
      <trkpt lat="47.90183" lon="-3.97558">
        <ele>6.8</ele>
        <time>2023-09-15T12:40:12Z</time>
      </trkpt>
      <trkpt lat="47.90183" lon="-3.97557">
        <ele>6.8</ele>
        <time>2023-09-15T12:40:13Z</time>
      </trkpt>
      <trkpt lat="47.90182" lon="-3.97555">
        <ele>6.8</ele>
        <time>2023-09-15T12:40:14Z</time>
      </trkpt>
      <trkpt lat="47.9018" lon="-3.97552">
        <ele>6.4</ele>
        <time>2023-09-15T12:40:17Z</time>
      </trkpt>
      <trkpt lat="47.90179" lon="-3.97549">
        <ele>6.4</ele>
        <time>2023-09-15T12:40:19Z</time>
      </trkpt>
      <trkpt lat="47.90178" lon="-3.97547">
        <ele>6.4</ele>
        <time>2023-09-15T12:40:20Z</time>
      </trkpt>
      <trkpt lat="47.90176" lon="-3.97546">
        <ele>6.4</ele>
        <time>2023-09-15T12:40:21Z</time>
      </trkpt>
      <trkpt lat="47.90175" lon="-3.97545">
        <ele>6.4</ele>
        <time>2023-09-15T12:40:22Z</time>
      </trkpt>
      <trkpt lat="47.90174" lon="-3.97541">
        <ele>6.8</ele>
        <time>2023-09-15T12:40:27Z</time>
      </trkpt>
      <trkpt lat="47.90175" lon="-3.97527">
        <ele>6.8</ele>
        <time>2023-09-15T12:40:33Z</time>
      </trkpt>
      <trkpt lat="47.90172" lon="-3.9751">
        <ele>6.8</ele>
        <time>2023-09-15T12:40:39Z</time>
      </trkpt>
      <trkpt lat="47.90171" lon="-3.97505">
        <ele>6.6</ele>
        <time>2023-09-15T12:40:45Z</time>
      </trkpt>
      <trkpt lat="47.9017" lon="-3.97505">
        <ele>6.6</ele>
        <time>2023-09-15T12:40:52Z</time>
      </trkpt>
      <trkpt lat="47.9017" lon="-3.97506">
        <ele>6.6</ele>
        <time>2023-09-15T12:40:53Z</time>
      </trkpt>
      <trkpt lat="47.90169" lon="-3.97507">
        <ele>6.4</ele>
        <time>2023-09-15T12:41:02Z</time>
      </trkpt>
      <trkpt lat="47.9017" lon="-3.97506">
        <ele>6.4</ele>
        <time>2023-09-15T12:41:08Z</time>
      </trkpt>
      <trkpt lat="47.9017" lon="-3.97507">
        <ele>7.2</ele>
        <time>2023-09-15T12:41:12Z</time>
      </trkpt>
      <trkpt lat="47.9017" lon="-3.97507">
        <ele>6.4</ele>
        <time>2023-09-15T12:41:20Z</time>
      </trkpt>
      <trkpt lat="47.90169" lon="-3.97507">
        <ele>6.4</ele>
        <time>2023-09-15T12:41:26Z</time>
      </trkpt>
      <trkpt lat="47.9017" lon="-3.97502">
        <ele>6.2</ele>
        <time>2023-09-15T12:41:33Z</time>
      </trkpt>
      <trkpt lat="47.90172" lon="-3.97501">
        <ele>6.4</ele>
        <time>2023-09-15T12:41:34Z</time>
      </trkpt>
      <trkpt lat="47.90174" lon="-3.97503">
        <ele>6.4</ele>
        <time>2023-09-15T12:41:36Z</time>
      </trkpt>
      <trkpt lat="47.90175" lon="-3.97506">
        <ele>6.4</ele>
        <time>2023-09-15T12:41:37Z</time>
      </trkpt>
      <trkpt lat="47.90175" lon="-3.9753">
        <ele>6.4</ele>
        <time>2023-09-15T12:41:43Z</time>
      </trkpt>
      <trkpt lat="47.90162" lon="-3.97554">
        <ele>6.2</ele>
        <time>2023-09-15T12:41:49Z</time>
      </trkpt>
      <trkpt lat="47.90142" lon="-3.97583">
        <ele>5.8</ele>
        <time>2023-09-15T12:41:57Z</time>
      </trkpt>
      <trkpt lat="47.9014" lon="-3.97586">
        <ele>5.8</ele>
        <time>2023-09-15T12:41:58Z</time>
      </trkpt>
      <trkpt lat="47.90126" lon="-3.97616">
        <ele>5.8</ele>
        <time>2023-09-15T12:42:05Z</time>
      </trkpt>
      <trkpt lat="47.90114" lon="-3.97649">
        <ele>5.8</ele>
        <time>2023-09-15T12:42:12Z</time>
      </trkpt>
      <trkpt lat="47.90111" lon="-3.97661">
        <ele>5.6</ele>
        <time>2023-09-15T12:42:14Z</time>
      </trkpt>
      <trkpt lat="47.9011" lon="-3.97678">
        <ele>5.6</ele>
        <time>2023-09-15T12:42:17Z</time>
      </trkpt>
      <trkpt lat="47.90108" lon="-3.97685">
        <ele>5.6</ele>
        <time>2023-09-15T12:42:19Z</time>
      </trkpt>
      <trkpt lat="47.90109" lon="-3.97693">
        <ele>5.8</ele>
        <time>2023-09-15T12:42:22Z</time>
      </trkpt>
      <trkpt lat="47.90111" lon="-3.97715">
        <ele>5.8</ele>
        <time>2023-09-15T12:42:27Z</time>
      </trkpt>
      <trkpt lat="47.90113" lon="-3.97726">
        <ele>5.8</ele>
        <time>2023-09-15T12:42:29Z</time>
      </trkpt>
      <trkpt lat="47.9012" lon="-3.97759">
        <ele>5.6</ele>
        <time>2023-09-15T12:42:35Z</time>
      </trkpt>
      <trkpt lat="47.90132" lon="-3.97787">
        <ele>6</ele>
        <time>2023-09-15T12:42:41Z</time>
      </trkpt>
      <trkpt lat="47.90146" lon="-3.97807">
        <ele>6.2</ele>
        <time>2023-09-15T12:42:48Z</time>
      </trkpt>
      <trkpt lat="47.9015" lon="-3.97812">
        <ele>6.2</ele>
        <time>2023-09-15T12:42:50Z</time>
      </trkpt>
      <trkpt lat="47.90163" lon="-3.97831">
        <ele>6</ele>
        <time>2023-09-15T12:42:57Z</time>
      </trkpt>
      <trkpt lat="47.9017" lon="-3.97836">
        <ele>6.2</ele>
        <time>2023-09-15T12:43:03Z</time>
      </trkpt>
      <trkpt lat="47.90174" lon="-3.97844">
        <ele>6</ele>
        <time>2023-09-15T12:43:10Z</time>
      </trkpt>
      <trkpt lat="47.9018" lon="-3.97853">
        <ele>6</ele>
        <time>2023-09-15T12:43:16Z</time>
      </trkpt>
      <trkpt lat="47.90189" lon="-3.97866">
        <ele>6</ele>
        <time>2023-09-15T12:43:25Z</time>
      </trkpt>
      <trkpt lat="47.90192" lon="-3.9787">
        <ele>6</ele>
        <time>2023-09-15T12:43:28Z</time>
      </trkpt>
      <trkpt lat="47.90194" lon="-3.9787">
        <ele>6</ele>
        <time>2023-09-15T12:43:29Z</time>
      </trkpt>
      <trkpt lat="47.90196" lon="-3.97873">
        <ele>5.8</ele>
        <time>2023-09-15T12:43:31Z</time>
      </trkpt>
      <trkpt lat="47.90205" lon="-3.97886">
        <ele>5.8</ele>
        <time>2023-09-15T12:43:38Z</time>
      </trkpt>
      <trkpt lat="47.90206" lon="-3.97889">
        <ele>5.8</ele>
        <time>2023-09-15T12:43:39Z</time>
      </trkpt>
      <trkpt lat="47.90211" lon="-3.97908">
        <ele>5.8</ele>
        <time>2023-09-15T12:43:45Z</time>
      </trkpt>
      <trkpt lat="47.90213" lon="-3.97915">
        <ele>5.8</ele>
        <time>2023-09-15T12:43:47Z</time>
      </trkpt>
      <trkpt lat="47.90214" lon="-3.97925">
        <ele>5.6</ele>
        <time>2023-09-15T12:43:50Z</time>
      </trkpt>
      <trkpt lat="47.90215" lon="-3.97936">
        <ele>5.6</ele>
        <time>2023-09-15T12:43:54Z</time>
      </trkpt>
      <trkpt lat="47.90219" lon="-3.97952">
        <ele>5.4</ele>
        <time>2023-09-15T12:44:01Z</time>
      </trkpt>
      <trkpt lat="47.90235" lon="-3.97967">
        <ele>5.2</ele>
        <time>2023-09-15T12:44:07Z</time>
      </trkpt>
      <trkpt lat="47.90251" lon="-3.9799">
        <ele>5.2</ele>
        <time>2023-09-15T12:44:14Z</time>
      </trkpt>
      <trkpt lat="47.90255" lon="-3.97995">
        <ele>5.2</ele>
        <time>2023-09-15T12:44:16Z</time>
      </trkpt>
      <trkpt lat="47.90258" lon="-3.97999">
        <ele>5</ele>
        <time>2023-09-15T12:44:19Z</time>
      </trkpt>
      <trkpt lat="47.90256" lon="-3.98">
        <ele>5</ele>
        <time>2023-09-15T12:44:21Z</time>
      </trkpt>
      <trkpt lat="47.90249" lon="-3.98003">
        <ele>4.8</ele>
        <time>2023-09-15T12:44:25Z</time>
      </trkpt>
      <trkpt lat="47.90245" lon="-3.98009">
        <ele>5</ele>
        <time>2023-09-15T12:44:28Z</time>
      </trkpt>
      <trkpt lat="47.90244" lon="-3.98012">
        <ele>5.2</ele>
        <time>2023-09-15T12:44:29Z</time>
      </trkpt>
      <trkpt lat="47.90243" lon="-3.98015">
        <ele>5.2</ele>
        <time>2023-09-15T12:44:30Z</time>
      </trkpt>
      <trkpt lat="47.90242" lon="-3.98018">
        <ele>5.4</ele>
        <time>2023-09-15T12:44:31Z</time>
      </trkpt>
      <trkpt lat="47.90235" lon="-3.98035">
        <ele>6.2</ele>
        <time>2023-09-15T12:44:37Z</time>
      </trkpt>
      <trkpt lat="47.90233" lon="-3.98043">
        <ele>6.6</ele>
        <time>2023-09-15T12:44:40Z</time>
      </trkpt>
      <trkpt lat="47.90229" lon="-3.98054">
        <ele>7.4</ele>
        <time>2023-09-15T12:44:44Z</time>
      </trkpt>
      <trkpt lat="47.90227" lon="-3.98061">
        <ele>8</ele>
        <time>2023-09-15T12:44:47Z</time>
      </trkpt>
      <trkpt lat="47.90224" lon="-3.9807">
        <ele>8.6</ele>
        <time>2023-09-15T12:44:51Z</time>
      </trkpt>
      <trkpt lat="47.90223" lon="-3.98077">
        <ele>9.2</ele>
        <time>2023-09-15T12:44:54Z</time>
      </trkpt>
      <trkpt lat="47.90222" lon="-3.98082">
        <ele>9.6</ele>
        <time>2023-09-15T12:44:56Z</time>
      </trkpt>
      <trkpt lat="47.90219" lon="-3.98097">
        <ele>10.6</ele>
        <time>2023-09-15T12:45:02Z</time>
      </trkpt>
      <trkpt lat="47.90219" lon="-3.981">
        <ele>10.8</ele>
        <time>2023-09-15T12:45:03Z</time>
      </trkpt>
      <trkpt lat="47.90217" lon="-3.98109">
        <ele>11.4</ele>
        <time>2023-09-15T12:45:07Z</time>
      </trkpt>
      <trkpt lat="47.90217" lon="-3.98112">
        <ele>11.8</ele>
        <time>2023-09-15T12:45:08Z</time>
      </trkpt>
      <trkpt lat="47.90216" lon="-3.98118">
        <ele>12.2</ele>
        <time>2023-09-15T12:45:11Z</time>
      </trkpt>
      <trkpt lat="47.90216" lon="-3.98126">
        <ele>12.8</ele>
        <time>2023-09-15T12:45:14Z</time>
      </trkpt>
      <trkpt lat="47.90216" lon="-3.98143">
        <ele>13.8</ele>
        <time>2023-09-15T12:45:20Z</time>
      </trkpt>
      <trkpt lat="47.90216" lon="-3.98145">
        <ele>14</ele>
        <time>2023-09-15T12:45:21Z</time>
      </trkpt>
      <trkpt lat="47.90215" lon="-3.98164">
        <ele>15.2</ele>
        <time>2023-09-15T12:45:28Z</time>
      </trkpt>
      <trkpt lat="47.90214" lon="-3.98167">
        <ele>15.4</ele>
        <time>2023-09-15T12:45:29Z</time>
      </trkpt>
      <trkpt lat="47.9021" lon="-3.98177">
        <ele>16.2</ele>
        <time>2023-09-15T12:45:34Z</time>
      </trkpt>
      <trkpt lat="47.90208" lon="-3.98183">
        <ele>16.6</ele>
        <time>2023-09-15T12:45:37Z</time>
      </trkpt>
      <trkpt lat="47.90202" lon="-3.98192">
        <ele>17.2</ele>
        <time>2023-09-15T12:45:42Z</time>
      </trkpt>
      <trkpt lat="47.902" lon="-3.98195">
        <ele>17.4</ele>
        <time>2023-09-15T12:45:44Z</time>
      </trkpt>
      <trkpt lat="47.90193" lon="-3.98205">
        <ele>18.2</ele>
        <time>2023-09-15T12:45:50Z</time>
      </trkpt>
      <trkpt lat="47.90192" lon="-3.98207">
        <ele>18.4</ele>
        <time>2023-09-15T12:45:51Z</time>
      </trkpt>
      <trkpt lat="47.90182" lon="-3.98216">
        <ele>19.2</ele>
        <time>2023-09-15T12:45:58Z</time>
      </trkpt>
      <trkpt lat="47.9018" lon="-3.98217">
        <ele>19.2</ele>
        <time>2023-09-15T12:45:59Z</time>
      </trkpt>
      <trkpt lat="47.9017" lon="-3.98223">
        <ele>19.8</ele>
        <time>2023-09-15T12:46:06Z</time>
      </trkpt>
      <trkpt lat="47.90166" lon="-3.98225">
        <ele>20</ele>
        <time>2023-09-15T12:46:08Z</time>
      </trkpt>
      <trkpt lat="47.90162" lon="-3.98225">
        <ele>20.2</ele>
        <time>2023-09-15T12:46:10Z</time>
      </trkpt>
      <trkpt lat="47.90156" lon="-3.98228">
        <ele>20.4</ele>
        <time>2023-09-15T12:46:13Z</time>
      </trkpt>
      <trkpt lat="47.90149" lon="-3.98233">
        <ele>20.6</ele>
        <time>2023-09-15T12:46:17Z</time>
      </trkpt>
      <trkpt lat="47.90147" lon="-3.98241">
        <ele>20.8</ele>
        <time>2023-09-15T12:46:20Z</time>
      </trkpt>
      <trkpt lat="47.90145" lon="-3.98248">
        <ele>21.4</ele>
        <time>2023-09-15T12:46:23Z</time>
      </trkpt>
      <trkpt lat="47.90145" lon="-3.9825">
        <ele>21.4</ele>
        <time>2023-09-15T12:46:24Z</time>
      </trkpt>
      <trkpt lat="47.90145" lon="-3.98252">
        <ele>21.4</ele>
        <time>2023-09-15T12:46:25Z</time>
      </trkpt>
      <trkpt lat="47.90144" lon="-3.98257">
        <ele>21.8</ele>
        <time>2023-09-15T12:46:27Z</time>
      </trkpt>
      <trkpt lat="47.90144" lon="-3.98259">
        <ele>21.8</ele>
        <time>2023-09-15T12:46:28Z</time>
      </trkpt>
      <trkpt lat="47.90143" lon="-3.9827">
        <ele>22.6</ele>
        <time>2023-09-15T12:46:33Z</time>
      </trkpt>
      <trkpt lat="47.90145" lon="-3.98276">
        <ele>23</ele>
        <time>2023-09-15T12:46:36Z</time>
      </trkpt>
      <trkpt lat="47.90151" lon="-3.98288">
        <ele>23.6</ele>
        <time>2023-09-15T12:46:43Z</time>
      </trkpt>
      <trkpt lat="47.90152" lon="-3.98289">
        <ele>23.6</ele>
        <time>2023-09-15T12:46:44Z</time>
      </trkpt>
      <trkpt lat="47.90165" lon="-3.9831">
        <ele>24</ele>
        <time>2023-09-15T12:46:55Z</time>
      </trkpt>
      <trkpt lat="47.90173" lon="-3.98321">
        <ele>24.6</ele>
        <time>2023-09-15T12:47:02Z</time>
      </trkpt>
      <trkpt lat="47.90181" lon="-3.98337">
        <ele>25</ele>
        <time>2023-09-15T12:47:10Z</time>
      </trkpt>
      <trkpt lat="47.90184" lon="-3.98344">
        <ele>25.2</ele>
        <time>2023-09-15T12:47:13Z</time>
      </trkpt>
      <trkpt lat="47.90189" lon="-3.98359">
        <ele>25.6</ele>
        <time>2023-09-15T12:47:19Z</time>
      </trkpt>
      <trkpt lat="47.90189" lon="-3.98361">
        <ele>25.6</ele>
        <time>2023-09-15T12:47:20Z</time>
      </trkpt>
      <trkpt lat="47.90189" lon="-3.98381">
        <ele>26.2</ele>
        <time>2023-09-15T12:47:27Z</time>
      </trkpt>
      <trkpt lat="47.90189" lon="-3.98408">
        <ele>26.4</ele>
        <time>2023-09-15T12:47:36Z</time>
      </trkpt>
      <trkpt lat="47.90189" lon="-3.98427">
        <ele>26.6</ele>
        <time>2023-09-15T12:47:44Z</time>
      </trkpt>
      <trkpt lat="47.90189" lon="-3.98429">
        <ele>26.6</ele>
        <time>2023-09-15T12:47:45Z</time>
      </trkpt>
      <trkpt lat="47.90181" lon="-3.98437">
        <ele>26.6</ele>
        <time>2023-09-15T12:47:51Z</time>
      </trkpt>
      <trkpt lat="47.90168" lon="-3.98438">
        <ele>26.6</ele>
        <time>2023-09-15T12:47:57Z</time>
      </trkpt>
      <trkpt lat="47.90145" lon="-3.98436">
        <ele>26.4</ele>
        <time>2023-09-15T12:48:04Z</time>
      </trkpt>
      <trkpt lat="47.90119" lon="-3.98437">
        <ele>25.8</ele>
        <time>2023-09-15T12:48:11Z</time>
      </trkpt>
      <trkpt lat="47.9011" lon="-3.98438">
        <ele>25.6</ele>
        <time>2023-09-15T12:48:13Z</time>
      </trkpt>
      <trkpt lat="47.90088" lon="-3.98441">
        <ele>25</ele>
        <time>2023-09-15T12:48:18Z</time>
      </trkpt>
      <trkpt lat="47.90068" lon="-3.98444">
        <ele>24.6</ele>
        <time>2023-09-15T12:48:23Z</time>
      </trkpt>
      <trkpt lat="47.90061" lon="-3.98446">
        <ele>24.6</ele>
        <time>2023-09-15T12:48:25Z</time>
      </trkpt>
      <trkpt lat="47.90053" lon="-3.98447">
        <ele>24.6</ele>
        <time>2023-09-15T12:48:27Z</time>
      </trkpt>
      <trkpt lat="47.90036" lon="-3.98448">
        <ele>24.4</ele>
        <time>2023-09-15T12:48:31Z</time>
      </trkpt>
      <trkpt lat="47.90019" lon="-3.98449">
        <ele>23.6</ele>
        <time>2023-09-15T12:48:35Z</time>
      </trkpt>
      <trkpt lat="47.90001" lon="-3.98448">
        <ele>23.2</ele>
        <time>2023-09-15T12:48:39Z</time>
      </trkpt>
      <trkpt lat="47.89984" lon="-3.98448">
        <ele>22.8</ele>
        <time>2023-09-15T12:48:42Z</time>
      </trkpt>
      <trkpt lat="47.89973" lon="-3.98448">
        <ele>22</ele>
        <time>2023-09-15T12:48:44Z</time>
      </trkpt>
      <trkpt lat="47.89944" lon="-3.98455">
        <ele>21.6</ele>
        <time>2023-09-15T12:48:49Z</time>
      </trkpt>
      <trkpt lat="47.89926" lon="-3.98458">
        <ele>20.6</ele>
        <time>2023-09-15T12:48:52Z</time>
      </trkpt>
      <trkpt lat="47.899" lon="-3.98462">
        <ele>19.4</ele>
        <time>2023-09-15T12:48:56Z</time>
      </trkpt>
      <trkpt lat="47.89855" lon="-3.98469">
        <ele>18.8</ele>
        <time>2023-09-15T12:49:03Z</time>
      </trkpt>
      <trkpt lat="47.89816" lon="-3.98475">
        <ele>18.6</ele>
        <time>2023-09-15T12:49:10Z</time>
      </trkpt>
      <trkpt lat="47.89806" lon="-3.98479">
        <ele>18.6</ele>
        <time>2023-09-15T12:49:12Z</time>
      </trkpt>
      <trkpt lat="47.89801" lon="-3.98482">
        <ele>18.6</ele>
        <time>2023-09-15T12:49:13Z</time>
      </trkpt>
      <trkpt lat="47.89791" lon="-3.98488">
        <ele>18.6</ele>
        <time>2023-09-15T12:49:15Z</time>
      </trkpt>
      <trkpt lat="47.89786" lon="-3.98492">
        <ele>18.4</ele>
        <time>2023-09-15T12:49:16Z</time>
      </trkpt>
      <trkpt lat="47.89771" lon="-3.98511">
        <ele>17.6</ele>
        <time>2023-09-15T12:49:20Z</time>
      </trkpt>
      <trkpt lat="47.89768" lon="-3.98527">
        <ele>17.6</ele>
        <time>2023-09-15T12:49:24Z</time>
      </trkpt>
      <trkpt lat="47.89764" lon="-3.98551">
        <ele>17.2</ele>
        <time>2023-09-15T12:49:28Z</time>
      </trkpt>
      <trkpt lat="47.89763" lon="-3.98557">
        <ele>17.2</ele>
        <time>2023-09-15T12:49:29Z</time>
      </trkpt>
      <trkpt lat="47.89762" lon="-3.9857">
        <ele>17.2</ele>
        <time>2023-09-15T12:49:31Z</time>
      </trkpt>
      <trkpt lat="47.89761" lon="-3.98592">
        <ele>16.4</ele>
        <time>2023-09-15T12:49:34Z</time>
      </trkpt>
      <trkpt lat="47.8976" lon="-3.98606">
        <ele>16.2</ele>
        <time>2023-09-15T12:49:36Z</time>
      </trkpt>
      <trkpt lat="47.8975" lon="-3.98655">
        <ele>16.2</ele>
        <time>2023-09-15T12:49:43Z</time>
      </trkpt>
      <trkpt lat="47.89745" lon="-3.98691">
        <ele>15.6</ele>
        <time>2023-09-15T12:49:48Z</time>
      </trkpt>
      <trkpt lat="47.89742" lon="-3.9871">
        <ele>15.4</ele>
        <time>2023-09-15T12:49:51Z</time>
      </trkpt>
      <trkpt lat="47.89741" lon="-3.98742">
        <ele>15.6</ele>
        <time>2023-09-15T12:49:56Z</time>
      </trkpt>
      <trkpt lat="47.89739" lon="-3.98763">
        <ele>15.8</ele>
        <time>2023-09-15T12:49:59Z</time>
      </trkpt>
      <trkpt lat="47.89737" lon="-3.98776">
        <ele>16</ele>
        <time>2023-09-15T12:50:01Z</time>
      </trkpt>
      <trkpt lat="47.89733" lon="-3.98809">
        <ele>16</ele>
        <time>2023-09-15T12:50:06Z</time>
      </trkpt>
      <trkpt lat="47.89727" lon="-3.9886">
        <ele>15.6</ele>
        <time>2023-09-15T12:50:15Z</time>
      </trkpt>
      <trkpt lat="47.89726" lon="-3.98877">
        <ele>15</ele>
        <time>2023-09-15T12:50:19Z</time>
      </trkpt>
      <trkpt lat="47.89726" lon="-3.98886">
        <ele>14.8</ele>
        <time>2023-09-15T12:50:22Z</time>
      </trkpt>
      <trkpt lat="47.89726" lon="-3.98888">
        <ele>14.8</ele>
        <time>2023-09-15T12:50:25Z</time>
      </trkpt>
      <trkpt lat="47.89726" lon="-3.98888">
        <ele>14.8</ele>
        <time>2023-09-15T12:50:27Z</time>
      </trkpt>
      <trkpt lat="47.89726" lon="-3.98888">
        <ele>14.8</ele>
        <time>2023-09-15T12:50:28Z</time>
      </trkpt>
      <trkpt lat="47.89726" lon="-3.98888">
        <ele>14.8</ele>
        <time>2023-09-15T12:50:29Z</time>
      </trkpt>
      <trkpt lat="47.89726" lon="-3.98889">
        <ele>14.8</ele>
        <time>2023-09-15T12:50:32Z</time>
      </trkpt>
      <trkpt lat="47.89726" lon="-3.98889">
        <ele>14.6</ele>
        <time>2023-09-15T12:50:38Z</time>
      </trkpt>
      <trkpt lat="47.89726" lon="-3.98889">
        <ele>14.6</ele>
        <time>2023-09-15T12:50:42Z</time>
      </trkpt>
      <trkpt lat="47.89725" lon="-3.98891">
        <ele>14.6</ele>
        <time>2023-09-15T12:50:44Z</time>
      </trkpt>
      <trkpt lat="47.89726" lon="-3.98893">
        <ele>14.6</ele>
        <time>2023-09-15T12:50:45Z</time>
      </trkpt>
      <trkpt lat="47.89726" lon="-3.98896">
        <ele>14.6</ele>
        <time>2023-09-15T12:50:46Z</time>
      </trkpt>
      <trkpt lat="47.89725" lon="-3.98913">
        <ele>14</ele>
        <time>2023-09-15T12:50:50Z</time>
      </trkpt>
      <trkpt lat="47.89725" lon="-3.98918">
        <ele>13.8</ele>
        <time>2023-09-15T12:50:51Z</time>
      </trkpt>
      <trkpt lat="47.89723" lon="-3.98944">
        <ele>12.6</ele>
        <time>2023-09-15T12:50:56Z</time>
      </trkpt>
      <trkpt lat="47.89721" lon="-3.98956">
        <ele>11.6</ele>
        <time>2023-09-15T12:50:58Z</time>
      </trkpt>
      <trkpt lat="47.89719" lon="-3.98975">
        <ele>10.2</ele>
        <time>2023-09-15T12:51:01Z</time>
      </trkpt>
      <trkpt lat="47.89718" lon="-3.98987">
        <ele>9.2</ele>
        <time>2023-09-15T12:51:03Z</time>
      </trkpt>
      <trkpt lat="47.89718" lon="-3.98992">
        <ele>8.8</ele>
        <time>2023-09-15T12:51:04Z</time>
      </trkpt>
      <trkpt lat="47.89717" lon="-3.99">
        <ele>7.8</ele>
        <time>2023-09-15T12:51:06Z</time>
      </trkpt>
      <trkpt lat="47.89715" lon="-3.99009">
        <ele>6.6</ele>
        <time>2023-09-15T12:51:09Z</time>
      </trkpt>
      <trkpt lat="47.89713" lon="-3.99013">
        <ele>6</ele>
        <time>2023-09-15T12:51:12Z</time>
      </trkpt>
      <trkpt lat="47.89715" lon="-3.99019">
        <ele>5.8</ele>
        <time>2023-09-15T12:51:14Z</time>
      </trkpt>
      <trkpt lat="47.89713" lon="-3.99035">
        <ele>5.6</ele>
        <time>2023-09-15T12:51:19Z</time>
      </trkpt>
      <trkpt lat="47.89713" lon="-3.9904">
        <ele>5.6</ele>
        <time>2023-09-15T12:51:20Z</time>
      </trkpt>
      <trkpt lat="47.89711" lon="-3.99065">
        <ele>5</ele>
        <time>2023-09-15T12:51:25Z</time>
      </trkpt>
      <trkpt lat="47.8971" lon="-3.99081">
        <ele>5.2</ele>
        <time>2023-09-15T12:51:28Z</time>
      </trkpt>
      <trkpt lat="47.89709" lon="-3.99087">
        <ele>5.2</ele>
        <time>2023-09-15T12:51:29Z</time>
      </trkpt>
      <trkpt lat="47.89708" lon="-3.99104">
        <ele>5.4</ele>
        <time>2023-09-15T12:51:32Z</time>
      </trkpt>
      <trkpt lat="47.89705" lon="-3.99131">
        <ele>5.4</ele>
        <time>2023-09-15T12:51:37Z</time>
      </trkpt>
      <trkpt lat="47.89705" lon="-3.99142">
        <ele>5.4</ele>
        <time>2023-09-15T12:51:39Z</time>
      </trkpt>
      <trkpt lat="47.89702" lon="-3.99166">
        <ele>5.8</ele>
        <time>2023-09-15T12:51:45Z</time>
      </trkpt>
      <trkpt lat="47.897" lon="-3.99182">
        <ele>6</ele>
        <time>2023-09-15T12:51:49Z</time>
      </trkpt>
      <trkpt lat="47.89698" lon="-3.992">
        <ele>5.8</ele>
        <time>2023-09-15T12:51:53Z</time>
      </trkpt>
      <trkpt lat="47.89697" lon="-3.99215">
        <ele>6.2</ele>
        <time>2023-09-15T12:51:57Z</time>
      </trkpt>
      <trkpt lat="47.89696" lon="-3.99229">
        <ele>6.6</ele>
        <time>2023-09-15T12:52:01Z</time>
      </trkpt>
      <trkpt lat="47.89696" lon="-3.99232">
        <ele>6.6</ele>
        <time>2023-09-15T12:52:02Z</time>
      </trkpt>
      <trkpt lat="47.89698" lon="-3.9925">
        <ele>7.2</ele>
        <time>2023-09-15T12:52:09Z</time>
      </trkpt>
      <trkpt lat="47.897" lon="-3.99256">
        <ele>7.4</ele>
        <time>2023-09-15T12:52:11Z</time>
      </trkpt>
      <trkpt lat="47.89702" lon="-3.99263">
        <ele>7.8</ele>
        <time>2023-09-15T12:52:13Z</time>
      </trkpt>
      <trkpt lat="47.89711" lon="-3.99278">
        <ele>8.4</ele>
        <time>2023-09-15T12:52:17Z</time>
      </trkpt>
      <trkpt lat="47.89718" lon="-3.99285">
        <ele>8.8</ele>
        <time>2023-09-15T12:52:20Z</time>
      </trkpt>
      <trkpt lat="47.89722" lon="-3.99288">
        <ele>9</ele>
        <time>2023-09-15T12:52:22Z</time>
      </trkpt>
      <trkpt lat="47.89726" lon="-3.99291">
        <ele>9.4</ele>
        <time>2023-09-15T12:52:24Z</time>
      </trkpt>
      <trkpt lat="47.89727" lon="-3.99296">
        <ele>9.8</ele>
        <time>2023-09-15T12:52:28Z</time>
      </trkpt>
      <trkpt lat="47.89728" lon="-3.99299">
        <ele>9.8</ele>
        <time>2023-09-15T12:52:30Z</time>
      </trkpt>
      <trkpt lat="47.89728" lon="-3.99304">
        <ele>10.2</ele>
        <time>2023-09-15T12:52:36Z</time>
      </trkpt>
      <trkpt lat="47.89728" lon="-3.99305">
        <ele>10.2</ele>
        <time>2023-09-15T12:52:40Z</time>
      </trkpt>
      <trkpt lat="47.89728" lon="-3.99306">
        <ele>10.4</ele>
        <time>2023-09-15T12:52:41Z</time>
      </trkpt>
      <trkpt lat="47.89727" lon="-3.99305">
        <ele>10.4</ele>
        <time>2023-09-15T12:52:42Z</time>
      </trkpt>
      <trkpt lat="47.89727" lon="-3.99305">
        <ele>10.2</ele>
        <time>2023-09-15T12:52:43Z</time>
      </trkpt>
      <trkpt lat="47.89727" lon="-3.99304">
        <ele>10.2</ele>
        <time>2023-09-15T12:52:46Z</time>
      </trkpt>
      <trkpt lat="47.89736" lon="-3.99309">
        <ele>10.2</ele>
        <time>2023-09-15T12:52:53Z</time>
      </trkpt>
      <trkpt lat="47.8975" lon="-3.99316">
        <ele>10</ele>
        <time>2023-09-15T12:53:01Z</time>
      </trkpt>
      <trkpt lat="47.89761" lon="-3.99322">
        <ele>9.6</ele>
        <time>2023-09-15T12:53:05Z</time>
      </trkpt>
      <trkpt lat="47.89771" lon="-3.99328">
        <ele>9</ele>
        <time>2023-09-15T12:53:08Z</time>
      </trkpt>
      <trkpt lat="47.89776" lon="-3.99331">
        <ele>8.8</ele>
        <time>2023-09-15T12:53:09Z</time>
      </trkpt>
      <trkpt lat="47.89801" lon="-3.99347">
        <ele>8.2</ele>
        <time>2023-09-15T12:53:14Z</time>
      </trkpt>
      <trkpt lat="47.89807" lon="-3.99354">
        <ele>7.8</ele>
        <time>2023-09-15T12:53:16Z</time>
      </trkpt>
      <trkpt lat="47.8981" lon="-3.99359">
        <ele>7.8</ele>
        <time>2023-09-15T12:53:18Z</time>
      </trkpt>
      <trkpt lat="47.89809" lon="-3.99362">
        <ele>7.6</ele>
        <time>2023-09-15T12:53:20Z</time>
      </trkpt>
      <trkpt lat="47.89806" lon="-3.99369">
        <ele>7.4</ele>
        <time>2023-09-15T12:53:23Z</time>
      </trkpt>
      <trkpt lat="47.89798" lon="-3.9939">
        <ele>7.4</ele>
        <time>2023-09-15T12:53:29Z</time>
      </trkpt>
      <trkpt lat="47.89793" lon="-3.99402">
        <ele>7.2</ele>
        <time>2023-09-15T12:53:32Z</time>
      </trkpt>
      <trkpt lat="47.8979" lon="-3.9941">
        <ele>7</ele>
        <time>2023-09-15T12:53:34Z</time>
      </trkpt>
      <trkpt lat="47.89786" lon="-3.99422">
        <ele>7</ele>
        <time>2023-09-15T12:53:37Z</time>
      </trkpt>
      <trkpt lat="47.89779" lon="-3.9944">
        <ele>6.8</ele>
        <time>2023-09-15T12:53:41Z</time>
      </trkpt>
      <trkpt lat="47.89774" lon="-3.99454">
        <ele>6.8</ele>
        <time>2023-09-15T12:53:44Z</time>
      </trkpt>
      <trkpt lat="47.89759" lon="-3.9948">
        <ele>6.6</ele>
        <time>2023-09-15T12:53:51Z</time>
      </trkpt>
      <trkpt lat="47.89752" lon="-3.99501">
        <ele>6.2</ele>
        <time>2023-09-15T12:53:55Z</time>
      </trkpt>
      <trkpt lat="47.89749" lon="-3.99522">
        <ele>6</ele>
        <time>2023-09-15T12:54:00Z</time>
      </trkpt>
      <trkpt lat="47.89747" lon="-3.99539">
        <ele>6.6</ele>
        <time>2023-09-15T12:54:05Z</time>
      </trkpt>
      <trkpt lat="47.89747" lon="-3.99542">
        <ele>6.6</ele>
        <time>2023-09-15T12:54:06Z</time>
      </trkpt>
      <trkpt lat="47.89747" lon="-3.99546">
        <ele>6.8</ele>
        <time>2023-09-15T12:54:07Z</time>
      </trkpt>
      <trkpt lat="47.89746" lon="-3.99551">
        <ele>6.8</ele>
        <time>2023-09-15T12:54:09Z</time>
      </trkpt>
      <trkpt lat="47.89745" lon="-3.99554">
        <ele>6.8</ele>
        <time>2023-09-15T12:54:10Z</time>
      </trkpt>
      <trkpt lat="47.89743" lon="-3.9956">
        <ele>7.2</ele>
        <time>2023-09-15T12:54:12Z</time>
      </trkpt>
      <trkpt lat="47.89737" lon="-3.99578">
        <ele>7.6</ele>
        <time>2023-09-15T12:54:17Z</time>
      </trkpt>
      <trkpt lat="47.89727" lon="-3.99603">
        <ele>7.8</ele>
        <time>2023-09-15T12:54:24Z</time>
      </trkpt>
      <trkpt lat="47.89725" lon="-3.99608">
        <ele>7.8</ele>
        <time>2023-09-15T12:54:25Z</time>
      </trkpt>
      <trkpt lat="47.89717" lon="-3.99635">
        <ele>7.4</ele>
        <time>2023-09-15T12:54:31Z</time>
      </trkpt>
      <trkpt lat="47.89711" lon="-3.99653">
        <ele>7.4</ele>
        <time>2023-09-15T12:54:34Z</time>
      </trkpt>
      <trkpt lat="47.8971" lon="-3.99659">
        <ele>7.4</ele>
        <time>2023-09-15T12:54:35Z</time>
      </trkpt>
      <trkpt lat="47.89706" lon="-3.99682">
        <ele>7.4</ele>
        <time>2023-09-15T12:54:38Z</time>
      </trkpt>
      <trkpt lat="47.89699" lon="-3.99708">
        <ele>6.8</ele>
        <time>2023-09-15T12:54:41Z</time>
      </trkpt>
      <trkpt lat="47.89695" lon="-3.99716">
        <ele>6.6</ele>
        <time>2023-09-15T12:54:42Z</time>
      </trkpt>
      <trkpt lat="47.89692" lon="-3.99723">
        <ele>6</ele>
        <time>2023-09-15T12:54:43Z</time>
      </trkpt>
      <trkpt lat="47.89688" lon="-3.99731">
        <ele>5</ele>
        <time>2023-09-15T12:54:44Z</time>
      </trkpt>
      <trkpt lat="47.89685" lon="-3.99746">
        <ele>4.8</ele>
        <time>2023-09-15T12:54:46Z</time>
      </trkpt>
      <trkpt lat="47.89684" lon="-3.99758">
        <ele>4.8</ele>
        <time>2023-09-15T12:54:48Z</time>
      </trkpt>
      <trkpt lat="47.89677" lon="-3.99773">
        <ele>5.6</ele>
        <time>2023-09-15T12:54:52Z</time>
      </trkpt>
      <trkpt lat="47.89671" lon="-3.99776">
        <ele>6.2</ele>
        <time>2023-09-15T12:54:54Z</time>
      </trkpt>
      <trkpt lat="47.89662" lon="-3.99781">
        <ele>6.4</ele>
        <time>2023-09-15T12:54:57Z</time>
      </trkpt>
      <trkpt lat="47.89645" lon="-3.99795">
        <ele>7.2</ele>
        <time>2023-09-15T12:55:03Z</time>
      </trkpt>
      <trkpt lat="47.89641" lon="-3.998">
        <ele>7.6</ele>
        <time>2023-09-15T12:55:05Z</time>
      </trkpt>
      <trkpt lat="47.89638" lon="-3.99806">
        <ele>8.2</ele>
        <time>2023-09-15T12:55:07Z</time>
      </trkpt>
      <trkpt lat="47.89633" lon="-3.99816">
        <ele>9.2</ele>
        <time>2023-09-15T12:55:11Z</time>
      </trkpt>
      <trkpt lat="47.89631" lon="-3.99818">
        <ele>9.4</ele>
        <time>2023-09-15T12:55:12Z</time>
      </trkpt>
      <trkpt lat="47.89624" lon="-3.99837">
        <ele>10.6</ele>
        <time>2023-09-15T12:55:18Z</time>
      </trkpt>
      <trkpt lat="47.8962" lon="-3.99856">
        <ele>11.6</ele>
        <time>2023-09-15T12:55:23Z</time>
      </trkpt>
      <trkpt lat="47.8962" lon="-3.99865">
        <ele>11.8</ele>
        <time>2023-09-15T12:55:25Z</time>
      </trkpt>
      <trkpt lat="47.8962" lon="-3.99881">
        <ele>12.6</ele>
        <time>2023-09-15T12:55:29Z</time>
      </trkpt>
      <trkpt lat="47.8962" lon="-3.99885">
        <ele>12.8</ele>
        <time>2023-09-15T12:55:30Z</time>
      </trkpt>
      <trkpt lat="47.8962" lon="-3.99892">
        <ele>13.4</ele>
        <time>2023-09-15T12:55:32Z</time>
      </trkpt>
      <trkpt lat="47.8962" lon="-3.99899">
        <ele>13.8</ele>
        <time>2023-09-15T12:55:34Z</time>
      </trkpt>
      <trkpt lat="47.8962" lon="-3.99902">
        <ele>14.2</ele>
        <time>2023-09-15T12:55:35Z</time>
      </trkpt>
      <trkpt lat="47.8962" lon="-3.99915">
        <ele>15.2</ele>
        <time>2023-09-15T12:55:39Z</time>
      </trkpt>
      <trkpt lat="47.89621" lon="-3.99928">
        <ele>16.2</ele>
        <time>2023-09-15T12:55:43Z</time>
      </trkpt>
      <trkpt lat="47.8962" lon="-3.99944">
        <ele>17.2</ele>
        <time>2023-09-15T12:55:48Z</time>
      </trkpt>
      <trkpt lat="47.8962" lon="-3.99951">
        <ele>17.8</ele>
        <time>2023-09-15T12:55:50Z</time>
      </trkpt>
      <trkpt lat="47.89618" lon="-3.99961">
        <ele>18.4</ele>
        <time>2023-09-15T12:55:53Z</time>
      </trkpt>
      <trkpt lat="47.89614" lon="-3.99977">
        <ele>19</ele>
        <time>2023-09-15T12:55:58Z</time>
      </trkpt>
      <trkpt lat="47.89612" lon="-3.99986">
        <ele>19.4</ele>
        <time>2023-09-15T12:56:01Z</time>
      </trkpt>
      <trkpt lat="47.8961" lon="-3.99998">
        <ele>19.6</ele>
        <time>2023-09-15T12:56:05Z</time>
      </trkpt>
      <trkpt lat="47.89609" lon="-4.00005">
        <ele>19.8</ele>
        <time>2023-09-15T12:56:07Z</time>
      </trkpt>
      <trkpt lat="47.89609" lon="-4.00024">
        <ele>20</ele>
        <time>2023-09-15T12:56:11Z</time>
      </trkpt>
      <trkpt lat="47.8961" lon="-4.00038">
        <ele>20</ele>
        <time>2023-09-15T12:56:14Z</time>
      </trkpt>
      <trkpt lat="47.8961" lon="-4.0007">
        <ele>20.2</ele>
        <time>2023-09-15T12:56:21Z</time>
      </trkpt>
      <trkpt lat="47.89604" lon="-4.00104">
        <ele>20.4</ele>
        <time>2023-09-15T12:56:30Z</time>
      </trkpt>
      <trkpt lat="47.89604" lon="-4.00108">
        <ele>20.4</ele>
        <time>2023-09-15T12:56:31Z</time>
      </trkpt>
      <trkpt lat="47.896" lon="-4.00125">
        <ele>20.8</ele>
        <time>2023-09-15T12:56:37Z</time>
      </trkpt>
      <trkpt lat="47.89596" lon="-4.00151">
        <ele>21.2</ele>
        <time>2023-09-15T12:56:45Z</time>
      </trkpt>
      <trkpt lat="47.89588" lon="-4.00162">
        <ele>21.4</ele>
        <time>2023-09-15T12:56:50Z</time>
      </trkpt>
      <trkpt lat="47.89569" lon="-4.00164">
        <ele>21.4</ele>
        <time>2023-09-15T12:56:57Z</time>
      </trkpt>
      <trkpt lat="47.89552" lon="-4.00165">
        <ele>21</ele>
        <time>2023-09-15T12:57:02Z</time>
      </trkpt>
      <trkpt lat="47.89546" lon="-4.00166">
        <ele>21</ele>
        <time>2023-09-15T12:57:04Z</time>
      </trkpt>
      <trkpt lat="47.89543" lon="-4.00166">
        <ele>21</ele>
        <time>2023-09-15T12:57:05Z</time>
      </trkpt>
      <trkpt lat="47.8954" lon="-4.00166">
        <ele>20.8</ele>
        <time>2023-09-15T12:57:06Z</time>
      </trkpt>
      <trkpt lat="47.89534" lon="-4.00166">
        <ele>20.6</ele>
        <time>2023-09-15T12:57:08Z</time>
      </trkpt>
      <trkpt lat="47.89516" lon="-4.00169">
        <ele>20.2</ele>
        <time>2023-09-15T12:57:13Z</time>
      </trkpt>
      <trkpt lat="47.89501" lon="-4.00179">
        <ele>19.4</ele>
        <time>2023-09-15T12:57:17Z</time>
      </trkpt>
      <trkpt lat="47.89501" lon="-4.00183">
        <ele>19.4</ele>
        <time>2023-09-15T12:57:18Z</time>
      </trkpt>
      <trkpt lat="47.895" lon="-4.00199">
        <ele>20</ele>
        <time>2023-09-15T12:57:21Z</time>
      </trkpt>
      <trkpt lat="47.89497" lon="-4.00226">
        <ele>21</ele>
        <time>2023-09-15T12:57:27Z</time>
      </trkpt>
      <trkpt lat="47.89496" lon="-4.00232">
        <ele>21.4</ele>
        <time>2023-09-15T12:57:29Z</time>
      </trkpt>
      <trkpt lat="47.89495" lon="-4.00236">
        <ele>21.6</ele>
        <time>2023-09-15T12:57:30Z</time>
      </trkpt>
      <trkpt lat="47.89494" lon="-4.00249">
        <ele>22.4</ele>
        <time>2023-09-15T12:57:34Z</time>
      </trkpt>
      <trkpt lat="47.89492" lon="-4.00261">
        <ele>23.4</ele>
        <time>2023-09-15T12:57:38Z</time>
      </trkpt>
      <trkpt lat="47.8949" lon="-4.00274">
        <ele>24.4</ele>
        <time>2023-09-15T12:57:42Z</time>
      </trkpt>
      <trkpt lat="47.89489" lon="-4.00277">
        <ele>24.4</ele>
        <time>2023-09-15T12:57:43Z</time>
      </trkpt>
      <trkpt lat="47.89489" lon="-4.0028">
        <ele>24.6</ele>
        <time>2023-09-15T12:57:44Z</time>
      </trkpt>
      <trkpt lat="47.8949" lon="-4.00284">
        <ele>24.8</ele>
        <time>2023-09-15T12:57:45Z</time>
      </trkpt>
      <trkpt lat="47.8949" lon="-4.00292">
        <ele>25.6</ele>
        <time>2023-09-15T12:57:48Z</time>
      </trkpt>
      <trkpt lat="47.89491" lon="-4.00296">
        <ele>26.2</ele>
        <time>2023-09-15T12:57:50Z</time>
      </trkpt>
      <trkpt lat="47.89491" lon="-4.00304">
        <ele>26.8</ele>
        <time>2023-09-15T12:57:53Z</time>
      </trkpt>
      <trkpt lat="47.89493" lon="-4.00315">
        <ele>27.8</ele>
        <time>2023-09-15T12:57:57Z</time>
      </trkpt>
      <trkpt lat="47.89494" lon="-4.00318">
        <ele>28</ele>
        <time>2023-09-15T12:57:58Z</time>
      </trkpt>
      <trkpt lat="47.89497" lon="-4.00334">
        <ele>29</ele>
        <time>2023-09-15T12:58:03Z</time>
      </trkpt>
      <trkpt lat="47.89498" lon="-4.0034">
        <ele>29.2</ele>
        <time>2023-09-15T12:58:05Z</time>
      </trkpt>
      <trkpt lat="47.895" lon="-4.00357">
        <ele>30</ele>
        <time>2023-09-15T12:58:12Z</time>
      </trkpt>
      <trkpt lat="47.895" lon="-4.00365">
        <ele>30.4</ele>
        <time>2023-09-15T12:58:15Z</time>
      </trkpt>
      <trkpt lat="47.89503" lon="-4.00389">
        <ele>31</ele>
        <time>2023-09-15T12:58:23Z</time>
      </trkpt>
      <trkpt lat="47.89503" lon="-4.00409">
        <ele>31.2</ele>
        <time>2023-09-15T12:58:29Z</time>
      </trkpt>
      <trkpt lat="47.89502" lon="-4.00415">
        <ele>31.2</ele>
        <time>2023-09-15T12:58:31Z</time>
      </trkpt>
      <trkpt lat="47.89497" lon="-4.00419">
        <ele>31</ele>
        <time>2023-09-15T12:58:33Z</time>
      </trkpt>
      <trkpt lat="47.89492" lon="-4.00421">
        <ele>31</ele>
        <time>2023-09-15T12:58:35Z</time>
      </trkpt>
      <trkpt lat="47.89477" lon="-4.00428">
        <ele>31.4</ele>
        <time>2023-09-15T12:58:41Z</time>
      </trkpt>
      <trkpt lat="47.8947" lon="-4.00431">
        <ele>32.2</ele>
        <time>2023-09-15T12:58:45Z</time>
      </trkpt>
      <trkpt lat="47.89465" lon="-4.00433">
        <ele>32.6</ele>
        <time>2023-09-15T12:58:48Z</time>
      </trkpt>
      <trkpt lat="47.89464" lon="-4.00434">
        <ele>32.6</ele>
        <time>2023-09-15T12:58:49Z</time>
      </trkpt>
      <trkpt lat="47.89462" lon="-4.00435">
        <ele>32.8</ele>
        <time>2023-09-15T12:58:50Z</time>
      </trkpt>
      <trkpt lat="47.89458" lon="-4.00437">
        <ele>33</ele>
        <time>2023-09-15T12:58:52Z</time>
      </trkpt>
      <trkpt lat="47.89453" lon="-4.00438">
        <ele>33.2</ele>
        <time>2023-09-15T12:58:54Z</time>
      </trkpt>
      <trkpt lat="47.89447" lon="-4.00441">
        <ele>33.8</ele>
        <time>2023-09-15T12:58:57Z</time>
      </trkpt>
      <trkpt lat="47.89438" lon="-4.00446">
        <ele>34.4</ele>
        <time>2023-09-15T12:59:01Z</time>
      </trkpt>
      <trkpt lat="47.89431" lon="-4.00451">
        <ele>35.4</ele>
        <time>2023-09-15T12:59:06Z</time>
      </trkpt>
      <trkpt lat="47.89429" lon="-4.00452">
        <ele>35.6</ele>
        <time>2023-09-15T12:59:07Z</time>
      </trkpt>
      <trkpt lat="47.89426" lon="-4.00454">
        <ele>36</ele>
        <time>2023-09-15T12:59:09Z</time>
      </trkpt>
      <trkpt lat="47.89426" lon="-4.00458">
        <ele>36.8</ele>
        <time>2023-09-15T12:59:12Z</time>
      </trkpt>
      <trkpt lat="47.89425" lon="-4.00462">
        <ele>37.4</ele>
        <time>2023-09-15T12:59:17Z</time>
      </trkpt>
      <trkpt lat="47.89425" lon="-4.00461">
        <ele>37.4</ele>
        <time>2023-09-15T12:59:18Z</time>
      </trkpt>
      <trkpt lat="47.89423" lon="-4.00467">
        <ele>37.6</ele>
        <time>2023-09-15T12:59:23Z</time>
      </trkpt>
      <trkpt lat="47.89426" lon="-4.00476">
        <ele>37.8</ele>
        <time>2023-09-15T12:59:26Z</time>
      </trkpt>
      <trkpt lat="47.89427" lon="-4.00489">
        <ele>38.6</ele>
        <time>2023-09-15T12:59:30Z</time>
      </trkpt>
      <trkpt lat="47.89428" lon="-4.00494">
        <ele>39</ele>
        <time>2023-09-15T12:59:32Z</time>
      </trkpt>
      <trkpt lat="47.89428" lon="-4.00508">
        <ele>40.2</ele>
        <time>2023-09-15T12:59:37Z</time>
      </trkpt>
      <trkpt lat="47.89429" lon="-4.00514">
        <ele>40.4</ele>
        <time>2023-09-15T12:59:39Z</time>
      </trkpt>
      <trkpt lat="47.8943" lon="-4.00526">
        <ele>41.2</ele>
        <time>2023-09-15T12:59:44Z</time>
      </trkpt>
      <trkpt lat="47.8943" lon="-4.00532">
        <ele>41.6</ele>
        <time>2023-09-15T12:59:47Z</time>
      </trkpt>
      <trkpt lat="47.89432" lon="-4.00544">
        <ele>42.2</ele>
        <time>2023-09-15T12:59:53Z</time>
      </trkpt>
      <trkpt lat="47.89433" lon="-4.00547">
        <ele>42.6</ele>
        <time>2023-09-15T12:59:55Z</time>
      </trkpt>
      <trkpt lat="47.89435" lon="-4.00561">
        <ele>43.4</ele>
        <time>2023-09-15T13:00:01Z</time>
      </trkpt>
      <trkpt lat="47.89435" lon="-4.00567">
        <ele>43.6</ele>
        <time>2023-09-15T13:00:03Z</time>
      </trkpt>
      <trkpt lat="47.89434" lon="-4.00583">
        <ele>44.4</ele>
        <time>2023-09-15T13:00:09Z</time>
      </trkpt>
      <trkpt lat="47.89434" lon="-4.00586">
        <ele>44.4</ele>
        <time>2023-09-15T13:00:10Z</time>
      </trkpt>
      <trkpt lat="47.89434" lon="-4.00607">
        <ele>45.6</ele>
        <time>2023-09-15T13:00:18Z</time>
      </trkpt>
      <trkpt lat="47.89435" lon="-4.00615">
        <ele>45.8</ele>
        <time>2023-09-15T13:00:21Z</time>
      </trkpt>
      <trkpt lat="47.89435" lon="-4.00637">
        <ele>46.6</ele>
        <time>2023-09-15T13:00:29Z</time>
      </trkpt>
      <trkpt lat="47.89436" lon="-4.00642">
        <ele>46.8</ele>
        <time>2023-09-15T13:00:31Z</time>
      </trkpt>
      <trkpt lat="47.89435" lon="-4.00668">
        <ele>47.4</ele>
        <time>2023-09-15T13:00:40Z</time>
      </trkpt>
      <trkpt lat="47.89436" lon="-4.0067">
        <ele>47.6</ele>
        <time>2023-09-15T13:00:41Z</time>
      </trkpt>
      <trkpt lat="47.89437" lon="-4.00679">
        <ele>47.8</ele>
        <time>2023-09-15T13:00:44Z</time>
      </trkpt>
      <trkpt lat="47.89437" lon="-4.00685">
        <ele>48</ele>
        <time>2023-09-15T13:00:46Z</time>
      </trkpt>
      <trkpt lat="47.89438" lon="-4.00699">
        <ele>48.4</ele>
        <time>2023-09-15T13:00:51Z</time>
      </trkpt>
      <trkpt lat="47.89438" lon="-4.00707">
        <ele>48.8</ele>
        <time>2023-09-15T13:00:54Z</time>
      </trkpt>
      <trkpt lat="47.89439" lon="-4.00725">
        <ele>49.4</ele>
        <time>2023-09-15T13:01:00Z</time>
      </trkpt>
      <trkpt lat="47.8944" lon="-4.00737">
        <ele>49.8</ele>
        <time>2023-09-15T13:01:04Z</time>
      </trkpt>
      <trkpt lat="47.89442" lon="-4.00759">
        <ele>50.8</ele>
        <time>2023-09-15T13:01:11Z</time>
      </trkpt>
      <trkpt lat="47.89442" lon="-4.00761">
        <ele>51</ele>
        <time>2023-09-15T13:01:12Z</time>
      </trkpt>
      <trkpt lat="47.89446" lon="-4.00785">
        <ele>51.6</ele>
        <time>2023-09-15T13:01:20Z</time>
      </trkpt>
      <trkpt lat="47.89448" lon="-4.00804">
        <ele>52</ele>
        <time>2023-09-15T13:01:26Z</time>
      </trkpt>
      <trkpt lat="47.89449" lon="-4.00815">
        <ele>52.2</ele>
        <time>2023-09-15T13:01:29Z</time>
      </trkpt>
      <trkpt lat="47.89453" lon="-4.00848">
        <ele>52.8</ele>
        <time>2023-09-15T13:01:37Z</time>
      </trkpt>
      <trkpt lat="47.89461" lon="-4.00867">
        <ele>52.8</ele>
        <time>2023-09-15T13:01:42Z</time>
      </trkpt>
      <trkpt lat="47.89476" lon="-4.00891">
        <ele>52</ele>
        <time>2023-09-15T13:01:48Z</time>
      </trkpt>
      <trkpt lat="47.89487" lon="-4.00901">
        <ele>52.6</ele>
        <time>2023-09-15T13:01:53Z</time>
      </trkpt>
      <trkpt lat="47.89491" lon="-4.00906">
        <ele>53</ele>
        <time>2023-09-15T13:01:55Z</time>
      </trkpt>
      <trkpt lat="47.89492" lon="-4.00909">
        <ele>53.2</ele>
        <time>2023-09-15T13:01:56Z</time>
      </trkpt>
      <trkpt lat="47.89494" lon="-4.00914">
        <ele>53.4</ele>
        <time>2023-09-15T13:01:58Z</time>
      </trkpt>
      <trkpt lat="47.89498" lon="-4.0092">
        <ele>53.8</ele>
        <time>2023-09-15T13:02:01Z</time>
      </trkpt>
      <trkpt lat="47.89501" lon="-4.00925">
        <ele>54.2</ele>
        <time>2023-09-15T13:02:03Z</time>
      </trkpt>
      <trkpt lat="47.89509" lon="-4.00928">
        <ele>54.6</ele>
        <time>2023-09-15T13:02:07Z</time>
      </trkpt>
      <trkpt lat="47.89517" lon="-4.00935">
        <ele>55.2</ele>
        <time>2023-09-15T13:02:11Z</time>
      </trkpt>
      <trkpt lat="47.89521" lon="-4.00941">
        <ele>55.8</ele>
        <time>2023-09-15T13:02:14Z</time>
      </trkpt>
      <trkpt lat="47.89525" lon="-4.00954">
        <ele>56.4</ele>
        <time>2023-09-15T13:02:19Z</time>
      </trkpt>
      <trkpt lat="47.89526" lon="-4.00964">
        <ele>56.8</ele>
        <time>2023-09-15T13:02:22Z</time>
      </trkpt>
      <trkpt lat="47.89528" lon="-4.00979">
        <ele>57.4</ele>
        <time>2023-09-15T13:02:27Z</time>
      </trkpt>
      <trkpt lat="47.89528" lon="-4.00986">
        <ele>57.6</ele>
        <time>2023-09-15T13:02:30Z</time>
      </trkpt>
      <trkpt lat="47.89531" lon="-4.01">
        <ele>57.8</ele>
        <time>2023-09-15T13:02:35Z</time>
      </trkpt>
      <trkpt lat="47.89533" lon="-4.01004">
        <ele>57.8</ele>
        <time>2023-09-15T13:02:37Z</time>
      </trkpt>
      <trkpt lat="47.89532" lon="-4.01011">
        <ele>57.8</ele>
        <time>2023-09-15T13:02:43Z</time>
      </trkpt>
      <trkpt lat="47.89522" lon="-4.01016">
        <ele>57.8</ele>
        <time>2023-09-15T13:02:49Z</time>
      </trkpt>
      <trkpt lat="47.89519" lon="-4.01018">
        <ele>58</ele>
        <time>2023-09-15T13:02:52Z</time>
      </trkpt>
      <trkpt lat="47.89512" lon="-4.01022">
        <ele>58</ele>
        <time>2023-09-15T13:02:56Z</time>
      </trkpt>
      <trkpt lat="47.8951" lon="-4.01023">
        <ele>58</ele>
        <time>2023-09-15T13:03:01Z</time>
      </trkpt>
      <trkpt lat="47.89508" lon="-4.01024">
        <ele>58.2</ele>
        <time>2023-09-15T13:03:05Z</time>
      </trkpt>
      <trkpt lat="47.89505" lon="-4.01025">
        <ele>58.2</ele>
        <time>2023-09-15T13:03:07Z</time>
      </trkpt>
      <trkpt lat="47.89504" lon="-4.01027">
        <ele>58.2</ele>
        <time>2023-09-15T13:03:09Z</time>
      </trkpt>
      <trkpt lat="47.89502" lon="-4.01028">
        <ele>58.4</ele>
        <time>2023-09-15T13:03:12Z</time>
      </trkpt>
      <trkpt lat="47.895" lon="-4.0103">
        <ele>58.2</ele>
        <time>2023-09-15T13:03:21Z</time>
      </trkpt>
      <trkpt lat="47.89495" lon="-4.01033">
        <ele>58.2</ele>
        <time>2023-09-15T13:03:28Z</time>
      </trkpt>
      <trkpt lat="47.8949" lon="-4.01039">
        <ele>58.4</ele>
        <time>2023-09-15T13:03:31Z</time>
      </trkpt>
      <trkpt lat="47.89484" lon="-4.01043">
        <ele>58.6</ele>
        <time>2023-09-15T13:03:33Z</time>
      </trkpt>
      <trkpt lat="47.89466" lon="-4.01049">
        <ele>58.6</ele>
        <time>2023-09-15T13:03:39Z</time>
      </trkpt>
      <trkpt lat="47.89463" lon="-4.01051">
        <ele>58.8</ele>
        <time>2023-09-15T13:03:40Z</time>
      </trkpt>
      <trkpt lat="47.89445" lon="-4.01062">
        <ele>59</ele>
        <time>2023-09-15T13:03:47Z</time>
      </trkpt>
      <trkpt lat="47.89428" lon="-4.01075">
        <ele>59.4</ele>
        <time>2023-09-15T13:03:54Z</time>
      </trkpt>
      <trkpt lat="47.89421" lon="-4.01081">
        <ele>59.4</ele>
        <time>2023-09-15T13:03:58Z</time>
      </trkpt>
      <trkpt lat="47.89413" lon="-4.01088">
        <ele>59.6</ele>
        <time>2023-09-15T13:04:02Z</time>
      </trkpt>
      <trkpt lat="47.89403" lon="-4.01107">
        <ele>60.6</ele>
        <time>2023-09-15T13:04:09Z</time>
      </trkpt>
      <trkpt lat="47.89402" lon="-4.01112">
        <ele>61</ele>
        <time>2023-09-15T13:04:11Z</time>
      </trkpt>
      <trkpt lat="47.894" lon="-4.01123">
        <ele>61.2</ele>
        <time>2023-09-15T13:04:17Z</time>
      </trkpt>
      <trkpt lat="47.89401" lon="-4.01126">
        <ele>61.4</ele>
        <time>2023-09-15T13:04:18Z</time>
      </trkpt>
      <trkpt lat="47.89402" lon="-4.01138">
        <ele>61.6</ele>
        <time>2023-09-15T13:04:22Z</time>
      </trkpt>
      <trkpt lat="47.89402" lon="-4.01141">
        <ele>61.8</ele>
        <time>2023-09-15T13:04:23Z</time>
      </trkpt>
      <trkpt lat="47.89403" lon="-4.01152">
        <ele>62</ele>
        <time>2023-09-15T13:04:26Z</time>
      </trkpt>
      <trkpt lat="47.89403" lon="-4.01164">
        <ele>62.4</ele>
        <time>2023-09-15T13:04:29Z</time>
      </trkpt>
      <trkpt lat="47.89403" lon="-4.01171">
        <ele>63</ele>
        <time>2023-09-15T13:04:31Z</time>
      </trkpt>
      <trkpt lat="47.89401" lon="-4.01194">
        <ele>64</ele>
        <time>2023-09-15T13:04:38Z</time>
      </trkpt>
      <trkpt lat="47.89401" lon="-4.01212">
        <ele>64.6</ele>
        <time>2023-09-15T13:04:43Z</time>
      </trkpt>
      <trkpt lat="47.89401" lon="-4.01219">
        <ele>64.8</ele>
        <time>2023-09-15T13:04:45Z</time>
      </trkpt>
      <trkpt lat="47.89401" lon="-4.01228">
        <ele>64.8</ele>
        <time>2023-09-15T13:04:47Z</time>
      </trkpt>
      <trkpt lat="47.89401" lon="-4.01239">
        <ele>65.2</ele>
        <time>2023-09-15T13:04:50Z</time>
      </trkpt>
      <trkpt lat="47.894" lon="-4.01262">
        <ele>65.4</ele>
        <time>2023-09-15T13:04:56Z</time>
      </trkpt>
      <trkpt lat="47.89396" lon="-4.01299">
        <ele>65.8</ele>
        <time>2023-09-15T13:05:05Z</time>
      </trkpt>
      <trkpt lat="47.89395" lon="-4.01319">
        <ele>66.2</ele>
        <time>2023-09-15T13:05:09Z</time>
      </trkpt>
      <trkpt lat="47.89395" lon="-4.01324">
        <ele>66.2</ele>
        <time>2023-09-15T13:05:10Z</time>
      </trkpt>
      <trkpt lat="47.8939" lon="-4.01342">
        <ele>66.6</ele>
        <time>2023-09-15T13:05:14Z</time>
      </trkpt>
      <trkpt lat="47.89377" lon="-4.01345">
        <ele>66.6</ele>
        <time>2023-09-15T13:05:18Z</time>
      </trkpt>
      <trkpt lat="47.8937" lon="-4.01345">
        <ele>66.8</ele>
        <time>2023-09-15T13:05:20Z</time>
      </trkpt>
      <trkpt lat="47.89357" lon="-4.01343">
        <ele>66.6</ele>
        <time>2023-09-15T13:05:25Z</time>
      </trkpt>
      <trkpt lat="47.89346" lon="-4.01343">
        <ele>67</ele>
        <time>2023-09-15T13:05:30Z</time>
      </trkpt>
      <trkpt lat="47.89321" lon="-4.01342">
        <ele>67</ele>
        <time>2023-09-15T13:05:37Z</time>
      </trkpt>
      <trkpt lat="47.89305" lon="-4.01341">
        <ele>67.2</ele>
        <time>2023-09-15T13:05:42Z</time>
      </trkpt>
      <trkpt lat="47.89299" lon="-4.0134">
        <ele>67.4</ele>
        <time>2023-09-15T13:05:44Z</time>
      </trkpt>
      <trkpt lat="47.89272" lon="-4.01335">
        <ele>67.4</ele>
        <time>2023-09-15T13:05:53Z</time>
      </trkpt>
      <trkpt lat="47.89261" lon="-4.01341">
        <ele>67.6</ele>
        <time>2023-09-15T13:05:58Z</time>
      </trkpt>
      <trkpt lat="47.8925" lon="-4.01371">
        <ele>68</ele>
        <time>2023-09-15T13:06:05Z</time>
      </trkpt>
      <trkpt lat="47.89244" lon="-4.0138">
        <ele>68.2</ele>
        <time>2023-09-15T13:06:08Z</time>
      </trkpt>
      <trkpt lat="47.89234" lon="-4.01396">
        <ele>68.4</ele>
        <time>2023-09-15T13:06:13Z</time>
      </trkpt>
      <trkpt lat="47.89215" lon="-4.01425">
        <ele>68.8</ele>
        <time>2023-09-15T13:06:22Z</time>
      </trkpt>
      <trkpt lat="47.89199" lon="-4.01448">
        <ele>68.6</ele>
        <time>2023-09-15T13:06:30Z</time>
      </trkpt>
      <trkpt lat="47.89191" lon="-4.01465">
        <ele>69</ele>
        <time>2023-09-15T13:06:37Z</time>
      </trkpt>
      <trkpt lat="47.89191" lon="-4.01468">
        <ele>69.4</ele>
        <time>2023-09-15T13:06:41Z</time>
      </trkpt>
      <trkpt lat="47.89191" lon="-4.01468">
        <ele>69.4</ele>
        <time>2023-09-15T13:06:44Z</time>
      </trkpt>
      <trkpt lat="47.89192" lon="-4.01477">
        <ele>69.6</ele>
        <time>2023-09-15T13:06:50Z</time>
      </trkpt>
      <trkpt lat="47.89189" lon="-4.01502">
        <ele>69.2</ele>
        <time>2023-09-15T13:06:54Z</time>
      </trkpt>
      <trkpt lat="47.89181" lon="-4.01512">
        <ele>69</ele>
        <time>2023-09-15T13:06:56Z</time>
      </trkpt>
      <trkpt lat="47.89176" lon="-4.01514">
        <ele>68.6</ele>
        <time>2023-09-15T13:06:57Z</time>
      </trkpt>
      <trkpt lat="47.89171" lon="-4.01514">
        <ele>68.6</ele>
        <time>2023-09-15T13:06:58Z</time>
      </trkpt>
      <trkpt lat="47.89161" lon="-4.0151">
        <ele>68.4</ele>
        <time>2023-09-15T13:07:00Z</time>
      </trkpt>
      <trkpt lat="47.89157" lon="-4.01507">
        <ele>68.2</ele>
        <time>2023-09-15T13:07:01Z</time>
      </trkpt>
      <trkpt lat="47.89153" lon="-4.01502">
        <ele>68.2</ele>
        <time>2023-09-15T13:07:02Z</time>
      </trkpt>
      <trkpt lat="47.89143" lon="-4.01484">
        <ele>68.4</ele>
        <time>2023-09-15T13:07:05Z</time>
      </trkpt>
      <trkpt lat="47.89126" lon="-4.01468">
        <ele>68.4</ele>
        <time>2023-09-15T13:07:09Z</time>
      </trkpt>
      <trkpt lat="47.89106" lon="-4.01449">
        <ele>67.6</ele>
        <time>2023-09-15T13:07:14Z</time>
      </trkpt>
      <trkpt lat="47.89094" lon="-4.01437">
        <ele>67.2</ele>
        <time>2023-09-15T13:07:17Z</time>
      </trkpt>
      <trkpt lat="47.8909" lon="-4.01433">
        <ele>67.2</ele>
        <time>2023-09-15T13:07:18Z</time>
      </trkpt>
      <trkpt lat="47.8908" lon="-4.01426">
        <ele>67</ele>
        <time>2023-09-15T13:07:20Z</time>
      </trkpt>
      <trkpt lat="47.8907" lon="-4.01425">
        <ele>66.4</ele>
        <time>2023-09-15T13:07:22Z</time>
      </trkpt>
      <trkpt lat="47.89059" lon="-4.01428">
        <ele>66</ele>
        <time>2023-09-15T13:07:24Z</time>
      </trkpt>
      <trkpt lat="47.89049" lon="-4.01436">
        <ele>65.8</ele>
        <time>2023-09-15T13:07:26Z</time>
      </trkpt>
      <trkpt lat="47.89035" lon="-4.01451">
        <ele>65.4</ele>
        <time>2023-09-15T13:07:29Z</time>
      </trkpt>
      <trkpt lat="47.8903" lon="-4.01455">
        <ele>65.4</ele>
        <time>2023-09-15T13:07:30Z</time>
      </trkpt>
      <trkpt lat="47.89026" lon="-4.01459">
        <ele>65.4</ele>
        <time>2023-09-15T13:07:31Z</time>
      </trkpt>
      <trkpt lat="47.89018" lon="-4.01466">
        <ele>65</ele>
        <time>2023-09-15T13:07:33Z</time>
      </trkpt>
      <trkpt lat="47.89014" lon="-4.01471">
        <ele>64.8</ele>
        <time>2023-09-15T13:07:34Z</time>
      </trkpt>
      <trkpt lat="47.88994" lon="-4.01487">
        <ele>65.4</ele>
        <time>2023-09-15T13:07:39Z</time>
      </trkpt>
      <trkpt lat="47.88942" lon="-4.01519">
        <ele>64.6</ele>
        <time>2023-09-15T13:07:50Z</time>
      </trkpt>
      <trkpt lat="47.88905" lon="-4.01543">
        <ele>63.6</ele>
        <time>2023-09-15T13:07:58Z</time>
      </trkpt>
      <trkpt lat="47.88895" lon="-4.0155">
        <ele>63.4</ele>
        <time>2023-09-15T13:08:00Z</time>
      </trkpt>
      <trkpt lat="47.88889" lon="-4.01554">
        <ele>63.2</ele>
        <time>2023-09-15T13:08:01Z</time>
      </trkpt>
      <trkpt lat="47.88868" lon="-4.0157">
        <ele>62.6</ele>
        <time>2023-09-15T13:08:05Z</time>
      </trkpt>
      <trkpt lat="47.88852" lon="-4.01583">
        <ele>62</ele>
        <time>2023-09-15T13:08:08Z</time>
      </trkpt>
      <trkpt lat="47.88842" lon="-4.0159">
        <ele>62</ele>
        <time>2023-09-15T13:08:10Z</time>
      </trkpt>
      <trkpt lat="47.88826" lon="-4.01601">
        <ele>61.6</ele>
        <time>2023-09-15T13:08:13Z</time>
      </trkpt>
      <trkpt lat="47.88815" lon="-4.0161">
        <ele>61.2</ele>
        <time>2023-09-15T13:08:15Z</time>
      </trkpt>
      <trkpt lat="47.88809" lon="-4.01614">
        <ele>61.2</ele>
        <time>2023-09-15T13:08:16Z</time>
      </trkpt>
      <trkpt lat="47.88801" lon="-4.01617">
        <ele>60.8</ele>
        <time>2023-09-15T13:08:17Z</time>
      </trkpt>
      <trkpt lat="47.88794" lon="-4.01619">
        <ele>60</ele>
        <time>2023-09-15T13:08:18Z</time>
      </trkpt>
      <trkpt lat="47.88779" lon="-4.01622">
        <ele>58.8</ele>
        <time>2023-09-15T13:08:20Z</time>
      </trkpt>
      <trkpt lat="47.88764" lon="-4.01623">
        <ele>57.6</ele>
        <time>2023-09-15T13:08:22Z</time>
      </trkpt>
      <trkpt lat="47.88747" lon="-4.01624">
        <ele>56.6</ele>
        <time>2023-09-15T13:08:24Z</time>
      </trkpt>
      <trkpt lat="47.88729" lon="-4.01626">
        <ele>54.8</ele>
        <time>2023-09-15T13:08:26Z</time>
      </trkpt>
      <trkpt lat="47.88721" lon="-4.01627">
        <ele>54.6</ele>
        <time>2023-09-15T13:08:27Z</time>
      </trkpt>
      <trkpt lat="47.88687" lon="-4.01639">
        <ele>54.4</ele>
        <time>2023-09-15T13:08:32Z</time>
      </trkpt>
      <trkpt lat="47.8867" lon="-4.01647">
        <ele>56</ele>
        <time>2023-09-15T13:08:35Z</time>
      </trkpt>
      <trkpt lat="47.88665" lon="-4.0165">
        <ele>56.8</ele>
        <time>2023-09-15T13:08:36Z</time>
      </trkpt>
      <trkpt lat="47.88661" lon="-4.01654">
        <ele>57</ele>
        <time>2023-09-15T13:08:37Z</time>
      </trkpt>
      <trkpt lat="47.88652" lon="-4.01663">
        <ele>58</ele>
        <time>2023-09-15T13:08:39Z</time>
      </trkpt>
      <trkpt lat="47.88631" lon="-4.01687">
        <ele>58.2</ele>
        <time>2023-09-15T13:08:44Z</time>
      </trkpt>
      <trkpt lat="47.88603" lon="-4.01718">
        <ele>57.4</ele>
        <time>2023-09-15T13:08:50Z</time>
      </trkpt>
      <trkpt lat="47.88593" lon="-4.01729">
        <ele>57.4</ele>
        <time>2023-09-15T13:08:52Z</time>
      </trkpt>
      <trkpt lat="47.88578" lon="-4.01744">
        <ele>57.4</ele>
        <time>2023-09-15T13:08:55Z</time>
      </trkpt>
      <trkpt lat="47.88573" lon="-4.01748">
        <ele>57.4</ele>
        <time>2023-09-15T13:08:56Z</time>
      </trkpt>
      <trkpt lat="47.88568" lon="-4.01752">
        <ele>57.4</ele>
        <time>2023-09-15T13:08:57Z</time>
      </trkpt>
      <trkpt lat="47.88558" lon="-4.0176">
        <ele>57.6</ele>
        <time>2023-09-15T13:08:59Z</time>
      </trkpt>
      <trkpt lat="47.88553" lon="-4.01764">
        <ele>57.6</ele>
        <time>2023-09-15T13:09:00Z</time>
      </trkpt>
      <trkpt lat="47.88521" lon="-4.01785">
        <ele>58.2</ele>
        <time>2023-09-15T13:09:06Z</time>
      </trkpt>
      <trkpt lat="47.885" lon="-4.01799">
        <ele>58</ele>
        <time>2023-09-15T13:09:10Z</time>
      </trkpt>
      <trkpt lat="47.88449" lon="-4.01833">
        <ele>57.8</ele>
        <time>2023-09-15T13:09:19Z</time>
      </trkpt>
      <trkpt lat="47.88443" lon="-4.01837">
        <ele>57.6</ele>
        <time>2023-09-15T13:09:20Z</time>
      </trkpt>
      <trkpt lat="47.88431" lon="-4.01846">
        <ele>57</ele>
        <time>2023-09-15T13:09:22Z</time>
      </trkpt>
      <trkpt lat="47.88406" lon="-4.01861">
        <ele>55.6</ele>
        <time>2023-09-15T13:09:26Z</time>
      </trkpt>
      <trkpt lat="47.88394" lon="-4.01868">
        <ele>55</ele>
        <time>2023-09-15T13:09:28Z</time>
      </trkpt>
      <trkpt lat="47.88368" lon="-4.01883">
        <ele>54.4</ele>
        <time>2023-09-15T13:09:32Z</time>
      </trkpt>
      <trkpt lat="47.88355" lon="-4.0189">
        <ele>54.2</ele>
        <time>2023-09-15T13:09:34Z</time>
      </trkpt>
      <trkpt lat="47.88334" lon="-4.01903">
        <ele>53.8</ele>
        <time>2023-09-15T13:09:37Z</time>
      </trkpt>
      <trkpt lat="47.8832" lon="-4.01911">
        <ele>53.4</ele>
        <time>2023-09-15T13:09:39Z</time>
      </trkpt>
      <trkpt lat="47.88297" lon="-4.01924">
        <ele>52.4</ele>
        <time>2023-09-15T13:09:42Z</time>
      </trkpt>
      <trkpt lat="47.88266" lon="-4.01942">
        <ele>51.6</ele>
        <time>2023-09-15T13:09:46Z</time>
      </trkpt>
      <trkpt lat="47.88244" lon="-4.01955">
        <ele>51.2</ele>
        <time>2023-09-15T13:09:49Z</time>
      </trkpt>
      <trkpt lat="47.88225" lon="-4.01971">
        <ele>50.8</ele>
        <time>2023-09-15T13:09:52Z</time>
      </trkpt>
      <trkpt lat="47.88199" lon="-4.02007">
        <ele>50.6</ele>
        <time>2023-09-15T13:09:57Z</time>
      </trkpt>
      <trkpt lat="47.88158" lon="-4.02069">
        <ele>50.6</ele>
        <time>2023-09-15T13:10:05Z</time>
      </trkpt>
      <trkpt lat="47.88148" lon="-4.02085">
        <ele>50.2</ele>
        <time>2023-09-15T13:10:07Z</time>
      </trkpt>
      <trkpt lat="47.88142" lon="-4.02093">
        <ele>50.2</ele>
        <time>2023-09-15T13:10:08Z</time>
      </trkpt>
      <trkpt lat="47.88116" lon="-4.02132">
        <ele>49</ele>
        <time>2023-09-15T13:10:13Z</time>
      </trkpt>
      <trkpt lat="47.881" lon="-4.02153">
        <ele>48.2</ele>
        <time>2023-09-15T13:10:16Z</time>
      </trkpt>
      <trkpt lat="47.88088" lon="-4.02165">
        <ele>48</ele>
        <time>2023-09-15T13:10:18Z</time>
      </trkpt>
      <trkpt lat="47.88075" lon="-4.02174">
        <ele>47.4</ele>
        <time>2023-09-15T13:10:20Z</time>
      </trkpt>
      <trkpt lat="47.88067" lon="-4.02177">
        <ele>47.2</ele>
        <time>2023-09-15T13:10:21Z</time>
      </trkpt>
      <trkpt lat="47.88053" lon="-4.02183">
        <ele>47</ele>
        <time>2023-09-15T13:10:23Z</time>
      </trkpt>
      <trkpt lat="47.88014" lon="-4.02201">
        <ele>46.2</ele>
        <time>2023-09-15T13:10:28Z</time>
      </trkpt>
      <trkpt lat="47.88006" lon="-4.02206">
        <ele>45.2</ele>
        <time>2023-09-15T13:10:29Z</time>
      </trkpt>
      <trkpt lat="47.87976" lon="-4.02234">
        <ele>43.4</ele>
        <time>2023-09-15T13:10:33Z</time>
      </trkpt>
      <trkpt lat="47.87962" lon="-4.02253">
        <ele>41.8</ele>
        <time>2023-09-15T13:10:35Z</time>
      </trkpt>
      <trkpt lat="47.8795" lon="-4.02277">
        <ele>41.2</ele>
        <time>2023-09-15T13:10:37Z</time>
      </trkpt>
      <trkpt lat="47.87944" lon="-4.02288">
        <ele>40.4</ele>
        <time>2023-09-15T13:10:38Z</time>
      </trkpt>
      <trkpt lat="47.87925" lon="-4.02323">
        <ele>38.8</ele>
        <time>2023-09-15T13:10:41Z</time>
      </trkpt>
      <trkpt lat="47.87919" lon="-4.02333">
        <ele>37.6</ele>
        <time>2023-09-15T13:10:42Z</time>
      </trkpt>
      <trkpt lat="47.87906" lon="-4.02353">
        <ele>36.8</ele>
        <time>2023-09-15T13:10:44Z</time>
      </trkpt>
      <trkpt lat="47.87899" lon="-4.02363">
        <ele>36.4</ele>
        <time>2023-09-15T13:10:45Z</time>
      </trkpt>
      <trkpt lat="47.87892" lon="-4.02371">
        <ele>36.2</ele>
        <time>2023-09-15T13:10:46Z</time>
      </trkpt>
      <trkpt lat="47.87862" lon="-4.02403">
        <ele>37.8</ele>
        <time>2023-09-15T13:10:50Z</time>
      </trkpt>
      <trkpt lat="47.8782" lon="-4.02436">
        <ele>37.2</ele>
        <time>2023-09-15T13:10:55Z</time>
      </trkpt>
      <trkpt lat="47.87813" lon="-4.02442">
        <ele>37</ele>
        <time>2023-09-15T13:10:56Z</time>
      </trkpt>
      <trkpt lat="47.87804" lon="-4.02448">
        <ele>36.4</ele>
        <time>2023-09-15T13:10:57Z</time>
      </trkpt>
      <trkpt lat="47.87788" lon="-4.0246">
        <ele>36.2</ele>
        <time>2023-09-15T13:10:59Z</time>
      </trkpt>
      <trkpt lat="47.87773" lon="-4.02472">
        <ele>35.6</ele>
        <time>2023-09-15T13:11:01Z</time>
      </trkpt>
      <trkpt lat="47.87765" lon="-4.02478">
        <ele>35.2</ele>
        <time>2023-09-15T13:11:02Z</time>
      </trkpt>
      <trkpt lat="47.8775" lon="-4.02491">
        <ele>34.6</ele>
        <time>2023-09-15T13:11:04Z</time>
      </trkpt>
      <trkpt lat="47.87742" lon="-4.02497">
        <ele>34</ele>
        <time>2023-09-15T13:11:05Z</time>
      </trkpt>
      <trkpt lat="47.87735" lon="-4.02504">
        <ele>32.6</ele>
        <time>2023-09-15T13:11:06Z</time>
      </trkpt>
      <trkpt lat="47.87715" lon="-4.02528">
        <ele>31.2</ele>
        <time>2023-09-15T13:11:09Z</time>
      </trkpt>
      <trkpt lat="47.87697" lon="-4.02552">
        <ele>30.2</ele>
        <time>2023-09-15T13:11:12Z</time>
      </trkpt>
      <trkpt lat="47.87682" lon="-4.0258">
        <ele>30</ele>
        <time>2023-09-15T13:11:15Z</time>
      </trkpt>
      <trkpt lat="47.87665" lon="-4.02632">
        <ele>29.6</ele>
        <time>2023-09-15T13:11:20Z</time>
      </trkpt>
      <trkpt lat="47.87657" lon="-4.02676">
        <ele>29.4</ele>
        <time>2023-09-15T13:11:24Z</time>
      </trkpt>
      <trkpt lat="47.87653" lon="-4.02699">
        <ele>29.6</ele>
        <time>2023-09-15T13:11:26Z</time>
      </trkpt>
      <trkpt lat="47.87633" lon="-4.02768">
        <ele>28.8</ele>
        <time>2023-09-15T13:11:32Z</time>
      </trkpt>
      <trkpt lat="47.87624" lon="-4.02788">
        <ele>28.2</ele>
        <time>2023-09-15T13:11:34Z</time>
      </trkpt>
      <trkpt lat="47.87613" lon="-4.02806">
        <ele>28</ele>
        <time>2023-09-15T13:11:36Z</time>
      </trkpt>
      <trkpt lat="47.87607" lon="-4.02814">
        <ele>28</ele>
        <time>2023-09-15T13:11:37Z</time>
      </trkpt>
      <trkpt lat="47.876" lon="-4.02822">
        <ele>28</ele>
        <time>2023-09-15T13:11:38Z</time>
      </trkpt>
      <trkpt lat="47.87588" lon="-4.02838">
        <ele>27.6</ele>
        <time>2023-09-15T13:11:40Z</time>
      </trkpt>
      <trkpt lat="47.87567" lon="-4.02872">
        <ele>26.8</ele>
        <time>2023-09-15T13:11:44Z</time>
      </trkpt>
      <trkpt lat="47.87562" lon="-4.02882">
        <ele>26.6</ele>
        <time>2023-09-15T13:11:45Z</time>
      </trkpt>
      <trkpt lat="47.87552" lon="-4.02916">
        <ele>26</ele>
        <time>2023-09-15T13:11:48Z</time>
      </trkpt>
      <trkpt lat="47.87545" lon="-4.02952">
        <ele>25.6</ele>
        <time>2023-09-15T13:11:51Z</time>
      </trkpt>
      <trkpt lat="47.8754" lon="-4.02986">
        <ele>25.2</ele>
        <time>2023-09-15T13:11:54Z</time>
      </trkpt>
      <trkpt lat="47.87524" lon="-4.03064">
        <ele>24.8</ele>
        <time>2023-09-15T13:12:01Z</time>
      </trkpt>
      <trkpt lat="47.87511" lon="-4.03103">
        <ele>24.4</ele>
        <time>2023-09-15T13:12:05Z</time>
      </trkpt>
      <trkpt lat="47.87498" lon="-4.03141">
        <ele>24.4</ele>
        <time>2023-09-15T13:12:09Z</time>
      </trkpt>
      <trkpt lat="47.87494" lon="-4.0315">
        <ele>24.4</ele>
        <time>2023-09-15T13:12:10Z</time>
      </trkpt>
      <trkpt lat="47.8747" lon="-4.03208">
        <ele>24.6</ele>
        <time>2023-09-15T13:12:16Z</time>
      </trkpt>
      <trkpt lat="47.87441" lon="-4.03278">
        <ele>24.2</ele>
        <time>2023-09-15T13:12:24Z</time>
      </trkpt>
      <trkpt lat="47.87411" lon="-4.03322">
        <ele>23.8</ele>
        <time>2023-09-15T13:12:30Z</time>
      </trkpt>
      <trkpt lat="47.87405" lon="-4.03329">
        <ele>23.4</ele>
        <time>2023-09-15T13:12:31Z</time>
      </trkpt>
      <trkpt lat="47.87378" lon="-4.03353">
        <ele>22.2</ele>
        <time>2023-09-15T13:12:35Z</time>
      </trkpt>
      <trkpt lat="47.87353" lon="-4.03367">
        <ele>21</ele>
        <time>2023-09-15T13:12:38Z</time>
      </trkpt>
      <trkpt lat="47.87336" lon="-4.03372">
        <ele>19.4</ele>
        <time>2023-09-15T13:12:40Z</time>
      </trkpt>
      <trkpt lat="47.8731" lon="-4.03376">
        <ele>18.2</ele>
        <time>2023-09-15T13:12:43Z</time>
      </trkpt>
      <trkpt lat="47.87294" lon="-4.03375">
        <ele>18</ele>
        <time>2023-09-15T13:12:45Z</time>
      </trkpt>
      <trkpt lat="47.87279" lon="-4.03376">
        <ele>18.2</ele>
        <time>2023-09-15T13:12:47Z</time>
      </trkpt>
      <trkpt lat="47.87273" lon="-4.0338">
        <ele>18.2</ele>
        <time>2023-09-15T13:12:48Z</time>
      </trkpt>
      <trkpt lat="47.8727" lon="-4.03388">
        <ele>18.2</ele>
        <time>2023-09-15T13:12:49Z</time>
      </trkpt>
      <trkpt lat="47.87267" lon="-4.03406">
        <ele>18.2</ele>
        <time>2023-09-15T13:12:51Z</time>
      </trkpt>
      <trkpt lat="47.87266" lon="-4.03437">
        <ele>17.2</ele>
        <time>2023-09-15T13:12:54Z</time>
      </trkpt>
      <trkpt lat="47.87263" lon="-4.03467">
        <ele>16.6</ele>
        <time>2023-09-15T13:12:57Z</time>
      </trkpt>
      <trkpt lat="47.87262" lon="-4.03497">
        <ele>16.2</ele>
        <time>2023-09-15T13:13:00Z</time>
      </trkpt>
      <trkpt lat="47.87261" lon="-4.03518">
        <ele>16</ele>
        <time>2023-09-15T13:13:02Z</time>
      </trkpt>
      <trkpt lat="47.87265" lon="-4.03573">
        <ele>17</ele>
        <time>2023-09-15T13:13:08Z</time>
      </trkpt>
      <trkpt lat="47.87267" lon="-4.03581">
        <ele>17.4</ele>
        <time>2023-09-15T13:13:09Z</time>
      </trkpt>
      <trkpt lat="47.87272" lon="-4.03595">
        <ele>17.6</ele>
        <time>2023-09-15T13:13:11Z</time>
      </trkpt>
      <trkpt lat="47.87276" lon="-4.03601">
        <ele>17.8</ele>
        <time>2023-09-15T13:13:12Z</time>
      </trkpt>
      <trkpt lat="47.8728" lon="-4.03606">
        <ele>18</ele>
        <time>2023-09-15T13:13:13Z</time>
      </trkpt>
      <trkpt lat="47.87289" lon="-4.03614">
        <ele>19</ele>
        <time>2023-09-15T13:13:15Z</time>
      </trkpt>
      <trkpt lat="47.87293" lon="-4.03618">
        <ele>19.2</ele>
        <time>2023-09-15T13:13:16Z</time>
      </trkpt>
      <trkpt lat="47.87297" lon="-4.0362">
        <ele>19.4</ele>
        <time>2023-09-15T13:13:17Z</time>
      </trkpt>
      <trkpt lat="47.87323" lon="-4.03632">
        <ele>19.8</ele>
        <time>2023-09-15T13:13:23Z</time>
      </trkpt>
      <trkpt lat="47.87326" lon="-4.03634">
        <ele>20.2</ele>
        <time>2023-09-15T13:13:24Z</time>
      </trkpt>
      <trkpt lat="47.87334" lon="-4.03639">
        <ele>20.4</ele>
        <time>2023-09-15T13:13:26Z</time>
      </trkpt>
      <trkpt lat="47.87349" lon="-4.03646">
        <ele>21.4</ele>
        <time>2023-09-15T13:13:30Z</time>
      </trkpt>
      <trkpt lat="47.87356" lon="-4.03649">
        <ele>22</ele>
        <time>2023-09-15T13:13:32Z</time>
      </trkpt>
      <trkpt lat="47.87366" lon="-4.03654">
        <ele>22.4</ele>
        <time>2023-09-15T13:13:35Z</time>
      </trkpt>
      <trkpt lat="47.8738" lon="-4.03661">
        <ele>23.2</ele>
        <time>2023-09-15T13:13:40Z</time>
      </trkpt>
      <trkpt lat="47.87386" lon="-4.03664">
        <ele>23.4</ele>
        <time>2023-09-15T13:13:42Z</time>
      </trkpt>
      <trkpt lat="47.87401" lon="-4.03671">
        <ele>24.6</ele>
        <time>2023-09-15T13:13:47Z</time>
      </trkpt>
      <trkpt lat="47.8741" lon="-4.03675">
        <ele>25</ele>
        <time>2023-09-15T13:13:50Z</time>
      </trkpt>
      <trkpt lat="47.87419" lon="-4.03679">
        <ele>25.6</ele>
        <time>2023-09-15T13:13:53Z</time>
      </trkpt>
      <trkpt lat="47.87437" lon="-4.03686">
        <ele>26.2</ele>
        <time>2023-09-15T13:13:58Z</time>
      </trkpt>
      <trkpt lat="47.87456" lon="-4.03694">
        <ele>26.8</ele>
        <time>2023-09-15T13:14:03Z</time>
      </trkpt>
      <trkpt lat="47.87463" lon="-4.03695">
        <ele>27</ele>
        <time>2023-09-15T13:14:05Z</time>
      </trkpt>
      <trkpt lat="47.87495" lon="-4.03697">
        <ele>27.6</ele>
        <time>2023-09-15T13:14:14Z</time>
      </trkpt>
      <trkpt lat="47.87498" lon="-4.03697">
        <ele>27.8</ele>
        <time>2023-09-15T13:14:15Z</time>
      </trkpt>
      <trkpt lat="47.87518" lon="-4.03698">
        <ele>28.4</ele>
        <time>2023-09-15T13:14:21Z</time>
      </trkpt>
      <trkpt lat="47.87537" lon="-4.03698">
        <ele>28.8</ele>
        <time>2023-09-15T13:14:26Z</time>
      </trkpt>
      <trkpt lat="47.87541" lon="-4.037">
        <ele>28.8</ele>
        <time>2023-09-15T13:14:27Z</time>
      </trkpt>
      <trkpt lat="47.87549" lon="-4.03713">
        <ele>29</ele>
        <time>2023-09-15T13:14:31Z</time>
      </trkpt>
      <trkpt lat="47.8755" lon="-4.03742">
        <ele>28.8</ele>
        <time>2023-09-15T13:14:36Z</time>
      </trkpt>
      <trkpt lat="47.87549" lon="-4.03782">
        <ele>28.6</ele>
        <time>2023-09-15T13:14:43Z</time>
      </trkpt>
      <trkpt lat="47.87549" lon="-4.03793">
        <ele>28.6</ele>
        <time>2023-09-15T13:14:45Z</time>
      </trkpt>
      <trkpt lat="47.87548" lon="-4.03809">
        <ele>28.6</ele>
        <time>2023-09-15T13:14:48Z</time>
      </trkpt>
      <trkpt lat="47.87548" lon="-4.03819">
        <ele>28.8</ele>
        <time>2023-09-15T13:14:50Z</time>
      </trkpt>
      <trkpt lat="47.87548" lon="-4.03823">
        <ele>28.8</ele>
        <time>2023-09-15T13:14:51Z</time>
      </trkpt>
      <trkpt lat="47.87551" lon="-4.03857">
        <ele>28.6</ele>
        <time>2023-09-15T13:14:57Z</time>
      </trkpt>
      <trkpt lat="47.87557" lon="-4.03879">
        <ele>28.4</ele>
        <time>2023-09-15T13:15:01Z</time>
      </trkpt>
      <trkpt lat="47.87562" lon="-4.03889">
        <ele>28.4</ele>
        <time>2023-09-15T13:15:03Z</time>
      </trkpt>
      <trkpt lat="47.87585" lon="-4.03922">
        <ele>29.4</ele>
        <time>2023-09-15T13:15:11Z</time>
      </trkpt>
      <trkpt lat="47.87599" lon="-4.0394">
        <ele>30</ele>
        <time>2023-09-15T13:15:16Z</time>
      </trkpt>
      <trkpt lat="47.87612" lon="-4.03956">
        <ele>30.2</ele>
        <time>2023-09-15T13:15:21Z</time>
      </trkpt>
      <trkpt lat="47.87621" lon="-4.03966">
        <ele>30.2</ele>
        <time>2023-09-15T13:15:24Z</time>
      </trkpt>
      <trkpt lat="47.87636" lon="-4.03983">
        <ele>30.4</ele>
        <time>2023-09-15T13:15:30Z</time>
      </trkpt>
      <trkpt lat="47.87648" lon="-4.03993">
        <ele>30.8</ele>
        <time>2023-09-15T13:15:34Z</time>
      </trkpt>
      <trkpt lat="47.87651" lon="-4.03996">
        <ele>30.8</ele>
        <time>2023-09-15T13:15:35Z</time>
      </trkpt>
      <trkpt lat="47.87657" lon="-4.04003">
        <ele>30.8</ele>
        <time>2023-09-15T13:15:37Z</time>
      </trkpt>
      <trkpt lat="47.87664" lon="-4.0401">
        <ele>30.8</ele>
        <time>2023-09-15T13:15:39Z</time>
      </trkpt>
      <trkpt lat="47.87685" lon="-4.04041">
        <ele>30.4</ele>
        <time>2023-09-15T13:15:46Z</time>
      </trkpt>
      <trkpt lat="47.87695" lon="-4.04057">
        <ele>31</ele>
        <time>2023-09-15T13:15:50Z</time>
      </trkpt>
      <trkpt lat="47.87699" lon="-4.04065">
        <ele>31</ele>
        <time>2023-09-15T13:15:52Z</time>
      </trkpt>
      <trkpt lat="47.87705" lon="-4.04076">
        <ele>31.2</ele>
        <time>2023-09-15T13:15:55Z</time>
      </trkpt>
      <trkpt lat="47.87719" lon="-4.04101">
        <ele>31.4</ele>
        <time>2023-09-15T13:16:01Z</time>
      </trkpt>
      <trkpt lat="47.87733" lon="-4.04141">
        <ele>31.8</ele>
        <time>2023-09-15T13:16:09Z</time>
      </trkpt>
      <trkpt lat="47.87739" lon="-4.0417">
        <ele>31.6</ele>
        <time>2023-09-15T13:16:14Z</time>
      </trkpt>
      <trkpt lat="47.87742" lon="-4.04189">
        <ele>31.2</ele>
        <time>2023-09-15T13:16:17Z</time>
      </trkpt>
      <trkpt lat="47.87739" lon="-4.04209">
        <ele>30.6</ele>
        <time>2023-09-15T13:16:20Z</time>
      </trkpt>
      <trkpt lat="47.87736" lon="-4.04222">
        <ele>30.4</ele>
        <time>2023-09-15T13:16:22Z</time>
      </trkpt>
      <trkpt lat="47.8773" lon="-4.04237">
        <ele>30</ele>
        <time>2023-09-15T13:16:24Z</time>
      </trkpt>
      <trkpt lat="47.87719" lon="-4.04259">
        <ele>29</ele>
        <time>2023-09-15T13:16:27Z</time>
      </trkpt>
      <trkpt lat="47.87707" lon="-4.0428">
        <ele>28</ele>
        <time>2023-09-15T13:16:30Z</time>
      </trkpt>
      <trkpt lat="47.87694" lon="-4.04309">
        <ele>27.4</ele>
        <time>2023-09-15T13:16:34Z</time>
      </trkpt>
      <trkpt lat="47.87683" lon="-4.04347">
        <ele>27.4</ele>
        <time>2023-09-15T13:16:39Z</time>
      </trkpt>
      <trkpt lat="47.8767" lon="-4.04389">
        <ele>28.2</ele>
        <time>2023-09-15T13:16:46Z</time>
      </trkpt>
      <trkpt lat="47.87665" lon="-4.04405">
        <ele>29</ele>
        <time>2023-09-15T13:16:49Z</time>
      </trkpt>
      <trkpt lat="47.87654" lon="-4.04445">
        <ele>29.6</ele>
        <time>2023-09-15T13:16:56Z</time>
      </trkpt>
      <trkpt lat="47.87647" lon="-4.04469">
        <ele>29.6</ele>
        <time>2023-09-15T13:17:00Z</time>
      </trkpt>
      <trkpt lat="47.87642" lon="-4.04488">
        <ele>29.4</ele>
        <time>2023-09-15T13:17:03Z</time>
      </trkpt>
      <trkpt lat="47.87639" lon="-4.04502">
        <ele>29.4</ele>
        <time>2023-09-15T13:17:05Z</time>
      </trkpt>
      <trkpt lat="47.87624" lon="-4.04559">
        <ele>29</ele>
        <time>2023-09-15T13:17:14Z</time>
      </trkpt>
      <trkpt lat="47.8761" lon="-4.04616">
        <ele>28.6</ele>
        <time>2023-09-15T13:17:23Z</time>
      </trkpt>
      <trkpt lat="47.87607" lon="-4.04638">
        <ele>28.4</ele>
        <time>2023-09-15T13:17:26Z</time>
      </trkpt>
      <trkpt lat="47.87607" lon="-4.0466">
        <ele>28.2</ele>
        <time>2023-09-15T13:17:29Z</time>
      </trkpt>
      <trkpt lat="47.87608" lon="-4.04667">
        <ele>28</ele>
        <time>2023-09-15T13:17:30Z</time>
      </trkpt>
      <trkpt lat="47.87611" lon="-4.04698">
        <ele>27.6</ele>
        <time>2023-09-15T13:17:35Z</time>
      </trkpt>
      <trkpt lat="47.87615" lon="-4.0471">
        <ele>27.8</ele>
        <time>2023-09-15T13:17:40Z</time>
      </trkpt>
      <trkpt lat="47.87614" lon="-4.04711">
        <ele>27.8</ele>
        <time>2023-09-15T13:17:41Z</time>
      </trkpt>
      <trkpt lat="47.87609" lon="-4.04716">
        <ele>27.6</ele>
        <time>2023-09-15T13:17:44Z</time>
      </trkpt>
      <trkpt lat="47.87596" lon="-4.04724">
        <ele>27.2</ele>
        <time>2023-09-15T13:17:51Z</time>
      </trkpt>
      <trkpt lat="47.87595" lon="-4.04725">
        <ele>27.2</ele>
        <time>2023-09-15T13:17:52Z</time>
      </trkpt>
      <trkpt lat="47.87594" lon="-4.04724">
        <ele>27.2</ele>
        <time>2023-09-15T13:17:53Z</time>
      </trkpt>
      <trkpt lat="47.87593" lon="-4.04723">
        <ele>27</ele>
        <time>2023-09-15T13:17:54Z</time>
      </trkpt>
      <trkpt lat="47.87595" lon="-4.04722">
        <ele>27</ele>
        <time>2023-09-15T13:17:55Z</time>
      </trkpt>
      <trkpt lat="47.87606" lon="-4.0472">
        <ele>27.2</ele>
        <time>2023-09-15T13:18:00Z</time>
      </trkpt>
      <trkpt lat="47.87632" lon="-4.04718">
        <ele>27.6</ele>
        <time>2023-09-15T13:18:07Z</time>
      </trkpt>
      <trkpt lat="47.8764" lon="-4.04718">
        <ele>28</ele>
        <time>2023-09-15T13:18:09Z</time>
      </trkpt>
      <trkpt lat="47.87655" lon="-4.04716">
        <ele>28.8</ele>
        <time>2023-09-15T13:18:13Z</time>
      </trkpt>
      <trkpt lat="47.87659" lon="-4.04716">
        <ele>29</ele>
        <time>2023-09-15T13:18:14Z</time>
      </trkpt>
      <trkpt lat="47.87662" lon="-4.04717">
        <ele>29.2</ele>
        <time>2023-09-15T13:18:15Z</time>
      </trkpt>
      <trkpt lat="47.87677" lon="-4.04714">
        <ele>29.8</ele>
        <time>2023-09-15T13:18:20Z</time>
      </trkpt>
      <trkpt lat="47.87679" lon="-4.04728">
        <ele>30</ele>
        <time>2023-09-15T13:18:24Z</time>
      </trkpt>
      <trkpt lat="47.87686" lon="-4.04752">
        <ele>30.2</ele>
        <time>2023-09-15T13:18:30Z</time>
      </trkpt>
      <trkpt lat="47.87688" lon="-4.04758">
        <ele>30</ele>
        <time>2023-09-15T13:18:34Z</time>
      </trkpt>
      <trkpt lat="47.87687" lon="-4.04751">
        <ele>29.8</ele>
        <time>2023-09-15T13:18:40Z</time>
      </trkpt>
      <trkpt lat="47.87687" lon="-4.04749">
        <ele>29.8</ele>
        <time>2023-09-15T13:18:41Z</time>
      </trkpt>
      <trkpt lat="47.87682" lon="-4.04732">
        <ele>29.8</ele>
        <time>2023-09-15T13:18:46Z</time>
      </trkpt>
      <trkpt lat="47.87676" lon="-4.0472">
        <ele>29.6</ele>
        <time>2023-09-15T13:18:49Z</time>
      </trkpt>
      <trkpt lat="47.87672" lon="-4.04719">
        <ele>29.6</ele>
        <time>2023-09-15T13:18:50Z</time>
      </trkpt>
      <trkpt lat="47.87668" lon="-4.0472">
        <ele>29.4</ele>
        <time>2023-09-15T13:18:51Z</time>
      </trkpt>
      <trkpt lat="47.87658" lon="-4.04721">
        <ele>29.4</ele>
        <time>2023-09-15T13:18:53Z</time>
      </trkpt>
      <trkpt lat="47.87652" lon="-4.04721">
        <ele>29.4</ele>
        <time>2023-09-15T13:18:54Z</time>
      </trkpt>
      <trkpt lat="47.87628" lon="-4.04721">
        <ele>28.2</ele>
        <time>2023-09-15T13:18:58Z</time>
      </trkpt>
      <trkpt lat="47.8761" lon="-4.04722">
        <ele>27</ele>
        <time>2023-09-15T13:19:01Z</time>
      </trkpt>
      <trkpt lat="47.87604" lon="-4.04724">
        <ele>26.4</ele>
        <time>2023-09-15T13:19:02Z</time>
      </trkpt>
      <trkpt lat="47.87593" lon="-4.0473">
        <ele>26.2</ele>
        <time>2023-09-15T13:19:05Z</time>
      </trkpt>
      <trkpt lat="47.8759" lon="-4.04734">
        <ele>26.4</ele>
        <time>2023-09-15T13:19:09Z</time>
      </trkpt>
      <trkpt lat="47.87591" lon="-4.04734">
        <ele>26.2</ele>
        <time>2023-09-15T13:19:16Z</time>
      </trkpt>
      <trkpt lat="47.87589" lon="-4.04733">
        <ele>26.2</ele>
        <time>2023-09-15T13:19:23Z</time>
      </trkpt>
      <trkpt lat="47.87589" lon="-4.04733">
        <ele>26.2</ele>
        <time>2023-09-15T13:19:25Z</time>
      </trkpt>
      <trkpt lat="47.87589" lon="-4.04733">
        <ele>26.2</ele>
        <time>2023-09-15T13:19:30Z</time>
      </trkpt>
      <trkpt lat="47.87588" lon="-4.04734">
        <ele>26.2</ele>
        <time>2023-09-15T13:19:32Z</time>
      </trkpt>
      <trkpt lat="47.87588" lon="-4.04733">
        <ele>26.2</ele>
        <time>2023-09-15T13:19:38Z</time>
      </trkpt>
      <trkpt lat="47.87588" lon="-4.04733">
        <ele>26.2</ele>
        <time>2023-09-15T13:19:42Z</time>
      </trkpt>
      <trkpt lat="47.87588" lon="-4.04732">
        <ele>26.2</ele>
        <time>2023-09-15T13:19:47Z</time>
      </trkpt>
      <trkpt lat="47.87589" lon="-4.04733">
        <ele>26</ele>
        <time>2023-09-15T13:19:57Z</time>
      </trkpt>
      <trkpt lat="47.87586" lon="-4.04735">
        <ele>25.8</ele>
        <time>2023-09-15T13:20:00Z</time>
      </trkpt>
      <trkpt lat="47.87583" lon="-4.0474">
        <ele>25.6</ele>
        <time>2023-09-15T13:20:02Z</time>
      </trkpt>
      <trkpt lat="47.87569" lon="-4.04752">
        <ele>24.8</ele>
        <time>2023-09-15T13:20:08Z</time>
      </trkpt>
      <trkpt lat="47.87567" lon="-4.04755">
        <ele>24.8</ele>
        <time>2023-09-15T13:20:09Z</time>
      </trkpt>
      <trkpt lat="47.87553" lon="-4.04768">
        <ele>24.2</ele>
        <time>2023-09-15T13:20:13Z</time>
      </trkpt>
      <trkpt lat="47.87542" lon="-4.04781">
        <ele>23.6</ele>
        <time>2023-09-15T13:20:16Z</time>
      </trkpt>
      <trkpt lat="47.8753" lon="-4.04794">
        <ele>22.6</ele>
        <time>2023-09-15T13:20:19Z</time>
      </trkpt>
      <trkpt lat="47.87526" lon="-4.04798">
        <ele>22.4</ele>
        <time>2023-09-15T13:20:20Z</time>
      </trkpt>
      <trkpt lat="47.87497" lon="-4.04832">
        <ele>21.4</ele>
        <time>2023-09-15T13:20:27Z</time>
      </trkpt>
      <trkpt lat="47.87466" lon="-4.04866">
        <ele>20.8</ele>
        <time>2023-09-15T13:20:35Z</time>
      </trkpt>
      <trkpt lat="47.87434" lon="-4.049">
        <ele>20.4</ele>
        <time>2023-09-15T13:20:43Z</time>
      </trkpt>
      <trkpt lat="47.8743" lon="-4.04904">
        <ele>20.2</ele>
        <time>2023-09-15T13:20:44Z</time>
      </trkpt>
      <trkpt lat="47.87405" lon="-4.04921">
        <ele>20.2</ele>
        <time>2023-09-15T13:20:50Z</time>
      </trkpt>
      <trkpt lat="47.87401" lon="-4.04924">
        <ele>20.4</ele>
        <time>2023-09-15T13:20:51Z</time>
      </trkpt>
      <trkpt lat="47.87366" lon="-4.0494">
        <ele>21.2</ele>
        <time>2023-09-15T13:20:59Z</time>
      </trkpt>
      <trkpt lat="47.87352" lon="-4.04949">
        <ele>21.2</ele>
        <time>2023-09-15T13:21:03Z</time>
      </trkpt>
      <trkpt lat="47.87348" lon="-4.04951">
        <ele>21.4</ele>
        <time>2023-09-15T13:21:04Z</time>
      </trkpt>
      <trkpt lat="47.87334" lon="-4.04958">
        <ele>21.4</ele>
        <time>2023-09-15T13:21:07Z</time>
      </trkpt>
      <trkpt lat="47.87314" lon="-4.04966">
        <ele>21.6</ele>
        <time>2023-09-15T13:21:12Z</time>
      </trkpt>
      <trkpt lat="47.87306" lon="-4.04967">
        <ele>21.8</ele>
        <time>2023-09-15T13:21:14Z</time>
      </trkpt>
      <trkpt lat="47.87294" lon="-4.04969">
        <ele>22.2</ele>
        <time>2023-09-15T13:21:17Z</time>
      </trkpt>
      <trkpt lat="47.8727" lon="-4.04974">
        <ele>22.2</ele>
        <time>2023-09-15T13:21:23Z</time>
      </trkpt>
      <trkpt lat="47.87263" lon="-4.04976">
        <ele>22.4</ele>
        <time>2023-09-15T13:21:25Z</time>
      </trkpt>
      <trkpt lat="47.87235" lon="-4.04984">
        <ele>22.6</ele>
        <time>2023-09-15T13:21:32Z</time>
      </trkpt>
      <trkpt lat="47.87194" lon="-4.04991">
        <ele>21.6</ele>
        <time>2023-09-15T13:21:41Z</time>
      </trkpt>
      <trkpt lat="47.8718" lon="-4.0499">
        <ele>21.2</ele>
        <time>2023-09-15T13:21:45Z</time>
      </trkpt>
      <trkpt lat="47.87177" lon="-4.04989">
        <ele>21.2</ele>
        <time>2023-09-15T13:21:46Z</time>
      </trkpt>
      <trkpt lat="47.8717" lon="-4.04988">
        <ele>21</ele>
        <time>2023-09-15T13:21:48Z</time>
      </trkpt>
      <trkpt lat="47.87147" lon="-4.04986">
        <ele>20.4</ele>
        <time>2023-09-15T13:21:54Z</time>
      </trkpt>
      <trkpt lat="47.87143" lon="-4.04986">
        <ele>20.2</ele>
        <time>2023-09-15T13:21:55Z</time>
      </trkpt>
      <trkpt lat="47.8712" lon="-4.04988">
        <ele>19.6</ele>
        <time>2023-09-15T13:22:00Z</time>
      </trkpt>
      <trkpt lat="47.87115" lon="-4.04988">
        <ele>19.6</ele>
        <time>2023-09-15T13:22:01Z</time>
      </trkpt>
      <trkpt lat="47.87095" lon="-4.04988">
        <ele>19</ele>
        <time>2023-09-15T13:22:05Z</time>
      </trkpt>
      <trkpt lat="47.87077" lon="-4.04989">
        <ele>18.6</ele>
        <time>2023-09-15T13:22:09Z</time>
      </trkpt>
      <trkpt lat="47.87074" lon="-4.0499">
        <ele>18.6</ele>
        <time>2023-09-15T13:22:10Z</time>
      </trkpt>
      <trkpt lat="47.8707" lon="-4.04997">
        <ele>18.6</ele>
        <time>2023-09-15T13:22:13Z</time>
      </trkpt>
      <trkpt lat="47.87071" lon="-4.05005">
        <ele>18.8</ele>
        <time>2023-09-15T13:22:15Z</time>
      </trkpt>
      <trkpt lat="47.87074" lon="-4.05014">
        <ele>18.8</ele>
        <time>2023-09-15T13:22:17Z</time>
      </trkpt>
      <trkpt lat="47.87091" lon="-4.05062">
        <ele>19</ele>
        <time>2023-09-15T13:22:25Z</time>
      </trkpt>
      <trkpt lat="47.87108" lon="-4.05107">
        <ele>19</ele>
        <time>2023-09-15T13:22:32Z</time>
      </trkpt>
      <trkpt lat="47.87111" lon="-4.05114">
        <ele>18.8</ele>
        <time>2023-09-15T13:22:33Z</time>
      </trkpt>
      <trkpt lat="47.87127" lon="-4.05155">
        <ele>19.2</ele>
        <time>2023-09-15T13:22:39Z</time>
      </trkpt>
      <trkpt lat="47.87138" lon="-4.05181">
        <ele>19.2</ele>
        <time>2023-09-15T13:22:43Z</time>
      </trkpt>
      <trkpt lat="47.87153" lon="-4.05222">
        <ele>19.8</ele>
        <time>2023-09-15T13:22:49Z</time>
      </trkpt>
      <trkpt lat="47.87162" lon="-4.05249">
        <ele>19.8</ele>
        <time>2023-09-15T13:22:53Z</time>
      </trkpt>
      <trkpt lat="47.87165" lon="-4.05256">
        <ele>19.8</ele>
        <time>2023-09-15T13:22:54Z</time>
      </trkpt>
      <trkpt lat="47.87176" lon="-4.05289">
        <ele>20</ele>
        <time>2023-09-15T13:22:59Z</time>
      </trkpt>
      <trkpt lat="47.87183" lon="-4.05309">
        <ele>20.2</ele>
        <time>2023-09-15T13:23:02Z</time>
      </trkpt>
      <trkpt lat="47.87186" lon="-4.05316">
        <ele>20</ele>
        <time>2023-09-15T13:23:03Z</time>
      </trkpt>
      <trkpt lat="47.87202" lon="-4.05361">
        <ele>20.4</ele>
        <time>2023-09-15T13:23:10Z</time>
      </trkpt>
      <trkpt lat="47.87209" lon="-4.05382">
        <ele>20.4</ele>
        <time>2023-09-15T13:23:13Z</time>
      </trkpt>
      <trkpt lat="47.87208" lon="-4.05388">
        <ele>20.4</ele>
        <time>2023-09-15T13:23:14Z</time>
      </trkpt>
      <trkpt lat="47.87205" lon="-4.05393">
        <ele>20.2</ele>
        <time>2023-09-15T13:23:15Z</time>
      </trkpt>
      <trkpt lat="47.87197" lon="-4.05396">
        <ele>20</ele>
        <time>2023-09-15T13:23:17Z</time>
      </trkpt>
      <trkpt lat="47.87192" lon="-4.05395">
        <ele>19.6</ele>
        <time>2023-09-15T13:23:18Z</time>
      </trkpt>
      <trkpt lat="47.87174" lon="-4.05392">
        <ele>19</ele>
        <time>2023-09-15T13:23:22Z</time>
      </trkpt>
      <trkpt lat="47.87169" lon="-4.05391">
        <ele>19</ele>
        <time>2023-09-15T13:23:23Z</time>
      </trkpt>
      <trkpt lat="47.87131" lon="-4.05387">
        <ele>18</ele>
        <time>2023-09-15T13:23:30Z</time>
      </trkpt>
      <trkpt lat="47.8711" lon="-4.05386">
        <ele>17.4</ele>
        <time>2023-09-15T13:23:34Z</time>
      </trkpt>
      <trkpt lat="47.87101" lon="-4.05393">
        <ele>17</ele>
        <time>2023-09-15T13:23:36Z</time>
      </trkpt>
      <trkpt lat="47.87097" lon="-4.05399">
        <ele>16.6</ele>
        <time>2023-09-15T13:23:37Z</time>
      </trkpt>
      <trkpt lat="47.87094" lon="-4.05406">
        <ele>16.6</ele>
        <time>2023-09-15T13:23:38Z</time>
      </trkpt>
      <trkpt lat="47.87087" lon="-4.0542">
        <ele>16.2</ele>
        <time>2023-09-15T13:23:40Z</time>
      </trkpt>
      <trkpt lat="47.87074" lon="-4.05449">
        <ele>15.4</ele>
        <time>2023-09-15T13:23:44Z</time>
      </trkpt>
      <trkpt lat="47.87063" lon="-4.05471">
        <ele>15</ele>
        <time>2023-09-15T13:23:47Z</time>
      </trkpt>
      <trkpt lat="47.8706" lon="-4.05478">
        <ele>14.8</ele>
        <time>2023-09-15T13:23:48Z</time>
      </trkpt>
      <trkpt lat="47.87056" lon="-4.05485">
        <ele>14.6</ele>
        <time>2023-09-15T13:23:49Z</time>
      </trkpt>
      <trkpt lat="47.87049" lon="-4.05499">
        <ele>14.6</ele>
        <time>2023-09-15T13:23:51Z</time>
      </trkpt>
      <trkpt lat="47.87033" lon="-4.05534">
        <ele>14.4</ele>
        <time>2023-09-15T13:23:56Z</time>
      </trkpt>
      <trkpt lat="47.87026" lon="-4.05555">
        <ele>14.2</ele>
        <time>2023-09-15T13:23:59Z</time>
      </trkpt>
      <trkpt lat="47.87025" lon="-4.05563">
        <ele>14.2</ele>
        <time>2023-09-15T13:24:00Z</time>
      </trkpt>
      <trkpt lat="47.87024" lon="-4.05585">
        <ele>14</ele>
        <time>2023-09-15T13:24:03Z</time>
      </trkpt>
      <trkpt lat="47.87027" lon="-4.05633">
        <ele>14.4</ele>
        <time>2023-09-15T13:24:10Z</time>
      </trkpt>
      <trkpt lat="47.8703" lon="-4.05646">
        <ele>14.6</ele>
        <time>2023-09-15T13:24:12Z</time>
      </trkpt>
      <trkpt lat="47.87039" lon="-4.05672">
        <ele>15.6</ele>
        <time>2023-09-15T13:24:16Z</time>
      </trkpt>
      <trkpt lat="47.87057" lon="-4.05719">
        <ele>15.4</ele>
        <time>2023-09-15T13:24:24Z</time>
      </trkpt>
      <trkpt lat="47.87063" lon="-4.05739">
        <ele>15.6</ele>
        <time>2023-09-15T13:24:27Z</time>
      </trkpt>
      <trkpt lat="47.8707" lon="-4.05768">
        <ele>15.2</ele>
        <time>2023-09-15T13:24:31Z</time>
      </trkpt>
      <trkpt lat="47.87075" lon="-4.05792">
        <ele>15</ele>
        <time>2023-09-15T13:24:34Z</time>
      </trkpt>
      <trkpt lat="47.87078" lon="-4.05816">
        <ele>15</ele>
        <time>2023-09-15T13:24:37Z</time>
      </trkpt>
      <trkpt lat="47.8708" lon="-4.05824">
        <ele>15</ele>
        <time>2023-09-15T13:24:38Z</time>
      </trkpt>
      <trkpt lat="47.87082" lon="-4.0584">
        <ele>14.4</ele>
        <time>2023-09-15T13:24:40Z</time>
      </trkpt>
      <trkpt lat="47.87092" lon="-4.05888">
        <ele>13.8</ele>
        <time>2023-09-15T13:24:46Z</time>
      </trkpt>
      <trkpt lat="47.87094" lon="-4.05905">
        <ele>13.4</ele>
        <time>2023-09-15T13:24:48Z</time>
      </trkpt>
      <trkpt lat="47.87095" lon="-4.05932">
        <ele>13</ele>
        <time>2023-09-15T13:24:51Z</time>
      </trkpt>
      <trkpt lat="47.87094" lon="-4.0594">
        <ele>13</ele>
        <time>2023-09-15T13:24:52Z</time>
      </trkpt>
      <trkpt lat="47.8709" lon="-4.05973">
        <ele>12.4</ele>
        <time>2023-09-15T13:24:56Z</time>
      </trkpt>
      <trkpt lat="47.87091" lon="-4.05981">
        <ele>12.2</ele>
        <time>2023-09-15T13:24:57Z</time>
      </trkpt>
      <trkpt lat="47.87092" lon="-4.05989">
        <ele>12</ele>
        <time>2023-09-15T13:24:58Z</time>
      </trkpt>
      <trkpt lat="47.87098" lon="-4.06024">
        <ele>11.2</ele>
        <time>2023-09-15T13:25:02Z</time>
      </trkpt>
      <trkpt lat="47.871" lon="-4.06039">
        <ele>11</ele>
        <time>2023-09-15T13:25:04Z</time>
      </trkpt>
      <trkpt lat="47.87101" lon="-4.06057">
        <ele>11.2</ele>
        <time>2023-09-15T13:25:08Z</time>
      </trkpt>
      <trkpt lat="47.87101" lon="-4.0606">
        <ele>11.2</ele>
        <time>2023-09-15T13:25:12Z</time>
      </trkpt>
      <trkpt lat="47.87099" lon="-4.0606">
        <ele>11.2</ele>
        <time>2023-09-15T13:25:17Z</time>
      </trkpt>
      <trkpt lat="47.871" lon="-4.06059">
        <ele>11.2</ele>
        <time>2023-09-15T13:25:19Z</time>
      </trkpt>
      <trkpt lat="47.87101" lon="-4.0606">
        <ele>11.2</ele>
        <time>2023-09-15T13:25:23Z</time>
      </trkpt>
      <trkpt lat="47.871" lon="-4.0606">
        <ele>11.2</ele>
        <time>2023-09-15T13:25:28Z</time>
      </trkpt>
      <trkpt lat="47.871" lon="-4.06059">
        <ele>12</ele>
        <time>2023-09-15T13:25:38Z</time>
      </trkpt>
      <trkpt lat="47.87102" lon="-4.06067">
        <ele>11.2</ele>
        <time>2023-09-15T13:25:43Z</time>
      </trkpt>
      <trkpt lat="47.87104" lon="-4.0607">
        <ele>11.2</ele>
        <time>2023-09-15T13:25:45Z</time>
      </trkpt>
      <trkpt lat="47.87107" lon="-4.06077">
        <ele>11</ele>
        <time>2023-09-15T13:25:50Z</time>
      </trkpt>
      <trkpt lat="47.87106" lon="-4.0608">
        <ele>11</ele>
        <time>2023-09-15T13:25:56Z</time>
      </trkpt>
      <trkpt lat="47.87105" lon="-4.06084">
        <ele>10.4</ele>
        <time>2023-09-15T13:26:02Z</time>
      </trkpt>
      <trkpt lat="47.87107" lon="-4.06082">
        <ele>10.4</ele>
        <time>2023-09-15T13:26:11Z</time>
      </trkpt>
      <trkpt lat="47.87107" lon="-4.06081">
        <ele>10.4</ele>
        <time>2023-09-15T13:26:13Z</time>
      </trkpt>
      <trkpt lat="47.87107" lon="-4.06081">
        <ele>10.4</ele>
        <time>2023-09-15T13:26:14Z</time>
      </trkpt>
      <trkpt lat="47.87107" lon="-4.06081">
        <ele>10.4</ele>
        <time>2023-09-15T13:26:15Z</time>
      </trkpt>
      <trkpt lat="47.87107" lon="-4.06082">
        <ele>10.4</ele>
        <time>2023-09-15T13:26:19Z</time>
      </trkpt>
      <trkpt lat="47.87107" lon="-4.06082">
        <ele>10.4</ele>
        <time>2023-09-15T13:26:21Z</time>
      </trkpt>
      <trkpt lat="47.87109" lon="-4.06079">
        <ele>10.4</ele>
        <time>2023-09-15T13:26:31Z</time>
      </trkpt>
      <trkpt lat="47.87106" lon="-4.06081">
        <ele>10.4</ele>
        <time>2023-09-15T13:26:42Z</time>
      </trkpt>
      <trkpt lat="47.87106" lon="-4.06084">
        <ele>10.6</ele>
        <time>2023-09-15T13:26:45Z</time>
      </trkpt>
      <trkpt lat="47.87107" lon="-4.06085">
        <ele>10.6</ele>
        <time>2023-09-15T13:26:46Z</time>
      </trkpt>
      <trkpt lat="47.87107" lon="-4.06085">
        <ele>10.6</ele>
        <time>2023-09-15T13:26:47Z</time>
      </trkpt>
      <trkpt lat="47.87108" lon="-4.06087">
        <ele>10.6</ele>
        <time>2023-09-15T13:26:50Z</time>
      </trkpt>
      <trkpt lat="47.87108" lon="-4.06087">
        <ele>10.6</ele>
        <time>2023-09-15T13:26:51Z</time>
      </trkpt>
      <trkpt lat="47.87107" lon="-4.06086">
        <ele>10.6</ele>
        <time>2023-09-15T13:26:55Z</time>
      </trkpt>
      <trkpt lat="47.87106" lon="-4.06083">
        <ele>10.2</ele>
        <time>2023-09-15T13:27:01Z</time>
      </trkpt>
      <trkpt lat="47.87101" lon="-4.06081">
        <ele>10.2</ele>
        <time>2023-09-15T13:27:06Z</time>
      </trkpt>
      <trkpt lat="47.87099" lon="-4.06079">
        <ele>10.2</ele>
        <time>2023-09-15T13:27:08Z</time>
      </trkpt>
      <trkpt lat="47.87095" lon="-4.06082">
        <ele>10.2</ele>
        <time>2023-09-15T13:27:11Z</time>
      </trkpt>
      <trkpt lat="47.87093" lon="-4.06085">
        <ele>10.2</ele>
        <time>2023-09-15T13:27:12Z</time>
      </trkpt>
      <trkpt lat="47.87089" lon="-4.06098">
        <ele>10</ele>
        <time>2023-09-15T13:27:15Z</time>
      </trkpt>
      <trkpt lat="47.87085" lon="-4.06109">
        <ele>9.8</ele>
        <time>2023-09-15T13:27:17Z</time>
      </trkpt>
      <trkpt lat="47.87082" lon="-4.06119">
        <ele>8.6</ele>
        <time>2023-09-15T13:27:20Z</time>
      </trkpt>
      <trkpt lat="47.87079" lon="-4.06126">
        <ele>8.4</ele>
        <time>2023-09-15T13:27:22Z</time>
      </trkpt>
      <trkpt lat="47.87078" lon="-4.06133">
        <ele>8.2</ele>
        <time>2023-09-15T13:27:25Z</time>
      </trkpt>
      <trkpt lat="47.87078" lon="-4.06136">
        <ele>8.2</ele>
        <time>2023-09-15T13:27:27Z</time>
      </trkpt>
      <trkpt lat="47.87078" lon="-4.06137">
        <ele>8.2</ele>
        <time>2023-09-15T13:27:28Z</time>
      </trkpt>
      <trkpt lat="47.87078" lon="-4.06137">
        <ele>8</ele>
        <time>2023-09-15T13:27:29Z</time>
      </trkpt>
      <trkpt lat="47.87078" lon="-4.06137">
        <ele>8</ele>
        <time>2023-09-15T13:27:30Z</time>
      </trkpt>
      <trkpt lat="47.87077" lon="-4.06138">
        <ele>8</ele>
        <time>2023-09-15T13:27:33Z</time>
      </trkpt>
      <trkpt lat="47.87077" lon="-4.06138">
        <ele>8.2</ele>
        <time>2023-09-15T13:27:41Z</time>
      </trkpt>
      <trkpt lat="47.87076" lon="-4.06137">
        <ele>8.6</ele>
        <time>2023-09-15T13:27:47Z</time>
      </trkpt>
      <trkpt lat="47.87076" lon="-4.06137">
        <ele>8.6</ele>
        <time>2023-09-15T13:27:48Z</time>
      </trkpt>
      <trkpt lat="47.87077" lon="-4.06138">
        <ele>8.6</ele>
        <time>2023-09-15T13:27:49Z</time>
      </trkpt>
      <trkpt lat="47.87077" lon="-4.06138">
        <ele>8.6</ele>
        <time>2023-09-15T13:27:50Z</time>
      </trkpt>
      <trkpt lat="47.87077" lon="-4.06138">
        <ele>8</ele>
        <time>2023-09-15T13:27:53Z</time>
      </trkpt>
      <trkpt lat="47.87075" lon="-4.06141">
        <ele>8</ele>
        <time>2023-09-15T13:28:00Z</time>
      </trkpt>
      <trkpt lat="47.87075" lon="-4.06144">
        <ele>8</ele>
        <time>2023-09-15T13:28:02Z</time>
      </trkpt>
      <trkpt lat="47.87075" lon="-4.06145">
        <ele>8</ele>
        <time>2023-09-15T13:28:07Z</time>
      </trkpt>
      <trkpt lat="47.87075" lon="-4.06145">
        <ele>8</ele>
        <time>2023-09-15T13:28:14Z</time>
      </trkpt>
      <trkpt lat="47.87075" lon="-4.06145">
        <ele>8</ele>
        <time>2023-09-15T13:28:21Z</time>
      </trkpt>
      <trkpt lat="47.87075" lon="-4.0615">
        <ele>7.8</ele>
        <time>2023-09-15T13:28:27Z</time>
      </trkpt>
      <trkpt lat="47.87074" lon="-4.06151">
        <ele>7.8</ele>
        <time>2023-09-15T13:28:30Z</time>
      </trkpt>
      <trkpt lat="47.87073" lon="-4.06151">
        <ele>7.8</ele>
        <time>2023-09-15T13:28:31Z</time>
      </trkpt>
      <trkpt lat="47.87073" lon="-4.06152">
        <ele>7.8</ele>
        <time>2023-09-15T13:28:35Z</time>
      </trkpt>
      <trkpt lat="47.87072" lon="-4.06151">
        <ele>7.8</ele>
        <time>2023-09-15T13:28:39Z</time>
      </trkpt>
      <trkpt lat="47.87072" lon="-4.06151">
        <ele>7.8</ele>
        <time>2023-09-15T13:28:43Z</time>
      </trkpt>
      <trkpt lat="47.87072" lon="-4.06151">
        <ele>7.8</ele>
        <time>2023-09-15T13:28:50Z</time>
      </trkpt>
      <trkpt lat="47.87072" lon="-4.06152">
        <ele>7.8</ele>
        <time>2023-09-15T13:28:56Z</time>
      </trkpt>
      <trkpt lat="47.87072" lon="-4.06152">
        <ele>7.8</ele>
        <time>2023-09-15T13:28:57Z</time>
      </trkpt>
      <trkpt lat="47.87072" lon="-4.06152">
        <ele>7.8</ele>
        <time>2023-09-15T13:28:58Z</time>
      </trkpt>
      <trkpt lat="47.87072" lon="-4.06152">
        <ele>7.8</ele>
        <time>2023-09-15T13:29:06Z</time>
      </trkpt>
      <trkpt lat="47.87072" lon="-4.06152">
        <ele>7.8</ele>
        <time>2023-09-15T13:29:11Z</time>
      </trkpt>
      <trkpt lat="47.87072" lon="-4.06152">
        <ele>7.8</ele>
        <time>2023-09-15T13:29:12Z</time>
      </trkpt>
      <trkpt lat="47.87072" lon="-4.06152">
        <ele>7.8</ele>
        <time>2023-09-15T13:29:13Z</time>
      </trkpt>
      <trkpt lat="47.87072" lon="-4.06152">
        <ele>7.8</ele>
        <time>2023-09-15T13:29:14Z</time>
      </trkpt>
      <trkpt lat="47.87072" lon="-4.06152">
        <ele>7.8</ele>
        <time>2023-09-15T13:29:24Z</time>
      </trkpt>
      <trkpt lat="47.87072" lon="-4.06152">
        <ele>7.8</ele>
        <time>2023-09-15T13:29:28Z</time>
      </trkpt>
      <trkpt lat="47.87072" lon="-4.06152">
        <ele>7.8</ele>
        <time>2023-09-15T13:29:31Z</time>
      </trkpt>
      <trkpt lat="47.87072" lon="-4.06152">
        <ele>7.8</ele>
        <time>2023-09-15T13:29:45Z</time>
      </trkpt>
      <trkpt lat="47.87072" lon="-4.06152">
        <ele>7.8</ele>
        <time>2023-09-15T13:29:50Z</time>
      </trkpt>
      <trkpt lat="47.87072" lon="-4.06153">
        <ele>7.8</ele>
        <time>2023-09-15T13:30:16Z</time>
      </trkpt>
      <trkpt lat="47.87072" lon="-4.06155">
        <ele>7.8</ele>
        <time>2023-09-15T13:30:24Z</time>
      </trkpt>
      <trkpt lat="47.87073" lon="-4.06157">
        <ele>7.8</ele>
        <time>2023-09-15T13:30:26Z</time>
      </trkpt>
      <trkpt lat="47.87074" lon="-4.06171">
        <ele>7.8</ele>
        <time>2023-09-15T13:30:32Z</time>
      </trkpt>
      <trkpt lat="47.87077" lon="-4.06194">
        <ele>8.2</ele>
        <time>2023-09-15T13:30:41Z</time>
      </trkpt>
      <trkpt lat="47.87081" lon="-4.06215">
        <ele>9.2</ele>
        <time>2023-09-15T13:30:49Z</time>
      </trkpt>
      <trkpt lat="47.87084" lon="-4.06232">
        <ele>9.8</ele>
        <time>2023-09-15T13:30:54Z</time>
      </trkpt>
      <trkpt lat="47.87087" lon="-4.06238">
        <ele>10.2</ele>
        <time>2023-09-15T13:30:56Z</time>
      </trkpt>
      <trkpt lat="47.8709" lon="-4.06257">
        <ele>10.6</ele>
        <time>2023-09-15T13:31:02Z</time>
      </trkpt>
      <trkpt lat="47.87082" lon="-4.06265">
        <ele>10.6</ele>
        <time>2023-09-15T13:31:06Z</time>
      </trkpt>
      <trkpt lat="47.87079" lon="-4.06265">
        <ele>10.6</ele>
        <time>2023-09-15T13:31:07Z</time>
      </trkpt>
      <trkpt lat="47.87062" lon="-4.06266">
        <ele>10.4</ele>
        <time>2023-09-15T13:31:14Z</time>
      </trkpt>
      <trkpt lat="47.87029" lon="-4.06276">
        <ele>10</ele>
        <time>2023-09-15T13:31:24Z</time>
      </trkpt>
      <trkpt lat="47.87002" lon="-4.06288">
        <ele>10.2</ele>
        <time>2023-09-15T13:31:32Z</time>
      </trkpt>
      <trkpt lat="47.86978" lon="-4.06304">
        <ele>8.6</ele>
        <time>2023-09-15T13:31:37Z</time>
      </trkpt>
      <trkpt lat="47.86967" lon="-4.06311">
        <ele>7.8</ele>
        <time>2023-09-15T13:31:39Z</time>
      </trkpt>
      <trkpt lat="47.86962" lon="-4.06315">
        <ele>7.6</ele>
        <time>2023-09-15T13:31:40Z</time>
      </trkpt>
      <trkpt lat="47.86948" lon="-4.06323">
        <ele>7</ele>
        <time>2023-09-15T13:31:43Z</time>
      </trkpt>
      <trkpt lat="47.86943" lon="-4.06326">
        <ele>6.8</ele>
        <time>2023-09-15T13:31:44Z</time>
      </trkpt>
      <trkpt lat="47.86938" lon="-4.06329">
        <ele>6.6</ele>
        <time>2023-09-15T13:31:45Z</time>
      </trkpt>
      <trkpt lat="47.86914" lon="-4.0634">
        <ele>6.6</ele>
        <time>2023-09-15T13:31:50Z</time>
      </trkpt>
      <trkpt lat="47.86909" lon="-4.06341">
        <ele>6.6</ele>
        <time>2023-09-15T13:31:51Z</time>
      </trkpt>
      <trkpt lat="47.86896" lon="-4.06343">
        <ele>6.4</ele>
        <time>2023-09-15T13:31:54Z</time>
      </trkpt>
      <trkpt lat="47.86886" lon="-4.06342">
        <ele>6.4</ele>
        <time>2023-09-15T13:31:56Z</time>
      </trkpt>
      <trkpt lat="47.86881" lon="-4.06344">
        <ele>6.4</ele>
        <time>2023-09-15T13:31:57Z</time>
      </trkpt>
      <trkpt lat="47.86867" lon="-4.06351">
        <ele>5.4</ele>
        <time>2023-09-15T13:32:00Z</time>
      </trkpt>
      <trkpt lat="47.86852" lon="-4.06365">
        <ele>5.2</ele>
        <time>2023-09-15T13:32:04Z</time>
      </trkpt>
      <trkpt lat="47.86848" lon="-4.06368">
        <ele>5.2</ele>
        <time>2023-09-15T13:32:05Z</time>
      </trkpt>
      <trkpt lat="47.86845" lon="-4.06372">
        <ele>5.2</ele>
        <time>2023-09-15T13:32:06Z</time>
      </trkpt>
      <trkpt lat="47.86841" lon="-4.06375">
        <ele>5.2</ele>
        <time>2023-09-15T13:32:07Z</time>
      </trkpt>
      <trkpt lat="47.86837" lon="-4.06377">
        <ele>5</ele>
        <time>2023-09-15T13:32:08Z</time>
      </trkpt>
      <trkpt lat="47.86833" lon="-4.06379">
        <ele>4.8</ele>
        <time>2023-09-15T13:32:09Z</time>
      </trkpt>
      <trkpt lat="47.86821" lon="-4.06384">
        <ele>4.8</ele>
        <time>2023-09-15T13:32:12Z</time>
      </trkpt>
      <trkpt lat="47.868" lon="-4.06389">
        <ele>5.2</ele>
        <time>2023-09-15T13:32:17Z</time>
      </trkpt>
      <trkpt lat="47.86798" lon="-4.06387">
        <ele>5.4</ele>
        <time>2023-09-15T13:32:18Z</time>
      </trkpt>
      <trkpt lat="47.86793" lon="-4.06377">
        <ele>5.4</ele>
        <time>2023-09-15T13:32:21Z</time>
      </trkpt>
      <trkpt lat="47.86787" lon="-4.06368">
        <ele>4.8</ele>
        <time>2023-09-15T13:32:23Z</time>
      </trkpt>
      <trkpt lat="47.86778" lon="-4.06365">
        <ele>4.4</ele>
        <time>2023-09-15T13:32:25Z</time>
      </trkpt>
      <trkpt lat="47.86764" lon="-4.0637">
        <ele>4.6</ele>
        <time>2023-09-15T13:32:29Z</time>
      </trkpt>
      <trkpt lat="47.86756" lon="-4.06378">
        <ele>5.2</ele>
        <time>2023-09-15T13:32:35Z</time>
      </trkpt>
      <trkpt lat="47.86755" lon="-4.0637">
        <ele>5.4</ele>
        <time>2023-09-15T13:32:42Z</time>
      </trkpt>
      <trkpt lat="47.86753" lon="-4.0635">
        <ele>4.6</ele>
        <time>2023-09-15T13:32:46Z</time>
      </trkpt>
      <trkpt lat="47.86751" lon="-4.06345">
        <ele>4.4</ele>
        <time>2023-09-15T13:32:47Z</time>
      </trkpt>
      <trkpt lat="47.86746" lon="-4.06336">
        <ele>4</ele>
        <time>2023-09-15T13:32:49Z</time>
      </trkpt>
      <trkpt lat="47.86735" lon="-4.06311">
        <ele>3.8</ele>
        <time>2023-09-15T13:32:54Z</time>
      </trkpt>
      <trkpt lat="47.8673" lon="-4.06294">
        <ele>5.6</ele>
        <time>2023-09-15T13:32:59Z</time>
      </trkpt>
      <trkpt lat="47.86729" lon="-4.0629">
        <ele>5.8</ele>
        <time>2023-09-15T13:33:00Z</time>
      </trkpt>
      <trkpt lat="47.86729" lon="-4.06284">
        <ele>6.6</ele>
        <time>2023-09-15T13:33:02Z</time>
      </trkpt>
      <trkpt lat="47.86729" lon="-4.06281">
        <ele>6.8</ele>
        <time>2023-09-15T13:33:03Z</time>
      </trkpt>
      <trkpt lat="47.86729" lon="-4.06266">
        <ele>7.6</ele>
        <time>2023-09-15T13:33:07Z</time>
      </trkpt>
      <trkpt lat="47.86729" lon="-4.06262">
        <ele>7.8</ele>
        <time>2023-09-15T13:33:08Z</time>
      </trkpt>
      <trkpt lat="47.86727" lon="-4.06233">
        <ele>8.4</ele>
        <time>2023-09-15T13:33:15Z</time>
      </trkpt>
      <trkpt lat="47.86724" lon="-4.06211">
        <ele>8.8</ele>
        <time>2023-09-15T13:33:21Z</time>
      </trkpt>
      <trkpt lat="47.86724" lon="-4.06207">
        <ele>8.8</ele>
        <time>2023-09-15T13:33:22Z</time>
      </trkpt>
      <trkpt lat="47.86724" lon="-4.06204">
        <ele>9</ele>
        <time>2023-09-15T13:33:23Z</time>
      </trkpt>
      <trkpt lat="47.86716" lon="-4.06198">
        <ele>9.6</ele>
        <time>2023-09-15T13:33:28Z</time>
      </trkpt>
      <trkpt lat="47.867" lon="-4.06201">
        <ele>9.2</ele>
        <time>2023-09-15T13:33:34Z</time>
      </trkpt>
      <trkpt lat="47.86681" lon="-4.06205">
        <ele>8.8</ele>
        <time>2023-09-15T13:33:40Z</time>
      </trkpt>
      <trkpt lat="47.86673" lon="-4.06207">
        <ele>8.4</ele>
        <time>2023-09-15T13:33:42Z</time>
      </trkpt>
      <trkpt lat="47.86651" lon="-4.06211">
        <ele>8</ele>
        <time>2023-09-15T13:33:49Z</time>
      </trkpt>
      <trkpt lat="47.86642" lon="-4.0621">
        <ele>7.6</ele>
        <time>2023-09-15T13:33:51Z</time>
      </trkpt>
      <trkpt lat="47.8663" lon="-4.06208">
        <ele>6.2</ele>
        <time>2023-09-15T13:33:54Z</time>
      </trkpt>
      <trkpt lat="47.86624" lon="-4.06206">
        <ele>6</ele>
        <time>2023-09-15T13:33:55Z</time>
      </trkpt>
      <trkpt lat="47.86615" lon="-4.06203">
        <ele>5.2</ele>
        <time>2023-09-15T13:33:57Z</time>
      </trkpt>
      <trkpt lat="47.86596" lon="-4.06195">
        <ele>3.8</ele>
        <time>2023-09-15T13:34:01Z</time>
      </trkpt>
      <trkpt lat="47.86594" lon="-4.0619">
        <ele>3.8</ele>
        <time>2023-09-15T13:34:02Z</time>
      </trkpt>
      <trkpt lat="47.86596" lon="-4.06178">
        <ele>3.8</ele>
        <time>2023-09-15T13:34:05Z</time>
      </trkpt>
      <trkpt lat="47.86598" lon="-4.06176">
        <ele>4.2</ele>
        <time>2023-09-15T13:34:06Z</time>
      </trkpt>
      <trkpt lat="47.86613" lon="-4.06152">
        <ele>4.8</ele>
        <time>2023-09-15T13:34:14Z</time>
      </trkpt>
      <trkpt lat="47.86609" lon="-4.06137">
        <ele>5.6</ele>
        <time>2023-09-15T13:34:18Z</time>
      </trkpt>
      <trkpt lat="47.86607" lon="-4.06129">
        <ele>6</ele>
        <time>2023-09-15T13:34:20Z</time>
      </trkpt>
      <trkpt lat="47.86604" lon="-4.06111">
        <ele>7</ele>
        <time>2023-09-15T13:34:25Z</time>
      </trkpt>
      <trkpt lat="47.86603" lon="-4.06107">
        <ele>7.2</ele>
        <time>2023-09-15T13:34:26Z</time>
      </trkpt>
      <trkpt lat="47.86599" lon="-4.06086">
        <ele>8.2</ele>
        <time>2023-09-15T13:34:32Z</time>
      </trkpt>
      <trkpt lat="47.86598" lon="-4.06078">
        <ele>8.2</ele>
        <time>2023-09-15T13:34:34Z</time>
      </trkpt>
      <trkpt lat="47.86596" lon="-4.06056">
        <ele>8.8</ele>
        <time>2023-09-15T13:34:41Z</time>
      </trkpt>
      <trkpt lat="47.86599" lon="-4.06046">
        <ele>9.2</ele>
        <time>2023-09-15T13:34:45Z</time>
      </trkpt>
      <trkpt lat="47.86604" lon="-4.06034">
        <ele>9.4</ele>
        <time>2023-09-15T13:34:49Z</time>
      </trkpt>
      <trkpt lat="47.86616" lon="-4.06014">
        <ele>9.8</ele>
        <time>2023-09-15T13:34:58Z</time>
      </trkpt>
      <trkpt lat="47.8663" lon="-4.05991">
        <ele>10.2</ele>
        <time>2023-09-15T13:35:06Z</time>
      </trkpt>
      <trkpt lat="47.86632" lon="-4.05984">
        <ele>10.2</ele>
        <time>2023-09-15T13:35:08Z</time>
      </trkpt>
      <trkpt lat="47.86638" lon="-4.05959">
        <ele>10.6</ele>
        <time>2023-09-15T13:35:14Z</time>
      </trkpt>
      <trkpt lat="47.86639" lon="-4.05931">
        <ele>11</ele>
        <time>2023-09-15T13:35:21Z</time>
      </trkpt>
      <trkpt lat="47.8664" lon="-4.05909">
        <ele>11.4</ele>
        <time>2023-09-15T13:35:27Z</time>
      </trkpt>
      <trkpt lat="47.8664" lon="-4.05897">
        <ele>11.4</ele>
        <time>2023-09-15T13:35:30Z</time>
      </trkpt>
      <trkpt lat="47.8664" lon="-4.05883">
        <ele>11.6</ele>
        <time>2023-09-15T13:35:34Z</time>
      </trkpt>
      <trkpt lat="47.8664" lon="-4.05872">
        <ele>11.6</ele>
        <time>2023-09-15T13:35:37Z</time>
      </trkpt>
      <trkpt lat="47.86637" lon="-4.05843">
        <ele>12</ele>
        <time>2023-09-15T13:35:45Z</time>
      </trkpt>
      <trkpt lat="47.86628" lon="-4.05835">
        <ele>12</ele>
        <time>2023-09-15T13:35:49Z</time>
      </trkpt>
      <trkpt lat="47.86608" lon="-4.05831">
        <ele>11.4</ele>
        <time>2023-09-15T13:35:56Z</time>
      </trkpt>
      <trkpt lat="47.866" lon="-4.0583">
        <ele>11.2</ele>
        <time>2023-09-15T13:35:59Z</time>
      </trkpt>
      <trkpt lat="47.86578" lon="-4.05826">
        <ele>10.8</ele>
        <time>2023-09-15T13:36:06Z</time>
      </trkpt>
      <trkpt lat="47.86557" lon="-4.05824">
        <ele>10.2</ele>
        <time>2023-09-15T13:36:12Z</time>
      </trkpt>
      <trkpt lat="47.86545" lon="-4.05821">
        <ele>10</ele>
        <time>2023-09-15T13:36:15Z</time>
      </trkpt>
      <trkpt lat="47.86518" lon="-4.05821">
        <ele>9.4</ele>
        <time>2023-09-15T13:36:21Z</time>
      </trkpt>
      <trkpt lat="47.86505" lon="-4.05822">
        <ele>9</ele>
        <time>2023-09-15T13:36:24Z</time>
      </trkpt>
      <trkpt lat="47.86489" lon="-4.05829">
        <ele>8.6</ele>
        <time>2023-09-15T13:36:28Z</time>
      </trkpt>
      <trkpt lat="47.86472" lon="-4.05848">
        <ele>8.4</ele>
        <time>2023-09-15T13:36:33Z</time>
      </trkpt>
      <trkpt lat="47.8647" lon="-4.05852">
        <ele>8.4</ele>
        <time>2023-09-15T13:36:34Z</time>
      </trkpt>
      <trkpt lat="47.8645" lon="-4.05882">
        <ele>8.2</ele>
        <time>2023-09-15T13:36:42Z</time>
      </trkpt>
      <trkpt lat="47.86433" lon="-4.05911">
        <ele>8.6</ele>
        <time>2023-09-15T13:36:49Z</time>
      </trkpt>
      <trkpt lat="47.86426" lon="-4.05915">
        <ele>8.4</ele>
        <time>2023-09-15T13:36:51Z</time>
      </trkpt>
      <trkpt lat="47.86423" lon="-4.05913">
        <ele>8.2</ele>
        <time>2023-09-15T13:36:52Z</time>
      </trkpt>
      <trkpt lat="47.86421" lon="-4.0591">
        <ele>8.2</ele>
        <time>2023-09-15T13:36:53Z</time>
      </trkpt>
      <trkpt lat="47.86416" lon="-4.05899">
        <ele>8.2</ele>
        <time>2023-09-15T13:36:56Z</time>
      </trkpt>
      <trkpt lat="47.86413" lon="-4.05883">
        <ele>8</ele>
        <time>2023-09-15T13:37:00Z</time>
      </trkpt>
      <trkpt lat="47.86412" lon="-4.05879">
        <ele>8</ele>
        <time>2023-09-15T13:37:01Z</time>
      </trkpt>
      <trkpt lat="47.8641" lon="-4.05869">
        <ele>8</ele>
        <time>2023-09-15T13:37:03Z</time>
      </trkpt>
      <trkpt lat="47.86408" lon="-4.05863">
        <ele>8</ele>
        <time>2023-09-15T13:37:04Z</time>
      </trkpt>
      <trkpt lat="47.86405" lon="-4.05849">
        <ele>8</ele>
        <time>2023-09-15T13:37:07Z</time>
      </trkpt>
      <trkpt lat="47.86398" lon="-4.05819">
        <ele>7.8</ele>
        <time>2023-09-15T13:37:13Z</time>
      </trkpt>
      <trkpt lat="47.86395" lon="-4.05792">
        <ele>8</ele>
        <time>2023-09-15T13:37:18Z</time>
      </trkpt>
      <trkpt lat="47.8639" lon="-4.05771">
        <ele>7.8</ele>
        <time>2023-09-15T13:37:22Z</time>
      </trkpt>
      <trkpt lat="47.86379" lon="-4.05769">
        <ele>7.6</ele>
        <time>2023-09-15T13:37:26Z</time>
      </trkpt>
      <trkpt lat="47.86373" lon="-4.05771">
        <ele>7.6</ele>
        <time>2023-09-15T13:37:31Z</time>
      </trkpt>
      <trkpt lat="47.86361" lon="-4.05775">
        <ele>7.6</ele>
        <time>2023-09-15T13:37:37Z</time>
      </trkpt>
      <trkpt lat="47.86336" lon="-4.0579">
        <ele>7</ele>
        <time>2023-09-15T13:37:45Z</time>
      </trkpt>
      <trkpt lat="47.86327" lon="-4.05796">
        <ele>7</ele>
        <time>2023-09-15T13:37:48Z</time>
      </trkpt>
      <trkpt lat="47.86311" lon="-4.05802">
        <ele>6</ele>
        <time>2023-09-15T13:37:52Z</time>
      </trkpt>
      <trkpt lat="47.86308" lon="-4.05799">
        <ele>6</ele>
        <time>2023-09-15T13:37:53Z</time>
      </trkpt>
      <trkpt lat="47.86306" lon="-4.05796">
        <ele>5.8</ele>
        <time>2023-09-15T13:37:54Z</time>
      </trkpt>
      <trkpt lat="47.86304" lon="-4.05792">
        <ele>5.6</ele>
        <time>2023-09-15T13:37:55Z</time>
      </trkpt>
      <trkpt lat="47.86294" lon="-4.05765">
        <ele>5.4</ele>
        <time>2023-09-15T13:38:01Z</time>
      </trkpt>
      <trkpt lat="47.86287" lon="-4.05752">
        <ele>5.2</ele>
        <time>2023-09-15T13:38:04Z</time>
      </trkpt>
      <trkpt lat="47.86272" lon="-4.05732">
        <ele>4.8</ele>
        <time>2023-09-15T13:38:09Z</time>
      </trkpt>
      <trkpt lat="47.86248" lon="-4.057">
        <ele>4.2</ele>
        <time>2023-09-15T13:38:16Z</time>
      </trkpt>
      <trkpt lat="47.86226" lon="-4.05668">
        <ele>4</ele>
        <time>2023-09-15T13:38:23Z</time>
      </trkpt>
      <trkpt lat="47.86211" lon="-4.05639">
        <ele>3.8</ele>
        <time>2023-09-15T13:38:29Z</time>
      </trkpt>
      <trkpt lat="47.86209" lon="-4.05633">
        <ele>3.4</ele>
        <time>2023-09-15T13:38:30Z</time>
      </trkpt>
      <trkpt lat="47.86207" lon="-4.0561">
        <ele>3.4</ele>
        <time>2023-09-15T13:38:33Z</time>
      </trkpt>
      <trkpt lat="47.86208" lon="-4.05603">
        <ele>3.4</ele>
        <time>2023-09-15T13:38:34Z</time>
      </trkpt>
      <trkpt lat="47.86216" lon="-4.05575">
        <ele>3.8</ele>
        <time>2023-09-15T13:38:39Z</time>
      </trkpt>
      <trkpt lat="47.86222" lon="-4.05565">
        <ele>4.2</ele>
        <time>2023-09-15T13:38:42Z</time>
      </trkpt>
      <trkpt lat="47.86223" lon="-4.0556">
        <ele>4.2</ele>
        <time>2023-09-15T13:38:43Z</time>
      </trkpt>
      <trkpt lat="47.86222" lon="-4.05555">
        <ele>4.2</ele>
        <time>2023-09-15T13:38:44Z</time>
      </trkpt>
      <trkpt lat="47.86216" lon="-4.05532">
        <ele>4.4</ele>
        <time>2023-09-15T13:38:49Z</time>
      </trkpt>
      <trkpt lat="47.86215" lon="-4.05526">
        <ele>4.4</ele>
        <time>2023-09-15T13:38:50Z</time>
      </trkpt>
      <trkpt lat="47.86214" lon="-4.05504">
        <ele>4.6</ele>
        <time>2023-09-15T13:38:54Z</time>
      </trkpt>
      <trkpt lat="47.86213" lon="-4.05492">
        <ele>4.6</ele>
        <time>2023-09-15T13:38:56Z</time>
      </trkpt>
      <trkpt lat="47.86211" lon="-4.05462">
        <ele>5.2</ele>
        <time>2023-09-15T13:39:02Z</time>
      </trkpt>
      <trkpt lat="47.8621" lon="-4.05456">
        <ele>5.4</ele>
        <time>2023-09-15T13:39:03Z</time>
      </trkpt>
      <trkpt lat="47.86209" lon="-4.05437">
        <ele>5.6</ele>
        <time>2023-09-15T13:39:07Z</time>
      </trkpt>
      <trkpt lat="47.86205" lon="-4.05419">
        <ele>5.6</ele>
        <time>2023-09-15T13:39:11Z</time>
      </trkpt>
      <trkpt lat="47.86209" lon="-4.05395">
        <ele>5.8</ele>
        <time>2023-09-15T13:39:16Z</time>
      </trkpt>
      <trkpt lat="47.86208" lon="-4.0538">
        <ele>6.2</ele>
        <time>2023-09-15T13:39:19Z</time>
      </trkpt>
      <trkpt lat="47.86206" lon="-4.05376">
        <ele>6.4</ele>
        <time>2023-09-15T13:39:20Z</time>
      </trkpt>
      <trkpt lat="47.8619" lon="-4.05359">
        <ele>6.6</ele>
        <time>2023-09-15T13:39:26Z</time>
      </trkpt>
      <trkpt lat="47.86187" lon="-4.05356">
        <ele>6.6</ele>
        <time>2023-09-15T13:39:27Z</time>
      </trkpt>
      <trkpt lat="47.86169" lon="-4.05335">
        <ele>6.8</ele>
        <time>2023-09-15T13:39:34Z</time>
      </trkpt>
      <trkpt lat="47.86154" lon="-4.05318">
        <ele>7</ele>
        <time>2023-09-15T13:39:40Z</time>
      </trkpt>
      <trkpt lat="47.86144" lon="-4.05308">
        <ele>7.4</ele>
        <time>2023-09-15T13:39:44Z</time>
      </trkpt>
      <trkpt lat="47.86136" lon="-4.053">
        <ele>7.6</ele>
        <time>2023-09-15T13:39:47Z</time>
      </trkpt>
      <trkpt lat="47.86119" lon="-4.05284">
        <ele>7.8</ele>
        <time>2023-09-15T13:39:53Z</time>
      </trkpt>
      <trkpt lat="47.86109" lon="-4.05273">
        <ele>8</ele>
        <time>2023-09-15T13:39:57Z</time>
      </trkpt>
      <trkpt lat="47.86095" lon="-4.05257">
        <ele>8.2</ele>
        <time>2023-09-15T13:40:02Z</time>
      </trkpt>
      <trkpt lat="47.8608" lon="-4.05235">
        <ele>8.4</ele>
        <time>2023-09-15T13:40:09Z</time>
      </trkpt>
      <trkpt lat="47.86078" lon="-4.05234">
        <ele>8.4</ele>
        <time>2023-09-15T13:40:10Z</time>
      </trkpt>
      <trkpt lat="47.86069" lon="-4.05233">
        <ele>8.6</ele>
        <time>2023-09-15T13:40:13Z</time>
      </trkpt>
      <trkpt lat="47.86052" lon="-4.05223">
        <ele>8.6</ele>
        <time>2023-09-15T13:40:19Z</time>
      </trkpt>
      <trkpt lat="47.86029" lon="-4.05199">
        <ele>8.8</ele>
        <time>2023-09-15T13:40:27Z</time>
      </trkpt>
      <trkpt lat="47.86024" lon="-4.05194">
        <ele>8.8</ele>
        <time>2023-09-15T13:40:29Z</time>
      </trkpt>
      <trkpt lat="47.86021" lon="-4.05191">
        <ele>8.8</ele>
        <time>2023-09-15T13:40:30Z</time>
      </trkpt>
      <trkpt lat="47.86006" lon="-4.05175">
        <ele>8.4</ele>
        <time>2023-09-15T13:40:35Z</time>
      </trkpt>
      <trkpt lat="47.85986" lon="-4.05157">
        <ele>8</ele>
        <time>2023-09-15T13:40:42Z</time>
      </trkpt>
      <trkpt lat="47.85975" lon="-4.05147">
        <ele>8.6</ele>
        <time>2023-09-15T13:40:48Z</time>
      </trkpt>
      <trkpt lat="47.85957" lon="-4.05145">
        <ele>8.6</ele>
        <time>2023-09-15T13:40:53Z</time>
      </trkpt>
      <trkpt lat="47.85925" lon="-4.05142">
        <ele>7.8</ele>
        <time>2023-09-15T13:41:01Z</time>
      </trkpt>
      <trkpt lat="47.85891" lon="-4.0514">
        <ele>7.6</ele>
        <time>2023-09-15T13:41:08Z</time>
      </trkpt>
      <trkpt lat="47.85854" lon="-4.05133">
        <ele>7.2</ele>
        <time>2023-09-15T13:41:15Z</time>
      </trkpt>
      <trkpt lat="47.85848" lon="-4.05132">
        <ele>7.2</ele>
        <time>2023-09-15T13:41:16Z</time>
      </trkpt>
      <trkpt lat="47.85842" lon="-4.05129">
        <ele>7.2</ele>
        <time>2023-09-15T13:41:17Z</time>
      </trkpt>
      <trkpt lat="47.85814" lon="-4.05111">
        <ele>7</ele>
        <time>2023-09-15T13:41:22Z</time>
      </trkpt>
      <trkpt lat="47.85794" lon="-4.05094">
        <ele>6.6</ele>
        <time>2023-09-15T13:41:26Z</time>
      </trkpt>
      <trkpt lat="47.85783" lon="-4.05086">
        <ele>6</ele>
        <time>2023-09-15T13:41:28Z</time>
      </trkpt>
      <trkpt lat="47.85757" lon="-4.05067">
        <ele>6.2</ele>
        <time>2023-09-15T13:41:33Z</time>
      </trkpt>
      <trkpt lat="47.85738" lon="-4.05053">
        <ele>5.8</ele>
        <time>2023-09-15T13:41:37Z</time>
      </trkpt>
      <trkpt lat="47.85709" lon="-4.05035">
        <ele>5.4</ele>
        <time>2023-09-15T13:41:43Z</time>
      </trkpt>
      <trkpt lat="47.85704" lon="-4.05034">
        <ele>5.2</ele>
        <time>2023-09-15T13:41:44Z</time>
      </trkpt>
      <trkpt lat="47.85698" lon="-4.05033">
        <ele>5.2</ele>
        <time>2023-09-15T13:41:45Z</time>
      </trkpt>
      <trkpt lat="47.85686" lon="-4.05035">
        <ele>4.8</ele>
        <time>2023-09-15T13:41:47Z</time>
      </trkpt>
      <trkpt lat="47.8568" lon="-4.05037">
        <ele>5</ele>
        <time>2023-09-15T13:41:48Z</time>
      </trkpt>
      <trkpt lat="47.85674" lon="-4.05041">
        <ele>4.8</ele>
        <time>2023-09-15T13:41:49Z</time>
      </trkpt>
      <trkpt lat="47.85653" lon="-4.05059">
        <ele>4.8</ele>
        <time>2023-09-15T13:41:53Z</time>
      </trkpt>
      <trkpt lat="47.85638" lon="-4.05074">
        <ele>4.4</ele>
        <time>2023-09-15T13:41:56Z</time>
      </trkpt>
      <trkpt lat="47.85615" lon="-4.05101">
        <ele>3.8</ele>
        <time>2023-09-15T13:42:01Z</time>
      </trkpt>
      <trkpt lat="47.85579" lon="-4.05134">
        <ele>3.8</ele>
        <time>2023-09-15T13:42:09Z</time>
      </trkpt>
      <trkpt lat="47.85569" lon="-4.05139">
        <ele>3.8</ele>
        <time>2023-09-15T13:42:11Z</time>
      </trkpt>
      <trkpt lat="47.85555" lon="-4.05141">
        <ele>3.8</ele>
        <time>2023-09-15T13:42:14Z</time>
      </trkpt>
      <trkpt lat="47.85531" lon="-4.05141">
        <ele>3.8</ele>
        <time>2023-09-15T13:42:19Z</time>
      </trkpt>
      <trkpt lat="47.85523" lon="-4.05141">
        <ele>3.4</ele>
        <time>2023-09-15T13:42:21Z</time>
      </trkpt>
      <trkpt lat="47.85515" lon="-4.05142">
        <ele>3.2</ele>
        <time>2023-09-15T13:42:23Z</time>
      </trkpt>
      <trkpt lat="47.85496" lon="-4.05143">
        <ele>3.4</ele>
        <time>2023-09-15T13:42:28Z</time>
      </trkpt>
      <trkpt lat="47.85488" lon="-4.05143">
        <ele>3.4</ele>
        <time>2023-09-15T13:42:30Z</time>
      </trkpt>
      <trkpt lat="47.85465" lon="-4.05151">
        <ele>3.4</ele>
        <time>2023-09-15T13:42:37Z</time>
      </trkpt>
      <trkpt lat="47.85458" lon="-4.05163">
        <ele>4.2</ele>
        <time>2023-09-15T13:42:42Z</time>
      </trkpt>
      <trkpt lat="47.85456" lon="-4.05166">
        <ele>4.4</ele>
        <time>2023-09-15T13:42:43Z</time>
      </trkpt>
      <trkpt lat="47.85451" lon="-4.05179">
        <ele>4.4</ele>
        <time>2023-09-15T13:42:48Z</time>
      </trkpt>
      <trkpt lat="47.85447" lon="-4.05188">
        <ele>4.2</ele>
        <time>2023-09-15T13:42:51Z</time>
      </trkpt>
      <trkpt lat="47.85441" lon="-4.05205">
        <ele>4</ele>
        <time>2023-09-15T13:42:57Z</time>
      </trkpt>
      <trkpt lat="47.85435" lon="-4.05209">
        <ele>4.2</ele>
        <time>2023-09-15T13:43:02Z</time>
      </trkpt>
      <trkpt lat="47.85434" lon="-4.05213">
        <ele>4.6</ele>
        <time>2023-09-15T13:43:07Z</time>
      </trkpt>
      <trkpt lat="47.85432" lon="-4.0521">
        <ele>4.6</ele>
        <time>2023-09-15T13:43:17Z</time>
      </trkpt>
      <trkpt lat="47.85429" lon="-4.05204">
        <ele>4.4</ele>
        <time>2023-09-15T13:43:21Z</time>
      </trkpt>
      <trkpt lat="47.85427" lon="-4.05199">
        <ele>4.4</ele>
        <time>2023-09-15T13:43:23Z</time>
      </trkpt>
      <trkpt lat="47.85419" lon="-4.05175">
        <ele>3.8</ele>
        <time>2023-09-15T13:43:30Z</time>
      </trkpt>
      <trkpt lat="47.85408" lon="-4.05153">
        <ele>3</ele>
        <time>2023-09-15T13:43:36Z</time>
      </trkpt>
      <trkpt lat="47.85406" lon="-4.05149">
        <ele>3</ele>
        <time>2023-09-15T13:43:37Z</time>
      </trkpt>
      <trkpt lat="47.85392" lon="-4.0512">
        <ele>3.8</ele>
        <time>2023-09-15T13:43:44Z</time>
      </trkpt>
      <trkpt lat="47.85387" lon="-4.05107">
        <ele>4.2</ele>
        <time>2023-09-15T13:43:47Z</time>
      </trkpt>
      <trkpt lat="47.85374" lon="-4.05083">
        <ele>5</ele>
        <time>2023-09-15T13:43:53Z</time>
      </trkpt>
      <trkpt lat="47.85351" lon="-4.05045">
        <ele>4.6</ele>
        <time>2023-09-15T13:44:03Z</time>
      </trkpt>
      <trkpt lat="47.85337" lon="-4.05023">
        <ele>3.8</ele>
        <time>2023-09-15T13:44:09Z</time>
      </trkpt>
      <trkpt lat="47.85333" lon="-4.05019">
        <ele>3.4</ele>
        <time>2023-09-15T13:44:11Z</time>
      </trkpt>
      <trkpt lat="47.85329" lon="-4.0501">
        <ele>3.4</ele>
        <time>2023-09-15T13:44:17Z</time>
      </trkpt>
      <trkpt lat="47.85324" lon="-4.05002">
        <ele>3.4</ele>
        <time>2023-09-15T13:44:22Z</time>
      </trkpt>
      <trkpt lat="47.85324" lon="-4.05002">
        <ele>3.6</ele>
        <time>2023-09-15T13:44:25Z</time>
      </trkpt>
      <trkpt lat="47.85324" lon="-4.05002">
        <ele>3.8</ele>
        <time>2023-09-15T13:44:28Z</time>
      </trkpt>
      <trkpt lat="47.85324" lon="-4.05002">
        <ele>4</ele>
        <time>2023-09-15T13:44:33Z</time>
      </trkpt>
      <trkpt lat="47.85324" lon="-4.05002">
        <ele>3.8</ele>
        <time>2023-09-15T13:44:38Z</time>
      </trkpt>
      <trkpt lat="47.85324" lon="-4.05002">
        <ele>3.8</ele>
        <time>2023-09-15T13:44:41Z</time>
      </trkpt>
      <trkpt lat="47.85324" lon="-4.05002">
        <ele>3.8</ele>
        <time>2023-09-15T13:44:47Z</time>
      </trkpt>
      <trkpt lat="47.85324" lon="-4.05002">
        <ele>4</ele>
        <time>2023-09-15T13:44:50Z</time>
      </trkpt>
      <trkpt lat="47.85323" lon="-4.04999">
        <ele>4</ele>
        <time>2023-09-15T13:44:52Z</time>
      </trkpt>
      <trkpt lat="47.8532" lon="-4.04997">
        <ele>3.8</ele>
        <time>2023-09-15T13:45:00Z</time>
      </trkpt>
      <trkpt lat="47.8532" lon="-4.04997">
        <ele>4</ele>
        <time>2023-09-15T13:45:15Z</time>
      </trkpt>
      <trkpt lat="47.8532" lon="-4.04997">
        <ele>4</ele>
        <time>2023-09-15T13:45:17Z</time>
      </trkpt>
      <trkpt lat="47.8532" lon="-4.04997">
        <ele>4</ele>
        <time>2023-09-15T13:45:21Z</time>
      </trkpt>
      <trkpt lat="47.8532" lon="-4.04997">
        <ele>4</ele>
        <time>2023-09-15T13:45:27Z</time>
      </trkpt>
      <trkpt lat="47.8532" lon="-4.04997">
        <ele>4</ele>
        <time>2023-09-15T13:45:28Z</time>
      </trkpt>
      <trkpt lat="47.8532" lon="-4.04997">
        <ele>4</ele>
        <time>2023-09-15T13:45:29Z</time>
      </trkpt>
      <trkpt lat="47.8532" lon="-4.04997">
        <ele>4</ele>
        <time>2023-09-15T13:45:30Z</time>
      </trkpt>
      <trkpt lat="47.8532" lon="-4.04997">
        <ele>4</ele>
        <time>2023-09-15T13:45:32Z</time>
      </trkpt>
      <trkpt lat="47.85319" lon="-4.04997">
        <ele>4</ele>
        <time>2023-09-15T13:45:41Z</time>
      </trkpt>
      <trkpt lat="47.85319" lon="-4.04997">
        <ele>4</ele>
        <time>2023-09-15T13:45:49Z</time>
      </trkpt>
      <trkpt lat="47.85319" lon="-4.04996">
        <ele>4</ele>
        <time>2023-09-15T13:45:55Z</time>
      </trkpt>
      <trkpt lat="47.8532" lon="-4.04997">
        <ele>4</ele>
        <time>2023-09-15T13:46:05Z</time>
      </trkpt>
      <trkpt lat="47.85319" lon="-4.04996">
        <ele>4</ele>
        <time>2023-09-15T13:46:11Z</time>
      </trkpt>
      <trkpt lat="47.85319" lon="-4.04996">
        <ele>4</ele>
        <time>2023-09-15T13:46:15Z</time>
      </trkpt>
      <trkpt lat="47.85319" lon="-4.04996">
        <ele>4</ele>
        <time>2023-09-15T13:46:20Z</time>
      </trkpt>
      <trkpt lat="47.85319" lon="-4.04996">
        <ele>4</ele>
        <time>2023-09-15T13:46:32Z</time>
      </trkpt>
      <trkpt lat="47.85319" lon="-4.04996">
        <ele>4</ele>
        <time>2023-09-15T13:46:46Z</time>
      </trkpt>
      <trkpt lat="47.85318" lon="-4.04997">
        <ele>4</ele>
        <time>2023-09-15T13:46:57Z</time>
      </trkpt>
      <trkpt lat="47.85319" lon="-4.04997">
        <ele>4</ele>
        <time>2023-09-15T13:46:58Z</time>
      </trkpt>
      <trkpt lat="47.85319" lon="-4.04997">
        <ele>4</ele>
        <time>2023-09-15T13:47:00Z</time>
      </trkpt>
      <trkpt lat="47.85319" lon="-4.04997">
        <ele>4</ele>
        <time>2023-09-15T13:47:03Z</time>
      </trkpt>
      <trkpt lat="47.85319" lon="-4.04997">
        <ele>4</ele>
        <time>2023-09-15T13:47:04Z</time>
      </trkpt>
      <trkpt lat="47.85319" lon="-4.04997">
        <ele>4</ele>
        <time>2023-09-15T13:47:09Z</time>
      </trkpt>
      <trkpt lat="47.85319" lon="-4.04994">
        <ele>4</ele>
        <time>2023-09-15T13:47:15Z</time>
      </trkpt>
      <trkpt lat="47.85314" lon="-4.04983">
        <ele>4</ele>
        <time>2023-09-15T13:47:20Z</time>
      </trkpt>
      <trkpt lat="47.85302" lon="-4.04962">
        <ele>3.8</ele>
        <time>2023-09-15T13:47:29Z</time>
      </trkpt>
      <trkpt lat="47.8529" lon="-4.04945">
        <ele>4</ele>
        <time>2023-09-15T13:47:35Z</time>
      </trkpt>
      <trkpt lat="47.85288" lon="-4.04942">
        <ele>4</ele>
        <time>2023-09-15T13:47:36Z</time>
      </trkpt>
      <trkpt lat="47.85282" lon="-4.04933">
        <ele>3.8</ele>
        <time>2023-09-15T13:47:39Z</time>
      </trkpt>
      <trkpt lat="47.85274" lon="-4.0492">
        <ele>3.6</ele>
        <time>2023-09-15T13:47:43Z</time>
      </trkpt>
      <trkpt lat="47.85255" lon="-4.04892">
        <ele>3.2</ele>
        <time>2023-09-15T13:47:51Z</time>
      </trkpt>
      <trkpt lat="47.85239" lon="-4.04866">
        <ele>3.2</ele>
        <time>2023-09-15T13:47:58Z</time>
      </trkpt>
      <trkpt lat="47.85237" lon="-4.04864">
        <ele>3.8</ele>
        <time>2023-09-15T13:48:02Z</time>
      </trkpt>
      <trkpt lat="47.85237" lon="-4.04865">
        <ele>4.4</ele>
        <time>2023-09-15T13:48:11Z</time>
      </trkpt>
      <trkpt lat="47.85237" lon="-4.04865">
        <ele>4.4</ele>
        <time>2023-09-15T13:48:19Z</time>
      </trkpt>
      <trkpt lat="47.85236" lon="-4.04863">
        <ele>4.2</ele>
        <time>2023-09-15T13:48:25Z</time>
      </trkpt>
      <trkpt lat="47.85229" lon="-4.04853">
        <ele>4</ele>
        <time>2023-09-15T13:48:30Z</time>
      </trkpt>
      <trkpt lat="47.85227" lon="-4.0485">
        <ele>4</ele>
        <time>2023-09-15T13:48:31Z</time>
      </trkpt>
      <trkpt lat="47.85221" lon="-4.04841">
        <ele>3.8</ele>
        <time>2023-09-15T13:48:34Z</time>
      </trkpt>
      <trkpt lat="47.85211" lon="-4.04824">
        <ele>3.8</ele>
        <time>2023-09-15T13:48:39Z</time>
      </trkpt>
      <trkpt lat="47.85195" lon="-4.04799">
        <ele>3.8</ele>
        <time>2023-09-15T13:48:46Z</time>
      </trkpt>
      <trkpt lat="47.8519" lon="-4.04792">
        <ele>3.8</ele>
        <time>2023-09-15T13:48:48Z</time>
      </trkpt>
      <trkpt lat="47.85177" lon="-4.04772">
        <ele>3.6</ele>
        <time>2023-09-15T13:48:53Z</time>
      </trkpt>
      <trkpt lat="47.8517" lon="-4.04759">
        <ele>3.8</ele>
        <time>2023-09-15T13:48:56Z</time>
      </trkpt>
      <trkpt lat="47.85167" lon="-4.04755">
        <ele>3.8</ele>
        <time>2023-09-15T13:48:57Z</time>
      </trkpt>
      <trkpt lat="47.85151" lon="-4.0473">
        <ele>4.4</ele>
        <time>2023-09-15T13:49:04Z</time>
      </trkpt>
      <trkpt lat="47.85131" lon="-4.04703">
        <ele>4.2</ele>
        <time>2023-09-15T13:49:12Z</time>
      </trkpt>
      <trkpt lat="47.85125" lon="-4.04699">
        <ele>4.2</ele>
        <time>2023-09-15T13:49:15Z</time>
      </trkpt>
      <trkpt lat="47.85123" lon="-4.04701">
        <ele>4.2</ele>
        <time>2023-09-15T13:49:16Z</time>
      </trkpt>
      <trkpt lat="47.85119" lon="-4.04717">
        <ele>5</ele>
        <time>2023-09-15T13:49:21Z</time>
      </trkpt>
      <trkpt lat="47.85118" lon="-4.04721">
        <ele>5.2</ele>
        <time>2023-09-15T13:49:22Z</time>
      </trkpt>
      <trkpt lat="47.85118" lon="-4.04745">
        <ele>6.4</ele>
        <time>2023-09-15T13:49:29Z</time>
      </trkpt>
      <trkpt lat="47.85115" lon="-4.0476">
        <ele>7.6</ele>
        <time>2023-09-15T13:49:34Z</time>
      </trkpt>
      <trkpt lat="47.85114" lon="-4.04765">
        <ele>7.8</ele>
        <time>2023-09-15T13:49:36Z</time>
      </trkpt>
      <trkpt lat="47.85114" lon="-4.04765">
        <ele>8.4</ele>
        <time>2023-09-15T13:49:40Z</time>
      </trkpt>
      <trkpt lat="47.85114" lon="-4.04765">
        <ele>8.6</ele>
        <time>2023-09-15T13:49:41Z</time>
      </trkpt>
      <trkpt lat="47.85114" lon="-4.04765">
        <ele>8.6</ele>
        <time>2023-09-15T13:49:43Z</time>
      </trkpt>
      <trkpt lat="47.85116" lon="-4.04766">
        <ele>8.8</ele>
        <time>2023-09-15T13:49:49Z</time>
      </trkpt>
      <trkpt lat="47.85116" lon="-4.04766">
        <ele>8.8</ele>
        <time>2023-09-15T13:49:55Z</time>
      </trkpt>
      <trkpt lat="47.85116" lon="-4.04766">
        <ele>8.8</ele>
        <time>2023-09-15T13:50:01Z</time>
      </trkpt>
      <trkpt lat="47.85114" lon="-4.04763">
        <ele>8.6</ele>
        <time>2023-09-15T13:50:06Z</time>
      </trkpt>
      <trkpt lat="47.85114" lon="-4.0476">
        <ele>8.4</ele>
        <time>2023-09-15T13:50:11Z</time>
      </trkpt>
      <trkpt lat="47.85115" lon="-4.0476">
        <ele>8.4</ele>
        <time>2023-09-15T13:50:14Z</time>
      </trkpt>
      <trkpt lat="47.85115" lon="-4.0476">
        <ele>8.4</ele>
        <time>2023-09-15T13:50:17Z</time>
      </trkpt>
      <trkpt lat="47.85115" lon="-4.0476">
        <ele>8.4</ele>
        <time>2023-09-15T13:50:18Z</time>
      </trkpt>
      <trkpt lat="47.85117" lon="-4.04755">
        <ele>8.2</ele>
        <time>2023-09-15T13:50:20Z</time>
      </trkpt>
      <trkpt lat="47.85117" lon="-4.04734">
        <ele>6.8</ele>
        <time>2023-09-15T13:50:24Z</time>
      </trkpt>
      <trkpt lat="47.85117" lon="-4.04722">
        <ele>5</ele>
        <time>2023-09-15T13:50:26Z</time>
      </trkpt>
      <trkpt lat="47.85118" lon="-4.04708">
        <ele>4.2</ele>
        <time>2023-09-15T13:50:28Z</time>
      </trkpt>
      <trkpt lat="47.85119" lon="-4.04702">
        <ele>3.4</ele>
        <time>2023-09-15T13:50:29Z</time>
      </trkpt>
      <trkpt lat="47.85121" lon="-4.04696">
        <ele>3.4</ele>
        <time>2023-09-15T13:50:30Z</time>
      </trkpt>
      <trkpt lat="47.85122" lon="-4.04676">
        <ele>3.2</ele>
        <time>2023-09-15T13:50:34Z</time>
      </trkpt>
      <trkpt lat="47.85119" lon="-4.04663">
        <ele>3.4</ele>
        <time>2023-09-15T13:50:37Z</time>
      </trkpt>
      <trkpt lat="47.85113" lon="-4.04658">
        <ele>3.4</ele>
        <time>2023-09-15T13:50:39Z</time>
      </trkpt>
      <trkpt lat="47.85101" lon="-4.04654">
        <ele>3.6</ele>
        <time>2023-09-15T13:50:43Z</time>
      </trkpt>
      <trkpt lat="47.85096" lon="-4.04649">
        <ele>3.6</ele>
        <time>2023-09-15T13:50:45Z</time>
      </trkpt>
      <trkpt lat="47.85094" lon="-4.04646">
        <ele>3.6</ele>
        <time>2023-09-15T13:50:46Z</time>
      </trkpt>
      <trkpt lat="47.85078" lon="-4.04626">
        <ele>3.6</ele>
        <time>2023-09-15T13:50:52Z</time>
      </trkpt>
      <trkpt lat="47.85065" lon="-4.04607">
        <ele>4</ele>
        <time>2023-09-15T13:50:57Z</time>
      </trkpt>
      <trkpt lat="47.85055" lon="-4.04594">
        <ele>4</ele>
        <time>2023-09-15T13:51:01Z</time>
      </trkpt>
      <trkpt lat="47.85038" lon="-4.04573">
        <ele>4</ele>
        <time>2023-09-15T13:51:07Z</time>
      </trkpt>
      <trkpt lat="47.85019" lon="-4.04553">
        <ele>3.4</ele>
        <time>2023-09-15T13:51:14Z</time>
      </trkpt>
      <trkpt lat="47.85006" lon="-4.04538">
        <ele>3.4</ele>
        <time>2023-09-15T13:51:18Z</time>
      </trkpt>
      <trkpt lat="47.84999" lon="-4.0453">
        <ele>3.4</ele>
        <time>2023-09-15T13:51:20Z</time>
      </trkpt>
      <trkpt lat="47.84971" lon="-4.04504">
        <ele>3.4</ele>
        <time>2023-09-15T13:51:29Z</time>
      </trkpt>
      <trkpt lat="47.84948" lon="-4.04499">
        <ele>4</ele>
        <time>2023-09-15T13:51:34Z</time>
      </trkpt>
      <trkpt lat="47.84921" lon="-4.04489">
        <ele>4.4</ele>
        <time>2023-09-15T13:51:42Z</time>
      </trkpt>
      <trkpt lat="47.84895" lon="-4.04465">
        <ele>5</ele>
        <time>2023-09-15T13:51:51Z</time>
      </trkpt>
      <trkpt lat="47.84871" lon="-4.04436">
        <ele>5.2</ele>
        <time>2023-09-15T13:51:59Z</time>
      </trkpt>
      <trkpt lat="47.84859" lon="-4.04422">
        <ele>5.4</ele>
        <time>2023-09-15T13:52:03Z</time>
      </trkpt>
      <trkpt lat="47.84846" lon="-4.04406">
        <ele>5.4</ele>
        <time>2023-09-15T13:52:08Z</time>
      </trkpt>
      <trkpt lat="47.84819" lon="-4.04374">
        <ele>6.2</ele>
        <time>2023-09-15T13:52:18Z</time>
      </trkpt>
      <trkpt lat="47.84803" lon="-4.04356">
        <ele>6.2</ele>
        <time>2023-09-15T13:52:23Z</time>
      </trkpt>
      <trkpt lat="47.84795" lon="-4.04342">
        <ele>6</ele>
        <time>2023-09-15T13:52:26Z</time>
      </trkpt>
      <trkpt lat="47.84786" lon="-4.0432">
        <ele>5.6</ele>
        <time>2023-09-15T13:52:30Z</time>
      </trkpt>
      <trkpt lat="47.84781" lon="-4.0431">
        <ele>5.4</ele>
        <time>2023-09-15T13:52:32Z</time>
      </trkpt>
      <trkpt lat="47.84778" lon="-4.04305">
        <ele>5.4</ele>
        <time>2023-09-15T13:52:33Z</time>
      </trkpt>
      <trkpt lat="47.84754" lon="-4.04271">
        <ele>5.2</ele>
        <time>2023-09-15T13:52:41Z</time>
      </trkpt>
      <trkpt lat="47.84748" lon="-4.04263">
        <ele>5.2</ele>
        <time>2023-09-15T13:52:43Z</time>
      </trkpt>
      <trkpt lat="47.84726" lon="-4.04232">
        <ele>5.2</ele>
        <time>2023-09-15T13:52:50Z</time>
      </trkpt>
      <trkpt lat="47.84705" lon="-4.04203">
        <ele>4.8</ele>
        <time>2023-09-15T13:52:57Z</time>
      </trkpt>
      <trkpt lat="47.84702" lon="-4.04198">
        <ele>4.4</ele>
        <time>2023-09-15T13:52:58Z</time>
      </trkpt>
      <trkpt lat="47.84678" lon="-4.04163">
        <ele>4</ele>
        <time>2023-09-15T13:53:06Z</time>
      </trkpt>
      <trkpt lat="47.84659" lon="-4.04136">
        <ele>4</ele>
        <time>2023-09-15T13:53:13Z</time>
      </trkpt>
      <trkpt lat="47.84651" lon="-4.04124">
        <ele>4</ele>
        <time>2023-09-15T13:53:17Z</time>
      </trkpt>
      <trkpt lat="47.84647" lon="-4.04123">
        <ele>4</ele>
        <time>2023-09-15T13:53:18Z</time>
      </trkpt>
      <trkpt lat="47.84644" lon="-4.04123">
        <ele>4</ele>
        <time>2023-09-15T13:53:19Z</time>
      </trkpt>
      <trkpt lat="47.84622" lon="-4.04128">
        <ele>4.8</ele>
        <time>2023-09-15T13:53:26Z</time>
      </trkpt>
      <trkpt lat="47.84602" lon="-4.04133">
        <ele>5</ele>
        <time>2023-09-15T13:53:31Z</time>
      </trkpt>
      <trkpt lat="47.84582" lon="-4.0414">
        <ele>5.6</ele>
        <time>2023-09-15T13:53:37Z</time>
      </trkpt>
      <trkpt lat="47.8458" lon="-4.04141">
        <ele>5.8</ele>
        <time>2023-09-15T13:53:38Z</time>
      </trkpt>
      <trkpt lat="47.84566" lon="-4.04145">
        <ele>6</ele>
        <time>2023-09-15T13:53:44Z</time>
      </trkpt>
      <trkpt lat="47.84561" lon="-4.04144">
        <ele>6.2</ele>
        <time>2023-09-15T13:53:46Z</time>
      </trkpt>
      <trkpt lat="47.84553" lon="-4.04143">
        <ele>6.6</ele>
        <time>2023-09-15T13:53:52Z</time>
      </trkpt>
      <trkpt lat="47.84553" lon="-4.04143">
        <ele>6.6</ele>
        <time>2023-09-15T13:53:53Z</time>
      </trkpt>
      <trkpt lat="47.84553" lon="-4.04143">
        <ele>6.8</ele>
        <time>2023-09-15T13:53:56Z</time>
      </trkpt>
      <trkpt lat="47.84552" lon="-4.04142">
        <ele>6.8</ele>
        <time>2023-09-15T13:53:58Z</time>
      </trkpt>
      <trkpt lat="47.8455" lon="-4.04143">
        <ele>6.8</ele>
        <time>2023-09-15T13:54:01Z</time>
      </trkpt>
      <trkpt lat="47.8455" lon="-4.04143">
        <ele>6.8</ele>
        <time>2023-09-15T13:54:03Z</time>
      </trkpt>
      <trkpt lat="47.8455" lon="-4.04143">
        <ele>6.8</ele>
        <time>2023-09-15T13:54:10Z</time>
      </trkpt>
      <trkpt lat="47.84546" lon="-4.04144">
        <ele>6.6</ele>
        <time>2023-09-15T13:54:14Z</time>
      </trkpt>
      <trkpt lat="47.84535" lon="-4.04141">
        <ele>6.6</ele>
        <time>2023-09-15T13:54:19Z</time>
      </trkpt>
      <trkpt lat="47.84522" lon="-4.04134">
        <ele>7</ele>
        <time>2023-09-15T13:54:26Z</time>
      </trkpt>
      <trkpt lat="47.84507" lon="-4.04121">
        <ele>6.6</ele>
        <time>2023-09-15T13:54:32Z</time>
      </trkpt>
      <trkpt lat="47.84505" lon="-4.04118">
        <ele>6.4</ele>
        <time>2023-09-15T13:54:33Z</time>
      </trkpt>
      <trkpt lat="47.84482" lon="-4.04088">
        <ele>6</ele>
        <time>2023-09-15T13:54:43Z</time>
      </trkpt>
      <trkpt lat="47.84472" lon="-4.04075">
        <ele>6</ele>
        <time>2023-09-15T13:54:48Z</time>
      </trkpt>
      <trkpt lat="47.84466" lon="-4.04066">
        <ele>5.6</ele>
        <time>2023-09-15T13:54:51Z</time>
      </trkpt>
      <trkpt lat="47.84455" lon="-4.04038">
        <ele>5.2</ele>
        <time>2023-09-15T13:54:58Z</time>
      </trkpt>
      <trkpt lat="47.84459" lon="-4.04016">
        <ele>5.4</ele>
        <time>2023-09-15T13:55:03Z</time>
      </trkpt>
      <trkpt lat="47.84468" lon="-4.03996">
        <ele>6</ele>
        <time>2023-09-15T13:55:09Z</time>
      </trkpt>
      <trkpt lat="47.84474" lon="-4.03983">
        <ele>6</ele>
        <time>2023-09-15T13:55:14Z</time>
      </trkpt>
      <trkpt lat="47.84484" lon="-4.03969">
        <ele>6</ele>
        <time>2023-09-15T13:55:19Z</time>
      </trkpt>
      <trkpt lat="47.84489" lon="-4.03963">
        <ele>6</ele>
        <time>2023-09-15T13:55:21Z</time>
      </trkpt>
      <trkpt lat="47.84491" lon="-4.03961">
        <ele>6</ele>
        <time>2023-09-15T13:55:22Z</time>
      </trkpt>
      <trkpt lat="47.84495" lon="-4.03956">
        <ele>6.2</ele>
        <time>2023-09-15T13:55:24Z</time>
      </trkpt>
      <trkpt lat="47.84497" lon="-4.03953">
        <ele>6.2</ele>
        <time>2023-09-15T13:55:25Z</time>
      </trkpt>
      <trkpt lat="47.84509" lon="-4.03938">
        <ele>6</ele>
        <time>2023-09-15T13:55:30Z</time>
      </trkpt>
      <trkpt lat="47.84528" lon="-4.03915">
        <ele>6</ele>
        <time>2023-09-15T13:55:39Z</time>
      </trkpt>
      <trkpt lat="47.84546" lon="-4.03892">
        <ele>5.8</ele>
        <time>2023-09-15T13:55:49Z</time>
      </trkpt>
      <trkpt lat="47.84551" lon="-4.03883">
        <ele>6</ele>
        <time>2023-09-15T13:55:54Z</time>
      </trkpt>
      <trkpt lat="47.84553" lon="-4.03879">
        <ele>5.8</ele>
        <time>2023-09-15T13:55:57Z</time>
      </trkpt>
      <trkpt lat="47.84555" lon="-4.03878">
        <ele>5.8</ele>
        <time>2023-09-15T13:55:59Z</time>
      </trkpt>
      <trkpt lat="47.84556" lon="-4.03877">
        <ele>5.8</ele>
        <time>2023-09-15T13:56:02Z</time>
      </trkpt>
      <trkpt lat="47.84556" lon="-4.03877">
        <ele>6.4</ele>
        <time>2023-09-15T13:56:11Z</time>
      </trkpt>
      <trkpt lat="47.84556" lon="-4.03877">
        <ele>6.4</ele>
        <time>2023-09-15T13:56:14Z</time>
      </trkpt>
      <trkpt lat="47.84556" lon="-4.03877">
        <ele>6.4</ele>
        <time>2023-09-15T13:56:15Z</time>
      </trkpt>
      <trkpt lat="47.84556" lon="-4.03877">
        <ele>6.4</ele>
        <time>2023-09-15T13:56:16Z</time>
      </trkpt>
      <trkpt lat="47.84556" lon="-4.03877">
        <ele>6.2</ele>
        <time>2023-09-15T13:56:17Z</time>
      </trkpt>
      <trkpt lat="47.84556" lon="-4.03877">
        <ele>5.8</ele>
        <time>2023-09-15T13:56:20Z</time>
      </trkpt>
      <trkpt lat="47.84555" lon="-4.03878">
        <ele>5.6</ele>
        <time>2023-09-15T13:56:28Z</time>
      </trkpt>
      <trkpt lat="47.84555" lon="-4.03878">
        <ele>5.6</ele>
        <time>2023-09-15T13:56:31Z</time>
      </trkpt>
      <trkpt lat="47.84555" lon="-4.03878">
        <ele>5.4</ele>
        <time>2023-09-15T13:56:40Z</time>
      </trkpt>
      <trkpt lat="47.84557" lon="-4.03876">
        <ele>5.6</ele>
        <time>2023-09-15T13:56:45Z</time>
      </trkpt>
      <trkpt lat="47.84569" lon="-4.03867">
        <ele>5.4</ele>
        <time>2023-09-15T13:56:51Z</time>
      </trkpt>
      <trkpt lat="47.84576" lon="-4.03857">
        <ele>5.4</ele>
        <time>2023-09-15T13:56:54Z</time>
      </trkpt>
      <trkpt lat="47.84578" lon="-4.03852">
        <ele>5.4</ele>
        <time>2023-09-15T13:56:55Z</time>
      </trkpt>
      <trkpt lat="47.84581" lon="-4.03849">
        <ele>5.4</ele>
        <time>2023-09-15T13:56:56Z</time>
      </trkpt>
      <trkpt lat="47.84583" lon="-4.03845">
        <ele>5.4</ele>
        <time>2023-09-15T13:56:57Z</time>
      </trkpt>
      <trkpt lat="47.84599" lon="-4.03825">
        <ele>5.4</ele>
        <time>2023-09-15T13:57:04Z</time>
      </trkpt>
      <trkpt lat="47.8462" lon="-4.03801">
        <ele>5.2</ele>
        <time>2023-09-15T13:57:13Z</time>
      </trkpt>
      <trkpt lat="47.8464" lon="-4.03776">
        <ele>5.4</ele>
        <time>2023-09-15T13:57:23Z</time>
      </trkpt>
      <trkpt lat="47.84656" lon="-4.03756">
        <ele>5.6</ele>
        <time>2023-09-15T13:57:31Z</time>
      </trkpt>
      <trkpt lat="47.84662" lon="-4.03749">
        <ele>5.6</ele>
        <time>2023-09-15T13:57:34Z</time>
      </trkpt>
      <trkpt lat="47.84673" lon="-4.03737">
        <ele>5.6</ele>
        <time>2023-09-15T13:57:40Z</time>
      </trkpt>
      <trkpt lat="47.84682" lon="-4.03724">
        <ele>5.6</ele>
        <time>2023-09-15T13:57:45Z</time>
      </trkpt>
      <trkpt lat="47.84701" lon="-4.03701">
        <ele>5.4</ele>
        <time>2023-09-15T13:57:53Z</time>
      </trkpt>
      <trkpt lat="47.84703" lon="-4.03699">
        <ele>5.4</ele>
        <time>2023-09-15T13:57:54Z</time>
      </trkpt>
      <trkpt lat="47.84727" lon="-4.03669">
        <ele>5.8</ele>
        <time>2023-09-15T13:58:04Z</time>
      </trkpt>
      <trkpt lat="47.8473" lon="-4.03665">
        <ele>5.8</ele>
        <time>2023-09-15T13:58:05Z</time>
      </trkpt>
      <trkpt lat="47.84761" lon="-4.03627">
        <ele>6.2</ele>
        <time>2023-09-15T13:58:19Z</time>
      </trkpt>
      <trkpt lat="47.84777" lon="-4.03606">
        <ele>6</ele>
        <time>2023-09-15T13:58:27Z</time>
      </trkpt>
      <trkpt lat="47.84787" lon="-4.03602">
        <ele>5.8</ele>
        <time>2023-09-15T13:58:31Z</time>
      </trkpt>
      <trkpt lat="47.8479" lon="-4.03603">
        <ele>5.6</ele>
        <time>2023-09-15T13:58:32Z</time>
      </trkpt>
      <trkpt lat="47.84802" lon="-4.03617">
        <ele>5</ele>
        <time>2023-09-15T13:58:37Z</time>
      </trkpt>
      <trkpt lat="47.84809" lon="-4.03624">
        <ele>4.4</ele>
        <time>2023-09-15T13:58:39Z</time>
      </trkpt>
      <trkpt lat="47.84823" lon="-4.03639">
        <ele>3.8</ele>
        <time>2023-09-15T13:58:43Z</time>
      </trkpt>
      <trkpt lat="47.84837" lon="-4.03654">
        <ele>3.4</ele>
        <time>2023-09-15T13:58:47Z</time>
      </trkpt>
      <trkpt lat="47.84844" lon="-4.0366">
        <ele>3.4</ele>
        <time>2023-09-15T13:58:49Z</time>
      </trkpt>
      <trkpt lat="47.84847" lon="-4.03663">
        <ele>3.4</ele>
        <time>2023-09-15T13:58:50Z</time>
      </trkpt>
      <trkpt lat="47.84851" lon="-4.03666">
        <ele>3.4</ele>
        <time>2023-09-15T13:58:51Z</time>
      </trkpt>
      <trkpt lat="47.84854" lon="-4.03669">
        <ele>3.4</ele>
        <time>2023-09-15T13:58:52Z</time>
      </trkpt>
      <trkpt lat="47.84857" lon="-4.03672">
        <ele>3.6</ele>
        <time>2023-09-15T13:58:53Z</time>
      </trkpt>
      <trkpt lat="47.84881" lon="-4.03688">
        <ele>3.8</ele>
        <time>2023-09-15T13:59:00Z</time>
      </trkpt>
      <trkpt lat="47.84906" lon="-4.03704">
        <ele>3.8</ele>
        <time>2023-09-15T13:59:07Z</time>
      </trkpt>
      <trkpt lat="47.84913" lon="-4.03708">
        <ele>4</ele>
        <time>2023-09-15T13:59:09Z</time>
      </trkpt>
      <trkpt lat="47.84931" lon="-4.03714">
        <ele>4</ele>
        <time>2023-09-15T13:59:13Z</time>
      </trkpt>
      <trkpt lat="47.84945" lon="-4.03717">
        <ele>3.6</ele>
        <time>2023-09-15T13:59:16Z</time>
      </trkpt>
      <trkpt lat="47.84984" lon="-4.03723">
        <ele>2.4</ele>
        <time>2023-09-15T13:59:24Z</time>
      </trkpt>
      <trkpt lat="47.84989" lon="-4.03723">
        <ele>2.6</ele>
        <time>2023-09-15T13:59:25Z</time>
      </trkpt>
      <trkpt lat="47.85029" lon="-4.03725">
        <ele>2.6</ele>
        <time>2023-09-15T13:59:34Z</time>
      </trkpt>
      <trkpt lat="47.85069" lon="-4.03727">
        <ele>2.8</ele>
        <time>2023-09-15T13:59:43Z</time>
      </trkpt>
      <trkpt lat="47.85092" lon="-4.03725">
        <ele>2.4</ele>
        <time>2023-09-15T13:59:48Z</time>
      </trkpt>
      <trkpt lat="47.85096" lon="-4.03724">
        <ele>2.4</ele>
        <time>2023-09-15T13:59:49Z</time>
      </trkpt>
      <trkpt lat="47.85102" lon="-4.03716">
        <ele>2.4</ele>
        <time>2023-09-15T13:59:51Z</time>
      </trkpt>
      <trkpt lat="47.85101" lon="-4.03701">
        <ele>2.4</ele>
        <time>2023-09-15T13:59:54Z</time>
      </trkpt>
      <trkpt lat="47.85095" lon="-4.03676">
        <ele>2.4</ele>
        <time>2023-09-15T13:59:59Z</time>
      </trkpt>
      <trkpt lat="47.85087" lon="-4.03626">
        <ele>2.2</ele>
        <time>2023-09-15T14:00:08Z</time>
      </trkpt>
      <trkpt lat="47.85087" lon="-4.03621">
        <ele>2.2</ele>
        <time>2023-09-15T14:00:09Z</time>
      </trkpt>
      <trkpt lat="47.85086" lon="-4.03611">
        <ele>2.2</ele>
        <time>2023-09-15T14:00:11Z</time>
      </trkpt>
      <trkpt lat="47.85085" lon="-4.03601">
        <ele>2.4</ele>
        <time>2023-09-15T14:00:13Z</time>
      </trkpt>
      <trkpt lat="47.85083" lon="-4.03581">
        <ele>2.4</ele>
        <time>2023-09-15T14:00:17Z</time>
      </trkpt>
      <trkpt lat="47.85081" lon="-4.03529">
        <ele>2.8</ele>
        <time>2023-09-15T14:00:27Z</time>
      </trkpt>
      <trkpt lat="47.85086" lon="-4.03494">
        <ele>3</ele>
        <time>2023-09-15T14:00:34Z</time>
      </trkpt>
      <trkpt lat="47.85095" lon="-4.03448">
        <ele>3.2</ele>
        <time>2023-09-15T14:00:43Z</time>
      </trkpt>
      <trkpt lat="47.85105" lon="-4.03406">
        <ele>2.8</ele>
        <time>2023-09-15T14:00:51Z</time>
      </trkpt>
      <trkpt lat="47.85114" lon="-4.03376">
        <ele>3</ele>
        <time>2023-09-15T14:00:57Z</time>
      </trkpt>
      <trkpt lat="47.85118" lon="-4.03367">
        <ele>3</ele>
        <time>2023-09-15T14:00:59Z</time>
      </trkpt>
      <trkpt lat="47.85135" lon="-4.03343">
        <ele>2.6</ele>
        <time>2023-09-15T14:01:05Z</time>
      </trkpt>
      <trkpt lat="47.85148" lon="-4.03342">
        <ele>2.4</ele>
        <time>2023-09-15T14:01:08Z</time>
      </trkpt>
      <trkpt lat="47.85152" lon="-4.03342">
        <ele>2.4</ele>
        <time>2023-09-15T14:01:09Z</time>
      </trkpt>
      <trkpt lat="47.85155" lon="-4.03343">
        <ele>2.4</ele>
        <time>2023-09-15T14:01:10Z</time>
      </trkpt>
      <trkpt lat="47.85159" lon="-4.03344">
        <ele>2.4</ele>
        <time>2023-09-15T14:01:11Z</time>
      </trkpt>
      <trkpt lat="47.85163" lon="-4.03345">
        <ele>2.2</ele>
        <time>2023-09-15T14:01:12Z</time>
      </trkpt>
      <trkpt lat="47.85174" lon="-4.03346">
        <ele>2.4</ele>
        <time>2023-09-15T14:01:15Z</time>
      </trkpt>
      <trkpt lat="47.85178" lon="-4.03347">
        <ele>2.4</ele>
        <time>2023-09-15T14:01:16Z</time>
      </trkpt>
      <trkpt lat="47.85193" lon="-4.03349">
        <ele>2.6</ele>
        <time>2023-09-15T14:01:20Z</time>
      </trkpt>
      <trkpt lat="47.85222" lon="-4.03352">
        <ele>2.4</ele>
        <time>2023-09-15T14:01:28Z</time>
      </trkpt>
      <trkpt lat="47.85251" lon="-4.03349">
        <ele>2.4</ele>
        <time>2023-09-15T14:01:36Z</time>
      </trkpt>
      <trkpt lat="47.85274" lon="-4.03344">
        <ele>2.6</ele>
        <time>2023-09-15T14:01:42Z</time>
      </trkpt>
      <trkpt lat="47.85293" lon="-4.03331">
        <ele>3</ele>
        <time>2023-09-15T14:01:48Z</time>
      </trkpt>
      <trkpt lat="47.85301" lon="-4.03325">
        <ele>3.6</ele>
        <time>2023-09-15T14:01:51Z</time>
      </trkpt>
      <trkpt lat="47.85305" lon="-4.03312">
        <ele>4</ele>
        <time>2023-09-15T14:01:54Z</time>
      </trkpt>
      <trkpt lat="47.85312" lon="-4.03281">
        <ele>3.8</ele>
        <time>2023-09-15T14:02:01Z</time>
      </trkpt>
      <trkpt lat="47.85317" lon="-4.03259">
        <ele>3.8</ele>
        <time>2023-09-15T14:02:06Z</time>
      </trkpt>
      <trkpt lat="47.8532" lon="-4.03245">
        <ele>3.6</ele>
        <time>2023-09-15T14:02:09Z</time>
      </trkpt>
      <trkpt lat="47.85323" lon="-4.03225">
        <ele>3.6</ele>
        <time>2023-09-15T14:02:13Z</time>
      </trkpt>
      <trkpt lat="47.85325" lon="-4.03215">
        <ele>3.4</ele>
        <time>2023-09-15T14:02:15Z</time>
      </trkpt>
      <trkpt lat="47.85329" lon="-4.03199">
        <ele>3.2</ele>
        <time>2023-09-15T14:02:18Z</time>
      </trkpt>
      <trkpt lat="47.85334" lon="-4.03174">
        <ele>3.2</ele>
        <time>2023-09-15T14:02:23Z</time>
      </trkpt>
      <trkpt lat="47.85337" lon="-4.03157">
        <ele>3.4</ele>
        <time>2023-09-15T14:02:27Z</time>
      </trkpt>
      <trkpt lat="47.85344" lon="-4.03117">
        <ele>3.4</ele>
        <time>2023-09-15T14:02:35Z</time>
      </trkpt>
      <trkpt lat="47.85354" lon="-4.03068">
        <ele>3.8</ele>
        <time>2023-09-15T14:02:45Z</time>
      </trkpt>
      <trkpt lat="47.85357" lon="-4.03064">
        <ele>3.8</ele>
        <time>2023-09-15T14:02:49Z</time>
      </trkpt>
      <trkpt lat="47.85357" lon="-4.03064">
        <ele>3.6</ele>
        <time>2023-09-15T14:02:50Z</time>
      </trkpt>
      <trkpt lat="47.85357" lon="-4.03064">
        <ele>3.6</ele>
        <time>2023-09-15T14:02:51Z</time>
      </trkpt>
      <trkpt lat="47.85357" lon="-4.03065">
        <ele>3.6</ele>
        <time>2023-09-15T14:02:56Z</time>
      </trkpt>
      <trkpt lat="47.85356" lon="-4.03065">
        <ele>3.6</ele>
        <time>2023-09-15T14:02:57Z</time>
      </trkpt>
      <trkpt lat="47.85354" lon="-4.03065">
        <ele>3.6</ele>
        <time>2023-09-15T14:03:01Z</time>
      </trkpt>
      <trkpt lat="47.85354" lon="-4.03067">
        <ele>3.6</ele>
        <time>2023-09-15T14:03:04Z</time>
      </trkpt>
      <trkpt lat="47.85354" lon="-4.03061">
        <ele>3.6</ele>
        <time>2023-09-15T14:03:12Z</time>
      </trkpt>
      <trkpt lat="47.85355" lon="-4.0306">
        <ele>3.6</ele>
        <time>2023-09-15T14:03:16Z</time>
      </trkpt>
      <trkpt lat="47.85356" lon="-4.03057">
        <ele>3.6</ele>
        <time>2023-09-15T14:03:18Z</time>
      </trkpt>
      <trkpt lat="47.85357" lon="-4.03049">
        <ele>3.6</ele>
        <time>2023-09-15T14:03:21Z</time>
      </trkpt>
      <trkpt lat="47.85359" lon="-4.03039">
        <ele>3.2</ele>
        <time>2023-09-15T14:03:24Z</time>
      </trkpt>
      <trkpt lat="47.85363" lon="-4.03012">
        <ele>3.2</ele>
        <time>2023-09-15T14:03:31Z</time>
      </trkpt>
      <trkpt lat="47.85371" lon="-4.02974">
        <ele>2.4</ele>
        <time>2023-09-15T14:03:39Z</time>
      </trkpt>
      <trkpt lat="47.85373" lon="-4.02969">
        <ele>2.4</ele>
        <time>2023-09-15T14:03:40Z</time>
      </trkpt>
      <trkpt lat="47.85374" lon="-4.02951">
        <ele>2.6</ele>
        <time>2023-09-15T14:03:45Z</time>
      </trkpt>
      <trkpt lat="47.85371" lon="-4.02948">
        <ele>2.6</ele>
        <time>2023-09-15T14:03:46Z</time>
      </trkpt>
      <trkpt lat="47.85359" lon="-4.02945">
        <ele>2.6</ele>
        <time>2023-09-15T14:03:49Z</time>
      </trkpt>
      <trkpt lat="47.85326" lon="-4.02942">
        <ele>2.2</ele>
        <time>2023-09-15T14:03:57Z</time>
      </trkpt>
      <trkpt lat="47.85306" lon="-4.02929">
        <ele>2</ele>
        <time>2023-09-15T14:04:03Z</time>
      </trkpt>
      <trkpt lat="47.85297" lon="-4.02918">
        <ele>2</ele>
        <time>2023-09-15T14:04:06Z</time>
      </trkpt>
      <trkpt lat="47.85284" lon="-4.029">
        <ele>2</ele>
        <time>2023-09-15T14:04:10Z</time>
      </trkpt>
      <trkpt lat="47.85277" lon="-4.02882">
        <ele>2</ele>
        <time>2023-09-15T14:04:13Z</time>
      </trkpt>
      <trkpt lat="47.85275" lon="-4.02867">
        <ele>1.8</ele>
        <time>2023-09-15T14:04:15Z</time>
      </trkpt>
      <trkpt lat="47.85272" lon="-4.02824">
        <ele>1.6</ele>
        <time>2023-09-15T14:04:22Z</time>
      </trkpt>
      <trkpt lat="47.85269" lon="-4.02773">
        <ele>1.6</ele>
        <time>2023-09-15T14:04:30Z</time>
      </trkpt>
      <trkpt lat="47.85266" lon="-4.02733">
        <ele>1.4</ele>
        <time>2023-09-15T14:04:36Z</time>
      </trkpt>
      <trkpt lat="47.85265" lon="-4.02713">
        <ele>1.4</ele>
        <time>2023-09-15T14:04:39Z</time>
      </trkpt>
      <trkpt lat="47.85262" lon="-4.0267">
        <ele>1.4</ele>
        <time>2023-09-15T14:04:47Z</time>
      </trkpt>
      <trkpt lat="47.85262" lon="-4.02649">
        <ele>1.8</ele>
        <time>2023-09-15T14:04:52Z</time>
      </trkpt>
      <trkpt lat="47.85262" lon="-4.02618">
        <ele>1.8</ele>
        <time>2023-09-15T14:04:59Z</time>
      </trkpt>
      <trkpt lat="47.85263" lon="-4.02572">
        <ele>2.4</ele>
        <time>2023-09-15T14:05:09Z</time>
      </trkpt>
      <trkpt lat="47.85261" lon="-4.02541">
        <ele>3</ele>
        <time>2023-09-15T14:05:16Z</time>
      </trkpt>
      <trkpt lat="47.85262" lon="-4.02519">
        <ele>2.8</ele>
        <time>2023-09-15T14:05:21Z</time>
      </trkpt>
      <trkpt lat="47.85258" lon="-4.02482">
        <ele>2.2</ele>
        <time>2023-09-15T14:05:28Z</time>
      </trkpt>
      <trkpt lat="47.85251" lon="-4.02438">
        <ele>2.2</ele>
        <time>2023-09-15T14:05:36Z</time>
      </trkpt>
      <trkpt lat="47.85252" lon="-4.02408">
        <ele>1.4</ele>
        <time>2023-09-15T14:05:41Z</time>
      </trkpt>
      <trkpt lat="47.85254" lon="-4.02397">
        <ele>1.4</ele>
        <time>2023-09-15T14:05:43Z</time>
      </trkpt>
      <trkpt lat="47.85264" lon="-4.02356">
        <ele>2.4</ele>
        <time>2023-09-15T14:05:50Z</time>
      </trkpt>
      <trkpt lat="47.85272" lon="-4.02328">
        <ele>2.6</ele>
        <time>2023-09-15T14:05:55Z</time>
      </trkpt>
      <trkpt lat="47.85278" lon="-4.02304">
        <ele>2.6</ele>
        <time>2023-09-15T14:05:59Z</time>
      </trkpt>
      <trkpt lat="47.85293" lon="-4.02255">
        <ele>2</ele>
        <time>2023-09-15T14:06:07Z</time>
      </trkpt>
      <trkpt lat="47.85311" lon="-4.02203">
        <ele>2</ele>
        <time>2023-09-15T14:06:16Z</time>
      </trkpt>
      <trkpt lat="47.85319" lon="-4.0216">
        <ele>2</ele>
        <time>2023-09-15T14:06:23Z</time>
      </trkpt>
      <trkpt lat="47.85325" lon="-4.02111">
        <ele>2</ele>
        <time>2023-09-15T14:06:31Z</time>
      </trkpt>
      <trkpt lat="47.85335" lon="-4.0205">
        <ele>2.2</ele>
        <time>2023-09-15T14:06:41Z</time>
      </trkpt>
      <trkpt lat="47.8535" lon="-4.01998">
        <ele>2.2</ele>
        <time>2023-09-15T14:06:50Z</time>
      </trkpt>
      <trkpt lat="47.85363" lon="-4.01972">
        <ele>2.8</ele>
        <time>2023-09-15T14:06:55Z</time>
      </trkpt>
      <trkpt lat="47.85367" lon="-4.01962">
        <ele>2.8</ele>
        <time>2023-09-15T14:06:57Z</time>
      </trkpt>
      <trkpt lat="47.85368" lon="-4.01952">
        <ele>2.2</ele>
        <time>2023-09-15T14:07:01Z</time>
      </trkpt>
      <trkpt lat="47.8537" lon="-4.01948">
        <ele>2.2</ele>
        <time>2023-09-15T14:07:04Z</time>
      </trkpt>
      <trkpt lat="47.8537" lon="-4.01947">
        <ele>2.2</ele>
        <time>2023-09-15T14:07:05Z</time>
      </trkpt>
      <trkpt lat="47.85369" lon="-4.01947">
        <ele>2.2</ele>
        <time>2023-09-15T14:07:06Z</time>
      </trkpt>
      <trkpt lat="47.85367" lon="-4.01953">
        <ele>2.2</ele>
        <time>2023-09-15T14:07:09Z</time>
      </trkpt>
      <trkpt lat="47.85369" lon="-4.01958">
        <ele>2.2</ele>
        <time>2023-09-15T14:07:11Z</time>
      </trkpt>
      <trkpt lat="47.85375" lon="-4.01964">
        <ele>2.2</ele>
        <time>2023-09-15T14:07:13Z</time>
      </trkpt>
      <trkpt lat="47.85379" lon="-4.01966">
        <ele>2.2</ele>
        <time>2023-09-15T14:07:14Z</time>
      </trkpt>
      <trkpt lat="47.85391" lon="-4.01968">
        <ele>2.2</ele>
        <time>2023-09-15T14:07:17Z</time>
      </trkpt>
      <trkpt lat="47.85417" lon="-4.01975">
        <ele>1.8</ele>
        <time>2023-09-15T14:07:23Z</time>
      </trkpt>
      <trkpt lat="47.8542" lon="-4.01977">
        <ele>1.8</ele>
        <time>2023-09-15T14:07:24Z</time>
      </trkpt>
      <trkpt lat="47.85444" lon="-4.01991">
        <ele>1.8</ele>
        <time>2023-09-15T14:07:31Z</time>
      </trkpt>
      <trkpt lat="47.85463" lon="-4.02017">
        <ele>1.4</ele>
        <time>2023-09-15T14:07:38Z</time>
      </trkpt>
      <trkpt lat="47.85466" lon="-4.02021">
        <ele>1.4</ele>
        <time>2023-09-15T14:07:39Z</time>
      </trkpt>
      <trkpt lat="47.85483" lon="-4.02059">
        <ele>1.2</ele>
        <time>2023-09-15T14:07:46Z</time>
      </trkpt>
      <trkpt lat="47.85498" lon="-4.021">
        <ele>1.6</ele>
        <time>2023-09-15T14:07:53Z</time>
      </trkpt>
      <trkpt lat="47.85501" lon="-4.02106">
        <ele>1.6</ele>
        <time>2023-09-15T14:07:54Z</time>
      </trkpt>
      <trkpt lat="47.85503" lon="-4.02111">
        <ele>1.8</ele>
        <time>2023-09-15T14:07:55Z</time>
      </trkpt>
      <trkpt lat="47.85506" lon="-4.02117">
        <ele>1.8</ele>
        <time>2023-09-15T14:07:56Z</time>
      </trkpt>
      <trkpt lat="47.85512" lon="-4.02127">
        <ele>1.8</ele>
        <time>2023-09-15T14:07:58Z</time>
      </trkpt>
      <trkpt lat="47.85521" lon="-4.02142">
        <ele>1.8</ele>
        <time>2023-09-15T14:08:01Z</time>
      </trkpt>
      <trkpt lat="47.85527" lon="-4.02152">
        <ele>1.8</ele>
        <time>2023-09-15T14:08:03Z</time>
      </trkpt>
      <trkpt lat="47.8553" lon="-4.02157">
        <ele>1.8</ele>
        <time>2023-09-15T14:08:04Z</time>
      </trkpt>
      <trkpt lat="47.85553" lon="-4.02188">
        <ele>2</ele>
        <time>2023-09-15T14:08:11Z</time>
      </trkpt>
      <trkpt lat="47.85568" lon="-4.0221">
        <ele>2.4</ele>
        <time>2023-09-15T14:08:16Z</time>
      </trkpt>
      <trkpt lat="47.85582" lon="-4.02227">
        <ele>2.6</ele>
        <time>2023-09-15T14:08:20Z</time>
      </trkpt>
      <trkpt lat="47.85589" lon="-4.02235">
        <ele>2.8</ele>
        <time>2023-09-15T14:08:22Z</time>
      </trkpt>
      <trkpt lat="47.85601" lon="-4.02251">
        <ele>3.2</ele>
        <time>2023-09-15T14:08:26Z</time>
      </trkpt>
      <trkpt lat="47.85612" lon="-4.02265">
        <ele>3.4</ele>
        <time>2023-09-15T14:08:29Z</time>
      </trkpt>
      <trkpt lat="47.85619" lon="-4.02267">
        <ele>3.6</ele>
        <time>2023-09-15T14:08:31Z</time>
      </trkpt>
      <trkpt lat="47.85633" lon="-4.02258">
        <ele>3.6</ele>
        <time>2023-09-15T14:08:35Z</time>
      </trkpt>
      <trkpt lat="47.85649" lon="-4.02232">
        <ele>3.6</ele>
        <time>2023-09-15T14:08:41Z</time>
      </trkpt>
      <trkpt lat="47.85651" lon="-4.02229">
        <ele>3.8</ele>
        <time>2023-09-15T14:08:42Z</time>
      </trkpt>
      <trkpt lat="47.85655" lon="-4.02225">
        <ele>3.8</ele>
        <time>2023-09-15T14:08:44Z</time>
      </trkpt>
      <trkpt lat="47.85658" lon="-4.02222">
        <ele>4</ele>
        <time>2023-09-15T14:08:46Z</time>
      </trkpt>
      <trkpt lat="47.8566" lon="-4.02215">
        <ele>4</ele>
        <time>2023-09-15T14:08:48Z</time>
      </trkpt>
      <trkpt lat="47.85663" lon="-4.02202">
        <ele>4.2</ele>
        <time>2023-09-15T14:08:51Z</time>
      </trkpt>
      <trkpt lat="47.85669" lon="-4.02168">
        <ele>4.4</ele>
        <time>2023-09-15T14:08:57Z</time>
      </trkpt>
      <trkpt lat="47.85669" lon="-4.02164">
        <ele>4.4</ele>
        <time>2023-09-15T14:08:58Z</time>
      </trkpt>
      <trkpt lat="47.85667" lon="-4.02154">
        <ele>4.4</ele>
        <time>2023-09-15T14:09:00Z</time>
      </trkpt>
      <trkpt lat="47.85668" lon="-4.02136">
        <ele>4.4</ele>
        <time>2023-09-15T14:09:04Z</time>
      </trkpt>
      <trkpt lat="47.85671" lon="-4.02128">
        <ele>4.8</ele>
        <time>2023-09-15T14:09:07Z</time>
      </trkpt>
      <trkpt lat="47.85673" lon="-4.02127">
        <ele>4.8</ele>
        <time>2023-09-15T14:09:08Z</time>
      </trkpt>
      <trkpt lat="47.85685" lon="-4.0213">
        <ele>5.4</ele>
        <time>2023-09-15T14:09:13Z</time>
      </trkpt>
      <trkpt lat="47.85691" lon="-4.02133">
        <ele>5.6</ele>
        <time>2023-09-15T14:09:15Z</time>
      </trkpt>
      <trkpt lat="47.85707" lon="-4.0214">
        <ele>5.6</ele>
        <time>2023-09-15T14:09:20Z</time>
      </trkpt>
      <trkpt lat="47.85735" lon="-4.02147">
        <ele>5.8</ele>
        <time>2023-09-15T14:09:28Z</time>
      </trkpt>
      <trkpt lat="47.8576" lon="-4.02153">
        <ele>6.2</ele>
        <time>2023-09-15T14:09:35Z</time>
      </trkpt>
      <trkpt lat="47.8579" lon="-4.02151">
        <ele>6.6</ele>
        <time>2023-09-15T14:09:43Z</time>
      </trkpt>
      <trkpt lat="47.85798" lon="-4.02149">
        <ele>6.8</ele>
        <time>2023-09-15T14:09:45Z</time>
      </trkpt>
      <trkpt lat="47.8582" lon="-4.02148">
        <ele>7</ele>
        <time>2023-09-15T14:09:51Z</time>
      </trkpt>
      <trkpt lat="47.85831" lon="-4.0215">
        <ele>7.2</ele>
        <time>2023-09-15T14:09:54Z</time>
      </trkpt>
      <trkpt lat="47.85856" lon="-4.0216">
        <ele>7.4</ele>
        <time>2023-09-15T14:10:01Z</time>
      </trkpt>
      <trkpt lat="47.85871" lon="-4.02168">
        <ele>7.6</ele>
        <time>2023-09-15T14:10:05Z</time>
      </trkpt>
      <trkpt lat="47.85878" lon="-4.02172">
        <ele>7.6</ele>
        <time>2023-09-15T14:10:07Z</time>
      </trkpt>
      <trkpt lat="47.85882" lon="-4.02174">
        <ele>7.8</ele>
        <time>2023-09-15T14:10:08Z</time>
      </trkpt>
      <trkpt lat="47.85889" lon="-4.02177">
        <ele>7.8</ele>
        <time>2023-09-15T14:10:10Z</time>
      </trkpt>
      <trkpt lat="47.85915" lon="-4.02193">
        <ele>7.8</ele>
        <time>2023-09-15T14:10:17Z</time>
      </trkpt>
      <trkpt lat="47.85922" lon="-4.02198">
        <ele>7.8</ele>
        <time>2023-09-15T14:10:19Z</time>
      </trkpt>
      <trkpt lat="47.85939" lon="-4.02211">
        <ele>8.2</ele>
        <time>2023-09-15T14:10:25Z</time>
      </trkpt>
      <trkpt lat="47.85958" lon="-4.02224">
        <ele>8.4</ele>
        <time>2023-09-15T14:10:32Z</time>
      </trkpt>
      <trkpt lat="47.85968" lon="-4.0224">
        <ele>8.4</ele>
        <time>2023-09-15T14:10:38Z</time>
      </trkpt>
      <trkpt lat="47.85975" lon="-4.02247">
        <ele>8.6</ele>
        <time>2023-09-15T14:10:42Z</time>
      </trkpt>
      <trkpt lat="47.85979" lon="-4.02251">
        <ele>8.8</ele>
        <time>2023-09-15T14:10:45Z</time>
      </trkpt>
      <trkpt lat="47.85985" lon="-4.02262">
        <ele>8.8</ele>
        <time>2023-09-15T14:10:50Z</time>
      </trkpt>
      <trkpt lat="47.85987" lon="-4.02264">
        <ele>9</ele>
        <time>2023-09-15T14:10:54Z</time>
      </trkpt>
      <trkpt lat="47.85984" lon="-4.02264">
        <ele>9</ele>
        <time>2023-09-15T14:11:01Z</time>
      </trkpt>
      <trkpt lat="47.85985" lon="-4.02262">
        <ele>9.4</ele>
        <time>2023-09-15T14:11:06Z</time>
      </trkpt>
      <trkpt lat="47.85985" lon="-4.02262">
        <ele>9.4</ele>
        <time>2023-09-15T14:11:08Z</time>
      </trkpt>
      <trkpt lat="47.85985" lon="-4.02262">
        <ele>9.4</ele>
        <time>2023-09-15T14:11:09Z</time>
      </trkpt>
      <trkpt lat="47.85985" lon="-4.02262">
        <ele>9.4</ele>
        <time>2023-09-15T14:11:12Z</time>
      </trkpt>
      <trkpt lat="47.85986" lon="-4.02262">
        <ele>9</ele>
        <time>2023-09-15T14:11:16Z</time>
      </trkpt>
      <trkpt lat="47.85986" lon="-4.02262">
        <ele>8.8</ele>
        <time>2023-09-15T14:11:17Z</time>
      </trkpt>
      <trkpt lat="47.85985" lon="-4.02263">
        <ele>8.8</ele>
        <time>2023-09-15T14:11:25Z</time>
      </trkpt>
      <trkpt lat="47.85984" lon="-4.02263">
        <ele>8.4</ele>
        <time>2023-09-15T14:11:30Z</time>
      </trkpt>
      <trkpt lat="47.85984" lon="-4.02263">
        <ele>8.4</ele>
        <time>2023-09-15T14:11:31Z</time>
      </trkpt>
      <trkpt lat="47.85984" lon="-4.02262">
        <ele>8.8</ele>
        <time>2023-09-15T14:11:38Z</time>
      </trkpt>
      <trkpt lat="47.85985" lon="-4.02263">
        <ele>8.6</ele>
        <time>2023-09-15T14:11:42Z</time>
      </trkpt>
      <trkpt lat="47.85986" lon="-4.02264">
        <ele>8.8</ele>
        <time>2023-09-15T14:11:48Z</time>
      </trkpt>
      <trkpt lat="47.85985" lon="-4.02264">
        <ele>8.8</ele>
        <time>2023-09-15T14:11:51Z</time>
      </trkpt>
      <trkpt lat="47.85985" lon="-4.02264">
        <ele>8.2</ele>
        <time>2023-09-15T14:11:57Z</time>
      </trkpt>
      <trkpt lat="47.85985" lon="-4.02264">
        <ele>8.2</ele>
        <time>2023-09-15T14:11:58Z</time>
      </trkpt>
      <trkpt lat="47.85984" lon="-4.02266">
        <ele>8.2</ele>
        <time>2023-09-15T14:12:04Z</time>
      </trkpt>
      <trkpt lat="47.85983" lon="-4.02269">
        <ele>8.2</ele>
        <time>2023-09-15T14:12:12Z</time>
      </trkpt>
      <trkpt lat="47.85983" lon="-4.02269">
        <ele>8</ele>
        <time>2023-09-15T14:12:15Z</time>
      </trkpt>
      <trkpt lat="47.85983" lon="-4.02268">
        <ele>8</ele>
        <time>2023-09-15T14:12:17Z</time>
      </trkpt>
      <trkpt lat="47.85985" lon="-4.02263">
        <ele>8.4</ele>
        <time>2023-09-15T14:12:29Z</time>
      </trkpt>
      <trkpt lat="47.8598" lon="-4.02258">
        <ele>8.6</ele>
        <time>2023-09-15T14:12:36Z</time>
      </trkpt>
      <trkpt lat="47.85979" lon="-4.02258">
        <ele>8.6</ele>
        <time>2023-09-15T14:12:39Z</time>
      </trkpt>
      <trkpt lat="47.85979" lon="-4.02257">
        <ele>8.6</ele>
        <time>2023-09-15T14:12:42Z</time>
      </trkpt>
      <trkpt lat="47.8598" lon="-4.02255">
        <ele>8.4</ele>
        <time>2023-09-15T14:12:48Z</time>
      </trkpt>
      <trkpt lat="47.8598" lon="-4.02255">
        <ele>8.6</ele>
        <time>2023-09-15T14:12:51Z</time>
      </trkpt>
      <trkpt lat="47.85981" lon="-4.02255">
        <ele>8.6</ele>
        <time>2023-09-15T14:12:59Z</time>
      </trkpt>
      <trkpt lat="47.85981" lon="-4.02256">
        <ele>8.6</ele>
        <time>2023-09-15T14:13:01Z</time>
      </trkpt>
      <trkpt lat="47.8598" lon="-4.02257">
        <ele>8.6</ele>
        <time>2023-09-15T14:13:11Z</time>
      </trkpt>
      <trkpt lat="47.85982" lon="-4.02258">
        <ele>8.6</ele>
        <time>2023-09-15T14:13:13Z</time>
      </trkpt>
      <trkpt lat="47.85983" lon="-4.02258">
        <ele>8.6</ele>
        <time>2023-09-15T14:13:23Z</time>
      </trkpt>
      <trkpt lat="47.85982" lon="-4.02257">
        <ele>8.6</ele>
        <time>2023-09-15T14:13:32Z</time>
      </trkpt>
      <trkpt lat="47.85981" lon="-4.02258">
        <ele>8.6</ele>
        <time>2023-09-15T14:13:39Z</time>
      </trkpt>
      <trkpt lat="47.85982" lon="-4.02257">
        <ele>8.6</ele>
        <time>2023-09-15T14:13:43Z</time>
      </trkpt>
      <trkpt lat="47.85982" lon="-4.02256">
        <ele>8.6</ele>
        <time>2023-09-15T14:13:44Z</time>
      </trkpt>
      <trkpt lat="47.85975" lon="-4.02247">
        <ele>8.4</ele>
        <time>2023-09-15T14:13:50Z</time>
      </trkpt>
      <trkpt lat="47.85966" lon="-4.0223">
        <ele>8.2</ele>
        <time>2023-09-15T14:13:57Z</time>
      </trkpt>
      <trkpt lat="47.85952" lon="-4.02219">
        <ele>7.8</ele>
        <time>2023-09-15T14:14:03Z</time>
      </trkpt>
      <trkpt lat="47.85941" lon="-4.02211">
        <ele>7.8</ele>
        <time>2023-09-15T14:14:07Z</time>
      </trkpt>
      <trkpt lat="47.85933" lon="-4.02204">
        <ele>7.6</ele>
        <time>2023-09-15T14:14:10Z</time>
      </trkpt>
      <trkpt lat="47.85911" lon="-4.02191">
        <ele>7.8</ele>
        <time>2023-09-15T14:14:18Z</time>
      </trkpt>
      <trkpt lat="47.85887" lon="-4.02177">
        <ele>8</ele>
        <time>2023-09-15T14:14:26Z</time>
      </trkpt>
      <trkpt lat="47.85877" lon="-4.02171">
        <ele>7.8</ele>
        <time>2023-09-15T14:14:29Z</time>
      </trkpt>
      <trkpt lat="47.85867" lon="-4.02164">
        <ele>7.6</ele>
        <time>2023-09-15T14:14:32Z</time>
      </trkpt>
      <trkpt lat="47.85859" lon="-4.02161">
        <ele>7.4</ele>
        <time>2023-09-15T14:14:34Z</time>
      </trkpt>
      <trkpt lat="47.85844" lon="-4.02154">
        <ele>7.2</ele>
        <time>2023-09-15T14:14:38Z</time>
      </trkpt>
      <trkpt lat="47.85824" lon="-4.0215">
        <ele>7</ele>
        <time>2023-09-15T14:14:43Z</time>
      </trkpt>
      <trkpt lat="47.85795" lon="-4.02151">
        <ele>6.8</ele>
        <time>2023-09-15T14:14:50Z</time>
      </trkpt>
      <trkpt lat="47.85783" lon="-4.02151">
        <ele>6.6</ele>
        <time>2023-09-15T14:14:53Z</time>
      </trkpt>
      <trkpt lat="47.85766" lon="-4.02153">
        <ele>6.2</ele>
        <time>2023-09-15T14:14:57Z</time>
      </trkpt>
      <trkpt lat="47.85737" lon="-4.02147">
        <ele>5.4</ele>
        <time>2023-09-15T14:15:03Z</time>
      </trkpt>
      <trkpt lat="47.85732" lon="-4.02146">
        <ele>5.4</ele>
        <time>2023-09-15T14:15:04Z</time>
      </trkpt>
      <trkpt lat="47.857" lon="-4.02134">
        <ele>5.2</ele>
        <time>2023-09-15T14:15:11Z</time>
      </trkpt>
      <trkpt lat="47.85696" lon="-4.02132">
        <ele>5</ele>
        <time>2023-09-15T14:15:12Z</time>
      </trkpt>
      <trkpt lat="47.85684" lon="-4.02127">
        <ele>4.8</ele>
        <time>2023-09-15T14:15:15Z</time>
      </trkpt>
      <trkpt lat="47.85677" lon="-4.02124">
        <ele>4.8</ele>
        <time>2023-09-15T14:15:17Z</time>
      </trkpt>
      <trkpt lat="47.8567" lon="-4.02124">
        <ele>4.8</ele>
        <time>2023-09-15T14:15:19Z</time>
      </trkpt>
      <trkpt lat="47.85668" lon="-4.02127">
        <ele>4.8</ele>
        <time>2023-09-15T14:15:20Z</time>
      </trkpt>
      <trkpt lat="47.85667" lon="-4.02135">
        <ele>5.2</ele>
        <time>2023-09-15T14:15:22Z</time>
      </trkpt>
      <trkpt lat="47.85671" lon="-4.02163">
        <ele>5</ele>
        <time>2023-09-15T14:15:27Z</time>
      </trkpt>
      <trkpt lat="47.8567" lon="-4.02182">
        <ele>4.6</ele>
        <time>2023-09-15T14:15:30Z</time>
      </trkpt>
      <trkpt lat="47.85667" lon="-4.02195">
        <ele>4.6</ele>
        <time>2023-09-15T14:15:32Z</time>
      </trkpt>
      <trkpt lat="47.85666" lon="-4.022">
        <ele>4.4</ele>
        <time>2023-09-15T14:15:33Z</time>
      </trkpt>
      <trkpt lat="47.85663" lon="-4.02206">
        <ele>4.4</ele>
        <time>2023-09-15T14:15:34Z</time>
      </trkpt>
      <trkpt lat="47.85658" lon="-4.02218">
        <ele>4.4</ele>
        <time>2023-09-15T14:15:36Z</time>
      </trkpt>
      <trkpt lat="47.85655" lon="-4.02222">
        <ele>4.4</ele>
        <time>2023-09-15T14:15:37Z</time>
      </trkpt>
      <trkpt lat="47.85649" lon="-4.02233">
        <ele>4.4</ele>
        <time>2023-09-15T14:15:39Z</time>
      </trkpt>
      <trkpt lat="47.85644" lon="-4.02244">
        <ele>4</ele>
        <time>2023-09-15T14:15:41Z</time>
      </trkpt>
      <trkpt lat="47.85637" lon="-4.02253">
        <ele>3.8</ele>
        <time>2023-09-15T14:15:43Z</time>
      </trkpt>
      <trkpt lat="47.85631" lon="-4.02262">
        <ele>3.8</ele>
        <time>2023-09-15T14:15:45Z</time>
      </trkpt>
      <trkpt lat="47.85617" lon="-4.02272">
        <ele>4.2</ele>
        <time>2023-09-15T14:15:49Z</time>
      </trkpt>
      <trkpt lat="47.85614" lon="-4.02271">
        <ele>4.2</ele>
        <time>2023-09-15T14:15:50Z</time>
      </trkpt>
      <trkpt lat="47.85609" lon="-4.02265">
        <ele>4.2</ele>
        <time>2023-09-15T14:15:52Z</time>
      </trkpt>
      <trkpt lat="47.85604" lon="-4.02257">
        <ele>4</ele>
        <time>2023-09-15T14:15:54Z</time>
      </trkpt>
      <trkpt lat="47.8559" lon="-4.02241">
        <ele>3.6</ele>
        <time>2023-09-15T14:15:58Z</time>
      </trkpt>
      <trkpt lat="47.85582" lon="-4.02231">
        <ele>3.4</ele>
        <time>2023-09-15T14:16:00Z</time>
      </trkpt>
      <trkpt lat="47.85566" lon="-4.0221">
        <ele>3</ele>
        <time>2023-09-15T14:16:04Z</time>
      </trkpt>
      <trkpt lat="47.8554" lon="-4.02171">
        <ele>2.8</ele>
        <time>2023-09-15T14:16:11Z</time>
      </trkpt>
      <trkpt lat="47.85509" lon="-4.02122">
        <ele>2.4</ele>
        <time>2023-09-15T14:16:19Z</time>
      </trkpt>
      <trkpt lat="47.85503" lon="-4.0211">
        <ele>2.8</ele>
        <time>2023-09-15T14:16:21Z</time>
      </trkpt>
      <trkpt lat="47.855" lon="-4.02103">
        <ele>2.8</ele>
        <time>2023-09-15T14:16:22Z</time>
      </trkpt>
      <trkpt lat="47.85492" lon="-4.02084">
        <ele>2.6</ele>
        <time>2023-09-15T14:16:25Z</time>
      </trkpt>
      <trkpt lat="47.85491" lon="-4.02079">
        <ele>2.6</ele>
        <time>2023-09-15T14:16:26Z</time>
      </trkpt>
      <trkpt lat="47.85481" lon="-4.02053">
        <ele>2.4</ele>
        <time>2023-09-15T14:16:30Z</time>
      </trkpt>
      <trkpt lat="47.85471" lon="-4.02028">
        <ele>2.2</ele>
        <time>2023-09-15T14:16:34Z</time>
      </trkpt>
      <trkpt lat="47.85456" lon="-4.02004">
        <ele>2</ele>
        <time>2023-09-15T14:16:39Z</time>
      </trkpt>
      <trkpt lat="47.85448" lon="-4.01999">
        <ele>1.8</ele>
        <time>2023-09-15T14:16:41Z</time>
      </trkpt>
      <trkpt lat="47.85421" lon="-4.0198">
        <ele>2</ele>
        <time>2023-09-15T14:16:47Z</time>
      </trkpt>
      <trkpt lat="47.85406" lon="-4.01973">
        <ele>1.8</ele>
        <time>2023-09-15T14:16:50Z</time>
      </trkpt>
      <trkpt lat="47.85383" lon="-4.01966">
        <ele>1.6</ele>
        <time>2023-09-15T14:16:55Z</time>
      </trkpt>
      <trkpt lat="47.85379" lon="-4.01964">
        <ele>1.6</ele>
        <time>2023-09-15T14:16:56Z</time>
      </trkpt>
      <trkpt lat="47.85369" lon="-4.01949">
        <ele>1.6</ele>
        <time>2023-09-15T14:17:00Z</time>
      </trkpt>
      <trkpt lat="47.85369" lon="-4.01932">
        <ele>1.6</ele>
        <time>2023-09-15T14:17:03Z</time>
      </trkpt>
      <trkpt lat="47.85371" lon="-4.01926">
        <ele>1.6</ele>
        <time>2023-09-15T14:17:04Z</time>
      </trkpt>
      <trkpt lat="47.85374" lon="-4.01915">
        <ele>1.6</ele>
        <time>2023-09-15T14:17:06Z</time>
      </trkpt>
      <trkpt lat="47.85379" lon="-4.01898">
        <ele>1.6</ele>
        <time>2023-09-15T14:17:09Z</time>
      </trkpt>
      <trkpt lat="47.85385" lon="-4.01882">
        <ele>1.6</ele>
        <time>2023-09-15T14:17:12Z</time>
      </trkpt>
      <trkpt lat="47.8539" lon="-4.01873">
        <ele>1.6</ele>
        <time>2023-09-15T14:17:14Z</time>
      </trkpt>
      <trkpt lat="47.85405" lon="-4.01853">
        <ele>1.8</ele>
        <time>2023-09-15T14:17:19Z</time>
      </trkpt>
      <trkpt lat="47.85436" lon="-4.01818">
        <ele>1.4</ele>
        <time>2023-09-15T14:17:27Z</time>
      </trkpt>
      <trkpt lat="47.8544" lon="-4.01813">
        <ele>1.2</ele>
        <time>2023-09-15T14:17:28Z</time>
      </trkpt>
      <trkpt lat="47.85462" lon="-4.01781">
        <ele>1</ele>
        <time>2023-09-15T14:17:34Z</time>
      </trkpt>
      <trkpt lat="47.85487" lon="-4.01746">
        <ele>1.6</ele>
        <time>2023-09-15T14:17:41Z</time>
      </trkpt>
      <trkpt lat="47.85491" lon="-4.01742">
        <ele>1.6</ele>
        <time>2023-09-15T14:17:42Z</time>
      </trkpt>
      <trkpt lat="47.85502" lon="-4.0173">
        <ele>1.6</ele>
        <time>2023-09-15T14:17:45Z</time>
      </trkpt>
      <trkpt lat="47.85527" lon="-4.01708">
        <ele>1.8</ele>
        <time>2023-09-15T14:17:51Z</time>
      </trkpt>
      <trkpt lat="47.85543" lon="-4.01694">
        <ele>2</ele>
        <time>2023-09-15T14:17:55Z</time>
      </trkpt>
      <trkpt lat="47.85561" lon="-4.01683">
        <ele>2</ele>
        <time>2023-09-15T14:17:59Z</time>
      </trkpt>
      <trkpt lat="47.85577" lon="-4.01678">
        <ele>2</ele>
        <time>2023-09-15T14:18:02Z</time>
      </trkpt>
      <trkpt lat="47.85588" lon="-4.01679">
        <ele>2</ele>
        <time>2023-09-15T14:18:04Z</time>
      </trkpt>
      <trkpt lat="47.85617" lon="-4.01689">
        <ele>1.8</ele>
        <time>2023-09-15T14:18:10Z</time>
      </trkpt>
      <trkpt lat="47.85627" lon="-4.01691">
        <ele>1.8</ele>
        <time>2023-09-15T14:18:12Z</time>
      </trkpt>
      <trkpt lat="47.85637" lon="-4.01686">
        <ele>1.8</ele>
        <time>2023-09-15T14:18:14Z</time>
      </trkpt>
      <trkpt lat="47.85645" lon="-4.01676">
        <ele>1.8</ele>
        <time>2023-09-15T14:18:16Z</time>
      </trkpt>
      <trkpt lat="47.85651" lon="-4.01665">
        <ele>1.8</ele>
        <time>2023-09-15T14:18:18Z</time>
      </trkpt>
      <trkpt lat="47.85681" lon="-4.01608">
        <ele>1.8</ele>
        <time>2023-09-15T14:18:27Z</time>
      </trkpt>
      <trkpt lat="47.85686" lon="-4.01595">
        <ele>1.8</ele>
        <time>2023-09-15T14:18:29Z</time>
      </trkpt>
      <trkpt lat="47.85686" lon="-4.01582">
        <ele>2</ele>
        <time>2023-09-15T14:18:31Z</time>
      </trkpt>
      <trkpt lat="47.8568" lon="-4.01573">
        <ele>1.8</ele>
        <time>2023-09-15T14:18:33Z</time>
      </trkpt>
      <trkpt lat="47.85676" lon="-4.01569">
        <ele>1.8</ele>
        <time>2023-09-15T14:18:34Z</time>
      </trkpt>
      <trkpt lat="47.85668" lon="-4.01563">
        <ele>1.2</ele>
        <time>2023-09-15T14:18:36Z</time>
      </trkpt>
      <trkpt lat="47.85639" lon="-4.01537">
        <ele>1.4</ele>
        <time>2023-09-15T14:18:43Z</time>
      </trkpt>
      <trkpt lat="47.85599" lon="-4.01499">
        <ele>0.6</ele>
        <time>2023-09-15T14:18:53Z</time>
      </trkpt>
      <trkpt lat="47.85568" lon="-4.01464">
        <ele>1.2</ele>
        <time>2023-09-15T14:19:01Z</time>
      </trkpt>
      <trkpt lat="47.85537" lon="-4.01425">
        <ele>1</ele>
        <time>2023-09-15T14:19:09Z</time>
      </trkpt>
      <trkpt lat="47.8553" lon="-4.01417">
        <ele>1.2</ele>
        <time>2023-09-15T14:19:11Z</time>
      </trkpt>
      <trkpt lat="47.85526" lon="-4.01414">
        <ele>1.2</ele>
        <time>2023-09-15T14:19:12Z</time>
      </trkpt>
      <trkpt lat="47.85517" lon="-4.01406">
        <ele>1.2</ele>
        <time>2023-09-15T14:19:15Z</time>
      </trkpt>
      <trkpt lat="47.85503" lon="-4.01397">
        <ele>1.2</ele>
        <time>2023-09-15T14:19:20Z</time>
      </trkpt>
      <trkpt lat="47.85488" lon="-4.0138">
        <ele>1.4</ele>
        <time>2023-09-15T14:19:26Z</time>
      </trkpt>
      <trkpt lat="47.85476" lon="-4.01361">
        <ele>1.8</ele>
        <time>2023-09-15T14:19:32Z</time>
      </trkpt>
      <trkpt lat="47.85469" lon="-4.01349">
        <ele>2</ele>
        <time>2023-09-15T14:19:35Z</time>
      </trkpt>
      <trkpt lat="47.85467" lon="-4.01345">
        <ele>2</ele>
        <time>2023-09-15T14:19:36Z</time>
      </trkpt>
      <trkpt lat="47.85464" lon="-4.0134">
        <ele>2</ele>
        <time>2023-09-15T14:19:37Z</time>
      </trkpt>
      <trkpt lat="47.85462" lon="-4.01335">
        <ele>2</ele>
        <time>2023-09-15T14:19:38Z</time>
      </trkpt>
      <trkpt lat="47.8546" lon="-4.0133">
        <ele>2</ele>
        <time>2023-09-15T14:19:39Z</time>
      </trkpt>
      <trkpt lat="47.85444" lon="-4.01297">
        <ele>1.8</ele>
        <time>2023-09-15T14:19:47Z</time>
      </trkpt>
      <trkpt lat="47.85435" lon="-4.01269">
        <ele>1.8</ele>
        <time>2023-09-15T14:19:54Z</time>
      </trkpt>
      <trkpt lat="47.85432" lon="-4.01256">
        <ele>2.4</ele>
        <time>2023-09-15T14:19:57Z</time>
      </trkpt>
      <trkpt lat="47.85429" lon="-4.01243">
        <ele>2.4</ele>
        <time>2023-09-15T14:20:00Z</time>
      </trkpt>
      <trkpt lat="47.8542" lon="-4.0121">
        <ele>1.8</ele>
        <time>2023-09-15T14:20:06Z</time>
      </trkpt>
      <trkpt lat="47.85415" lon="-4.01193">
        <ele>1.8</ele>
        <time>2023-09-15T14:20:09Z</time>
      </trkpt>
      <trkpt lat="47.85411" lon="-4.01182">
        <ele>1.8</ele>
        <time>2023-09-15T14:20:11Z</time>
      </trkpt>
      <trkpt lat="47.85395" lon="-4.01132">
        <ele>1.4</ele>
        <time>2023-09-15T14:20:19Z</time>
      </trkpt>
      <trkpt lat="47.85383" lon="-4.01094">
        <ele>1.8</ele>
        <time>2023-09-15T14:20:26Z</time>
      </trkpt>
      <trkpt lat="47.85379" lon="-4.01074">
        <ele>2.2</ele>
        <time>2023-09-15T14:20:31Z</time>
      </trkpt>
      <trkpt lat="47.85373" lon="-4.01055">
        <ele>2.4</ele>
        <time>2023-09-15T14:20:37Z</time>
      </trkpt>
      <trkpt lat="47.85363" lon="-4.01019">
        <ele>2.4</ele>
        <time>2023-09-15T14:20:46Z</time>
      </trkpt>
      <trkpt lat="47.85352" lon="-4.00984">
        <ele>2</ele>
        <time>2023-09-15T14:20:53Z</time>
      </trkpt>
      <trkpt lat="47.85343" lon="-4.00937">
        <ele>1.4</ele>
        <time>2023-09-15T14:20:59Z</time>
      </trkpt>
      <trkpt lat="47.85342" lon="-4.00929">
        <ele>1.2</ele>
        <time>2023-09-15T14:21:00Z</time>
      </trkpt>
      <trkpt lat="47.85336" lon="-4.00882">
        <ele>1</ele>
        <time>2023-09-15T14:21:07Z</time>
      </trkpt>
      <trkpt lat="47.85333" lon="-4.00831">
        <ele>1.6</ele>
        <time>2023-09-15T14:21:15Z</time>
      </trkpt>
      <trkpt lat="47.85331" lon="-4.00771">
        <ele>2</ele>
        <time>2023-09-15T14:21:24Z</time>
      </trkpt>
      <trkpt lat="47.85331" lon="-4.00765">
        <ele>2.2</ele>
        <time>2023-09-15T14:21:25Z</time>
      </trkpt>
      <trkpt lat="47.85331" lon="-4.00745">
        <ele>2.2</ele>
        <time>2023-09-15T14:21:28Z</time>
      </trkpt>
      <trkpt lat="47.85332" lon="-4.0071">
        <ele>2.4</ele>
        <time>2023-09-15T14:21:33Z</time>
      </trkpt>
      <trkpt lat="47.85332" lon="-4.00678">
        <ele>2.4</ele>
        <time>2023-09-15T14:21:38Z</time>
      </trkpt>
      <trkpt lat="47.85331" lon="-4.00666">
        <ele>2.6</ele>
        <time>2023-09-15T14:21:40Z</time>
      </trkpt>
      <trkpt lat="47.85328" lon="-4.00606">
        <ele>2.8</ele>
        <time>2023-09-15T14:21:49Z</time>
      </trkpt>
      <trkpt lat="47.85322" lon="-4.00564">
        <ele>2.6</ele>
        <time>2023-09-15T14:21:55Z</time>
      </trkpt>
      <trkpt lat="47.85319" lon="-4.00552">
        <ele>2.8</ele>
        <time>2023-09-15T14:21:57Z</time>
      </trkpt>
      <trkpt lat="47.85319" lon="-4.00521">
        <ele>2.6</ele>
        <time>2023-09-15T14:22:02Z</time>
      </trkpt>
      <trkpt lat="47.85324" lon="-4.00502">
        <ele>2.6</ele>
        <time>2023-09-15T14:22:05Z</time>
      </trkpt>
      <trkpt lat="47.85329" lon="-4.00482">
        <ele>2.6</ele>
        <time>2023-09-15T14:22:08Z</time>
      </trkpt>
      <trkpt lat="47.85335" lon="-4.00454">
        <ele>2.4</ele>
        <time>2023-09-15T14:22:12Z</time>
      </trkpt>
      <trkpt lat="47.85339" lon="-4.00432">
        <ele>2.4</ele>
        <time>2023-09-15T14:22:15Z</time>
      </trkpt>
      <trkpt lat="47.8534" lon="-4.00381">
        <ele>2.4</ele>
        <time>2023-09-15T14:22:22Z</time>
      </trkpt>
      <trkpt lat="47.85336" lon="-4.00348">
        <ele>1.6</ele>
        <time>2023-09-15T14:22:28Z</time>
      </trkpt>
      <trkpt lat="47.85335" lon="-4.00326">
        <ele>1.8</ele>
        <time>2023-09-15T14:22:32Z</time>
      </trkpt>
      <trkpt lat="47.85333" lon="-4.00308">
        <ele>1.6</ele>
        <time>2023-09-15T14:22:35Z</time>
      </trkpt>
      <trkpt lat="47.85333" lon="-4.00275">
        <ele>1.6</ele>
        <time>2023-09-15T14:22:40Z</time>
      </trkpt>
      <trkpt lat="47.85335" lon="-4.00262">
        <ele>1.6</ele>
        <time>2023-09-15T14:22:42Z</time>
      </trkpt>
      <trkpt lat="47.85343" lon="-4.00229">
        <ele>1.6</ele>
        <time>2023-09-15T14:22:47Z</time>
      </trkpt>
      <trkpt lat="47.85346" lon="-4.00215">
        <ele>1.6</ele>
        <time>2023-09-15T14:22:49Z</time>
      </trkpt>
      <trkpt lat="47.85355" lon="-4.00148">
        <ele>2</ele>
        <time>2023-09-15T14:22:58Z</time>
      </trkpt>
      <trkpt lat="47.85362" lon="-4.00106">
        <ele>2.2</ele>
        <time>2023-09-15T14:23:04Z</time>
      </trkpt>
      <trkpt lat="47.85364" lon="-4.00092">
        <ele>2.2</ele>
        <time>2023-09-15T14:23:06Z</time>
      </trkpt>
      <trkpt lat="47.85369" lon="-4.00043">
        <ele>2</ele>
        <time>2023-09-15T14:23:13Z</time>
      </trkpt>
      <trkpt lat="47.85374" lon="-3.99997">
        <ele>2.2</ele>
        <time>2023-09-15T14:23:20Z</time>
      </trkpt>
      <trkpt lat="47.85375" lon="-3.99991">
        <ele>2.2</ele>
        <time>2023-09-15T14:23:21Z</time>
      </trkpt>
      <trkpt lat="47.85376" lon="-3.99984">
        <ele>2.2</ele>
        <time>2023-09-15T14:23:22Z</time>
      </trkpt>
      <trkpt lat="47.85381" lon="-3.99965">
        <ele>2.2</ele>
        <time>2023-09-15T14:23:25Z</time>
      </trkpt>
      <trkpt lat="47.85388" lon="-3.99954">
        <ele>2.2</ele>
        <time>2023-09-15T14:23:27Z</time>
      </trkpt>
      <trkpt lat="47.85397" lon="-3.99945">
        <ele>2.2</ele>
        <time>2023-09-15T14:23:29Z</time>
      </trkpt>
      <trkpt lat="47.85407" lon="-3.99939">
        <ele>2.2</ele>
        <time>2023-09-15T14:23:31Z</time>
      </trkpt>
      <trkpt lat="47.85417" lon="-3.99935">
        <ele>2.2</ele>
        <time>2023-09-15T14:23:33Z</time>
      </trkpt>
      <trkpt lat="47.85431" lon="-3.99934">
        <ele>2.2</ele>
        <time>2023-09-15T14:23:36Z</time>
      </trkpt>
      <trkpt lat="47.85449" lon="-3.99935">
        <ele>2</ele>
        <time>2023-09-15T14:23:40Z</time>
      </trkpt>
      <trkpt lat="47.85459" lon="-3.99935">
        <ele>1.8</ele>
        <time>2023-09-15T14:23:42Z</time>
      </trkpt>
      <trkpt lat="47.85467" lon="-3.99931">
        <ele>1.8</ele>
        <time>2023-09-15T14:23:44Z</time>
      </trkpt>
      <trkpt lat="47.85475" lon="-3.99912">
        <ele>1.6</ele>
        <time>2023-09-15T14:23:48Z</time>
      </trkpt>
      <trkpt lat="47.85477" lon="-3.99875">
        <ele>1.2</ele>
        <time>2023-09-15T14:23:54Z</time>
      </trkpt>
      <trkpt lat="47.85477" lon="-3.99869">
        <ele>1.2</ele>
        <time>2023-09-15T14:23:55Z</time>
      </trkpt>
      <trkpt lat="47.85477" lon="-3.9985">
        <ele>0.8</ele>
        <time>2023-09-15T14:23:58Z</time>
      </trkpt>
      <trkpt lat="47.85472" lon="-3.99829">
        <ele>0.6</ele>
        <time>2023-09-15T14:24:01Z</time>
      </trkpt>
      <trkpt lat="47.85471" lon="-3.99822">
        <ele>0.6</ele>
        <time>2023-09-15T14:24:02Z</time>
      </trkpt>
      <trkpt lat="47.85469" lon="-3.99816">
        <ele>0.6</ele>
        <time>2023-09-15T14:24:03Z</time>
      </trkpt>
      <trkpt lat="47.85466" lon="-3.99802">
        <ele>0.6</ele>
        <time>2023-09-15T14:24:05Z</time>
      </trkpt>
      <trkpt lat="47.85462" lon="-3.99782">
        <ele>2.6</ele>
        <time>2023-09-15T14:24:08Z</time>
      </trkpt>
      <trkpt lat="47.85461" lon="-3.99774">
        <ele>2.7</ele>
        <time>2023-09-15T14:24:09Z</time>
      </trkpt>
      <trkpt lat="47.85459" lon="-3.99751">
        <ele>3</ele>
        <time>2023-09-15T14:24:12Z</time>
      </trkpt>
      <trkpt lat="47.8546" lon="-3.99728">
        <ele>0.4</ele>
        <time>2023-09-15T14:24:15Z</time>
      </trkpt>
      <trkpt lat="47.85463" lon="-3.99712">
        <ele>0.4</ele>
        <time>2023-09-15T14:24:17Z</time>
      </trkpt>
      <trkpt lat="47.85465" lon="-3.99704">
        <ele>0.4</ele>
        <time>2023-09-15T14:24:18Z</time>
      </trkpt>
      <trkpt lat="47.85469" lon="-3.99689">
        <ele>0.4</ele>
        <time>2023-09-15T14:24:20Z</time>
      </trkpt>
      <trkpt lat="47.85479" lon="-3.9966">
        <ele>0.4</ele>
        <time>2023-09-15T14:24:24Z</time>
      </trkpt>
      <trkpt lat="47.85481" lon="-3.99652">
        <ele>0.4</ele>
        <time>2023-09-15T14:24:25Z</time>
      </trkpt>
      <trkpt lat="47.85484" lon="-3.99646">
        <ele>0.2</ele>
        <time>2023-09-15T14:24:26Z</time>
      </trkpt>
      <trkpt lat="47.8549" lon="-3.99634">
        <ele>0.2</ele>
        <time>2023-09-15T14:24:28Z</time>
      </trkpt>
      <trkpt lat="47.85496" lon="-3.9962">
        <ele>0.4</ele>
        <time>2023-09-15T14:24:30Z</time>
      </trkpt>
      <trkpt lat="47.85508" lon="-3.99592">
        <ele>0.8</ele>
        <time>2023-09-15T14:24:34Z</time>
      </trkpt>
      <trkpt lat="47.85515" lon="-3.99571">
        <ele>1</ele>
        <time>2023-09-15T14:24:37Z</time>
      </trkpt>
      <trkpt lat="47.85526" lon="-3.99536">
        <ele>1</ele>
        <time>2023-09-15T14:24:42Z</time>
      </trkpt>
      <trkpt lat="47.85536" lon="-3.99502">
        <ele>1.4</ele>
        <time>2023-09-15T14:24:48Z</time>
      </trkpt>
      <trkpt lat="47.85549" lon="-3.99496">
        <ele>1.8</ele>
        <time>2023-09-15T14:24:52Z</time>
      </trkpt>
      <trkpt lat="47.85561" lon="-3.99496">
        <ele>1.8</ele>
        <time>2023-09-15T14:24:55Z</time>
      </trkpt>
      <trkpt lat="47.85568" lon="-3.99495">
        <ele>1.8</ele>
        <time>2023-09-15T14:24:57Z</time>
      </trkpt>
      <trkpt lat="47.85575" lon="-3.99495">
        <ele>2</ele>
        <time>2023-09-15T14:24:59Z</time>
      </trkpt>
      <trkpt lat="47.85583" lon="-3.99494">
        <ele>2</ele>
        <time>2023-09-15T14:25:01Z</time>
      </trkpt>
      <trkpt lat="47.85611" lon="-3.9949">
        <ele>2</ele>
        <time>2023-09-15T14:25:08Z</time>
      </trkpt>
      <trkpt lat="47.85642" lon="-3.99478">
        <ele>2</ele>
        <time>2023-09-15T14:25:15Z</time>
      </trkpt>
      <trkpt lat="47.8565" lon="-3.99473">
        <ele>2</ele>
        <time>2023-09-15T14:25:17Z</time>
      </trkpt>
      <trkpt lat="47.85663" lon="-3.99462">
        <ele>1.8</ele>
        <time>2023-09-15T14:25:21Z</time>
      </trkpt>
      <trkpt lat="47.85674" lon="-3.99451">
        <ele>2</ele>
        <time>2023-09-15T14:25:25Z</time>
      </trkpt>
      <trkpt lat="47.85676" lon="-3.99448">
        <ele>2</ele>
        <time>2023-09-15T14:25:26Z</time>
      </trkpt>
      <trkpt lat="47.85679" lon="-3.99445">
        <ele>2.4</ele>
        <time>2023-09-15T14:25:27Z</time>
      </trkpt>
      <trkpt lat="47.85698" lon="-3.99423">
        <ele>1.8</ele>
        <time>2023-09-15T14:25:33Z</time>
      </trkpt>
      <trkpt lat="47.85726" lon="-3.99395">
        <ele>2</ele>
        <time>2023-09-15T14:25:42Z</time>
      </trkpt>
      <trkpt lat="47.85738" lon="-3.99383">
        <ele>2.2</ele>
        <time>2023-09-15T14:25:46Z</time>
      </trkpt>
      <trkpt lat="47.85748" lon="-3.99372">
        <ele>2.4</ele>
        <time>2023-09-15T14:25:49Z</time>
      </trkpt>
      <trkpt lat="47.85784" lon="-3.9933">
        <ele>3</ele>
        <time>2023-09-15T14:26:01Z</time>
      </trkpt>
      <trkpt lat="47.85785" lon="-3.99325">
        <ele>3.2</ele>
        <time>2023-09-15T14:26:02Z</time>
      </trkpt>
      <trkpt lat="47.85786" lon="-3.99307">
        <ele>3.4</ele>
        <time>2023-09-15T14:26:05Z</time>
      </trkpt>
      <trkpt lat="47.85793" lon="-3.99274">
        <ele>3.2</ele>
        <time>2023-09-15T14:26:11Z</time>
      </trkpt>
      <trkpt lat="47.85801" lon="-3.99255">
        <ele>3.2</ele>
        <time>2023-09-15T14:26:15Z</time>
      </trkpt>
      <trkpt lat="47.85805" lon="-3.99245">
        <ele>3.2</ele>
        <time>2023-09-15T14:26:17Z</time>
      </trkpt>
      <trkpt lat="47.8582" lon="-3.99203">
        <ele>3.6</ele>
        <time>2023-09-15T14:26:25Z</time>
      </trkpt>
      <trkpt lat="47.85833" lon="-3.99155">
        <ele>4</ele>
        <time>2023-09-15T14:26:34Z</time>
      </trkpt>
      <trkpt lat="47.85836" lon="-3.99139">
        <ele>4.4</ele>
        <time>2023-09-15T14:26:37Z</time>
      </trkpt>
      <trkpt lat="47.85836" lon="-3.99117">
        <ele>5</ele>
        <time>2023-09-15T14:26:41Z</time>
      </trkpt>
      <trkpt lat="47.85833" lon="-3.99094">
        <ele>5.4</ele>
        <time>2023-09-15T14:26:45Z</time>
      </trkpt>
      <trkpt lat="47.85829" lon="-3.99067">
        <ele>5.8</ele>
        <time>2023-09-15T14:26:50Z</time>
      </trkpt>
      <trkpt lat="47.85825" lon="-3.99038">
        <ele>5.6</ele>
        <time>2023-09-15T14:26:56Z</time>
      </trkpt>
      <trkpt lat="47.85821" lon="-3.99017">
        <ele>6.4</ele>
        <time>2023-09-15T14:27:01Z</time>
      </trkpt>
      <trkpt lat="47.85817" lon="-3.99008">
        <ele>6.8</ele>
        <time>2023-09-15T14:27:03Z</time>
      </trkpt>
      <trkpt lat="47.85805" lon="-3.98992">
        <ele>6.8</ele>
        <time>2023-09-15T14:27:08Z</time>
      </trkpt>
      <trkpt lat="47.85787" lon="-3.98986">
        <ele>7.4</ele>
        <time>2023-09-15T14:27:14Z</time>
      </trkpt>
      <trkpt lat="47.85783" lon="-3.98985">
        <ele>7.6</ele>
        <time>2023-09-15T14:27:15Z</time>
      </trkpt>
      <trkpt lat="47.8576" lon="-3.98985">
        <ele>8.4</ele>
        <time>2023-09-15T14:27:22Z</time>
      </trkpt>
      <trkpt lat="47.8574" lon="-3.98987">
        <ele>8.8</ele>
        <time>2023-09-15T14:27:28Z</time>
      </trkpt>
      <trkpt lat="47.8573" lon="-3.98986">
        <ele>9.4</ele>
        <time>2023-09-15T14:27:31Z</time>
      </trkpt>
      <trkpt lat="47.85696" lon="-3.98983">
        <ele>9.6</ele>
        <time>2023-09-15T14:27:40Z</time>
      </trkpt>
      <trkpt lat="47.85689" lon="-3.98982">
        <ele>9.8</ele>
        <time>2023-09-15T14:27:42Z</time>
      </trkpt>
      <trkpt lat="47.85666" lon="-3.98978">
        <ele>9.8</ele>
        <time>2023-09-15T14:27:48Z</time>
      </trkpt>
      <trkpt lat="47.85648" lon="-3.98975">
        <ele>9.6</ele>
        <time>2023-09-15T14:27:54Z</time>
      </trkpt>
      <trkpt lat="47.85632" lon="-3.9897">
        <ele>9.4</ele>
        <time>2023-09-15T14:27:58Z</time>
      </trkpt>
      <trkpt lat="47.85623" lon="-3.98968">
        <ele>9</ele>
        <time>2023-09-15T14:28:00Z</time>
      </trkpt>
      <trkpt lat="47.85613" lon="-3.98967">
        <ele>8.6</ele>
        <time>2023-09-15T14:28:02Z</time>
      </trkpt>
      <trkpt lat="47.85602" lon="-3.98964">
        <ele>7.4</ele>
        <time>2023-09-15T14:28:04Z</time>
      </trkpt>
      <trkpt lat="47.85591" lon="-3.98959">
        <ele>7.2</ele>
        <time>2023-09-15T14:28:06Z</time>
      </trkpt>
      <trkpt lat="47.85569" lon="-3.9895">
        <ele>6.6</ele>
        <time>2023-09-15T14:28:10Z</time>
      </trkpt>
      <trkpt lat="47.8556" lon="-3.98946">
        <ele>6.6</ele>
        <time>2023-09-15T14:28:12Z</time>
      </trkpt>
      <trkpt lat="47.85543" lon="-3.98938">
        <ele>7.4</ele>
        <time>2023-09-15T14:28:17Z</time>
      </trkpt>
      <trkpt lat="47.85528" lon="-3.98935">
        <ele>8.6</ele>
        <time>2023-09-15T14:28:22Z</time>
      </trkpt>
      <trkpt lat="47.85525" lon="-3.98934">
        <ele>8.6</ele>
        <time>2023-09-15T14:28:23Z</time>
      </trkpt>
      <trkpt lat="47.855" lon="-3.98932">
        <ele>8.4</ele>
        <time>2023-09-15T14:28:30Z</time>
      </trkpt>
      <trkpt lat="47.85489" lon="-3.98932">
        <ele>7.8</ele>
        <time>2023-09-15T14:28:33Z</time>
      </trkpt>
      <trkpt lat="47.85476" lon="-3.98931">
        <ele>7.4</ele>
        <time>2023-09-15T14:28:36Z</time>
      </trkpt>
      <trkpt lat="47.85457" lon="-3.9893">
        <ele>6.4</ele>
        <time>2023-09-15T14:28:42Z</time>
      </trkpt>
      <trkpt lat="47.85454" lon="-3.9893">
        <ele>6.4</ele>
        <time>2023-09-15T14:28:43Z</time>
      </trkpt>
      <trkpt lat="47.85437" lon="-3.98927">
        <ele>5.6</ele>
        <time>2023-09-15T14:28:49Z</time>
      </trkpt>
      <trkpt lat="47.85436" lon="-3.98927">
        <ele>5.8</ele>
        <time>2023-09-15T14:28:53Z</time>
      </trkpt>
      <trkpt lat="47.85435" lon="-3.98928">
        <ele>6</ele>
        <time>2023-09-15T14:28:58Z</time>
      </trkpt>
      <trkpt lat="47.85435" lon="-3.98929">
        <ele>6</ele>
        <time>2023-09-15T14:29:04Z</time>
      </trkpt>
      <trkpt lat="47.85436" lon="-3.98927">
        <ele>6.2</ele>
        <time>2023-09-15T14:29:14Z</time>
      </trkpt>
      <trkpt lat="47.85439" lon="-3.98924">
        <ele>6.6</ele>
        <time>2023-09-15T14:29:18Z</time>
      </trkpt>
      <trkpt lat="47.85441" lon="-3.98924">
        <ele>6.6</ele>
        <time>2023-09-15T14:29:19Z</time>
      </trkpt>
      <trkpt lat="47.85455" lon="-3.98927">
        <ele>6.6</ele>
        <time>2023-09-15T14:29:24Z</time>
      </trkpt>
      <trkpt lat="47.85475" lon="-3.98929">
        <ele>7.2</ele>
        <time>2023-09-15T14:29:30Z</time>
      </trkpt>
      <trkpt lat="47.85478" lon="-3.9893">
        <ele>7.2</ele>
        <time>2023-09-15T14:29:31Z</time>
      </trkpt>
      <trkpt lat="47.85481" lon="-3.9893">
        <ele>7.2</ele>
        <time>2023-09-15T14:29:32Z</time>
      </trkpt>
      <trkpt lat="47.85484" lon="-3.98929">
        <ele>7.4</ele>
        <time>2023-09-15T14:29:33Z</time>
      </trkpt>
      <trkpt lat="47.85487" lon="-3.98928">
        <ele>7.6</ele>
        <time>2023-09-15T14:29:34Z</time>
      </trkpt>
      <trkpt lat="47.85495" lon="-3.98922">
        <ele>8</ele>
        <time>2023-09-15T14:29:37Z</time>
      </trkpt>
      <trkpt lat="47.85497" lon="-3.98916">
        <ele>8.6</ele>
        <time>2023-09-15T14:29:39Z</time>
      </trkpt>
      <trkpt lat="47.85498" lon="-3.98908">
        <ele>9</ele>
        <time>2023-09-15T14:29:41Z</time>
      </trkpt>
      <trkpt lat="47.85497" lon="-3.98886">
        <ele>9.6</ele>
        <time>2023-09-15T14:29:46Z</time>
      </trkpt>
      <trkpt lat="47.85496" lon="-3.98878">
        <ele>9.8</ele>
        <time>2023-09-15T14:29:48Z</time>
      </trkpt>
      <trkpt lat="47.8549" lon="-3.9885">
        <ele>10</ele>
        <time>2023-09-15T14:29:54Z</time>
      </trkpt>
      <trkpt lat="47.85483" lon="-3.98824">
        <ele>10</ele>
        <time>2023-09-15T14:29:59Z</time>
      </trkpt>
      <trkpt lat="47.85478" lon="-3.98811">
        <ele>10</ele>
        <time>2023-09-15T14:30:02Z</time>
      </trkpt>
      <trkpt lat="47.85463" lon="-3.98774">
        <ele>10</ele>
        <time>2023-09-15T14:30:09Z</time>
      </trkpt>
      <trkpt lat="47.85452" lon="-3.98733">
        <ele>10</ele>
        <time>2023-09-15T14:30:16Z</time>
      </trkpt>
      <trkpt lat="47.85445" lon="-3.98684">
        <ele>9</ele>
        <time>2023-09-15T14:30:23Z</time>
      </trkpt>
      <trkpt lat="47.85442" lon="-3.98668">
        <ele>8.6</ele>
        <time>2023-09-15T14:30:25Z</time>
      </trkpt>
      <trkpt lat="47.85441" lon="-3.98652">
        <ele>7.8</ele>
        <time>2023-09-15T14:30:27Z</time>
      </trkpt>
      <trkpt lat="47.8544" lon="-3.98643">
        <ele>7.4</ele>
        <time>2023-09-15T14:30:28Z</time>
      </trkpt>
      <trkpt lat="47.8544" lon="-3.98626">
        <ele>7</ele>
        <time>2023-09-15T14:30:30Z</time>
      </trkpt>
      <trkpt lat="47.85442" lon="-3.98584">
        <ele>6.6</ele>
        <time>2023-09-15T14:30:35Z</time>
      </trkpt>
      <trkpt lat="47.85443" lon="-3.98569">
        <ele>6.6</ele>
        <time>2023-09-15T14:30:37Z</time>
      </trkpt>
      <trkpt lat="47.85446" lon="-3.98555">
        <ele>6.8</ele>
        <time>2023-09-15T14:30:39Z</time>
      </trkpt>
      <trkpt lat="47.8545" lon="-3.98543">
        <ele>7</ele>
        <time>2023-09-15T14:30:41Z</time>
      </trkpt>
      <trkpt lat="47.85452" lon="-3.98537">
        <ele>7</ele>
        <time>2023-09-15T14:30:42Z</time>
      </trkpt>
      <trkpt lat="47.85454" lon="-3.98532">
        <ele>7</ele>
        <time>2023-09-15T14:30:43Z</time>
      </trkpt>
      <trkpt lat="47.85459" lon="-3.98521">
        <ele>7.2</ele>
        <time>2023-09-15T14:30:45Z</time>
      </trkpt>
      <trkpt lat="47.85465" lon="-3.98507">
        <ele>7.6</ele>
        <time>2023-09-15T14:30:48Z</time>
      </trkpt>
      <trkpt lat="47.85468" lon="-3.98503">
        <ele>7.6</ele>
        <time>2023-09-15T14:30:49Z</time>
      </trkpt>
      <trkpt lat="47.85486" lon="-3.98461">
        <ele>8.2</ele>
        <time>2023-09-15T14:30:59Z</time>
      </trkpt>
      <trkpt lat="47.85494" lon="-3.98442">
        <ele>8.4</ele>
        <time>2023-09-15T14:31:03Z</time>
      </trkpt>
      <trkpt lat="47.85499" lon="-3.98423">
        <ele>8.6</ele>
        <time>2023-09-15T14:31:07Z</time>
      </trkpt>
      <trkpt lat="47.85506" lon="-3.98387">
        <ele>9.4</ele>
        <time>2023-09-15T14:31:14Z</time>
      </trkpt>
      <trkpt lat="47.85509" lon="-3.98377">
        <ele>9.4</ele>
        <time>2023-09-15T14:31:16Z</time>
      </trkpt>
      <trkpt lat="47.85512" lon="-3.98364">
        <ele>9.6</ele>
        <time>2023-09-15T14:31:19Z</time>
      </trkpt>
      <trkpt lat="47.85516" lon="-3.98356">
        <ele>9.8</ele>
        <time>2023-09-15T14:31:21Z</time>
      </trkpt>
      <trkpt lat="47.85517" lon="-3.98352">
        <ele>9.8</ele>
        <time>2023-09-15T14:31:22Z</time>
      </trkpt>
      <trkpt lat="47.85519" lon="-3.98347">
        <ele>10</ele>
        <time>2023-09-15T14:31:23Z</time>
      </trkpt>
      <trkpt lat="47.8552" lon="-3.98343">
        <ele>10.2</ele>
        <time>2023-09-15T14:31:24Z</time>
      </trkpt>
      <trkpt lat="47.85521" lon="-3.98338">
        <ele>10.2</ele>
        <time>2023-09-15T14:31:25Z</time>
      </trkpt>
      <trkpt lat="47.85522" lon="-3.98333">
        <ele>10.4</ele>
        <time>2023-09-15T14:31:26Z</time>
      </trkpt>
      <trkpt lat="47.85523" lon="-3.98328">
        <ele>10.4</ele>
        <time>2023-09-15T14:31:27Z</time>
      </trkpt>
      <trkpt lat="47.85524" lon="-3.98318">
        <ele>10.4</ele>
        <time>2023-09-15T14:31:29Z</time>
      </trkpt>
      <trkpt lat="47.85524" lon="-3.98279">
        <ele>11</ele>
        <time>2023-09-15T14:31:36Z</time>
      </trkpt>
      <trkpt lat="47.85516" lon="-3.98225">
        <ele>11.4</ele>
        <time>2023-09-15T14:31:46Z</time>
      </trkpt>
      <trkpt lat="47.85506" lon="-3.98161">
        <ele>11.4</ele>
        <time>2023-09-15T14:31:57Z</time>
      </trkpt>
      <trkpt lat="47.855" lon="-3.98112">
        <ele>10.2</ele>
        <time>2023-09-15T14:32:04Z</time>
      </trkpt>
      <trkpt lat="47.85494" lon="-3.98081">
        <ele>9.4</ele>
        <time>2023-09-15T14:32:08Z</time>
      </trkpt>
      <trkpt lat="47.85488" lon="-3.98072">
        <ele>9.2</ele>
        <time>2023-09-15T14:32:10Z</time>
      </trkpt>
      <trkpt lat="47.85479" lon="-3.98058">
        <ele>9.4</ele>
        <time>2023-09-15T14:32:15Z</time>
      </trkpt>
      <trkpt lat="47.85477" lon="-3.98053">
        <ele>9.8</ele>
        <time>2023-09-15T14:32:17Z</time>
      </trkpt>
      <trkpt lat="47.85475" lon="-3.98041">
        <ele>9.8</ele>
        <time>2023-09-15T14:32:21Z</time>
      </trkpt>
      <trkpt lat="47.85476" lon="-3.98029">
        <ele>10</ele>
        <time>2023-09-15T14:32:27Z</time>
      </trkpt>
      <trkpt lat="47.85479" lon="-3.98012">
        <ele>10.4</ele>
        <time>2023-09-15T14:32:33Z</time>
      </trkpt>
      <trkpt lat="47.8548" lon="-3.98003">
        <ele>10.4</ele>
        <time>2023-09-15T14:32:36Z</time>
      </trkpt>
      <trkpt lat="47.85482" lon="-3.97986">
        <ele>10.6</ele>
        <time>2023-09-15T14:32:40Z</time>
      </trkpt>
      <trkpt lat="47.85486" lon="-3.9798">
        <ele>10.6</ele>
        <time>2023-09-15T14:32:42Z</time>
      </trkpt>
      <trkpt lat="47.85492" lon="-3.97975">
        <ele>10.6</ele>
        <time>2023-09-15T14:32:44Z</time>
      </trkpt>
      <trkpt lat="47.85497" lon="-3.97958">
        <ele>10.6</ele>
        <time>2023-09-15T14:32:48Z</time>
      </trkpt>
      <trkpt lat="47.85502" lon="-3.9793">
        <ele>11.6</ele>
        <time>2023-09-15T14:32:55Z</time>
      </trkpt>
      <trkpt lat="47.85504" lon="-3.97921">
        <ele>11.6</ele>
        <time>2023-09-15T14:32:57Z</time>
      </trkpt>
      <trkpt lat="47.85514" lon="-3.97882">
        <ele>11.8</ele>
        <time>2023-09-15T14:33:06Z</time>
      </trkpt>
      <trkpt lat="47.85517" lon="-3.97841">
        <ele>11.8</ele>
        <time>2023-09-15T14:33:13Z</time>
      </trkpt>
      <trkpt lat="47.85518" lon="-3.97795">
        <ele>10.4</ele>
        <time>2023-09-15T14:33:19Z</time>
      </trkpt>
      <trkpt lat="47.85517" lon="-3.97779">
        <ele>10.2</ele>
        <time>2023-09-15T14:33:21Z</time>
      </trkpt>
      <trkpt lat="47.85515" lon="-3.97773">
        <ele>10</ele>
        <time>2023-09-15T14:33:22Z</time>
      </trkpt>
      <trkpt lat="47.85509" lon="-3.97768">
        <ele>10</ele>
        <time>2023-09-15T14:33:24Z</time>
      </trkpt>
      <trkpt lat="47.85503" lon="-3.97763">
        <ele>10.4</ele>
        <time>2023-09-15T14:33:27Z</time>
      </trkpt>
      <trkpt lat="47.85502" lon="-3.97758">
        <ele>10.6</ele>
        <time>2023-09-15T14:33:29Z</time>
      </trkpt>
      <trkpt lat="47.855" lon="-3.97759">
        <ele>11</ele>
        <time>2023-09-15T14:33:34Z</time>
      </trkpt>
      <trkpt lat="47.85499" lon="-3.9776">
        <ele>11</ele>
        <time>2023-09-15T14:33:35Z</time>
      </trkpt>
      <trkpt lat="47.855" lon="-3.97763">
        <ele>11</ele>
        <time>2023-09-15T14:33:38Z</time>
      </trkpt>
      <trkpt lat="47.85499" lon="-3.97771">
        <ele>10.8</ele>
        <time>2023-09-15T14:33:44Z</time>
      </trkpt>
      <trkpt lat="47.85492" lon="-3.97777">
        <ele>11.4</ele>
        <time>2023-09-15T14:33:49Z</time>
      </trkpt>
      <trkpt lat="47.85486" lon="-3.97779">
        <ele>11.6</ele>
        <time>2023-09-15T14:33:52Z</time>
      </trkpt>
      <trkpt lat="47.85475" lon="-3.97783">
        <ele>11.8</ele>
        <time>2023-09-15T14:34:00Z</time>
      </trkpt>
      <trkpt lat="47.85469" lon="-3.97785">
        <ele>12</ele>
        <time>2023-09-15T14:34:04Z</time>
      </trkpt>
      <trkpt lat="47.85465" lon="-3.97786">
        <ele>12</ele>
        <time>2023-09-15T14:34:07Z</time>
      </trkpt>
      <trkpt lat="47.85456" lon="-3.97785">
        <ele>12</ele>
        <time>2023-09-15T14:34:14Z</time>
      </trkpt>
      <trkpt lat="47.85446" lon="-3.97774">
        <ele>11.4</ele>
        <time>2023-09-15T14:34:23Z</time>
      </trkpt>
      <trkpt lat="47.85438" lon="-3.97765">
        <ele>11.2</ele>
        <time>2023-09-15T14:34:32Z</time>
      </trkpt>
      <trkpt lat="47.85433" lon="-3.97761">
        <ele>10.8</ele>
        <time>2023-09-15T14:34:39Z</time>
      </trkpt>
      <trkpt lat="47.8543" lon="-3.9776">
        <ele>10.8</ele>
        <time>2023-09-15T14:34:41Z</time>
      </trkpt>
      <trkpt lat="47.85424" lon="-3.97758">
        <ele>10.4</ele>
        <time>2023-09-15T14:34:47Z</time>
      </trkpt>
      <trkpt lat="47.85422" lon="-3.9776">
        <ele>10.2</ele>
        <time>2023-09-15T14:34:54Z</time>
      </trkpt>
      <trkpt lat="47.85423" lon="-3.97757">
        <ele>10.2</ele>
        <time>2023-09-15T14:35:01Z</time>
      </trkpt>
      <trkpt lat="47.85427" lon="-3.9775">
        <ele>10.2</ele>
        <time>2023-09-15T14:35:07Z</time>
      </trkpt>
      <trkpt lat="47.85426" lon="-3.97747">
        <ele>10.2</ele>
        <time>2023-09-15T14:35:08Z</time>
      </trkpt>
      <trkpt lat="47.85425" lon="-3.97737">
        <ele>10</ele>
        <time>2023-09-15T14:35:14Z</time>
      </trkpt>
      <trkpt lat="47.85424" lon="-3.97733">
        <ele>10</ele>
        <time>2023-09-15T14:35:16Z</time>
      </trkpt>
      <trkpt lat="47.85425" lon="-3.97713">
        <ele>9.8</ele>
        <time>2023-09-15T14:35:28Z</time>
      </trkpt>
      <trkpt lat="47.85425" lon="-3.97709">
        <ele>9.6</ele>
        <time>2023-09-15T14:35:31Z</time>
      </trkpt>
      <trkpt lat="47.85423" lon="-3.97707">
        <ele>9.6</ele>
        <time>2023-09-15T14:35:35Z</time>
      </trkpt>
      <trkpt lat="47.85421" lon="-3.97706">
        <ele>9.2</ele>
        <time>2023-09-15T14:35:39Z</time>
      </trkpt>
      <trkpt lat="47.85421" lon="-3.97706">
        <ele>9.2</ele>
        <time>2023-09-15T14:35:42Z</time>
      </trkpt>
      <trkpt lat="47.8542" lon="-3.97706">
        <ele>9.2</ele>
        <time>2023-09-15T14:35:49Z</time>
      </trkpt>
      <trkpt lat="47.85419" lon="-3.97707">
        <ele>9.2</ele>
        <time>2023-09-15T14:36:04Z</time>
      </trkpt>
      <trkpt lat="47.85419" lon="-3.97707">
        <ele>9.2</ele>
        <time>2023-09-15T14:36:13Z</time>
      </trkpt>
      <trkpt lat="47.85421" lon="-3.97709">
        <ele>9.2</ele>
        <time>2023-09-15T14:36:29Z</time>
      </trkpt>
      <trkpt lat="47.85421" lon="-3.9771">
        <ele>9.2</ele>
        <time>2023-09-15T14:36:37Z</time>
      </trkpt>
      <trkpt lat="47.85422" lon="-3.9771">
        <ele>9</ele>
        <time>2023-09-15T14:36:48Z</time>
      </trkpt>
      <trkpt lat="47.85422" lon="-3.9771">
        <ele>9</ele>
        <time>2023-09-15T14:36:50Z</time>
      </trkpt>
      <trkpt lat="47.85467" lon="-3.97793">
        <ele>11.8</ele>
        <time>2023-09-15T14:47:19Z</time>
      </trkpt>
      <trkpt lat="47.85467" lon="-3.97793">
        <ele>11.8</ele>
        <time>2023-09-15T14:47:20Z</time>
      </trkpt>
      <trkpt lat="47.85469" lon="-3.97793">
        <ele>11.8</ele>
        <time>2023-09-15T14:47:24Z</time>
      </trkpt>
      <trkpt lat="47.85475" lon="-3.9779">
        <ele>11.6</ele>
        <time>2023-09-15T14:47:31Z</time>
      </trkpt>
      <trkpt lat="47.85481" lon="-3.97787">
        <ele>11.6</ele>
        <time>2023-09-15T14:47:37Z</time>
      </trkpt>
      <trkpt lat="47.85483" lon="-3.97789">
        <ele>11.8</ele>
        <time>2023-09-15T14:47:40Z</time>
      </trkpt>
      <trkpt lat="47.85483" lon="-3.97789">
        <ele>12</ele>
        <time>2023-09-15T14:47:48Z</time>
      </trkpt>
      <trkpt lat="47.85479" lon="-3.97788">
        <ele>12</ele>
        <time>2023-09-15T14:47:55Z</time>
      </trkpt>
      <trkpt lat="47.85479" lon="-3.97787">
        <ele>12</ele>
        <time>2023-09-15T14:47:57Z</time>
      </trkpt>
      <trkpt lat="47.85479" lon="-3.97786">
        <ele>11.8</ele>
        <time>2023-09-15T14:48:06Z</time>
      </trkpt>
      <trkpt lat="47.85485" lon="-3.97784">
        <ele>11.6</ele>
        <time>2023-09-15T14:48:12Z</time>
      </trkpt>
      <trkpt lat="47.85498" lon="-3.97775">
        <ele>11.2</ele>
        <time>2023-09-15T14:48:20Z</time>
      </trkpt>
      <trkpt lat="47.855" lon="-3.97775">
        <ele>10.6</ele>
        <time>2023-09-15T14:48:23Z</time>
      </trkpt>
      <trkpt lat="47.855" lon="-3.97776">
        <ele>10.6</ele>
        <time>2023-09-15T14:48:25Z</time>
      </trkpt>
      <trkpt lat="47.85502" lon="-3.97776">
        <ele>10.6</ele>
        <time>2023-09-15T14:48:28Z</time>
      </trkpt>
      <trkpt lat="47.85507" lon="-3.97779">
        <ele>10.6</ele>
        <time>2023-09-15T14:48:31Z</time>
      </trkpt>
      <trkpt lat="47.85512" lon="-3.9779">
        <ele>10.6</ele>
        <time>2023-09-15T14:48:35Z</time>
      </trkpt>
      <trkpt lat="47.85514" lon="-3.97796">
        <ele>10.6</ele>
        <time>2023-09-15T14:48:37Z</time>
      </trkpt>
      <trkpt lat="47.85516" lon="-3.97821">
        <ele>10.8</ele>
        <time>2023-09-15T14:48:44Z</time>
      </trkpt>
      <trkpt lat="47.85515" lon="-3.97843">
        <ele>11.2</ele>
        <time>2023-09-15T14:48:50Z</time>
      </trkpt>
      <trkpt lat="47.85514" lon="-3.97855">
        <ele>11.4</ele>
        <time>2023-09-15T14:48:53Z</time>
      </trkpt>
      <trkpt lat="47.85514" lon="-3.97863">
        <ele>11.8</ele>
        <time>2023-09-15T14:48:55Z</time>
      </trkpt>
      <trkpt lat="47.85513" lon="-3.97871">
        <ele>11.8</ele>
        <time>2023-09-15T14:48:57Z</time>
      </trkpt>
      <trkpt lat="47.85507" lon="-3.97909">
        <ele>11.6</ele>
        <time>2023-09-15T14:49:05Z</time>
      </trkpt>
      <trkpt lat="47.85499" lon="-3.97952">
        <ele>11.2</ele>
        <time>2023-09-15T14:49:13Z</time>
      </trkpt>
      <trkpt lat="47.85496" lon="-3.97976">
        <ele>11</ele>
        <time>2023-09-15T14:49:17Z</time>
      </trkpt>
      <trkpt lat="47.85495" lon="-3.97982">
        <ele>10.8</ele>
        <time>2023-09-15T14:49:18Z</time>
      </trkpt>
      <trkpt lat="47.85494" lon="-3.97989">
        <ele>10.4</ele>
        <time>2023-09-15T14:49:19Z</time>
      </trkpt>
      <trkpt lat="47.85492" lon="-3.98016">
        <ele>9.6</ele>
        <time>2023-09-15T14:49:23Z</time>
      </trkpt>
      <trkpt lat="47.85491" lon="-3.98044">
        <ele>9.4</ele>
        <time>2023-09-15T14:49:27Z</time>
      </trkpt>
      <trkpt lat="47.85495" lon="-3.98072">
        <ele>9</ele>
        <time>2023-09-15T14:49:31Z</time>
      </trkpt>
      <trkpt lat="47.85496" lon="-3.98085">
        <ele>9</ele>
        <time>2023-09-15T14:49:33Z</time>
      </trkpt>
      <trkpt lat="47.85498" lon="-3.98096">
        <ele>9.2</ele>
        <time>2023-09-15T14:49:35Z</time>
      </trkpt>
      <trkpt lat="47.85502" lon="-3.98122">
        <ele>10.2</ele>
        <time>2023-09-15T14:49:40Z</time>
      </trkpt>
      <trkpt lat="47.85508" lon="-3.98153">
        <ele>10.8</ele>
        <time>2023-09-15T14:49:46Z</time>
      </trkpt>
      <trkpt lat="47.85511" lon="-3.9817">
        <ele>11.4</ele>
        <time>2023-09-15T14:49:49Z</time>
      </trkpt>
      <trkpt lat="47.85517" lon="-3.98217">
        <ele>11.8</ele>
        <time>2023-09-15T14:49:57Z</time>
      </trkpt>
      <trkpt lat="47.85526" lon="-3.98277">
        <ele>11.4</ele>
        <time>2023-09-15T14:50:05Z</time>
      </trkpt>
      <trkpt lat="47.85538" lon="-3.98337">
        <ele>11</ele>
        <time>2023-09-15T14:50:12Z</time>
      </trkpt>
      <trkpt lat="47.8554" lon="-3.98346">
        <ele>10.6</ele>
        <time>2023-09-15T14:50:13Z</time>
      </trkpt>
      <trkpt lat="47.85543" lon="-3.98353">
        <ele>10.6</ele>
        <time>2023-09-15T14:50:14Z</time>
      </trkpt>
      <trkpt lat="47.85551" lon="-3.98367">
        <ele>10.6</ele>
        <time>2023-09-15T14:50:16Z</time>
      </trkpt>
      <trkpt lat="47.8556" lon="-3.98378">
        <ele>10.6</ele>
        <time>2023-09-15T14:50:18Z</time>
      </trkpt>
      <trkpt lat="47.85565" lon="-3.98383">
        <ele>10.6</ele>
        <time>2023-09-15T14:50:19Z</time>
      </trkpt>
      <trkpt lat="47.85583" lon="-3.98394">
        <ele>10.6</ele>
        <time>2023-09-15T14:50:22Z</time>
      </trkpt>
      <trkpt lat="47.85596" lon="-3.98395">
        <ele>10.4</ele>
        <time>2023-09-15T14:50:24Z</time>
      </trkpt>
      <trkpt lat="47.85609" lon="-3.98394">
        <ele>10.4</ele>
        <time>2023-09-15T14:50:26Z</time>
      </trkpt>
      <trkpt lat="47.8565" lon="-3.98395">
        <ele>11</ele>
        <time>2023-09-15T14:50:33Z</time>
      </trkpt>
      <trkpt lat="47.85661" lon="-3.98398">
        <ele>11</ele>
        <time>2023-09-15T14:50:35Z</time>
      </trkpt>
      <trkpt lat="47.85672" lon="-3.98403">
        <ele>11</ele>
        <time>2023-09-15T14:50:37Z</time>
      </trkpt>
      <trkpt lat="47.85682" lon="-3.98409">
        <ele>11.4</ele>
        <time>2023-09-15T14:50:39Z</time>
      </trkpt>
      <trkpt lat="47.85687" lon="-3.98413">
        <ele>11.6</ele>
        <time>2023-09-15T14:50:40Z</time>
      </trkpt>
      <trkpt lat="47.857" lon="-3.98426">
        <ele>11.8</ele>
        <time>2023-09-15T14:50:43Z</time>
      </trkpt>
      <trkpt lat="47.85714" lon="-3.9844">
        <ele>12.2</ele>
        <time>2023-09-15T14:50:46Z</time>
      </trkpt>
      <trkpt lat="47.8575" lon="-3.98482">
        <ele>13</ele>
        <time>2023-09-15T14:50:54Z</time>
      </trkpt>
      <trkpt lat="47.85759" lon="-3.98491">
        <ele>13.2</ele>
        <time>2023-09-15T14:50:56Z</time>
      </trkpt>
      <trkpt lat="47.85806" lon="-3.98537">
        <ele>13.8</ele>
        <time>2023-09-15T14:51:06Z</time>
      </trkpt>
      <trkpt lat="47.85814" lon="-3.98546">
        <ele>13.8</ele>
        <time>2023-09-15T14:51:08Z</time>
      </trkpt>
      <trkpt lat="47.85819" lon="-3.98551">
        <ele>14</ele>
        <time>2023-09-15T14:51:09Z</time>
      </trkpt>
      <trkpt lat="47.8585" lon="-3.98574">
        <ele>14.6</ele>
        <time>2023-09-15T14:51:16Z</time>
      </trkpt>
      <trkpt lat="47.85871" lon="-3.9858">
        <ele>14.6</ele>
        <time>2023-09-15T14:51:20Z</time>
      </trkpt>
      <trkpt lat="47.85887" lon="-3.9858">
        <ele>14.8</ele>
        <time>2023-09-15T14:51:23Z</time>
      </trkpt>
      <trkpt lat="47.85902" lon="-3.98577">
        <ele>15.2</ele>
        <time>2023-09-15T14:51:26Z</time>
      </trkpt>
      <trkpt lat="47.85919" lon="-3.98571">
        <ele>15.4</ele>
        <time>2023-09-15T14:51:30Z</time>
      </trkpt>
      <trkpt lat="47.85951" lon="-3.9856">
        <ele>15.6</ele>
        <time>2023-09-15T14:51:38Z</time>
      </trkpt>
      <trkpt lat="47.85982" lon="-3.98554">
        <ele>15</ele>
        <time>2023-09-15T14:51:45Z</time>
      </trkpt>
      <trkpt lat="47.86014" lon="-3.98551">
        <ele>14</ele>
        <time>2023-09-15T14:51:52Z</time>
      </trkpt>
      <trkpt lat="47.86038" lon="-3.98549">
        <ele>13.4</ele>
        <time>2023-09-15T14:51:58Z</time>
      </trkpt>
      <trkpt lat="47.86049" lon="-3.98541">
        <ele>13</ele>
        <time>2023-09-15T14:52:01Z</time>
      </trkpt>
      <trkpt lat="47.86053" lon="-3.98541">
        <ele>13</ele>
        <time>2023-09-15T14:52:02Z</time>
      </trkpt>
      <trkpt lat="47.86071" lon="-3.98539">
        <ele>12</ele>
        <time>2023-09-15T14:52:08Z</time>
      </trkpt>
      <trkpt lat="47.86073" lon="-3.98541">
        <ele>11.8</ele>
        <time>2023-09-15T14:52:10Z</time>
      </trkpt>
      <trkpt lat="47.86074" lon="-3.98545">
        <ele>11.8</ele>
        <time>2023-09-15T14:52:12Z</time>
      </trkpt>
      <trkpt lat="47.86079" lon="-3.98559">
        <ele>11.6</ele>
        <time>2023-09-15T14:52:18Z</time>
      </trkpt>
      <trkpt lat="47.86089" lon="-3.98573">
        <ele>11.4</ele>
        <time>2023-09-15T14:52:23Z</time>
      </trkpt>
      <trkpt lat="47.86091" lon="-3.98576">
        <ele>11.4</ele>
        <time>2023-09-15T14:52:24Z</time>
      </trkpt>
      <trkpt lat="47.86108" lon="-3.98606">
        <ele>12</ele>
        <time>2023-09-15T14:52:33Z</time>
      </trkpt>
      <trkpt lat="47.86119" lon="-3.98625">
        <ele>12.4</ele>
        <time>2023-09-15T14:52:39Z</time>
      </trkpt>
      <trkpt lat="47.8612" lon="-3.98629">
        <ele>12.4</ele>
        <time>2023-09-15T14:52:40Z</time>
      </trkpt>
      <trkpt lat="47.86124" lon="-3.98657">
        <ele>12.8</ele>
        <time>2023-09-15T14:52:47Z</time>
      </trkpt>
      <trkpt lat="47.86129" lon="-3.98675">
        <ele>13</ele>
        <time>2023-09-15T14:52:51Z</time>
      </trkpt>
      <trkpt lat="47.86134" lon="-3.98694">
        <ele>13.4</ele>
        <time>2023-09-15T14:52:55Z</time>
      </trkpt>
      <trkpt lat="47.86137" lon="-3.9871">
        <ele>13.4</ele>
        <time>2023-09-15T14:52:58Z</time>
      </trkpt>
      <trkpt lat="47.86143" lon="-3.98732">
        <ele>14.2</ele>
        <time>2023-09-15T14:53:03Z</time>
      </trkpt>
      <trkpt lat="47.86148" lon="-3.98755">
        <ele>14.4</ele>
        <time>2023-09-15T14:53:08Z</time>
      </trkpt>
      <trkpt lat="47.86153" lon="-3.98769">
        <ele>14.6</ele>
        <time>2023-09-15T14:53:11Z</time>
      </trkpt>
      <trkpt lat="47.86169" lon="-3.98807">
        <ele>15.4</ele>
        <time>2023-09-15T14:53:19Z</time>
      </trkpt>
      <trkpt lat="47.86185" lon="-3.98818">
        <ele>16</ele>
        <time>2023-09-15T14:53:24Z</time>
      </trkpt>
      <trkpt lat="47.86209" lon="-3.98824">
        <ele>16</ele>
        <time>2023-09-15T14:53:30Z</time>
      </trkpt>
      <trkpt lat="47.86217" lon="-3.98826">
        <ele>16</ele>
        <time>2023-09-15T14:53:32Z</time>
      </trkpt>
      <trkpt lat="47.86222" lon="-3.98826">
        <ele>16</ele>
        <time>2023-09-15T14:53:33Z</time>
      </trkpt>
      <trkpt lat="47.86268" lon="-3.98837">
        <ele>16.4</ele>
        <time>2023-09-15T14:53:43Z</time>
      </trkpt>
      <trkpt lat="47.86296" lon="-3.98855">
        <ele>16.8</ele>
        <time>2023-09-15T14:53:50Z</time>
      </trkpt>
      <trkpt lat="47.86327" lon="-3.98878">
        <ele>16.4</ele>
        <time>2023-09-15T14:53:57Z</time>
      </trkpt>
      <trkpt lat="47.86336" lon="-3.98886">
        <ele>16.4</ele>
        <time>2023-09-15T14:53:59Z</time>
      </trkpt>
      <trkpt lat="47.86369" lon="-3.98919">
        <ele>15.8</ele>
        <time>2023-09-15T14:54:06Z</time>
      </trkpt>
      <trkpt lat="47.86373" lon="-3.98924">
        <ele>15.6</ele>
        <time>2023-09-15T14:54:07Z</time>
      </trkpt>
      <trkpt lat="47.86383" lon="-3.98935">
        <ele>15.2</ele>
        <time>2023-09-15T14:54:09Z</time>
      </trkpt>
      <trkpt lat="47.86408" lon="-3.98964">
        <ele>14.4</ele>
        <time>2023-09-15T14:54:14Z</time>
      </trkpt>
      <trkpt lat="47.86418" lon="-3.98976">
        <ele>14.2</ele>
        <time>2023-09-15T14:54:16Z</time>
      </trkpt>
      <trkpt lat="47.86423" lon="-3.98981">
        <ele>13.8</ele>
        <time>2023-09-15T14:54:17Z</time>
      </trkpt>
      <trkpt lat="47.86448" lon="-3.99011">
        <ele>12.6</ele>
        <time>2023-09-15T14:54:22Z</time>
      </trkpt>
      <trkpt lat="47.86463" lon="-3.99029">
        <ele>12.4</ele>
        <time>2023-09-15T14:54:25Z</time>
      </trkpt>
      <trkpt lat="47.86473" lon="-3.9904">
        <ele>12.6</ele>
        <time>2023-09-15T14:54:27Z</time>
      </trkpt>
      <trkpt lat="47.86482" lon="-3.99051">
        <ele>12.8</ele>
        <time>2023-09-15T14:54:29Z</time>
      </trkpt>
      <trkpt lat="47.86487" lon="-3.99056">
        <ele>13</ele>
        <time>2023-09-15T14:54:30Z</time>
      </trkpt>
      <trkpt lat="47.86519" lon="-3.99093">
        <ele>13.4</ele>
        <time>2023-09-15T14:54:37Z</time>
      </trkpt>
      <trkpt lat="47.86529" lon="-3.99102">
        <ele>13.8</ele>
        <time>2023-09-15T14:54:39Z</time>
      </trkpt>
      <trkpt lat="47.86565" lon="-3.99135">
        <ele>14.2</ele>
        <time>2023-09-15T14:54:46Z</time>
      </trkpt>
      <trkpt lat="47.8658" lon="-3.9915">
        <ele>14.4</ele>
        <time>2023-09-15T14:54:49Z</time>
      </trkpt>
      <trkpt lat="47.86598" lon="-3.9917">
        <ele>14.8</ele>
        <time>2023-09-15T14:54:53Z</time>
      </trkpt>
      <trkpt lat="47.86642" lon="-3.99218">
        <ele>15.6</ele>
        <time>2023-09-15T14:55:03Z</time>
      </trkpt>
      <trkpt lat="47.86647" lon="-3.99222">
        <ele>15.8</ele>
        <time>2023-09-15T14:55:04Z</time>
      </trkpt>
      <trkpt lat="47.86671" lon="-3.99246">
        <ele>16.4</ele>
        <time>2023-09-15T14:55:10Z</time>
      </trkpt>
      <trkpt lat="47.86684" lon="-3.99258">
        <ele>16.8</ele>
        <time>2023-09-15T14:55:13Z</time>
      </trkpt>
      <trkpt lat="47.86688" lon="-3.99261">
        <ele>16.8</ele>
        <time>2023-09-15T14:55:14Z</time>
      </trkpt>
      <trkpt lat="47.86701" lon="-3.99272">
        <ele>17.2</ele>
        <time>2023-09-15T14:55:17Z</time>
      </trkpt>
      <trkpt lat="47.86722" lon="-3.9929">
        <ele>18</ele>
        <time>2023-09-15T14:55:22Z</time>
      </trkpt>
      <trkpt lat="47.86749" lon="-3.99313">
        <ele>19</ele>
        <time>2023-09-15T14:55:29Z</time>
      </trkpt>
      <trkpt lat="47.86753" lon="-3.99317">
        <ele>19.2</ele>
        <time>2023-09-15T14:55:30Z</time>
      </trkpt>
      <trkpt lat="47.8678" lon="-3.99338">
        <ele>20.4</ele>
        <time>2023-09-15T14:55:37Z</time>
      </trkpt>
      <trkpt lat="47.86798" lon="-3.99352">
        <ele>21</ele>
        <time>2023-09-15T14:55:42Z</time>
      </trkpt>
      <trkpt lat="47.86804" lon="-3.99358">
        <ele>21.4</ele>
        <time>2023-09-15T14:55:44Z</time>
      </trkpt>
      <trkpt lat="47.86825" lon="-3.99373">
        <ele>22.4</ele>
        <time>2023-09-15T14:55:51Z</time>
      </trkpt>
      <trkpt lat="47.86828" lon="-3.99375">
        <ele>22.4</ele>
        <time>2023-09-15T14:55:52Z</time>
      </trkpt>
      <trkpt lat="47.86843" lon="-3.99384">
        <ele>22.6</ele>
        <time>2023-09-15T14:55:56Z</time>
      </trkpt>
      <trkpt lat="47.8685" lon="-3.99388">
        <ele>22.8</ele>
        <time>2023-09-15T14:55:58Z</time>
      </trkpt>
      <trkpt lat="47.86875" lon="-3.99398">
        <ele>23.4</ele>
        <time>2023-09-15T14:56:05Z</time>
      </trkpt>
      <trkpt lat="47.86882" lon="-3.99401">
        <ele>23.8</ele>
        <time>2023-09-15T14:56:07Z</time>
      </trkpt>
      <trkpt lat="47.86886" lon="-3.99402">
        <ele>23.8</ele>
        <time>2023-09-15T14:56:08Z</time>
      </trkpt>
      <trkpt lat="47.86924" lon="-3.99414">
        <ele>24.6</ele>
        <time>2023-09-15T14:56:18Z</time>
      </trkpt>
      <trkpt lat="47.86931" lon="-3.99416">
        <ele>24.6</ele>
        <time>2023-09-15T14:56:20Z</time>
      </trkpt>
      <trkpt lat="47.86943" lon="-3.99418">
        <ele>24.6</ele>
        <time>2023-09-15T14:56:23Z</time>
      </trkpt>
      <trkpt lat="47.86967" lon="-3.99416">
        <ele>25</ele>
        <time>2023-09-15T14:56:29Z</time>
      </trkpt>
      <trkpt lat="47.86968" lon="-3.994">
        <ele>24.8</ele>
        <time>2023-09-15T14:56:32Z</time>
      </trkpt>
      <trkpt lat="47.86965" lon="-3.99363">
        <ele>24.4</ele>
        <time>2023-09-15T14:56:38Z</time>
      </trkpt>
      <trkpt lat="47.86964" lon="-3.9935">
        <ele>24.4</ele>
        <time>2023-09-15T14:56:40Z</time>
      </trkpt>
      <trkpt lat="47.86959" lon="-3.99313">
        <ele>23.8</ele>
        <time>2023-09-15T14:56:46Z</time>
      </trkpt>
      <trkpt lat="47.86957" lon="-3.99301">
        <ele>23.8</ele>
        <time>2023-09-15T14:56:48Z</time>
      </trkpt>
      <trkpt lat="47.86952" lon="-3.99264">
        <ele>24.4</ele>
        <time>2023-09-15T14:56:55Z</time>
      </trkpt>
      <trkpt lat="47.86956" lon="-3.99242">
        <ele>24.8</ele>
        <time>2023-09-15T14:57:00Z</time>
      </trkpt>
      <trkpt lat="47.86959" lon="-3.99241">
        <ele>24.8</ele>
        <time>2023-09-15T14:57:01Z</time>
      </trkpt>
      <trkpt lat="47.86968" lon="-3.99242">
        <ele>24.8</ele>
        <time>2023-09-15T14:57:04Z</time>
      </trkpt>
      <trkpt lat="47.86983" lon="-3.99246">
        <ele>25.2</ele>
        <time>2023-09-15T14:57:09Z</time>
      </trkpt>
      <trkpt lat="47.86997" lon="-3.9925">
        <ele>25.2</ele>
        <time>2023-09-15T14:57:13Z</time>
      </trkpt>
      <trkpt lat="47.87008" lon="-3.99255">
        <ele>25.6</ele>
        <time>2023-09-15T14:57:16Z</time>
      </trkpt>
      <trkpt lat="47.87021" lon="-3.99259">
        <ele>26</ele>
        <time>2023-09-15T14:57:20Z</time>
      </trkpt>
      <trkpt lat="47.87038" lon="-3.99268">
        <ele>26.4</ele>
        <time>2023-09-15T14:57:27Z</time>
      </trkpt>
      <trkpt lat="47.87041" lon="-3.9927">
        <ele>26.4</ele>
        <time>2023-09-15T14:57:28Z</time>
      </trkpt>
      <trkpt lat="47.87048" lon="-3.99272">
        <ele>26.6</ele>
        <time>2023-09-15T14:57:30Z</time>
      </trkpt>
      <trkpt lat="47.87065" lon="-3.99278">
        <ele>26.8</ele>
        <time>2023-09-15T14:57:35Z</time>
      </trkpt>
      <trkpt lat="47.87073" lon="-3.99281">
        <ele>26.8</ele>
        <time>2023-09-15T14:57:37Z</time>
      </trkpt>
      <trkpt lat="47.8711" lon="-3.99292">
        <ele>26.4</ele>
        <time>2023-09-15T14:57:46Z</time>
      </trkpt>
      <trkpt lat="47.87118" lon="-3.99293">
        <ele>26.2</ele>
        <time>2023-09-15T14:57:48Z</time>
      </trkpt>
      <trkpt lat="47.87122" lon="-3.99291">
        <ele>26.2</ele>
        <time>2023-09-15T14:57:49Z</time>
      </trkpt>
      <trkpt lat="47.87124" lon="-3.99287">
        <ele>26.2</ele>
        <time>2023-09-15T14:57:50Z</time>
      </trkpt>
      <trkpt lat="47.87125" lon="-3.99282">
        <ele>26.2</ele>
        <time>2023-09-15T14:57:51Z</time>
      </trkpt>
      <trkpt lat="47.87125" lon="-3.99272">
        <ele>26.2</ele>
        <time>2023-09-15T14:57:53Z</time>
      </trkpt>
      <trkpt lat="47.87126" lon="-3.99246">
        <ele>25.6</ele>
        <time>2023-09-15T14:57:58Z</time>
      </trkpt>
      <trkpt lat="47.87126" lon="-3.99241">
        <ele>25.6</ele>
        <time>2023-09-15T14:57:59Z</time>
      </trkpt>
      <trkpt lat="47.87126" lon="-3.99236">
        <ele>25.6</ele>
        <time>2023-09-15T14:58:00Z</time>
      </trkpt>
      <trkpt lat="47.87125" lon="-3.9923">
        <ele>25.6</ele>
        <time>2023-09-15T14:58:01Z</time>
      </trkpt>
      <trkpt lat="47.87125" lon="-3.99191">
        <ele>24.6</ele>
        <time>2023-09-15T14:58:07Z</time>
      </trkpt>
      <trkpt lat="47.87125" lon="-3.99185">
        <ele>24.4</ele>
        <time>2023-09-15T14:58:08Z</time>
      </trkpt>
      <trkpt lat="47.87123" lon="-3.99148">
        <ele>23.2</ele>
        <time>2023-09-15T14:58:13Z</time>
      </trkpt>
      <trkpt lat="47.87118" lon="-3.99097">
        <ele>22</ele>
        <time>2023-09-15T14:58:19Z</time>
      </trkpt>
      <trkpt lat="47.87118" lon="-3.99088">
        <ele>22</ele>
        <time>2023-09-15T14:58:20Z</time>
      </trkpt>
      <trkpt lat="47.87117" lon="-3.99054">
        <ele>21</ele>
        <time>2023-09-15T14:58:24Z</time>
      </trkpt>
      <trkpt lat="47.87117" lon="-3.99037">
        <ele>20.8</ele>
        <time>2023-09-15T14:58:26Z</time>
      </trkpt>
      <trkpt lat="47.87123" lon="-3.98982">
        <ele>20</ele>
        <time>2023-09-15T14:58:32Z</time>
      </trkpt>
      <trkpt lat="47.87124" lon="-3.98971">
        <ele>19.8</ele>
        <time>2023-09-15T14:58:33Z</time>
      </trkpt>
      <trkpt lat="47.87127" lon="-3.98949">
        <ele>18.2</ele>
        <time>2023-09-15T14:58:35Z</time>
      </trkpt>
      <trkpt lat="47.87132" lon="-3.98912">
        <ele>16.4</ele>
        <time>2023-09-15T14:58:38Z</time>
      </trkpt>
      <trkpt lat="47.87137" lon="-3.9888">
        <ele>15.2</ele>
        <time>2023-09-15T14:58:41Z</time>
      </trkpt>
      <trkpt lat="47.87138" lon="-3.98863">
        <ele>15.2</ele>
        <time>2023-09-15T14:58:43Z</time>
      </trkpt>
      <trkpt lat="47.87141" lon="-3.98841">
        <ele>16.2</ele>
        <time>2023-09-15T14:58:47Z</time>
      </trkpt>
      <trkpt lat="47.87143" lon="-3.9884">
        <ele>16.2</ele>
        <time>2023-09-15T14:58:48Z</time>
      </trkpt>
      <trkpt lat="47.87144" lon="-3.9884">
        <ele>16.4</ele>
        <time>2023-09-15T14:58:49Z</time>
      </trkpt>
      <trkpt lat="47.87147" lon="-3.98842">
        <ele>16.6</ele>
        <time>2023-09-15T14:58:51Z</time>
      </trkpt>
      <trkpt lat="47.87155" lon="-3.98858">
        <ele>16.2</ele>
        <time>2023-09-15T14:58:56Z</time>
      </trkpt>
      <trkpt lat="47.87162" lon="-3.98876">
        <ele>15</ele>
        <time>2023-09-15T14:58:59Z</time>
      </trkpt>
      <trkpt lat="47.87165" lon="-3.98883">
        <ele>14.4</ele>
        <time>2023-09-15T14:59:00Z</time>
      </trkpt>
      <trkpt lat="47.87168" lon="-3.98892">
        <ele>13.8</ele>
        <time>2023-09-15T14:59:01Z</time>
      </trkpt>
      <trkpt lat="47.87171" lon="-3.989">
        <ele>13.4</ele>
        <time>2023-09-15T14:59:02Z</time>
      </trkpt>
      <trkpt lat="47.87179" lon="-3.98912">
        <ele>12.2</ele>
        <time>2023-09-15T14:59:04Z</time>
      </trkpt>
      <trkpt lat="47.87185" lon="-3.98914">
        <ele>11.8</ele>
        <time>2023-09-15T14:59:05Z</time>
      </trkpt>
      <trkpt lat="47.8719" lon="-3.98914">
        <ele>11.4</ele>
        <time>2023-09-15T14:59:06Z</time>
      </trkpt>
      <trkpt lat="47.87199" lon="-3.9891">
        <ele>11.4</ele>
        <time>2023-09-15T14:59:08Z</time>
      </trkpt>
      <trkpt lat="47.87212" lon="-3.98905">
        <ele>11.8</ele>
        <time>2023-09-15T14:59:12Z</time>
      </trkpt>
      <trkpt lat="47.87223" lon="-3.98906">
        <ele>13.2</ele>
        <time>2023-09-15T14:59:17Z</time>
      </trkpt>
      <trkpt lat="47.87225" lon="-3.98906">
        <ele>13.4</ele>
        <time>2023-09-15T14:59:18Z</time>
      </trkpt>
      <trkpt lat="47.87235" lon="-3.9891">
        <ele>14.4</ele>
        <time>2023-09-15T14:59:23Z</time>
      </trkpt>
      <trkpt lat="47.8724" lon="-3.98912">
        <ele>14.4</ele>
        <time>2023-09-15T14:59:25Z</time>
      </trkpt>
      <trkpt lat="47.87253" lon="-3.9892">
        <ele>15.4</ele>
        <time>2023-09-15T14:59:31Z</time>
      </trkpt>
      <trkpt lat="47.8726" lon="-3.98924">
        <ele>15.6</ele>
        <time>2023-09-15T14:59:34Z</time>
      </trkpt>
      <trkpt lat="47.87286" lon="-3.98935">
        <ele>16</ele>
        <time>2023-09-15T14:59:42Z</time>
      </trkpt>
      <trkpt lat="47.87308" lon="-3.98944">
        <ele>16.2</ele>
        <time>2023-09-15T14:59:48Z</time>
      </trkpt>
      <trkpt lat="47.87321" lon="-3.98949">
        <ele>16.4</ele>
        <time>2023-09-15T14:59:52Z</time>
      </trkpt>
      <trkpt lat="47.8733" lon="-3.98951">
        <ele>16.8</ele>
        <time>2023-09-15T14:59:55Z</time>
      </trkpt>
      <trkpt lat="47.87343" lon="-3.98955">
        <ele>17.6</ele>
        <time>2023-09-15T15:00:00Z</time>
      </trkpt>
      <trkpt lat="47.87348" lon="-3.98956">
        <ele>18</ele>
        <time>2023-09-15T15:00:02Z</time>
      </trkpt>
      <trkpt lat="47.87359" lon="-3.98957">
        <ele>18.4</ele>
        <time>2023-09-15T15:00:06Z</time>
      </trkpt>
      <trkpt lat="47.87364" lon="-3.98955">
        <ele>18.8</ele>
        <time>2023-09-15T15:00:08Z</time>
      </trkpt>
      <trkpt lat="47.87367" lon="-3.98954">
        <ele>19</ele>
        <time>2023-09-15T15:00:09Z</time>
      </trkpt>
      <trkpt lat="47.87371" lon="-3.98951">
        <ele>19.2</ele>
        <time>2023-09-15T15:00:11Z</time>
      </trkpt>
      <trkpt lat="47.87374" lon="-3.9895">
        <ele>19.2</ele>
        <time>2023-09-15T15:00:12Z</time>
      </trkpt>
      <trkpt lat="47.87376" lon="-3.98949">
        <ele>19.4</ele>
        <time>2023-09-15T15:00:13Z</time>
      </trkpt>
      <trkpt lat="47.87384" lon="-3.98948">
        <ele>19.8</ele>
        <time>2023-09-15T15:00:18Z</time>
      </trkpt>
      <trkpt lat="47.87385" lon="-3.98947">
        <ele>19.8</ele>
        <time>2023-09-15T15:00:19Z</time>
      </trkpt>
      <trkpt lat="47.87394" lon="-3.98945">
        <ele>20</ele>
        <time>2023-09-15T15:00:25Z</time>
      </trkpt>
      <trkpt lat="47.87406" lon="-3.98943">
        <ele>20</ele>
        <time>2023-09-15T15:00:30Z</time>
      </trkpt>
      <trkpt lat="47.87414" lon="-3.98942">
        <ele>19.8</ele>
        <time>2023-09-15T15:00:33Z</time>
      </trkpt>
      <trkpt lat="47.87426" lon="-3.98945">
        <ele>19.8</ele>
        <time>2023-09-15T15:00:38Z</time>
      </trkpt>
      <trkpt lat="47.87442" lon="-3.98961">
        <ele>20.6</ele>
        <time>2023-09-15T15:00:45Z</time>
      </trkpt>
      <trkpt lat="47.87445" lon="-3.98963">
        <ele>20.8</ele>
        <time>2023-09-15T15:00:46Z</time>
      </trkpt>
      <trkpt lat="47.87457" lon="-3.98972">
        <ele>21.2</ele>
        <time>2023-09-15T15:00:51Z</time>
      </trkpt>
      <trkpt lat="47.87467" lon="-3.98975">
        <ele>22</ele>
        <time>2023-09-15T15:00:55Z</time>
      </trkpt>
      <trkpt lat="47.87475" lon="-3.98979">
        <ele>22.8</ele>
        <time>2023-09-15T15:00:59Z</time>
      </trkpt>
      <trkpt lat="47.87479" lon="-3.98982">
        <ele>23.2</ele>
        <time>2023-09-15T15:01:01Z</time>
      </trkpt>
      <trkpt lat="47.87486" lon="-3.98989">
        <ele>24</ele>
        <time>2023-09-15T15:01:06Z</time>
      </trkpt>
      <trkpt lat="47.87489" lon="-3.98994">
        <ele>24.2</ele>
        <time>2023-09-15T15:01:08Z</time>
      </trkpt>
      <trkpt lat="47.87494" lon="-3.99003">
        <ele>25</ele>
        <time>2023-09-15T15:01:14Z</time>
      </trkpt>
      <trkpt lat="47.87497" lon="-3.99012">
        <ele>25.4</ele>
        <time>2023-09-15T15:01:19Z</time>
      </trkpt>
      <trkpt lat="47.87497" lon="-3.99015">
        <ele>25.6</ele>
        <time>2023-09-15T15:01:21Z</time>
      </trkpt>
      <trkpt lat="47.87499" lon="-3.99016">
        <ele>25.6</ele>
        <time>2023-09-15T15:01:23Z</time>
      </trkpt>
      <trkpt lat="47.87506" lon="-3.99011">
        <ele>25.8</ele>
        <time>2023-09-15T15:01:27Z</time>
      </trkpt>
      <trkpt lat="47.8751" lon="-3.99003">
        <ele>25.8</ele>
        <time>2023-09-15T15:01:30Z</time>
      </trkpt>
      <trkpt lat="47.87517" lon="-3.9899">
        <ele>26</ele>
        <time>2023-09-15T15:01:35Z</time>
      </trkpt>
      <trkpt lat="47.87527" lon="-3.98979">
        <ele>26.4</ele>
        <time>2023-09-15T15:01:42Z</time>
      </trkpt>
      <trkpt lat="47.8754" lon="-3.98975">
        <ele>27.2</ele>
        <time>2023-09-15T15:01:50Z</time>
      </trkpt>
      <trkpt lat="47.87543" lon="-3.98974">
        <ele>27.4</ele>
        <time>2023-09-15T15:01:53Z</time>
      </trkpt>
      <trkpt lat="47.87549" lon="-3.98972">
        <ele>28</ele>
        <time>2023-09-15T15:01:57Z</time>
      </trkpt>
      <trkpt lat="47.87551" lon="-3.98971">
        <ele>28</ele>
        <time>2023-09-15T15:01:58Z</time>
      </trkpt>
      <trkpt lat="47.87557" lon="-3.98969">
        <ele>28.6</ele>
        <time>2023-09-15T15:02:03Z</time>
      </trkpt>
      <trkpt lat="47.87563" lon="-3.98968">
        <ele>29</ele>
        <time>2023-09-15T15:02:07Z</time>
      </trkpt>
      <trkpt lat="47.87569" lon="-3.98966">
        <ele>29.4</ele>
        <time>2023-09-15T15:02:12Z</time>
      </trkpt>
      <trkpt lat="47.87572" lon="-3.98965">
        <ele>29.4</ele>
        <time>2023-09-15T15:02:14Z</time>
      </trkpt>
      <trkpt lat="47.87574" lon="-3.98965">
        <ele>29.4</ele>
        <time>2023-09-15T15:02:16Z</time>
      </trkpt>
      <trkpt lat="47.87575" lon="-3.98966">
        <ele>29.6</ele>
        <time>2023-09-15T15:02:17Z</time>
      </trkpt>
      <trkpt lat="47.87577" lon="-3.98964">
        <ele>29.8</ele>
        <time>2023-09-15T15:02:20Z</time>
      </trkpt>
      <trkpt lat="47.87592" lon="-3.98963">
        <ele>30.4</ele>
        <time>2023-09-15T15:02:29Z</time>
      </trkpt>
      <trkpt lat="47.87598" lon="-3.98963">
        <ele>30.6</ele>
        <time>2023-09-15T15:02:32Z</time>
      </trkpt>
      <trkpt lat="47.87606" lon="-3.98964">
        <ele>31</ele>
        <time>2023-09-15T15:02:36Z</time>
      </trkpt>
      <trkpt lat="47.87624" lon="-3.9896">
        <ele>31.6</ele>
        <time>2023-09-15T15:02:45Z</time>
      </trkpt>
      <trkpt lat="47.87625" lon="-3.9896">
        <ele>31.8</ele>
        <time>2023-09-15T15:02:46Z</time>
      </trkpt>
      <trkpt lat="47.8764" lon="-3.9896">
        <ele>32.2</ele>
        <time>2023-09-15T15:02:53Z</time>
      </trkpt>
      <trkpt lat="47.87644" lon="-3.9896">
        <ele>32.2</ele>
        <time>2023-09-15T15:02:55Z</time>
      </trkpt>
      <trkpt lat="47.87658" lon="-3.9896">
        <ele>32.6</ele>
        <time>2023-09-15T15:03:02Z</time>
      </trkpt>
      <trkpt lat="47.87671" lon="-3.98961">
        <ele>32.8</ele>
        <time>2023-09-15T15:03:08Z</time>
      </trkpt>
      <trkpt lat="47.87675" lon="-3.98961">
        <ele>32.8</ele>
        <time>2023-09-15T15:03:10Z</time>
      </trkpt>
      <trkpt lat="47.87696" lon="-3.98962">
        <ele>33</ele>
        <time>2023-09-15T15:03:17Z</time>
      </trkpt>
      <trkpt lat="47.8772" lon="-3.98963">
        <ele>33.4</ele>
        <time>2023-09-15T15:03:26Z</time>
      </trkpt>
      <trkpt lat="47.87723" lon="-3.98963">
        <ele>33.4</ele>
        <time>2023-09-15T15:03:27Z</time>
      </trkpt>
      <trkpt lat="47.87742" lon="-3.98968">
        <ele>33.8</ele>
        <time>2023-09-15T15:03:34Z</time>
      </trkpt>
      <trkpt lat="47.87764" lon="-3.98972">
        <ele>34</ele>
        <time>2023-09-15T15:03:42Z</time>
      </trkpt>
      <trkpt lat="47.87787" lon="-3.98983">
        <ele>34</ele>
        <time>2023-09-15T15:03:50Z</time>
      </trkpt>
      <trkpt lat="47.87808" lon="-3.98996">
        <ele>33.8</ele>
        <time>2023-09-15T15:03:56Z</time>
      </trkpt>
      <trkpt lat="47.87814" lon="-3.99">
        <ele>33.8</ele>
        <time>2023-09-15T15:03:58Z</time>
      </trkpt>
      <trkpt lat="47.8784" lon="-3.99023">
        <ele>33.6</ele>
        <time>2023-09-15T15:04:07Z</time>
      </trkpt>
      <trkpt lat="47.87854" lon="-3.99046">
        <ele>33.4</ele>
        <time>2023-09-15T15:04:12Z</time>
      </trkpt>
      <trkpt lat="47.87856" lon="-3.99052">
        <ele>33.2</ele>
        <time>2023-09-15T15:04:13Z</time>
      </trkpt>
      <trkpt lat="47.8786" lon="-3.99062">
        <ele>32.6</ele>
        <time>2023-09-15T15:04:15Z</time>
      </trkpt>
      <trkpt lat="47.87865" lon="-3.99081">
        <ele>32.2</ele>
        <time>2023-09-15T15:04:18Z</time>
      </trkpt>
      <trkpt lat="47.87871" lon="-3.99092">
        <ele>31.8</ele>
        <time>2023-09-15T15:04:20Z</time>
      </trkpt>
      <trkpt lat="47.87878" lon="-3.991">
        <ele>31.6</ele>
        <time>2023-09-15T15:04:22Z</time>
      </trkpt>
      <trkpt lat="47.87882" lon="-3.99104">
        <ele>31.4</ele>
        <time>2023-09-15T15:04:23Z</time>
      </trkpt>
      <trkpt lat="47.87887" lon="-3.99107">
        <ele>31.2</ele>
        <time>2023-09-15T15:04:24Z</time>
      </trkpt>
      <trkpt lat="47.87891" lon="-3.99109">
        <ele>31</ele>
        <time>2023-09-15T15:04:25Z</time>
      </trkpt>
      <trkpt lat="47.87906" lon="-3.99111">
        <ele>30.2</ele>
        <time>2023-09-15T15:04:28Z</time>
      </trkpt>
      <trkpt lat="47.87922" lon="-3.99116">
        <ele>29.8</ele>
        <time>2023-09-15T15:04:31Z</time>
      </trkpt>
      <trkpt lat="47.87933" lon="-3.99121">
        <ele>29.2</ele>
        <time>2023-09-15T15:04:33Z</time>
      </trkpt>
      <trkpt lat="47.87939" lon="-3.99124">
        <ele>28.2</ele>
        <time>2023-09-15T15:04:34Z</time>
      </trkpt>
      <trkpt lat="47.87951" lon="-3.99131">
        <ele>26.6</ele>
        <time>2023-09-15T15:04:36Z</time>
      </trkpt>
      <trkpt lat="47.87956" lon="-3.99136">
        <ele>26.4</ele>
        <time>2023-09-15T15:04:37Z</time>
      </trkpt>
      <trkpt lat="47.87961" lon="-3.99142">
        <ele>26.2</ele>
        <time>2023-09-15T15:04:38Z</time>
      </trkpt>
      <trkpt lat="47.87974" lon="-3.99163">
        <ele>26.2</ele>
        <time>2023-09-15T15:04:41Z</time>
      </trkpt>
      <trkpt lat="47.8798" lon="-3.99177">
        <ele>26.2</ele>
        <time>2023-09-15T15:04:43Z</time>
      </trkpt>
      <trkpt lat="47.87999" lon="-3.99208">
        <ele>26.6</ele>
        <time>2023-09-15T15:04:49Z</time>
      </trkpt>
      <trkpt lat="47.88016" lon="-3.99241">
        <ele>27.2</ele>
        <time>2023-09-15T15:04:56Z</time>
      </trkpt>
      <trkpt lat="47.88018" lon="-3.99247">
        <ele>27.4</ele>
        <time>2023-09-15T15:04:57Z</time>
      </trkpt>
      <trkpt lat="47.88024" lon="-3.99267">
        <ele>27.4</ele>
        <time>2023-09-15T15:05:01Z</time>
      </trkpt>
      <trkpt lat="47.88026" lon="-3.99272">
        <ele>27.4</ele>
        <time>2023-09-15T15:05:02Z</time>
      </trkpt>
      <trkpt lat="47.88039" lon="-3.99296">
        <ele>27.6</ele>
        <time>2023-09-15T15:05:08Z</time>
      </trkpt>
      <trkpt lat="47.8805" lon="-3.99309">
        <ele>27.4</ele>
        <time>2023-09-15T15:05:11Z</time>
      </trkpt>
      <trkpt lat="47.88065" lon="-3.99328">
        <ele>26.6</ele>
        <time>2023-09-15T15:05:15Z</time>
      </trkpt>
      <trkpt lat="47.88079" lon="-3.99347">
        <ele>25.4</ele>
        <time>2023-09-15T15:05:18Z</time>
      </trkpt>
      <trkpt lat="47.88088" lon="-3.99359">
        <ele>24.2</ele>
        <time>2023-09-15T15:05:20Z</time>
      </trkpt>
      <trkpt lat="47.88098" lon="-3.99371">
        <ele>23.4</ele>
        <time>2023-09-15T15:05:24Z</time>
      </trkpt>
      <trkpt lat="47.88109" lon="-3.99355">
        <ele>23.4</ele>
        <time>2023-09-15T15:05:29Z</time>
      </trkpt>
      <trkpt lat="47.88112" lon="-3.9935">
        <ele>23</ele>
        <time>2023-09-15T15:05:30Z</time>
      </trkpt>
      <trkpt lat="47.88127" lon="-3.99318">
        <ele>22</ele>
        <time>2023-09-15T15:05:35Z</time>
      </trkpt>
      <trkpt lat="47.88136" lon="-3.99294">
        <ele>20.8</ele>
        <time>2023-09-15T15:05:38Z</time>
      </trkpt>
      <trkpt lat="47.88145" lon="-3.99267">
        <ele>19.8</ele>
        <time>2023-09-15T15:05:41Z</time>
      </trkpt>
      <trkpt lat="47.88148" lon="-3.99258">
        <ele>19.4</ele>
        <time>2023-09-15T15:05:42Z</time>
      </trkpt>
      <trkpt lat="47.88154" lon="-3.9924">
        <ele>18.8</ele>
        <time>2023-09-15T15:05:44Z</time>
      </trkpt>
      <trkpt lat="47.88157" lon="-3.99232">
        <ele>18.4</ele>
        <time>2023-09-15T15:05:45Z</time>
      </trkpt>
      <trkpt lat="47.8816" lon="-3.99223">
        <ele>18.2</ele>
        <time>2023-09-15T15:05:46Z</time>
      </trkpt>
      <trkpt lat="47.88168" lon="-3.99199">
        <ele>18</ele>
        <time>2023-09-15T15:05:49Z</time>
      </trkpt>
      <trkpt lat="47.8819" lon="-3.99147">
        <ele>17.8</ele>
        <time>2023-09-15T15:05:56Z</time>
      </trkpt>
      <trkpt lat="47.88205" lon="-3.99114">
        <ele>18.4</ele>
        <time>2023-09-15T15:06:02Z</time>
      </trkpt>
      <trkpt lat="47.88216" lon="-3.99091">
        <ele>19</ele>
        <time>2023-09-15T15:06:07Z</time>
      </trkpt>
      <trkpt lat="47.88223" lon="-3.99078">
        <ele>19.2</ele>
        <time>2023-09-15T15:06:10Z</time>
      </trkpt>
      <trkpt lat="47.88225" lon="-3.99073">
        <ele>19.4</ele>
        <time>2023-09-15T15:06:11Z</time>
      </trkpt>
      <trkpt lat="47.88246" lon="-3.99039">
        <ele>18.8</ele>
        <time>2023-09-15T15:06:18Z</time>
      </trkpt>
      <trkpt lat="47.88251" lon="-3.99034">
        <ele>18.4</ele>
        <time>2023-09-15T15:06:19Z</time>
      </trkpt>
      <trkpt lat="47.88257" lon="-3.99029">
        <ele>18</ele>
        <time>2023-09-15T15:06:20Z</time>
      </trkpt>
      <trkpt lat="47.88263" lon="-3.99026">
        <ele>17.6</ele>
        <time>2023-09-15T15:06:21Z</time>
      </trkpt>
      <trkpt lat="47.88271" lon="-3.99023">
        <ele>16.4</ele>
        <time>2023-09-15T15:06:22Z</time>
      </trkpt>
      <trkpt lat="47.88286" lon="-3.99019">
        <ele>15</ele>
        <time>2023-09-15T15:06:24Z</time>
      </trkpt>
      <trkpt lat="47.88301" lon="-3.99016">
        <ele>14</ele>
        <time>2023-09-15T15:06:26Z</time>
      </trkpt>
      <trkpt lat="47.88316" lon="-3.99014">
        <ele>12.6</ele>
        <time>2023-09-15T15:06:28Z</time>
      </trkpt>
      <trkpt lat="47.88338" lon="-3.99009">
        <ele>11</ele>
        <time>2023-09-15T15:06:31Z</time>
      </trkpt>
      <trkpt lat="47.88354" lon="-3.99001">
        <ele>9.2</ele>
        <time>2023-09-15T15:06:33Z</time>
      </trkpt>
      <trkpt lat="47.88378" lon="-3.98983">
        <ele>8</ele>
        <time>2023-09-15T15:06:36Z</time>
      </trkpt>
      <trkpt lat="47.88386" lon="-3.98976">
        <ele>7.6</ele>
        <time>2023-09-15T15:06:37Z</time>
      </trkpt>
      <trkpt lat="47.88393" lon="-3.98968">
        <ele>6.8</ele>
        <time>2023-09-15T15:06:38Z</time>
      </trkpt>
      <trkpt lat="47.88408" lon="-3.98952">
        <ele>5.4</ele>
        <time>2023-09-15T15:06:40Z</time>
      </trkpt>
      <trkpt lat="47.88427" lon="-3.98927">
        <ele>5.4</ele>
        <time>2023-09-15T15:06:43Z</time>
      </trkpt>
      <trkpt lat="47.88462" lon="-3.98883">
        <ele>5.2</ele>
        <time>2023-09-15T15:06:49Z</time>
      </trkpt>
      <trkpt lat="47.88495" lon="-3.98839">
        <ele>5.6</ele>
        <time>2023-09-15T15:06:56Z</time>
      </trkpt>
      <trkpt lat="47.88529" lon="-3.98796">
        <ele>5.4</ele>
        <time>2023-09-15T15:07:04Z</time>
      </trkpt>
      <trkpt lat="47.88554" lon="-3.98767">
        <ele>5.6</ele>
        <time>2023-09-15T15:07:10Z</time>
      </trkpt>
      <trkpt lat="47.88558" lon="-3.98763">
        <ele>5.4</ele>
        <time>2023-09-15T15:07:11Z</time>
      </trkpt>
      <trkpt lat="47.88563" lon="-3.98761">
        <ele>5.6</ele>
        <time>2023-09-15T15:07:12Z</time>
      </trkpt>
      <trkpt lat="47.88572" lon="-3.98754">
        <ele>5.6</ele>
        <time>2023-09-15T15:07:14Z</time>
      </trkpt>
      <trkpt lat="47.88579" lon="-3.98742">
        <ele>5.2</ele>
        <time>2023-09-15T15:07:16Z</time>
      </trkpt>
      <trkpt lat="47.88585" lon="-3.98731">
        <ele>5.2</ele>
        <time>2023-09-15T15:07:18Z</time>
      </trkpt>
      <trkpt lat="47.88597" lon="-3.98709">
        <ele>5.2</ele>
        <time>2023-09-15T15:07:22Z</time>
      </trkpt>
      <trkpt lat="47.88617" lon="-3.98678">
        <ele>5.4</ele>
        <time>2023-09-15T15:07:29Z</time>
      </trkpt>
      <trkpt lat="47.88627" lon="-3.98662">
        <ele>6</ele>
        <time>2023-09-15T15:07:33Z</time>
      </trkpt>
      <trkpt lat="47.8863" lon="-3.98658">
        <ele>5.8</ele>
        <time>2023-09-15T15:07:34Z</time>
      </trkpt>
      <trkpt lat="47.88642" lon="-3.98638">
        <ele>5.4</ele>
        <time>2023-09-15T15:07:39Z</time>
      </trkpt>
      <trkpt lat="47.88671" lon="-3.98596">
        <ele>5.4</ele>
        <time>2023-09-15T15:07:50Z</time>
      </trkpt>
      <trkpt lat="47.88693" lon="-3.98562">
        <ele>5.4</ele>
        <time>2023-09-15T15:07:59Z</time>
      </trkpt>
      <trkpt lat="47.88697" lon="-3.98553">
        <ele>5.4</ele>
        <time>2023-09-15T15:08:01Z</time>
      </trkpt>
      <trkpt lat="47.88705" lon="-3.98535">
        <ele>5.6</ele>
        <time>2023-09-15T15:08:05Z</time>
      </trkpt>
      <trkpt lat="47.8871" lon="-3.98523">
        <ele>5.8</ele>
        <time>2023-09-15T15:08:08Z</time>
      </trkpt>
      <trkpt lat="47.88721" lon="-3.98488">
        <ele>5.8</ele>
        <time>2023-09-15T15:08:15Z</time>
      </trkpt>
      <trkpt lat="47.88725" lon="-3.98473">
        <ele>6</ele>
        <time>2023-09-15T15:08:18Z</time>
      </trkpt>
      <trkpt lat="47.88734" lon="-3.98436">
        <ele>6.2</ele>
        <time>2023-09-15T15:08:25Z</time>
      </trkpt>
      <trkpt lat="47.88739" lon="-3.98421">
        <ele>6.2</ele>
        <time>2023-09-15T15:08:28Z</time>
      </trkpt>
      <trkpt lat="47.88749" lon="-3.98393">
        <ele>6.2</ele>
        <time>2023-09-15T15:08:34Z</time>
      </trkpt>
      <trkpt lat="47.88751" lon="-3.98383">
        <ele>6.4</ele>
        <time>2023-09-15T15:08:36Z</time>
      </trkpt>
      <trkpt lat="47.88752" lon="-3.98369">
        <ele>6.4</ele>
        <time>2023-09-15T15:08:39Z</time>
      </trkpt>
      <trkpt lat="47.88753" lon="-3.98365">
        <ele>6.6</ele>
        <time>2023-09-15T15:08:40Z</time>
      </trkpt>
      <trkpt lat="47.88758" lon="-3.98354">
        <ele>6.6</ele>
        <time>2023-09-15T15:08:44Z</time>
      </trkpt>
      <trkpt lat="47.88766" lon="-3.98342">
        <ele>6.4</ele>
        <time>2023-09-15T15:08:51Z</time>
      </trkpt>
      <trkpt lat="47.88774" lon="-3.98328">
        <ele>6.6</ele>
        <time>2023-09-15T15:08:58Z</time>
      </trkpt>
      <trkpt lat="47.88783" lon="-3.9831">
        <ele>6.8</ele>
        <time>2023-09-15T15:09:05Z</time>
      </trkpt>
      <trkpt lat="47.88789" lon="-3.98296">
        <ele>6.6</ele>
        <time>2023-09-15T15:09:10Z</time>
      </trkpt>
      <trkpt lat="47.88795" lon="-3.98284">
        <ele>6.6</ele>
        <time>2023-09-15T15:09:14Z</time>
      </trkpt>
      <trkpt lat="47.888" lon="-3.98278">
        <ele>6.6</ele>
        <time>2023-09-15T15:09:16Z</time>
      </trkpt>
      <trkpt lat="47.8881" lon="-3.9826">
        <ele>6.6</ele>
        <time>2023-09-15T15:09:21Z</time>
      </trkpt>
      <trkpt lat="47.88814" lon="-3.98252">
        <ele>6.6</ele>
        <time>2023-09-15T15:09:23Z</time>
      </trkpt>
      <trkpt lat="47.88824" lon="-3.98232">
        <ele>6.6</ele>
        <time>2023-09-15T15:09:29Z</time>
      </trkpt>
      <trkpt lat="47.88838" lon="-3.982">
        <ele>6.6</ele>
        <time>2023-09-15T15:09:38Z</time>
      </trkpt>
      <trkpt lat="47.8885" lon="-3.98184">
        <ele>6.4</ele>
        <time>2023-09-15T15:09:45Z</time>
      </trkpt>
      <trkpt lat="47.88855" lon="-3.98178">
        <ele>6.4</ele>
        <time>2023-09-15T15:09:51Z</time>
      </trkpt>
      <trkpt lat="47.88855" lon="-3.98183">
        <ele>6.6</ele>
        <time>2023-09-15T15:09:59Z</time>
      </trkpt>
      <trkpt lat="47.88856" lon="-3.98183">
        <ele>6.6</ele>
        <time>2023-09-15T15:10:01Z</time>
      </trkpt>
      <trkpt lat="47.88863" lon="-3.98183">
        <ele>6.6</ele>
        <time>2023-09-15T15:10:05Z</time>
      </trkpt>
      <trkpt lat="47.88878" lon="-3.98192">
        <ele>6.2</ele>
        <time>2023-09-15T15:10:11Z</time>
      </trkpt>
      <trkpt lat="47.88887" lon="-3.98199">
        <ele>5.6</ele>
        <time>2023-09-15T15:10:15Z</time>
      </trkpt>
      <trkpt lat="47.88891" lon="-3.982">
        <ele>5.2</ele>
        <time>2023-09-15T15:10:16Z</time>
      </trkpt>
      <trkpt lat="47.88894" lon="-3.98199">
        <ele>5.2</ele>
        <time>2023-09-15T15:10:17Z</time>
      </trkpt>
      <trkpt lat="47.88898" lon="-3.98195">
        <ele>5.2</ele>
        <time>2023-09-15T15:10:19Z</time>
      </trkpt>
      <trkpt lat="47.88899" lon="-3.9819">
        <ele>5</ele>
        <time>2023-09-15T15:10:21Z</time>
      </trkpt>
      <trkpt lat="47.889" lon="-3.98189">
        <ele>5</ele>
        <time>2023-09-15T15:10:23Z</time>
      </trkpt>
      <trkpt lat="47.889" lon="-3.98189">
        <ele>5</ele>
        <time>2023-09-15T15:10:24Z</time>
      </trkpt>
      <trkpt lat="47.88899" lon="-3.9819">
        <ele>5</ele>
        <time>2023-09-15T15:10:25Z</time>
      </trkpt>
      <trkpt lat="47.88901" lon="-3.98189">
        <ele>5</ele>
        <time>2023-09-15T15:10:28Z</time>
      </trkpt>
      <trkpt lat="47.88902" lon="-3.98187">
        <ele>5</ele>
        <time>2023-09-15T15:10:30Z</time>
      </trkpt>
      <trkpt lat="47.88903" lon="-3.98188">
        <ele>5</ele>
        <time>2023-09-15T15:10:33Z</time>
      </trkpt>
      <trkpt lat="47.88903" lon="-3.98188">
        <ele>5</ele>
        <time>2023-09-15T15:10:36Z</time>
      </trkpt>
      <trkpt lat="47.88902" lon="-3.98188">
        <ele>4.8</ele>
        <time>2023-09-15T15:10:44Z</time>
      </trkpt>
      <trkpt lat="47.88901" lon="-3.98187">
        <ele>4.6</ele>
        <time>2023-09-15T15:10:53Z</time>
      </trkpt>
      <trkpt lat="47.88901" lon="-3.98189">
        <ele>5</ele>
        <time>2023-09-15T15:11:01Z</time>
      </trkpt>
      <trkpt lat="47.88901" lon="-3.98189">
        <ele>5</ele>
        <time>2023-09-15T15:11:08Z</time>
      </trkpt>
      <trkpt lat="47.88903" lon="-3.98189">
        <ele>5</ele>
        <time>2023-09-15T15:11:12Z</time>
      </trkpt>
      <trkpt lat="47.88901" lon="-3.98188">
        <ele>4.8</ele>
        <time>2023-09-15T15:11:21Z</time>
      </trkpt>
      <trkpt lat="47.88902" lon="-3.98188">
        <ele>4.8</ele>
        <time>2023-09-15T15:11:22Z</time>
      </trkpt>
      <trkpt lat="47.889" lon="-3.98187">
        <ele>4.8</ele>
        <time>2023-09-15T15:11:29Z</time>
      </trkpt>
      <trkpt lat="47.889" lon="-3.98189">
        <ele>4.8</ele>
        <time>2023-09-15T15:11:36Z</time>
      </trkpt>
      <trkpt lat="47.88902" lon="-3.9819">
        <ele>4.8</ele>
        <time>2023-09-15T15:11:44Z</time>
      </trkpt>
      <trkpt lat="47.88903" lon="-3.98192">
        <ele>4.8</ele>
        <time>2023-09-15T15:11:54Z</time>
      </trkpt>
      <trkpt lat="47.88902" lon="-3.98191">
        <ele>4.8</ele>
        <time>2023-09-15T15:11:59Z</time>
      </trkpt>
      <trkpt lat="47.88902" lon="-3.98191">
        <ele>4.8</ele>
        <time>2023-09-15T15:12:01Z</time>
      </trkpt>
      <trkpt lat="47.88903" lon="-3.9819">
        <ele>4.8</ele>
        <time>2023-09-15T15:12:04Z</time>
      </trkpt>
      <trkpt lat="47.88905" lon="-3.98189">
        <ele>4.8</ele>
        <time>2023-09-15T15:12:10Z</time>
      </trkpt>
      <trkpt lat="47.88906" lon="-3.98189">
        <ele>4.8</ele>
        <time>2023-09-15T15:12:15Z</time>
      </trkpt>
      <trkpt lat="47.88906" lon="-3.98189">
        <ele>4.8</ele>
        <time>2023-09-15T15:12:29Z</time>
      </trkpt>
      <trkpt lat="47.88903" lon="-3.98188">
        <ele>4.8</ele>
        <time>2023-09-15T15:12:39Z</time>
      </trkpt>
      <trkpt lat="47.88903" lon="-3.98189">
        <ele>4.8</ele>
        <time>2023-09-15T15:12:42Z</time>
      </trkpt>
      <trkpt lat="47.88902" lon="-3.98189">
        <ele>4.8</ele>
        <time>2023-09-15T15:12:48Z</time>
      </trkpt>
      <trkpt lat="47.88902" lon="-3.98188">
        <ele>4.8</ele>
        <time>2023-09-15T15:12:57Z</time>
      </trkpt>
      <trkpt lat="47.88903" lon="-3.98188">
        <ele>4.8</ele>
        <time>2023-09-15T15:13:07Z</time>
      </trkpt>
      <trkpt lat="47.88902" lon="-3.98189">
        <ele>4.8</ele>
        <time>2023-09-15T15:13:22Z</time>
      </trkpt>
      <trkpt lat="47.88902" lon="-3.98189">
        <ele>4.8</ele>
        <time>2023-09-15T15:13:29Z</time>
      </trkpt>
      <trkpt lat="47.88903" lon="-3.98189">
        <ele>4.8</ele>
        <time>2023-09-15T15:13:32Z</time>
      </trkpt>
      <trkpt lat="47.88903" lon="-3.98189">
        <ele>4.8</ele>
        <time>2023-09-15T15:13:35Z</time>
      </trkpt>
      <trkpt lat="47.88903" lon="-3.98191">
        <ele>4.8</ele>
        <time>2023-09-15T15:13:40Z</time>
      </trkpt>
      <trkpt lat="47.88903" lon="-3.98191">
        <ele>4.8</ele>
        <time>2023-09-15T15:13:41Z</time>
      </trkpt>
      <trkpt lat="47.88904" lon="-3.9819">
        <ele>4.8</ele>
        <time>2023-09-15T15:13:47Z</time>
      </trkpt>
      <trkpt lat="47.88904" lon="-3.98189">
        <ele>4.8</ele>
        <time>2023-09-15T15:13:51Z</time>
      </trkpt>
      <trkpt lat="47.88904" lon="-3.98189">
        <ele>4.8</ele>
        <time>2023-09-15T15:13:56Z</time>
      </trkpt>
      <trkpt lat="47.88904" lon="-3.98189">
        <ele>4.8</ele>
        <time>2023-09-15T15:13:58Z</time>
      </trkpt>
      <trkpt lat="47.88904" lon="-3.9819">
        <ele>4.8</ele>
        <time>2023-09-15T15:14:00Z</time>
      </trkpt>
      <trkpt lat="47.88903" lon="-3.98191">
        <ele>4.8</ele>
        <time>2023-09-15T15:14:02Z</time>
      </trkpt>
      <trkpt lat="47.88903" lon="-3.9819">
        <ele>4.8</ele>
        <time>2023-09-15T15:14:11Z</time>
      </trkpt>
      <trkpt lat="47.88901" lon="-3.9819">
        <ele>4.8</ele>
        <time>2023-09-15T15:14:20Z</time>
      </trkpt>
      <trkpt lat="47.88902" lon="-3.9819">
        <ele>4.8</ele>
        <time>2023-09-15T15:14:25Z</time>
      </trkpt>
      <trkpt lat="47.88902" lon="-3.9819">
        <ele>4.8</ele>
        <time>2023-09-15T15:14:27Z</time>
      </trkpt>
      <trkpt lat="47.88902" lon="-3.98189">
        <ele>4.8</ele>
        <time>2023-09-15T15:14:29Z</time>
      </trkpt>
      <trkpt lat="47.88902" lon="-3.9819">
        <ele>4.8</ele>
        <time>2023-09-15T15:14:31Z</time>
      </trkpt>
      <trkpt lat="47.88902" lon="-3.98189">
        <ele>4.8</ele>
        <time>2023-09-15T15:14:34Z</time>
      </trkpt>
      <trkpt lat="47.88903" lon="-3.98189">
        <ele>4.8</ele>
        <time>2023-09-15T15:14:36Z</time>
      </trkpt>
      <trkpt lat="47.88903" lon="-3.98189">
        <ele>4.8</ele>
        <time>2023-09-15T15:14:39Z</time>
      </trkpt>
      <trkpt lat="47.88903" lon="-3.98188">
        <ele>4.8</ele>
        <time>2023-09-15T15:14:48Z</time>
      </trkpt>
      <trkpt lat="47.88903" lon="-3.98187">
        <ele>4.8</ele>
        <time>2023-09-15T15:14:49Z</time>
      </trkpt>
      <trkpt lat="47.88904" lon="-3.9819">
        <ele>4.8</ele>
        <time>2023-09-15T15:14:58Z</time>
      </trkpt>
      <trkpt lat="47.88904" lon="-3.98188">
        <ele>4.8</ele>
        <time>2023-09-15T15:15:04Z</time>
      </trkpt>
      <trkpt lat="47.88903" lon="-3.9819">
        <ele>4.8</ele>
        <time>2023-09-15T15:15:09Z</time>
      </trkpt>
      <trkpt lat="47.88902" lon="-3.98189">
        <ele>4.8</ele>
        <time>2023-09-15T15:15:17Z</time>
      </trkpt>
      <trkpt lat="47.88902" lon="-3.98189">
        <ele>4.8</ele>
        <time>2023-09-15T15:15:19Z</time>
      </trkpt>
      <trkpt lat="47.88903" lon="-3.98189">
        <ele>4.8</ele>
        <time>2023-09-15T15:15:28Z</time>
      </trkpt>
      <trkpt lat="47.88903" lon="-3.9819">
        <ele>4.8</ele>
        <time>2023-09-15T15:15:32Z</time>
      </trkpt>
      <trkpt lat="47.88902" lon="-3.98191">
        <ele>4.8</ele>
        <time>2023-09-15T15:15:41Z</time>
      </trkpt>
      <trkpt lat="47.88901" lon="-3.98191">
        <ele>4.8</ele>
        <time>2023-09-15T15:15:50Z</time>
      </trkpt>
      <trkpt lat="47.88901" lon="-3.98191">
        <ele>4.8</ele>
        <time>2023-09-15T15:15:54Z</time>
      </trkpt>
      <trkpt lat="47.88901" lon="-3.98191">
        <ele>4.8</ele>
        <time>2023-09-15T15:16:00Z</time>
      </trkpt>
      <trkpt lat="47.88901" lon="-3.98191">
        <ele>4.8</ele>
        <time>2023-09-15T15:16:03Z</time>
      </trkpt>
      <trkpt lat="47.88902" lon="-3.98189">
        <ele>4.8</ele>
        <time>2023-09-15T15:16:13Z</time>
      </trkpt>
      <trkpt lat="47.88903" lon="-3.98191">
        <ele>4.8</ele>
        <time>2023-09-15T15:16:22Z</time>
      </trkpt>
      <trkpt lat="47.88904" lon="-3.9819">
        <ele>4.8</ele>
        <time>2023-09-15T15:16:27Z</time>
      </trkpt>
      <trkpt lat="47.88904" lon="-3.9819">
        <ele>4.8</ele>
        <time>2023-09-15T15:16:29Z</time>
      </trkpt>
      <trkpt lat="47.88904" lon="-3.9819">
        <ele>4.8</ele>
        <time>2023-09-15T15:16:31Z</time>
      </trkpt>
      <trkpt lat="47.88904" lon="-3.9819">
        <ele>4.8</ele>
        <time>2023-09-15T15:16:38Z</time>
      </trkpt>
      <trkpt lat="47.88904" lon="-3.9819">
        <ele>4.8</ele>
        <time>2023-09-15T15:16:43Z</time>
      </trkpt>
      <trkpt lat="47.88904" lon="-3.98189">
        <ele>4.8</ele>
        <time>2023-09-15T15:16:51Z</time>
      </trkpt>
      <trkpt lat="47.88905" lon="-3.9819">
        <ele>4.8</ele>
        <time>2023-09-15T15:16:53Z</time>
      </trkpt>
      <trkpt lat="47.88904" lon="-3.98189">
        <ele>4.8</ele>
        <time>2023-09-15T15:17:02Z</time>
      </trkpt>
      <trkpt lat="47.88903" lon="-3.9819">
        <ele>4.8</ele>
        <time>2023-09-15T15:17:12Z</time>
      </trkpt>
      <trkpt lat="47.88903" lon="-3.9819">
        <ele>4.8</ele>
        <time>2023-09-15T15:17:13Z</time>
      </trkpt>
      <trkpt lat="47.88902" lon="-3.9819">
        <ele>4.8</ele>
        <time>2023-09-15T15:17:23Z</time>
      </trkpt>
      <trkpt lat="47.88902" lon="-3.98189">
        <ele>4.8</ele>
        <time>2023-09-15T15:17:27Z</time>
      </trkpt>
      <trkpt lat="47.88902" lon="-3.98189">
        <ele>4.8</ele>
        <time>2023-09-15T15:17:28Z</time>
      </trkpt>
      <trkpt lat="47.88901" lon="-3.98188">
        <ele>4.8</ele>
        <time>2023-09-15T15:17:35Z</time>
      </trkpt>
      <trkpt lat="47.88901" lon="-3.98189">
        <ele>4.8</ele>
        <time>2023-09-15T15:17:45Z</time>
      </trkpt>
      <trkpt lat="47.88901" lon="-3.98189">
        <ele>4.8</ele>
        <time>2023-09-15T15:17:46Z</time>
      </trkpt>
      <trkpt lat="47.88901" lon="-3.98189">
        <ele>4.8</ele>
        <time>2023-09-15T15:17:48Z</time>
      </trkpt>
      <trkpt lat="47.88901" lon="-3.98189">
        <ele>4.8</ele>
        <time>2023-09-15T15:17:57Z</time>
      </trkpt>
      <trkpt lat="47.889" lon="-3.9819">
        <ele>4.8</ele>
        <time>2023-09-15T15:18:07Z</time>
      </trkpt>
      <trkpt lat="47.88902" lon="-3.9819">
        <ele>4.8</ele>
        <time>2023-09-15T15:18:18Z</time>
      </trkpt>
      <trkpt lat="47.88901" lon="-3.98189">
        <ele>4.8</ele>
        <time>2023-09-15T15:18:28Z</time>
      </trkpt>
      <trkpt lat="47.88903" lon="-3.98189">
        <ele>4.8</ele>
        <time>2023-09-15T15:18:39Z</time>
      </trkpt>
      <trkpt lat="47.88904" lon="-3.98189">
        <ele>4.8</ele>
        <time>2023-09-15T15:18:44Z</time>
      </trkpt>
      <trkpt lat="47.88904" lon="-3.9819">
        <ele>4.8</ele>
        <time>2023-09-15T15:18:46Z</time>
      </trkpt>
      <trkpt lat="47.88903" lon="-3.9819">
        <ele>4.8</ele>
        <time>2023-09-15T15:18:48Z</time>
      </trkpt>
      <trkpt lat="47.88902" lon="-3.9819">
        <ele>4.8</ele>
        <time>2023-09-15T15:18:52Z</time>
      </trkpt>
      <trkpt lat="47.88903" lon="-3.9819">
        <ele>4.8</ele>
        <time>2023-09-15T15:18:58Z</time>
      </trkpt>
      <trkpt lat="47.88904" lon="-3.98193">
        <ele>4.8</ele>
        <time>2023-09-15T15:19:08Z</time>
      </trkpt>
      <trkpt lat="47.88904" lon="-3.98188">
        <ele>4.8</ele>
        <time>2023-09-15T15:19:12Z</time>
      </trkpt>
      <trkpt lat="47.88903" lon="-3.98188">
        <ele>4.8</ele>
        <time>2023-09-15T15:19:19Z</time>
      </trkpt>
      <trkpt lat="47.88902" lon="-3.98186">
        <ele>4.8</ele>
        <time>2023-09-15T15:19:29Z</time>
      </trkpt>
      <trkpt lat="47.88901" lon="-3.98187">
        <ele>4.8</ele>
        <time>2023-09-15T15:19:38Z</time>
      </trkpt>
      <trkpt lat="47.88901" lon="-3.98188">
        <ele>4.8</ele>
        <time>2023-09-15T15:19:44Z</time>
      </trkpt>
      <trkpt lat="47.88901" lon="-3.98199">
        <ele>4.6</ele>
        <time>2023-09-15T15:19:50Z</time>
      </trkpt>
      <trkpt lat="47.88903" lon="-3.98203">
        <ele>4.8</ele>
        <time>2023-09-15T15:19:52Z</time>
      </trkpt>
      <trkpt lat="47.88908" lon="-3.98212">
        <ele>4.6</ele>
        <time>2023-09-15T15:19:56Z</time>
      </trkpt>
      <trkpt lat="47.88913" lon="-3.98221">
        <ele>4.4</ele>
        <time>2023-09-15T15:19:59Z</time>
      </trkpt>
      <trkpt lat="47.88923" lon="-3.98244">
        <ele>4</ele>
        <time>2023-09-15T15:20:06Z</time>
      </trkpt>
      <trkpt lat="47.88934" lon="-3.98269">
        <ele>4</ele>
        <time>2023-09-15T15:20:14Z</time>
      </trkpt>
      <trkpt lat="47.88937" lon="-3.98276">
        <ele>4.2</ele>
        <time>2023-09-15T15:20:16Z</time>
      </trkpt>
      <trkpt lat="47.8894" lon="-3.98282">
        <ele>4.2</ele>
        <time>2023-09-15T15:20:18Z</time>
      </trkpt>
      <trkpt lat="47.88947" lon="-3.98298">
        <ele>4</ele>
        <time>2023-09-15T15:20:22Z</time>
      </trkpt>
      <trkpt lat="47.88963" lon="-3.98332">
        <ele>4.2</ele>
        <time>2023-09-15T15:20:31Z</time>
      </trkpt>
      <trkpt lat="47.88976" lon="-3.98358">
        <ele>4</ele>
        <time>2023-09-15T15:20:38Z</time>
      </trkpt>
      <trkpt lat="47.88985" lon="-3.98386">
        <ele>4.2</ele>
        <time>2023-09-15T15:20:45Z</time>
      </trkpt>
      <trkpt lat="47.88986" lon="-3.98389">
        <ele>4.4</ele>
        <time>2023-09-15T15:20:46Z</time>
      </trkpt>
      <trkpt lat="47.88988" lon="-3.98409">
        <ele>4.6</ele>
        <time>2023-09-15T15:20:53Z</time>
      </trkpt>
      <trkpt lat="47.88992" lon="-3.9844">
        <ele>5</ele>
        <time>2023-09-15T15:21:00Z</time>
      </trkpt>
      <trkpt lat="47.88994" lon="-3.9846">
        <ele>5.4</ele>
        <time>2023-09-15T15:21:04Z</time>
      </trkpt>
      <trkpt lat="47.88995" lon="-3.9847">
        <ele>5.6</ele>
        <time>2023-09-15T15:21:06Z</time>
      </trkpt>
      <trkpt lat="47.88996" lon="-3.98479">
        <ele>5.6</ele>
        <time>2023-09-15T15:21:08Z</time>
      </trkpt>
      <trkpt lat="47.89002" lon="-3.98527">
        <ele>5.2</ele>
        <time>2023-09-15T15:21:17Z</time>
      </trkpt>
      <trkpt lat="47.89008" lon="-3.98558">
        <ele>4.8</ele>
        <time>2023-09-15T15:21:22Z</time>
      </trkpt>
      <trkpt lat="47.89012" lon="-3.98571">
        <ele>4.6</ele>
        <time>2023-09-15T15:21:24Z</time>
      </trkpt>
      <trkpt lat="47.89015" lon="-3.98576">
        <ele>4.4</ele>
        <time>2023-09-15T15:21:25Z</time>
      </trkpt>
      <trkpt lat="47.89028" lon="-3.98613">
        <ele>4.2</ele>
        <time>2023-09-15T15:21:32Z</time>
      </trkpt>
      <trkpt lat="47.89045" lon="-3.98659">
        <ele>4.2</ele>
        <time>2023-09-15T15:21:41Z</time>
      </trkpt>
      <trkpt lat="47.89047" lon="-3.98684">
        <ele>4.4</ele>
        <time>2023-09-15T15:21:46Z</time>
      </trkpt>
      <trkpt lat="47.89053" lon="-3.98701">
        <ele>5.4</ele>
        <time>2023-09-15T15:21:52Z</time>
      </trkpt>
      <trkpt lat="47.89068" lon="-3.98714">
        <ele>5.2</ele>
        <time>2023-09-15T15:21:57Z</time>
      </trkpt>
      <trkpt lat="47.89081" lon="-3.98737">
        <ele>5</ele>
        <time>2023-09-15T15:22:03Z</time>
      </trkpt>
      <trkpt lat="47.89096" lon="-3.98754">
        <ele>5.4</ele>
        <time>2023-09-15T15:22:09Z</time>
      </trkpt>
      <trkpt lat="47.89101" lon="-3.98758">
        <ele>5.4</ele>
        <time>2023-09-15T15:22:11Z</time>
      </trkpt>
      <trkpt lat="47.89106" lon="-3.98761">
        <ele>5.6</ele>
        <time>2023-09-15T15:22:13Z</time>
      </trkpt>
      <trkpt lat="47.89124" lon="-3.98768">
        <ele>5.8</ele>
        <time>2023-09-15T15:22:18Z</time>
      </trkpt>
      <trkpt lat="47.89129" lon="-3.98769">
        <ele>5.6</ele>
        <time>2023-09-15T15:22:19Z</time>
      </trkpt>
      <trkpt lat="47.89162" lon="-3.98779">
        <ele>5.6</ele>
        <time>2023-09-15T15:22:26Z</time>
      </trkpt>
      <trkpt lat="47.89166" lon="-3.98781">
        <ele>5.6</ele>
        <time>2023-09-15T15:22:27Z</time>
      </trkpt>
      <trkpt lat="47.89194" lon="-3.98798">
        <ele>5.4</ele>
        <time>2023-09-15T15:22:34Z</time>
      </trkpt>
      <trkpt lat="47.89233" lon="-3.98828">
        <ele>5.4</ele>
        <time>2023-09-15T15:22:44Z</time>
      </trkpt>
      <trkpt lat="47.8926" lon="-3.98852">
        <ele>5.2</ele>
        <time>2023-09-15T15:22:51Z</time>
      </trkpt>
      <trkpt lat="47.89278" lon="-3.98862">
        <ele>5</ele>
        <time>2023-09-15T15:22:55Z</time>
      </trkpt>
      <trkpt lat="47.89287" lon="-3.98868">
        <ele>4.8</ele>
        <time>2023-09-15T15:22:57Z</time>
      </trkpt>
      <trkpt lat="47.89292" lon="-3.98871">
        <ele>4.6</ele>
        <time>2023-09-15T15:22:58Z</time>
      </trkpt>
      <trkpt lat="47.89301" lon="-3.98876">
        <ele>4.4</ele>
        <time>2023-09-15T15:23:00Z</time>
      </trkpt>
      <trkpt lat="47.89332" lon="-3.98897">
        <ele>4.4</ele>
        <time>2023-09-15T15:23:07Z</time>
      </trkpt>
      <trkpt lat="47.89339" lon="-3.98907">
        <ele>4.4</ele>
        <time>2023-09-15T15:23:11Z</time>
      </trkpt>
      <trkpt lat="47.89336" lon="-3.98923">
        <ele>4.2</ele>
        <time>2023-09-15T15:23:15Z</time>
      </trkpt>
      <trkpt lat="47.89323" lon="-3.98944">
        <ele>4.2</ele>
        <time>2023-09-15T15:23:21Z</time>
      </trkpt>
      <trkpt lat="47.89315" lon="-3.98961">
        <ele>4.2</ele>
        <time>2023-09-15T15:23:25Z</time>
      </trkpt>
      <trkpt lat="47.89316" lon="-3.98965">
        <ele>4.2</ele>
        <time>2023-09-15T15:23:26Z</time>
      </trkpt>
      <trkpt lat="47.89322" lon="-3.98979">
        <ele>4.2</ele>
        <time>2023-09-15T15:23:29Z</time>
      </trkpt>
      <trkpt lat="47.89335" lon="-3.99012">
        <ele>4.2</ele>
        <time>2023-09-15T15:23:36Z</time>
      </trkpt>
      <trkpt lat="47.89347" lon="-3.99042">
        <ele>4.4</ele>
        <time>2023-09-15T15:23:43Z</time>
      </trkpt>
      <trkpt lat="47.89361" lon="-3.99064">
        <ele>5.4</ele>
        <time>2023-09-15T15:23:49Z</time>
      </trkpt>
      <trkpt lat="47.89365" lon="-3.99067">
        <ele>5.6</ele>
        <time>2023-09-15T15:23:50Z</time>
      </trkpt>
      <trkpt lat="47.89383" lon="-3.99076">
        <ele>6</ele>
        <time>2023-09-15T15:23:55Z</time>
      </trkpt>
      <trkpt lat="47.89401" lon="-3.9909">
        <ele>6.2</ele>
        <time>2023-09-15T15:24:00Z</time>
      </trkpt>
      <trkpt lat="47.89408" lon="-3.99096">
        <ele>6.4</ele>
        <time>2023-09-15T15:24:02Z</time>
      </trkpt>
      <trkpt lat="47.89411" lon="-3.991">
        <ele>6.4</ele>
        <time>2023-09-15T15:24:03Z</time>
      </trkpt>
      <trkpt lat="47.89433" lon="-3.99131">
        <ele>6.4</ele>
        <time>2023-09-15T15:24:10Z</time>
      </trkpt>
      <trkpt lat="47.89448" lon="-3.9915">
        <ele>6.2</ele>
        <time>2023-09-15T15:24:15Z</time>
      </trkpt>
      <trkpt lat="47.89459" lon="-3.99159">
        <ele>6.2</ele>
        <time>2023-09-15T15:24:18Z</time>
      </trkpt>
      <trkpt lat="47.8947" lon="-3.99166">
        <ele>6.2</ele>
        <time>2023-09-15T15:24:21Z</time>
      </trkpt>
      <trkpt lat="47.89475" lon="-3.99167">
        <ele>6.2</ele>
        <time>2023-09-15T15:24:22Z</time>
      </trkpt>
      <trkpt lat="47.89485" lon="-3.99167">
        <ele>6.2</ele>
        <time>2023-09-15T15:24:24Z</time>
      </trkpt>
      <trkpt lat="47.8949" lon="-3.99167">
        <ele>6.2</ele>
        <time>2023-09-15T15:24:25Z</time>
      </trkpt>
      <trkpt lat="47.89518" lon="-3.99165">
        <ele>5.6</ele>
        <time>2023-09-15T15:24:31Z</time>
      </trkpt>
      <trkpt lat="47.89522" lon="-3.99166">
        <ele>5.6</ele>
        <time>2023-09-15T15:24:32Z</time>
      </trkpt>
      <trkpt lat="47.89538" lon="-3.9918">
        <ele>6.2</ele>
        <time>2023-09-15T15:24:37Z</time>
      </trkpt>
      <trkpt lat="47.8956" lon="-3.99196">
        <ele>6.6</ele>
        <time>2023-09-15T15:24:43Z</time>
      </trkpt>
      <trkpt lat="47.89564" lon="-3.99197">
        <ele>6.6</ele>
        <time>2023-09-15T15:24:44Z</time>
      </trkpt>
      <trkpt lat="47.89591" lon="-3.99215">
        <ele>7</ele>
        <time>2023-09-15T15:24:51Z</time>
      </trkpt>
      <trkpt lat="47.896" lon="-3.9922">
        <ele>6.8</ele>
        <time>2023-09-15T15:24:53Z</time>
      </trkpt>
      <trkpt lat="47.89618" lon="-3.99224">
        <ele>6.6</ele>
        <time>2023-09-15T15:24:57Z</time>
      </trkpt>
      <trkpt lat="47.89628" lon="-3.99225">
        <ele>6.4</ele>
        <time>2023-09-15T15:24:59Z</time>
      </trkpt>
      <trkpt lat="47.89633" lon="-3.99225">
        <ele>6.2</ele>
        <time>2023-09-15T15:25:00Z</time>
      </trkpt>
      <trkpt lat="47.89638" lon="-3.99224">
        <ele>5.6</ele>
        <time>2023-09-15T15:25:01Z</time>
      </trkpt>
      <trkpt lat="47.89642" lon="-3.99222">
        <ele>5.4</ele>
        <time>2023-09-15T15:25:02Z</time>
      </trkpt>
      <trkpt lat="47.89644" lon="-3.99219">
        <ele>5.2</ele>
        <time>2023-09-15T15:25:03Z</time>
      </trkpt>
      <trkpt lat="47.89645" lon="-3.99215">
        <ele>5</ele>
        <time>2023-09-15T15:25:04Z</time>
      </trkpt>
      <trkpt lat="47.89648" lon="-3.99211">
        <ele>4.6</ele>
        <time>2023-09-15T15:25:06Z</time>
      </trkpt>
      <trkpt lat="47.89663" lon="-3.99207">
        <ele>4.4</ele>
        <time>2023-09-15T15:25:10Z</time>
      </trkpt>
      <trkpt lat="47.89667" lon="-3.99206">
        <ele>4.4</ele>
        <time>2023-09-15T15:25:11Z</time>
      </trkpt>
      <trkpt lat="47.89689" lon="-3.99195">
        <ele>4.6</ele>
        <time>2023-09-15T15:25:18Z</time>
      </trkpt>
      <trkpt lat="47.89698" lon="-3.99181">
        <ele>5.4</ele>
        <time>2023-09-15T15:25:22Z</time>
      </trkpt>
      <trkpt lat="47.89701" lon="-3.99155">
        <ele>5.8</ele>
        <time>2023-09-15T15:25:28Z</time>
      </trkpt>
      <trkpt lat="47.89706" lon="-3.99115">
        <ele>5.8</ele>
        <time>2023-09-15T15:25:35Z</time>
      </trkpt>
      <trkpt lat="47.8971" lon="-3.99071">
        <ele>5.2</ele>
        <time>2023-09-15T15:25:42Z</time>
      </trkpt>
      <trkpt lat="47.89711" lon="-3.99065">
        <ele>5.2</ele>
        <time>2023-09-15T15:25:43Z</time>
      </trkpt>
      <trkpt lat="47.89713" lon="-3.99027">
        <ele>5.4</ele>
        <time>2023-09-15T15:25:50Z</time>
      </trkpt>
      <trkpt lat="47.89719" lon="-3.99014">
        <ele>5.2</ele>
        <time>2023-09-15T15:25:54Z</time>
      </trkpt>
      <trkpt lat="47.89729" lon="-3.99012">
        <ele>4.8</ele>
        <time>2023-09-15T15:25:57Z</time>
      </trkpt>
      <trkpt lat="47.89733" lon="-3.99013">
        <ele>4.4</ele>
        <time>2023-09-15T15:25:58Z</time>
      </trkpt>
      <trkpt lat="47.89737" lon="-3.99014">
        <ele>4.4</ele>
        <time>2023-09-15T15:25:59Z</time>
      </trkpt>
      <trkpt lat="47.89755" lon="-3.99027">
        <ele>3.8</ele>
        <time>2023-09-15T15:26:04Z</time>
      </trkpt>
      <trkpt lat="47.89777" lon="-3.99051">
        <ele>4</ele>
        <time>2023-09-15T15:26:11Z</time>
      </trkpt>
      <trkpt lat="47.898" lon="-3.9907">
        <ele>4.2</ele>
        <time>2023-09-15T15:26:17Z</time>
      </trkpt>
      <trkpt lat="47.89805" lon="-3.99069">
        <ele>4.2</ele>
        <time>2023-09-15T15:26:18Z</time>
      </trkpt>
      <trkpt lat="47.89814" lon="-3.99065">
        <ele>3.8</ele>
        <time>2023-09-15T15:26:20Z</time>
      </trkpt>
      <trkpt lat="47.89819" lon="-3.99063">
        <ele>3.8</ele>
        <time>2023-09-15T15:26:21Z</time>
      </trkpt>
      <trkpt lat="47.89832" lon="-3.99057">
        <ele>3.6</ele>
        <time>2023-09-15T15:26:24Z</time>
      </trkpt>
      <trkpt lat="47.89849" lon="-3.99043">
        <ele>3.6</ele>
        <time>2023-09-15T15:26:28Z</time>
      </trkpt>
      <trkpt lat="47.89878" lon="-3.99017">
        <ele>3.4</ele>
        <time>2023-09-15T15:26:34Z</time>
      </trkpt>
      <trkpt lat="47.89908" lon="-3.99001">
        <ele>3.6</ele>
        <time>2023-09-15T15:26:41Z</time>
      </trkpt>
      <trkpt lat="47.89937" lon="-3.98987">
        <ele>3.4</ele>
        <time>2023-09-15T15:26:47Z</time>
      </trkpt>
      <trkpt lat="47.89942" lon="-3.98982">
        <ele>3.4</ele>
        <time>2023-09-15T15:26:48Z</time>
      </trkpt>
      <trkpt lat="47.89947" lon="-3.98977">
        <ele>3.4</ele>
        <time>2023-09-15T15:26:49Z</time>
      </trkpt>
      <trkpt lat="47.89955" lon="-3.98968">
        <ele>3.2</ele>
        <time>2023-09-15T15:26:51Z</time>
      </trkpt>
      <trkpt lat="47.89961" lon="-3.98957">
        <ele>3.4</ele>
        <time>2023-09-15T15:26:53Z</time>
      </trkpt>
      <trkpt lat="47.89972" lon="-3.98935">
        <ele>3.8</ele>
        <time>2023-09-15T15:26:57Z</time>
      </trkpt>
      <trkpt lat="47.89976" lon="-3.98921">
        <ele>4</ele>
        <time>2023-09-15T15:26:59Z</time>
      </trkpt>
      <trkpt lat="47.89979" lon="-3.98915">
        <ele>4</ele>
        <time>2023-09-15T15:27:00Z</time>
      </trkpt>
      <trkpt lat="47.89984" lon="-3.98906">
        <ele>4.4</ele>
        <time>2023-09-15T15:27:02Z</time>
      </trkpt>
      <trkpt lat="47.89988" lon="-3.98905">
        <ele>4.8</ele>
        <time>2023-09-15T15:27:03Z</time>
      </trkpt>
      <trkpt lat="47.89999" lon="-3.9891">
        <ele>5.6</ele>
        <time>2023-09-15T15:27:07Z</time>
      </trkpt>
      <trkpt lat="47.90016" lon="-3.9892">
        <ele>5.6</ele>
        <time>2023-09-15T15:27:13Z</time>
      </trkpt>
      <trkpt lat="47.9004" lon="-3.98922">
        <ele>5</ele>
        <time>2023-09-15T15:27:19Z</time>
      </trkpt>
      <trkpt lat="47.90078" lon="-3.98935">
        <ele>4.8</ele>
        <time>2023-09-15T15:27:27Z</time>
      </trkpt>
      <trkpt lat="47.90099" lon="-3.98934">
        <ele>4.6</ele>
        <time>2023-09-15T15:27:31Z</time>
      </trkpt>
      <trkpt lat="47.90104" lon="-3.98934">
        <ele>4.2</ele>
        <time>2023-09-15T15:27:32Z</time>
      </trkpt>
      <trkpt lat="47.90135" lon="-3.98939">
        <ele>3.8</ele>
        <time>2023-09-15T15:27:38Z</time>
      </trkpt>
      <trkpt lat="47.90168" lon="-3.98942">
        <ele>3.4</ele>
        <time>2023-09-15T15:27:44Z</time>
      </trkpt>
      <trkpt lat="47.90183" lon="-3.98946">
        <ele>3.2</ele>
        <time>2023-09-15T15:27:47Z</time>
      </trkpt>
      <trkpt lat="47.90197" lon="-3.98954">
        <ele>3.2</ele>
        <time>2023-09-15T15:27:50Z</time>
      </trkpt>
      <trkpt lat="47.90201" lon="-3.98958">
        <ele>3.2</ele>
        <time>2023-09-15T15:27:51Z</time>
      </trkpt>
      <trkpt lat="47.90221" lon="-3.98982">
        <ele>3.4</ele>
        <time>2023-09-15T15:27:57Z</time>
      </trkpt>
      <trkpt lat="47.90246" lon="-3.99">
        <ele>3.8</ele>
        <time>2023-09-15T15:28:03Z</time>
      </trkpt>
      <trkpt lat="47.90268" lon="-3.99008">
        <ele>4.4</ele>
        <time>2023-09-15T15:28:08Z</time>
      </trkpt>
      <trkpt lat="47.90285" lon="-3.99016">
        <ele>5</ele>
        <time>2023-09-15T15:28:13Z</time>
      </trkpt>
      <trkpt lat="47.903" lon="-3.99028">
        <ele>5.4</ele>
        <time>2023-09-15T15:28:18Z</time>
      </trkpt>
      <trkpt lat="47.90302" lon="-3.99028">
        <ele>5.6</ele>
        <time>2023-09-15T15:28:19Z</time>
      </trkpt>
      <trkpt lat="47.90309" lon="-3.99028">
        <ele>6.4</ele>
        <time>2023-09-15T15:28:22Z</time>
      </trkpt>
      <trkpt lat="47.90316" lon="-3.99026">
        <ele>7.2</ele>
        <time>2023-09-15T15:28:25Z</time>
      </trkpt>
      <trkpt lat="47.9032" lon="-3.99023">
        <ele>7.6</ele>
        <time>2023-09-15T15:28:27Z</time>
      </trkpt>
      <trkpt lat="47.90327" lon="-3.99016">
        <ele>8.2</ele>
        <time>2023-09-15T15:28:31Z</time>
      </trkpt>
      <trkpt lat="47.90333" lon="-3.99008">
        <ele>8.6</ele>
        <time>2023-09-15T15:28:34Z</time>
      </trkpt>
      <trkpt lat="47.90339" lon="-3.98995">
        <ele>8.8</ele>
        <time>2023-09-15T15:28:38Z</time>
      </trkpt>
      <trkpt lat="47.90351" lon="-3.98966">
        <ele>9.6</ele>
        <time>2023-09-15T15:28:46Z</time>
      </trkpt>
      <trkpt lat="47.90359" lon="-3.98947">
        <ele>10.8</ele>
        <time>2023-09-15T15:28:53Z</time>
      </trkpt>
      <trkpt lat="47.90361" lon="-3.98937">
        <ele>11.4</ele>
        <time>2023-09-15T15:28:57Z</time>
      </trkpt>
      <trkpt lat="47.90363" lon="-3.98931">
        <ele>11.8</ele>
        <time>2023-09-15T15:28:59Z</time>
      </trkpt>
      <trkpt lat="47.90364" lon="-3.98928">
        <ele>11.8</ele>
        <time>2023-09-15T15:29:00Z</time>
      </trkpt>
      <trkpt lat="47.90364" lon="-3.98924">
        <ele>12</ele>
        <time>2023-09-15T15:29:01Z</time>
      </trkpt>
      <trkpt lat="47.90365" lon="-3.98921">
        <ele>12.2</ele>
        <time>2023-09-15T15:29:02Z</time>
      </trkpt>
      <trkpt lat="47.90373" lon="-3.98901">
        <ele>13</ele>
        <time>2023-09-15T15:29:09Z</time>
      </trkpt>
      <trkpt lat="47.90375" lon="-3.98899">
        <ele>13.2</ele>
        <time>2023-09-15T15:29:10Z</time>
      </trkpt>
      <trkpt lat="47.90383" lon="-3.98895">
        <ele>14</ele>
        <time>2023-09-15T15:29:14Z</time>
      </trkpt>
      <trkpt lat="47.90386" lon="-3.98892">
        <ele>14.2</ele>
        <time>2023-09-15T15:29:16Z</time>
      </trkpt>
      <trkpt lat="47.90397" lon="-3.9888">
        <ele>15</ele>
        <time>2023-09-15T15:29:24Z</time>
      </trkpt>
      <trkpt lat="47.90409" lon="-3.98866">
        <ele>15.6</ele>
        <time>2023-09-15T15:29:32Z</time>
      </trkpt>
      <trkpt lat="47.90418" lon="-3.98853">
        <ele>16</ele>
        <time>2023-09-15T15:29:37Z</time>
      </trkpt>
      <trkpt lat="47.90419" lon="-3.98848">
        <ele>16.2</ele>
        <time>2023-09-15T15:29:39Z</time>
      </trkpt>
      <trkpt lat="47.90419" lon="-3.98827">
        <ele>16.8</ele>
        <time>2023-09-15T15:29:45Z</time>
      </trkpt>
      <trkpt lat="47.90419" lon="-3.98818">
        <ele>17.2</ele>
        <time>2023-09-15T15:29:48Z</time>
      </trkpt>
      <trkpt lat="47.90421" lon="-3.98805">
        <ele>17.8</ele>
        <time>2023-09-15T15:29:53Z</time>
      </trkpt>
      <trkpt lat="47.90423" lon="-3.98797">
        <ele>18.2</ele>
        <time>2023-09-15T15:29:56Z</time>
      </trkpt>
      <trkpt lat="47.90429" lon="-3.98787">
        <ele>19</ele>
        <time>2023-09-15T15:30:01Z</time>
      </trkpt>
      <trkpt lat="47.90431" lon="-3.98784">
        <ele>19.4</ele>
        <time>2023-09-15T15:30:03Z</time>
      </trkpt>
      <trkpt lat="47.90438" lon="-3.98769">
        <ele>20.4</ele>
        <time>2023-09-15T15:30:10Z</time>
      </trkpt>
      <trkpt lat="47.90439" lon="-3.98768">
        <ele>20.6</ele>
        <time>2023-09-15T15:30:11Z</time>
      </trkpt>
      <trkpt lat="47.90446" lon="-3.98756">
        <ele>21</ele>
        <time>2023-09-15T15:30:16Z</time>
      </trkpt>
      <trkpt lat="47.90448" lon="-3.98751">
        <ele>21.4</ele>
        <time>2023-09-15T15:30:18Z</time>
      </trkpt>
      <trkpt lat="47.90452" lon="-3.98745">
        <ele>21.6</ele>
        <time>2023-09-15T15:30:21Z</time>
      </trkpt>
      <trkpt lat="47.90454" lon="-3.98739">
        <ele>21.8</ele>
        <time>2023-09-15T15:30:23Z</time>
      </trkpt>
      <trkpt lat="47.90464" lon="-3.9872">
        <ele>22.8</ele>
        <time>2023-09-15T15:30:29Z</time>
      </trkpt>
      <trkpt lat="47.90472" lon="-3.98707">
        <ele>23.6</ele>
        <time>2023-09-15T15:30:36Z</time>
      </trkpt>
      <trkpt lat="47.90475" lon="-3.98703">
        <ele>23.8</ele>
        <time>2023-09-15T15:30:38Z</time>
      </trkpt>
      <trkpt lat="47.90483" lon="-3.98692">
        <ele>24.4</ele>
        <time>2023-09-15T15:30:44Z</time>
      </trkpt>
      <trkpt lat="47.90485" lon="-3.98688">
        <ele>24.6</ele>
        <time>2023-09-15T15:30:46Z</time>
      </trkpt>
      <trkpt lat="47.90491" lon="-3.98679">
        <ele>24.8</ele>
        <time>2023-09-15T15:30:51Z</time>
      </trkpt>
      <trkpt lat="47.90496" lon="-3.98672">
        <ele>25.4</ele>
        <time>2023-09-15T15:30:55Z</time>
      </trkpt>
      <trkpt lat="47.90499" lon="-3.98667">
        <ele>25.6</ele>
        <time>2023-09-15T15:30:58Z</time>
      </trkpt>
      <trkpt lat="47.90502" lon="-3.98663">
        <ele>25.8</ele>
        <time>2023-09-15T15:31:00Z</time>
      </trkpt>
      <trkpt lat="47.90504" lon="-3.98659">
        <ele>26</ele>
        <time>2023-09-15T15:31:02Z</time>
      </trkpt>
      <trkpt lat="47.90505" lon="-3.98656">
        <ele>26</ele>
        <time>2023-09-15T15:31:03Z</time>
      </trkpt>
      <trkpt lat="47.90513" lon="-3.98636">
        <ele>26.8</ele>
        <time>2023-09-15T15:31:11Z</time>
      </trkpt>
      <trkpt lat="47.90515" lon="-3.98631">
        <ele>27.2</ele>
        <time>2023-09-15T15:31:13Z</time>
      </trkpt>
      <trkpt lat="47.90523" lon="-3.98613">
        <ele>27.6</ele>
        <time>2023-09-15T15:31:20Z</time>
      </trkpt>
      <trkpt lat="47.90528" lon="-3.98598">
        <ele>28.2</ele>
        <time>2023-09-15T15:31:25Z</time>
      </trkpt>
      <trkpt lat="47.90528" lon="-3.9859">
        <ele>28.4</ele>
        <time>2023-09-15T15:31:27Z</time>
      </trkpt>
      <trkpt lat="47.90532" lon="-3.98559">
        <ele>28.8</ele>
        <time>2023-09-15T15:31:34Z</time>
      </trkpt>
      <trkpt lat="47.90535" lon="-3.9853">
        <ele>29</ele>
        <time>2023-09-15T15:31:41Z</time>
      </trkpt>
      <trkpt lat="47.90537" lon="-3.98491">
        <ele>28.2</ele>
        <time>2023-09-15T15:31:49Z</time>
      </trkpt>
      <trkpt lat="47.9054" lon="-3.98463">
        <ele>27.8</ele>
        <time>2023-09-15T15:31:54Z</time>
      </trkpt>
      <trkpt lat="47.90542" lon="-3.98451">
        <ele>27.4</ele>
        <time>2023-09-15T15:31:56Z</time>
      </trkpt>
      <trkpt lat="47.90544" lon="-3.98444">
        <ele>27.2</ele>
        <time>2023-09-15T15:31:57Z</time>
      </trkpt>
      <trkpt lat="47.90547" lon="-3.98438">
        <ele>27</ele>
        <time>2023-09-15T15:31:58Z</time>
      </trkpt>
      <trkpt lat="47.90556" lon="-3.98426">
        <ele>26.4</ele>
        <time>2023-09-15T15:32:00Z</time>
      </trkpt>
      <trkpt lat="47.90559" lon="-3.98419">
        <ele>26</ele>
        <time>2023-09-15T15:32:01Z</time>
      </trkpt>
      <trkpt lat="47.90562" lon="-3.98404">
        <ele>25.4</ele>
        <time>2023-09-15T15:32:03Z</time>
      </trkpt>
      <trkpt lat="47.90562" lon="-3.98396">
        <ele>25.2</ele>
        <time>2023-09-15T15:32:04Z</time>
      </trkpt>
      <trkpt lat="47.90562" lon="-3.98389">
        <ele>25</ele>
        <time>2023-09-15T15:32:05Z</time>
      </trkpt>
      <trkpt lat="47.90562" lon="-3.98375">
        <ele>24.6</ele>
        <time>2023-09-15T15:32:07Z</time>
      </trkpt>
      <trkpt lat="47.90564" lon="-3.98362">
        <ele>24</ele>
        <time>2023-09-15T15:32:09Z</time>
      </trkpt>
      <trkpt lat="47.90565" lon="-3.98356">
        <ele>23.6</ele>
        <time>2023-09-15T15:32:10Z</time>
      </trkpt>
      <trkpt lat="47.90566" lon="-3.98347">
        <ele>22.8</ele>
        <time>2023-09-15T15:32:12Z</time>
      </trkpt>
      <trkpt lat="47.90566" lon="-3.98339">
        <ele>22.6</ele>
        <time>2023-09-15T15:32:14Z</time>
      </trkpt>
      <trkpt lat="47.90572" lon="-3.9832">
        <ele>22.4</ele>
        <time>2023-09-15T15:32:18Z</time>
      </trkpt>
      <trkpt lat="47.90575" lon="-3.98314">
        <ele>22.4</ele>
        <time>2023-09-15T15:32:19Z</time>
      </trkpt>
      <trkpt lat="47.90581" lon="-3.98303">
        <ele>21.6</ele>
        <time>2023-09-15T15:32:21Z</time>
      </trkpt>
      <trkpt lat="47.90598" lon="-3.98269">
        <ele>21.2</ele>
        <time>2023-09-15T15:32:27Z</time>
      </trkpt>
      <trkpt lat="47.90622" lon="-3.98232">
        <ele>20.8</ele>
        <time>2023-09-15T15:32:35Z</time>
      </trkpt>
      <trkpt lat="47.90628" lon="-3.9822">
        <ele>20.4</ele>
        <time>2023-09-15T15:32:37Z</time>
      </trkpt>
      <trkpt lat="47.90637" lon="-3.982">
        <ele>19</ele>
        <time>2023-09-15T15:32:40Z</time>
      </trkpt>
      <trkpt lat="47.90645" lon="-3.98174">
        <ele>17.6</ele>
        <time>2023-09-15T15:32:43Z</time>
      </trkpt>
      <trkpt lat="47.90648" lon="-3.98153">
        <ele>16.6</ele>
        <time>2023-09-15T15:32:45Z</time>
      </trkpt>
      <trkpt lat="47.90649" lon="-3.98132">
        <ele>15.4</ele>
        <time>2023-09-15T15:32:47Z</time>
      </trkpt>
      <trkpt lat="47.90651" lon="-3.98103">
        <ele>14.4</ele>
        <time>2023-09-15T15:32:50Z</time>
      </trkpt>
      <trkpt lat="47.90658" lon="-3.98068">
        <ele>12.8</ele>
        <time>2023-09-15T15:32:54Z</time>
      </trkpt>
      <trkpt lat="47.9066" lon="-3.98061">
        <ele>12.4</ele>
        <time>2023-09-15T15:32:55Z</time>
      </trkpt>
      <trkpt lat="47.90662" lon="-3.98054">
        <ele>12</ele>
        <time>2023-09-15T15:32:56Z</time>
      </trkpt>
      <trkpt lat="47.90666" lon="-3.9803">
        <ele>11.8</ele>
        <time>2023-09-15T15:32:59Z</time>
      </trkpt>
      <trkpt lat="47.90668" lon="-3.98021">
        <ele>11.8</ele>
        <time>2023-09-15T15:33:00Z</time>
      </trkpt>
      <trkpt lat="47.9067" lon="-3.98012">
        <ele>11.2</ele>
        <time>2023-09-15T15:33:01Z</time>
      </trkpt>
      <trkpt lat="47.90673" lon="-3.98004">
        <ele>10.6</ele>
        <time>2023-09-15T15:33:02Z</time>
      </trkpt>
      <trkpt lat="47.90679" lon="-3.9799">
        <ele>9.4</ele>
        <time>2023-09-15T15:33:04Z</time>
      </trkpt>
      <trkpt lat="47.90683" lon="-3.97985">
        <ele>8.8</ele>
        <time>2023-09-15T15:33:05Z</time>
      </trkpt>
      <trkpt lat="47.90687" lon="-3.97982">
        <ele>8.2</ele>
        <time>2023-09-15T15:33:06Z</time>
      </trkpt>
      <trkpt lat="47.90692" lon="-3.97978">
        <ele>7.2</ele>
        <time>2023-09-15T15:33:08Z</time>
      </trkpt>
      <trkpt lat="47.90694" lon="-3.97975">
        <ele>6.6</ele>
        <time>2023-09-15T15:33:09Z</time>
      </trkpt>
      <trkpt lat="47.90694" lon="-3.97972">
        <ele>6.4</ele>
        <time>2023-09-15T15:33:10Z</time>
      </trkpt>
      <trkpt lat="47.90692" lon="-3.97967">
        <ele>6</ele>
        <time>2023-09-15T15:33:12Z</time>
      </trkpt>
      <trkpt lat="47.90682" lon="-3.97946">
        <ele>5</ele>
        <time>2023-09-15T15:33:17Z</time>
      </trkpt>
      <trkpt lat="47.90675" lon="-3.97938">
        <ele>5</ele>
        <time>2023-09-15T15:33:19Z</time>
      </trkpt>
      <trkpt lat="47.90667" lon="-3.97932">
        <ele>4.8</ele>
        <time>2023-09-15T15:33:21Z</time>
      </trkpt>
      <trkpt lat="47.90662" lon="-3.97931">
        <ele>4.8</ele>
        <time>2023-09-15T15:33:22Z</time>
      </trkpt>
      <trkpt lat="47.90646" lon="-3.97928">
        <ele>5</ele>
        <time>2023-09-15T15:33:26Z</time>
      </trkpt>
      <trkpt lat="47.90637" lon="-3.97925">
        <ele>5.2</ele>
        <time>2023-09-15T15:33:29Z</time>
      </trkpt>
      <trkpt lat="47.90636" lon="-3.97922">
        <ele>5.2</ele>
        <time>2023-09-15T15:33:30Z</time>
      </trkpt>
      <trkpt lat="47.90636" lon="-3.9792">
        <ele>5.4</ele>
        <time>2023-09-15T15:33:31Z</time>
      </trkpt>
      <trkpt lat="47.90638" lon="-3.97915">
        <ele>5.6</ele>
        <time>2023-09-15T15:33:33Z</time>
      </trkpt>
      <trkpt lat="47.9064" lon="-3.97913">
        <ele>5.6</ele>
        <time>2023-09-15T15:33:34Z</time>
      </trkpt>
      <trkpt lat="47.90652" lon="-3.97913">
        <ele>5.4</ele>
        <time>2023-09-15T15:33:38Z</time>
      </trkpt>
      <trkpt lat="47.90656" lon="-3.97912">
        <ele>5.2</ele>
        <time>2023-09-15T15:33:39Z</time>
      </trkpt>
      <trkpt lat="47.9066" lon="-3.9791">
        <ele>5.2</ele>
        <time>2023-09-15T15:33:40Z</time>
      </trkpt>
      <trkpt lat="47.90668" lon="-3.97905">
        <ele>4.6</ele>
        <time>2023-09-15T15:33:42Z</time>
      </trkpt>
      <trkpt lat="47.90677" lon="-3.97901">
        <ele>4</ele>
        <time>2023-09-15T15:33:44Z</time>
      </trkpt>
      <trkpt lat="47.90712" lon="-3.97889">
        <ele>3.4</ele>
        <time>2023-09-15T15:33:51Z</time>
      </trkpt>
      <trkpt lat="47.90716" lon="-3.97887">
        <ele>3.2</ele>
        <time>2023-09-15T15:33:52Z</time>
      </trkpt>
      <trkpt lat="47.9074" lon="-3.97879">
        <ele>3.2</ele>
        <time>2023-09-15T15:33:59Z</time>
      </trkpt>
      <trkpt lat="47.90763" lon="-3.97865">
        <ele>3.4</ele>
        <time>2023-09-15T15:34:06Z</time>
      </trkpt>
      <trkpt lat="47.9079" lon="-3.97849">
        <ele>3.2</ele>
        <time>2023-09-15T15:34:14Z</time>
      </trkpt>
      <trkpt lat="47.90793" lon="-3.97847">
        <ele>3.4</ele>
        <time>2023-09-15T15:34:15Z</time>
      </trkpt>
      <trkpt lat="47.90806" lon="-3.97844">
        <ele>3.4</ele>
        <time>2023-09-15T15:34:18Z</time>
      </trkpt>
      <trkpt lat="47.90827" lon="-3.97841">
        <ele>3.4</ele>
        <time>2023-09-15T15:34:23Z</time>
      </trkpt>
      <trkpt lat="47.90838" lon="-3.97842">
        <ele>3.6</ele>
        <time>2023-09-15T15:34:26Z</time>
      </trkpt>
      <trkpt lat="47.90852" lon="-3.97844">
        <ele>3.8</ele>
        <time>2023-09-15T15:34:31Z</time>
      </trkpt>
      <trkpt lat="47.90868" lon="-3.97844">
        <ele>3.8</ele>
        <time>2023-09-15T15:34:37Z</time>
      </trkpt>
      <trkpt lat="47.90881" lon="-3.97847">
        <ele>4</ele>
        <time>2023-09-15T15:34:43Z</time>
      </trkpt>
      <trkpt lat="47.90883" lon="-3.97847">
        <ele>4.2</ele>
        <time>2023-09-15T15:34:45Z</time>
      </trkpt>
      <trkpt lat="47.90888" lon="-3.97843">
        <ele>4.4</ele>
        <time>2023-09-15T15:34:48Z</time>
      </trkpt>
      <trkpt lat="47.90902" lon="-3.97825">
        <ele>4.8</ele>
        <time>2023-09-15T15:34:54Z</time>
      </trkpt>
      <trkpt lat="47.90912" lon="-3.97812">
        <ele>4.8</ele>
        <time>2023-09-15T15:34:59Z</time>
      </trkpt>
      <trkpt lat="47.90923" lon="-3.97792">
        <ele>4.6</ele>
        <time>2023-09-15T15:35:05Z</time>
      </trkpt>
      <trkpt lat="47.90932" lon="-3.97767">
        <ele>4.4</ele>
        <time>2023-09-15T15:35:12Z</time>
      </trkpt>
      <trkpt lat="47.90934" lon="-3.97763">
        <ele>4.6</ele>
        <time>2023-09-15T15:35:17Z</time>
      </trkpt>
      <trkpt lat="47.90937" lon="-3.97762">
        <ele>4.4</ele>
        <time>2023-09-15T15:35:25Z</time>
      </trkpt>
      <trkpt lat="47.90935" lon="-3.97761">
        <ele>4.2</ele>
        <time>2023-09-15T15:35:35Z</time>
      </trkpt>
      <trkpt lat="47.90934" lon="-3.97762">
        <ele>4.4</ele>
        <time>2023-09-15T15:35:44Z</time>
      </trkpt>
      <trkpt lat="47.90934" lon="-3.97762">
        <ele>4.6</ele>
        <time>2023-09-15T15:35:45Z</time>
      </trkpt>
      <trkpt lat="47.90935" lon="-3.97761">
        <ele>4.6</ele>
        <time>2023-09-15T15:35:48Z</time>
      </trkpt>
      <trkpt lat="47.90932" lon="-3.9776">
        <ele>4.8</ele>
        <time>2023-09-15T15:35:50Z</time>
      </trkpt>
      <trkpt lat="47.9093" lon="-3.9776">
        <ele>4.8</ele>
        <time>2023-09-15T15:35:52Z</time>
      </trkpt>
      <trkpt lat="47.90929" lon="-3.97763">
        <ele>4.8</ele>
        <time>2023-09-15T15:35:55Z</time>
      </trkpt>
      <trkpt lat="47.90928" lon="-3.97763">
        <ele>4.6</ele>
        <time>2023-09-15T15:36:00Z</time>
      </trkpt>
      <trkpt lat="47.90928" lon="-3.97763">
        <ele>4.6</ele>
        <time>2023-09-15T15:36:03Z</time>
      </trkpt>
      <trkpt lat="47.9093" lon="-3.97762">
        <ele>4.4</ele>
        <time>2023-09-15T15:36:05Z</time>
      </trkpt>
      <trkpt lat="47.90935" lon="-3.97761">
        <ele>4.6</ele>
        <time>2023-09-15T15:36:12Z</time>
      </trkpt>
      <trkpt lat="47.90935" lon="-3.97761">
        <ele>4.4</ele>
        <time>2023-09-15T15:36:18Z</time>
      </trkpt>
      <trkpt lat="47.90933" lon="-3.9776">
        <ele>4.4</ele>
        <time>2023-09-15T15:36:20Z</time>
      </trkpt>
      <trkpt lat="47.90931" lon="-3.9776">
        <ele>4.4</ele>
        <time>2023-09-15T15:36:26Z</time>
      </trkpt>
      <trkpt lat="47.90931" lon="-3.9776">
        <ele>4.4</ele>
        <time>2023-09-15T15:36:34Z</time>
      </trkpt>
      <trkpt lat="47.90932" lon="-3.97759">
        <ele>4.4</ele>
        <time>2023-09-15T15:36:40Z</time>
      </trkpt>
      <trkpt lat="47.90932" lon="-3.97763">
        <ele>4.4</ele>
        <time>2023-09-15T15:36:52Z</time>
      </trkpt>
      <trkpt lat="47.90933" lon="-3.97762">
        <ele>4.4</ele>
        <time>2023-09-15T15:36:55Z</time>
      </trkpt>
      <trkpt lat="47.90934" lon="-3.97763">
        <ele>4.4</ele>
        <time>2023-09-15T15:36:57Z</time>
      </trkpt>
      <trkpt lat="47.90934" lon="-3.97763">
        <ele>4.4</ele>
        <time>2023-09-15T15:36:59Z</time>
      </trkpt>
      <trkpt lat="47.90932" lon="-3.97763">
        <ele>4.4</ele>
        <time>2023-09-15T15:37:01Z</time>
      </trkpt>
      <trkpt lat="47.9093" lon="-3.97763">
        <ele>4.4</ele>
        <time>2023-09-15T15:37:03Z</time>
      </trkpt>
      <trkpt lat="47.90927" lon="-3.97763">
        <ele>4.4</ele>
        <time>2023-09-15T15:37:10Z</time>
      </trkpt>
      <trkpt lat="47.90928" lon="-3.97763">
        <ele>4.8</ele>
        <time>2023-09-15T15:37:19Z</time>
      </trkpt>
      <trkpt lat="47.90929" lon="-3.97764">
        <ele>4.2</ele>
        <time>2023-09-15T15:37:25Z</time>
      </trkpt>
      <trkpt lat="47.90929" lon="-3.97764">
        <ele>4.2</ele>
        <time>2023-09-15T15:37:28Z</time>
      </trkpt>
      <trkpt lat="47.90928" lon="-3.97764">
        <ele>4.2</ele>
        <time>2023-09-15T15:37:37Z</time>
      </trkpt>
      <trkpt lat="47.90929" lon="-3.97765">
        <ele>4.2</ele>
        <time>2023-09-15T15:37:41Z</time>
      </trkpt>
      <trkpt lat="47.90929" lon="-3.97765">
        <ele>4</ele>
        <time>2023-09-15T15:37:44Z</time>
      </trkpt>
      <trkpt lat="47.90929" lon="-3.97764">
        <ele>4</ele>
        <time>2023-09-15T15:37:45Z</time>
      </trkpt>
      <trkpt lat="47.90928" lon="-3.97764">
        <ele>4</ele>
        <time>2023-09-15T15:37:50Z</time>
      </trkpt>
      <trkpt lat="47.90928" lon="-3.97763">
        <ele>4</ele>
        <time>2023-09-15T15:37:56Z</time>
      </trkpt>
      <trkpt lat="47.90929" lon="-3.97763">
        <ele>4</ele>
        <time>2023-09-15T15:37:58Z</time>
      </trkpt>
      <trkpt lat="47.90931" lon="-3.97763">
        <ele>4</ele>
        <time>2023-09-15T15:38:01Z</time>
      </trkpt>
      <trkpt lat="47.90933" lon="-3.97762">
        <ele>4</ele>
        <time>2023-09-15T15:38:08Z</time>
      </trkpt>
      <trkpt lat="47.90933" lon="-3.97767">
        <ele>4</ele>
        <time>2023-09-15T15:38:16Z</time>
      </trkpt>
      <trkpt lat="47.90933" lon="-3.97766">
        <ele>4</ele>
        <time>2023-09-15T15:38:18Z</time>
      </trkpt>
      <trkpt lat="47.90933" lon="-3.97766">
        <ele>4</ele>
        <time>2023-09-15T15:38:20Z</time>
      </trkpt>
      <trkpt lat="47.90933" lon="-3.97766">
        <ele>4</ele>
        <time>2023-09-15T15:38:31Z</time>
      </trkpt>
      <trkpt lat="47.90935" lon="-3.97764">
        <ele>4</ele>
        <time>2023-09-15T15:38:39Z</time>
      </trkpt>
      <trkpt lat="47.90934" lon="-3.97763">
        <ele>4</ele>
        <time>2023-09-15T15:38:44Z</time>
      </trkpt>
      <trkpt lat="47.90936" lon="-3.97762">
        <ele>4</ele>
        <time>2023-09-15T15:38:51Z</time>
      </trkpt>
      <trkpt lat="47.90937" lon="-3.97762">
        <ele>4</ele>
        <time>2023-09-15T15:38:59Z</time>
      </trkpt>
      <trkpt lat="47.90935" lon="-3.97763">
        <ele>4</ele>
        <time>2023-09-15T15:39:07Z</time>
      </trkpt>
      <trkpt lat="47.90936" lon="-3.97764">
        <ele>4</ele>
        <time>2023-09-15T15:39:09Z</time>
      </trkpt>
      <trkpt lat="47.90937" lon="-3.97764">
        <ele>4</ele>
        <time>2023-09-15T15:39:11Z</time>
      </trkpt>
      <trkpt lat="47.90936" lon="-3.97765">
        <ele>4</ele>
        <time>2023-09-15T15:39:17Z</time>
      </trkpt>
      <trkpt lat="47.90935" lon="-3.97763">
        <ele>4</ele>
        <time>2023-09-15T15:39:24Z</time>
      </trkpt>
      <trkpt lat="47.90931" lon="-3.9776">
        <ele>4</ele>
        <time>2023-09-15T15:39:28Z</time>
      </trkpt>
      <trkpt lat="47.9093" lon="-3.97759">
        <ele>3.6</ele>
        <time>2023-09-15T15:39:29Z</time>
      </trkpt>
      <trkpt lat="47.90929" lon="-3.97759">
        <ele>4</ele>
        <time>2023-09-15T15:39:35Z</time>
      </trkpt>
      <trkpt lat="47.90929" lon="-3.97759">
        <ele>3.8</ele>
        <time>2023-09-15T15:39:44Z</time>
      </trkpt>
      <trkpt lat="47.90929" lon="-3.97759">
        <ele>4</ele>
        <time>2023-09-15T15:39:51Z</time>
      </trkpt>
      <trkpt lat="47.90929" lon="-3.97759">
        <ele>4</ele>
        <time>2023-09-15T15:39:54Z</time>
      </trkpt>
      <trkpt lat="47.90931" lon="-3.97759">
        <ele>3.6</ele>
        <time>2023-09-15T15:40:00Z</time>
      </trkpt>
      <trkpt lat="47.90932" lon="-3.97759">
        <ele>3.6</ele>
        <time>2023-09-15T15:40:01Z</time>
      </trkpt>
      <trkpt lat="47.90934" lon="-3.9776">
        <ele>3.4</ele>
        <time>2023-09-15T15:40:04Z</time>
      </trkpt>
      <trkpt lat="47.90935" lon="-3.97761">
        <ele>3.4</ele>
        <time>2023-09-15T15:40:06Z</time>
      </trkpt>
      <trkpt lat="47.90935" lon="-3.97762">
        <ele>3.4</ele>
        <time>2023-09-15T15:40:10Z</time>
      </trkpt>
      <trkpt lat="47.90935" lon="-3.97763">
        <ele>3.4</ele>
        <time>2023-09-15T15:40:12Z</time>
      </trkpt>
      <trkpt lat="47.90936" lon="-3.97762">
        <ele>3.8</ele>
        <time>2023-09-15T15:40:18Z</time>
      </trkpt>
      <trkpt lat="47.90936" lon="-3.97762">
        <ele>3.6</ele>
        <time>2023-09-15T15:40:28Z</time>
      </trkpt>
      <trkpt lat="47.90937" lon="-3.9776">
        <ele>3.6</ele>
        <time>2023-09-15T15:40:37Z</time>
      </trkpt>
      <trkpt lat="47.90936" lon="-3.9776">
        <ele>3.6</ele>
        <time>2023-09-15T15:40:38Z</time>
      </trkpt>
      <trkpt lat="47.90936" lon="-3.9776">
        <ele>3.6</ele>
        <time>2023-09-15T15:40:39Z</time>
      </trkpt>
      <trkpt lat="47.90936" lon="-3.9776">
        <ele>3.6</ele>
        <time>2023-09-15T15:40:40Z</time>
      </trkpt>
      <trkpt lat="47.90936" lon="-3.9776">
        <ele>3.6</ele>
        <time>2023-09-15T15:40:47Z</time>
      </trkpt>
      <trkpt lat="47.90937" lon="-3.97761">
        <ele>3.6</ele>
        <time>2023-09-15T15:40:54Z</time>
      </trkpt>
      <trkpt lat="47.90938" lon="-3.97761">
        <ele>3.6</ele>
        <time>2023-09-15T15:41:04Z</time>
      </trkpt>
      <trkpt lat="47.90936" lon="-3.97762">
        <ele>3.6</ele>
        <time>2023-09-15T15:41:12Z</time>
      </trkpt>
      <trkpt lat="47.90935" lon="-3.97761">
        <ele>3.6</ele>
        <time>2023-09-15T15:41:17Z</time>
      </trkpt>
      <trkpt lat="47.90935" lon="-3.97762">
        <ele>3.6</ele>
        <time>2023-09-15T15:41:19Z</time>
      </trkpt>
      <trkpt lat="47.90936" lon="-3.97763">
        <ele>3.6</ele>
        <time>2023-09-15T15:41:21Z</time>
      </trkpt>
      <trkpt lat="47.90936" lon="-3.97764">
        <ele>3.6</ele>
        <time>2023-09-15T15:41:26Z</time>
      </trkpt>
      <trkpt lat="47.90935" lon="-3.97763">
        <ele>3.6</ele>
        <time>2023-09-15T15:41:29Z</time>
      </trkpt>
      <trkpt lat="47.90935" lon="-3.97762">
        <ele>3.6</ele>
        <time>2023-09-15T15:41:32Z</time>
      </trkpt>
      <trkpt lat="47.90935" lon="-3.97761">
        <ele>3.6</ele>
        <time>2023-09-15T15:41:34Z</time>
      </trkpt>
    </trkseg>
  </trk>
</gpx>